<?xml version="1.0" encoding="UTF-8" standalone="no" ?>
<gpx xmlns="http://www.topografix.com/GPX/1/1" xmlns:xsi="http://www.w3.org/2001/XMLSchema-instance" xsi:schemaLocation="http://www.topografix.com/GPX/1/1 http://www.topografix.com/GPX/1/1/gpx.xsd" version="1.1" creator="VisuGPX - https://www.visugpx.com">
  <metadata>
    <name>Pornichet 26/06/2022</name>
    <desc><![CDATA[Sortie dimanche 26 juin 2022]]></desc>
  </metadata>
  <trk>
    <name><![CDATA[Pornichet Cyclisme]]></name>
    <trkseg>
      <trkpt lat="47.26406" lon="-2.31526">
        <ele>18.799999237061</ele>
        <time>2022-06-26T06:56:08.000Z</time>
      </trkpt>
      <trkpt lat="47.26406" lon="-2.31539">
        <ele>18.799999237061</ele>
        <time>2022-06-26T06:56:11.000Z</time>
      </trkpt>
      <trkpt lat="47.26407" lon="-2.31547">
        <ele>18.799999237061</ele>
        <time>2022-06-26T06:56:12.000Z</time>
      </trkpt>
      <trkpt lat="47.26408" lon="-2.31572">
        <ele>18.799999237061</ele>
        <time>2022-06-26T06:56:15.000Z</time>
      </trkpt>
      <trkpt lat="47.26408" lon="-2.31618">
        <ele>18.799999237061</ele>
        <time>2022-06-26T06:56:22.000Z</time>
      </trkpt>
      <trkpt lat="47.26409" lon="-2.31639">
        <ele>18.799999237061</ele>
        <time>2022-06-26T06:56:25.000Z</time>
      </trkpt>
      <trkpt lat="47.26409" lon="-2.3165">
        <ele>18.799999237061</ele>
        <time>2022-06-26T06:56:27.000Z</time>
      </trkpt>
      <trkpt lat="47.26401" lon="-2.31662">
        <ele>18.799999237061</ele>
        <time>2022-06-26T06:56:31.000Z</time>
      </trkpt>
      <trkpt lat="47.26398" lon="-2.31665">
        <ele>18.799999237061</ele>
        <time>2022-06-26T06:56:32.000Z</time>
      </trkpt>
      <trkpt lat="47.26384" lon="-2.31671">
        <ele>18.799999237061</ele>
        <time>2022-06-26T06:56:35.000Z</time>
      </trkpt>
      <trkpt lat="47.26376" lon="-2.31675">
        <ele>18.200000762939</ele>
        <time>2022-06-26T06:56:37.000Z</time>
      </trkpt>
      <trkpt lat="47.26371" lon="-2.31677">
        <ele>17.799999237061</ele>
        <time>2022-06-26T06:56:38.000Z</time>
      </trkpt>
      <trkpt lat="47.26367" lon="-2.31679">
        <ele>17.39999961853</ele>
        <time>2022-06-26T06:56:39.000Z</time>
      </trkpt>
      <trkpt lat="47.26362" lon="-2.31682">
        <ele>17</ele>
        <time>2022-06-26T06:56:40.000Z</time>
      </trkpt>
      <trkpt lat="47.26358" lon="-2.31685">
        <ele>16.60000038147</ele>
        <time>2022-06-26T06:56:41.000Z</time>
      </trkpt>
      <trkpt lat="47.26352" lon="-2.31689">
        <ele>16.60000038147</ele>
        <time>2022-06-26T06:56:42.000Z</time>
      </trkpt>
      <trkpt lat="47.26346" lon="-2.31692">
        <ele>16.60000038147</ele>
        <time>2022-06-26T06:56:43.000Z</time>
      </trkpt>
      <trkpt lat="47.26328" lon="-2.31699">
        <ele>16.60000038147</ele>
        <time>2022-06-26T06:56:46.000Z</time>
      </trkpt>
      <trkpt lat="47.26323" lon="-2.31702">
        <ele>16.60000038147</ele>
        <time>2022-06-26T06:56:47.000Z</time>
      </trkpt>
      <trkpt lat="47.26313" lon="-2.31708">
        <ele>16.200000762939</ele>
        <time>2022-06-26T06:56:49.000Z</time>
      </trkpt>
      <trkpt lat="47.26309" lon="-2.31713">
        <ele>15.800000190735</ele>
        <time>2022-06-26T06:56:50.000Z</time>
      </trkpt>
      <trkpt lat="47.26306" lon="-2.3172">
        <ele>15.39999961853</ele>
        <time>2022-06-26T06:56:51.000Z</time>
      </trkpt>
      <trkpt lat="47.26307" lon="-2.31725">
        <ele>15</ele>
        <time>2022-06-26T06:56:52.000Z</time>
      </trkpt>
      <trkpt lat="47.26307" lon="-2.31731">
        <ele>14.60000038147</ele>
        <time>2022-06-26T06:56:53.000Z</time>
      </trkpt>
      <trkpt lat="47.26308" lon="-2.31738">
        <ele>14.60000038147</ele>
        <time>2022-06-26T06:56:54.000Z</time>
      </trkpt>
      <trkpt lat="47.26311" lon="-2.31766">
        <ele>14.60000038147</ele>
        <time>2022-06-26T06:56:59.000Z</time>
      </trkpt>
      <trkpt lat="47.2631" lon="-2.31801">
        <ele>14.60000038147</ele>
        <time>2022-06-26T06:57:05.000Z</time>
      </trkpt>
      <trkpt lat="47.26302" lon="-2.31855">
        <ele>14.60000038147</ele>
        <time>2022-06-26T06:57:13.000Z</time>
      </trkpt>
      <trkpt lat="47.26297" lon="-2.31878">
        <ele>14.60000038147</ele>
        <time>2022-06-26T06:57:17.000Z</time>
      </trkpt>
      <trkpt lat="47.26293" lon="-2.31882">
        <ele>14.60000038147</ele>
        <time>2022-06-26T06:57:18.000Z</time>
      </trkpt>
      <trkpt lat="47.26279" lon="-2.31896">
        <ele>14.60000038147</ele>
        <time>2022-06-26T06:57:22.000Z</time>
      </trkpt>
      <trkpt lat="47.26276" lon="-2.31901">
        <ele>14.60000038147</ele>
        <time>2022-06-26T06:57:23.000Z</time>
      </trkpt>
      <trkpt lat="47.26273" lon="-2.31905">
        <ele>14.60000038147</ele>
        <time>2022-06-26T06:57:24.000Z</time>
      </trkpt>
      <trkpt lat="47.26263" lon="-2.31924">
        <ele>14.199999809265</ele>
        <time>2022-06-26T06:57:28.000Z</time>
      </trkpt>
      <trkpt lat="47.26262" lon="-2.31928">
        <ele>13.800000190735</ele>
        <time>2022-06-26T06:57:29.000Z</time>
      </trkpt>
      <trkpt lat="47.26261" lon="-2.31933">
        <ele>13.39999961853</ele>
        <time>2022-06-26T06:57:30.000Z</time>
      </trkpt>
      <trkpt lat="47.26259" lon="-2.31937">
        <ele>13</ele>
        <time>2022-06-26T06:57:31.000Z</time>
      </trkpt>
      <trkpt lat="47.26258" lon="-2.31942">
        <ele>12.60000038147</ele>
        <time>2022-06-26T06:57:32.000Z</time>
      </trkpt>
      <trkpt lat="47.26249" lon="-2.3196">
        <ele>12.60000038147</ele>
        <time>2022-06-26T06:57:36.000Z</time>
      </trkpt>
      <trkpt lat="47.26242" lon="-2.31961">
        <ele>12.60000038147</ele>
        <time>2022-06-26T06:57:38.000Z</time>
      </trkpt>
      <trkpt lat="47.26238" lon="-2.31961">
        <ele>12.60000038147</ele>
        <time>2022-06-26T06:57:39.000Z</time>
      </trkpt>
      <trkpt lat="47.26234" lon="-2.31965">
        <ele>12.60000038147</ele>
        <time>2022-06-26T06:57:41.000Z</time>
      </trkpt>
      <trkpt lat="47.2623" lon="-2.3197">
        <ele>12.60000038147</ele>
        <time>2022-06-26T06:57:43.000Z</time>
      </trkpt>
      <trkpt lat="47.2621" lon="-2.31986">
        <ele>12.60000038147</ele>
        <time>2022-06-26T06:57:50.000Z</time>
      </trkpt>
      <trkpt lat="47.26202" lon="-2.31998">
        <ele>12.60000038147</ele>
        <time>2022-06-26T06:57:54.000Z</time>
      </trkpt>
      <trkpt lat="47.262" lon="-2.32001">
        <ele>12.60000038147</ele>
        <time>2022-06-26T06:57:55.000Z</time>
      </trkpt>
      <trkpt lat="47.26191" lon="-2.32003">
        <ele>12.60000038147</ele>
        <time>2022-06-26T06:57:59.000Z</time>
      </trkpt>
      <trkpt lat="47.26176" lon="-2.3201">
        <ele>12.60000038147</ele>
        <time>2022-06-26T06:58:04.000Z</time>
      </trkpt>
      <trkpt lat="47.26159" lon="-2.32027">
        <ele>12.60000038147</ele>
        <time>2022-06-26T06:58:09.000Z</time>
      </trkpt>
      <trkpt lat="47.26151" lon="-2.32044">
        <ele>12.60000038147</ele>
        <time>2022-06-26T06:58:12.000Z</time>
      </trkpt>
      <trkpt lat="47.26147" lon="-2.32057">
        <ele>12.60000038147</ele>
        <time>2022-06-26T06:58:14.000Z</time>
      </trkpt>
      <trkpt lat="47.26137" lon="-2.32095">
        <ele>12.60000038147</ele>
        <time>2022-06-26T06:58:20.000Z</time>
      </trkpt>
      <trkpt lat="47.26125" lon="-2.32144">
        <ele>12.60000038147</ele>
        <time>2022-06-26T06:58:28.000Z</time>
      </trkpt>
      <trkpt lat="47.26118" lon="-2.32166">
        <ele>12.60000038147</ele>
        <time>2022-06-26T06:58:32.000Z</time>
      </trkpt>
      <trkpt lat="47.26107" lon="-2.32186">
        <ele>12.60000038147</ele>
        <time>2022-06-26T06:58:36.000Z</time>
      </trkpt>
      <trkpt lat="47.26105" lon="-2.32191">
        <ele>12.60000038147</ele>
        <time>2022-06-26T06:58:37.000Z</time>
      </trkpt>
      <trkpt lat="47.26099" lon="-2.32208">
        <ele>12.60000038147</ele>
        <time>2022-06-26T06:58:40.000Z</time>
      </trkpt>
      <trkpt lat="47.26096" lon="-2.32213">
        <ele>12.60000038147</ele>
        <time>2022-06-26T06:58:41.000Z</time>
      </trkpt>
      <trkpt lat="47.2609" lon="-2.32223">
        <ele>12.60000038147</ele>
        <time>2022-06-26T06:58:43.000Z</time>
      </trkpt>
      <trkpt lat="47.26069" lon="-2.32251">
        <ele>12.60000038147</ele>
        <time>2022-06-26T06:58:50.000Z</time>
      </trkpt>
      <trkpt lat="47.26048" lon="-2.32274">
        <ele>12.60000038147</ele>
        <time>2022-06-26T06:58:56.000Z</time>
      </trkpt>
      <trkpt lat="47.26026" lon="-2.32298">
        <ele>12.60000038147</ele>
        <time>2022-06-26T06:59:02.000Z</time>
      </trkpt>
      <trkpt lat="47.26007" lon="-2.32322">
        <ele>12.60000038147</ele>
        <time>2022-06-26T06:59:08.000Z</time>
      </trkpt>
      <trkpt lat="47.25983" lon="-2.32355">
        <ele>12.60000038147</ele>
        <time>2022-06-26T06:59:15.000Z</time>
      </trkpt>
      <trkpt lat="47.25959" lon="-2.32384">
        <ele>12.60000038147</ele>
        <time>2022-06-26T06:59:22.000Z</time>
      </trkpt>
      <trkpt lat="47.2593" lon="-2.32424">
        <ele>12.60000038147</ele>
        <time>2022-06-26T06:59:31.000Z</time>
      </trkpt>
      <trkpt lat="47.25909" lon="-2.32452">
        <ele>12.60000038147</ele>
        <time>2022-06-26T06:59:38.000Z</time>
      </trkpt>
      <trkpt lat="47.25885" lon="-2.32475">
        <ele>12.60000038147</ele>
        <time>2022-06-26T06:59:46.000Z</time>
      </trkpt>
      <trkpt lat="47.25881" lon="-2.32476">
        <ele>12.60000038147</ele>
        <time>2022-06-26T06:59:47.000Z</time>
      </trkpt>
      <trkpt lat="47.25864" lon="-2.32479">
        <ele>12.60000038147</ele>
        <time>2022-06-26T06:59:51.000Z</time>
      </trkpt>
      <trkpt lat="47.25858" lon="-2.32478">
        <ele>12.60000038147</ele>
        <time>2022-06-26T06:59:52.000Z</time>
      </trkpt>
      <trkpt lat="47.25834" lon="-2.32473">
        <ele>12.60000038147</ele>
        <time>2022-06-26T06:59:57.000Z</time>
      </trkpt>
      <trkpt lat="47.2581" lon="-2.3246">
        <ele>12.60000038147</ele>
        <time>2022-06-26T07:00:03.000Z</time>
      </trkpt>
      <trkpt lat="47.25793" lon="-2.32459">
        <ele>12.60000038147</ele>
        <time>2022-06-26T07:00:08.000Z</time>
      </trkpt>
      <trkpt lat="47.25783" lon="-2.32459">
        <ele>12.60000038147</ele>
        <time>2022-06-26T07:00:11.000Z</time>
      </trkpt>
      <trkpt lat="47.25778" lon="-2.32451">
        <ele>12.60000038147</ele>
        <time>2022-06-26T07:00:13.000Z</time>
      </trkpt>
      <trkpt lat="47.25768" lon="-2.32432">
        <ele>12.60000038147</ele>
        <time>2022-06-26T07:00:17.000Z</time>
      </trkpt>
      <trkpt lat="47.25764" lon="-2.32428">
        <ele>12.60000038147</ele>
        <time>2022-06-26T07:00:18.000Z</time>
      </trkpt>
      <trkpt lat="47.25756" lon="-2.32425">
        <ele>12.60000038147</ele>
        <time>2022-06-26T07:00:20.000Z</time>
      </trkpt>
      <trkpt lat="47.25742" lon="-2.32423">
        <ele>12.60000038147</ele>
        <time>2022-06-26T07:00:23.000Z</time>
      </trkpt>
      <trkpt lat="47.25727" lon="-2.32422">
        <ele>12.60000038147</ele>
        <time>2022-06-26T07:00:26.000Z</time>
      </trkpt>
      <trkpt lat="47.25714" lon="-2.32423">
        <ele>12.60000038147</ele>
        <time>2022-06-26T07:00:29.000Z</time>
      </trkpt>
      <trkpt lat="47.25687" lon="-2.32422">
        <ele>12.60000038147</ele>
        <time>2022-06-26T07:00:35.000Z</time>
      </trkpt>
      <trkpt lat="47.25664" lon="-2.32424">
        <ele>12.60000038147</ele>
        <time>2022-06-26T07:00:41.000Z</time>
      </trkpt>
      <trkpt lat="47.25661" lon="-2.32439">
        <ele>12.60000038147</ele>
        <time>2022-06-26T07:00:44.000Z</time>
      </trkpt>
      <trkpt lat="47.25662" lon="-2.32445">
        <ele>12.60000038147</ele>
        <time>2022-06-26T07:00:45.000Z</time>
      </trkpt>
      <trkpt lat="47.25667" lon="-2.32469">
        <ele>12.60000038147</ele>
        <time>2022-06-26T07:00:49.000Z</time>
      </trkpt>
      <trkpt lat="47.25681" lon="-2.32511">
        <ele>13</ele>
        <time>2022-06-26T07:00:56.000Z</time>
      </trkpt>
      <trkpt lat="47.25683" lon="-2.32516">
        <ele>13.39999961853</ele>
        <time>2022-06-26T07:00:57.000Z</time>
      </trkpt>
      <trkpt lat="47.25684" lon="-2.32522">
        <ele>13.800000190735</ele>
        <time>2022-06-26T07:00:58.000Z</time>
      </trkpt>
      <trkpt lat="47.25686" lon="-2.32527">
        <ele>14.199999809265</ele>
        <time>2022-06-26T07:00:59.000Z</time>
      </trkpt>
      <trkpt lat="47.25687" lon="-2.32532">
        <ele>14.60000038147</ele>
        <time>2022-06-26T07:01:00.000Z</time>
      </trkpt>
      <trkpt lat="47.25697" lon="-2.32562">
        <ele>14.60000038147</ele>
        <time>2022-06-26T07:01:06.000Z</time>
      </trkpt>
      <trkpt lat="47.25707" lon="-2.32604">
        <ele>14.60000038147</ele>
        <time>2022-06-26T07:01:14.000Z</time>
      </trkpt>
      <trkpt lat="47.25707" lon="-2.32618">
        <ele>15</ele>
        <time>2022-06-26T07:01:17.000Z</time>
      </trkpt>
      <trkpt lat="47.25704" lon="-2.32622">
        <ele>15.39999961853</ele>
        <time>2022-06-26T07:01:18.000Z</time>
      </trkpt>
      <trkpt lat="47.25701" lon="-2.32625">
        <ele>15.800000190735</ele>
        <time>2022-06-26T07:01:19.000Z</time>
      </trkpt>
      <trkpt lat="47.25697" lon="-2.32626">
        <ele>16.200000762939</ele>
        <time>2022-06-26T07:01:20.000Z</time>
      </trkpt>
      <trkpt lat="47.25694" lon="-2.32628">
        <ele>16.60000038147</ele>
        <time>2022-06-26T07:01:21.000Z</time>
      </trkpt>
      <trkpt lat="47.25663" lon="-2.3264">
        <ele>16.60000038147</ele>
        <time>2022-06-26T07:01:30.000Z</time>
      </trkpt>
      <trkpt lat="47.25656" lon="-2.32643">
        <ele>17</ele>
        <time>2022-06-26T07:01:32.000Z</time>
      </trkpt>
      <trkpt lat="47.25653" lon="-2.32644">
        <ele>17.60000038147</ele>
        <time>2022-06-26T07:01:33.000Z</time>
      </trkpt>
      <trkpt lat="47.25649" lon="-2.32646">
        <ele>18</ele>
        <time>2022-06-26T07:01:34.000Z</time>
      </trkpt>
      <trkpt lat="47.25646" lon="-2.32647">
        <ele>18.39999961853</ele>
        <time>2022-06-26T07:01:35.000Z</time>
      </trkpt>
      <trkpt lat="47.25642" lon="-2.32649">
        <ele>18.799999237061</ele>
        <time>2022-06-26T07:01:36.000Z</time>
      </trkpt>
      <trkpt lat="47.25632" lon="-2.32653">
        <ele>18.799999237061</ele>
        <time>2022-06-26T07:01:39.000Z</time>
      </trkpt>
      <trkpt lat="47.25611" lon="-2.32664">
        <ele>18.799999237061</ele>
        <time>2022-06-26T07:01:45.000Z</time>
      </trkpt>
      <trkpt lat="47.25586" lon="-2.32676">
        <ele>18.799999237061</ele>
        <time>2022-06-26T07:01:52.000Z</time>
      </trkpt>
      <trkpt lat="47.2555" lon="-2.32692">
        <ele>18.799999237061</ele>
        <time>2022-06-26T07:02:01.000Z</time>
      </trkpt>
      <trkpt lat="47.25522" lon="-2.327">
        <ele>18.799999237061</ele>
        <time>2022-06-26T07:02:08.000Z</time>
      </trkpt>
      <trkpt lat="47.25501" lon="-2.32701">
        <ele>18.799999237061</ele>
        <time>2022-06-26T07:02:13.000Z</time>
      </trkpt>
      <trkpt lat="47.25492" lon="-2.32703">
        <ele>18.799999237061</ele>
        <time>2022-06-26T07:02:15.000Z</time>
      </trkpt>
      <trkpt lat="47.25481" lon="-2.32709">
        <ele>18.799999237061</ele>
        <time>2022-06-26T07:02:18.000Z</time>
      </trkpt>
      <trkpt lat="47.25474" lon="-2.32716">
        <ele>18.799999237061</ele>
        <time>2022-06-26T07:02:20.000Z</time>
      </trkpt>
      <trkpt lat="47.25448" lon="-2.32755">
        <ele>18.799999237061</ele>
        <time>2022-06-26T07:02:29.000Z</time>
      </trkpt>
      <trkpt lat="47.25439" lon="-2.32769">
        <ele>18.799999237061</ele>
        <time>2022-06-26T07:02:32.000Z</time>
      </trkpt>
      <trkpt lat="47.25433" lon="-2.32785">
        <ele>18.799999237061</ele>
        <time>2022-06-26T07:02:35.000Z</time>
      </trkpt>
      <trkpt lat="47.25426" lon="-2.32794">
        <ele>18.799999237061</ele>
        <time>2022-06-26T07:02:37.000Z</time>
      </trkpt>
      <trkpt lat="47.25415" lon="-2.32808">
        <ele>18.799999237061</ele>
        <time>2022-06-26T07:02:40.000Z</time>
      </trkpt>
      <trkpt lat="47.25382" lon="-2.32851">
        <ele>18.799999237061</ele>
        <time>2022-06-26T07:02:49.000Z</time>
      </trkpt>
      <trkpt lat="47.25375" lon="-2.32858">
        <ele>18.39999961853</ele>
        <time>2022-06-26T07:02:51.000Z</time>
      </trkpt>
      <trkpt lat="47.25371" lon="-2.32862">
        <ele>18</ele>
        <time>2022-06-26T07:02:52.000Z</time>
      </trkpt>
      <trkpt lat="47.25368" lon="-2.32865">
        <ele>17.60000038147</ele>
        <time>2022-06-26T07:02:53.000Z</time>
      </trkpt>
      <trkpt lat="47.25364" lon="-2.32869">
        <ele>17.200000762939</ele>
        <time>2022-06-26T07:02:54.000Z</time>
      </trkpt>
      <trkpt lat="47.2536" lon="-2.32872">
        <ele>16.799999237061</ele>
        <time>2022-06-26T07:02:55.000Z</time>
      </trkpt>
      <trkpt lat="47.25353" lon="-2.32879">
        <ele>16.799999237061</ele>
        <time>2022-06-26T07:02:57.000Z</time>
      </trkpt>
      <trkpt lat="47.25325" lon="-2.32908">
        <ele>16.799999237061</ele>
        <time>2022-06-26T07:03:05.000Z</time>
      </trkpt>
      <trkpt lat="47.2531" lon="-2.32923">
        <ele>16.799999237061</ele>
        <time>2022-06-26T07:03:10.000Z</time>
      </trkpt>
      <trkpt lat="47.25309" lon="-2.32927">
        <ele>16.799999237061</ele>
        <time>2022-06-26T07:03:11.000Z</time>
      </trkpt>
      <trkpt lat="47.25309" lon="-2.32939">
        <ele>16.799999237061</ele>
        <time>2022-06-26T07:03:13.000Z</time>
      </trkpt>
      <trkpt lat="47.25312" lon="-2.32956">
        <ele>16.799999237061</ele>
        <time>2022-06-26T07:03:16.000Z</time>
      </trkpt>
      <trkpt lat="47.25313" lon="-2.32962">
        <ele>16.799999237061</ele>
        <time>2022-06-26T07:03:17.000Z</time>
      </trkpt>
      <trkpt lat="47.25326" lon="-2.32997">
        <ele>16.799999237061</ele>
        <time>2022-06-26T07:03:23.000Z</time>
      </trkpt>
      <trkpt lat="47.25345" lon="-2.33046">
        <ele>16.799999237061</ele>
        <time>2022-06-26T07:03:32.000Z</time>
      </trkpt>
      <trkpt lat="47.25361" lon="-2.33084">
        <ele>16.799999237061</ele>
        <time>2022-06-26T07:03:40.000Z</time>
      </trkpt>
      <trkpt lat="47.25361" lon="-2.33093">
        <ele>16.799999237061</ele>
        <time>2022-06-26T07:03:44.000Z</time>
      </trkpt>
      <trkpt lat="47.25361" lon="-2.33093">
        <ele>16.39999961853</ele>
        <time>2022-06-26T07:03:45.000Z</time>
      </trkpt>
      <trkpt lat="47.25361" lon="-2.33093">
        <ele>15.800000190735</ele>
        <time>2022-06-26T07:03:46.000Z</time>
      </trkpt>
      <trkpt lat="47.25367" lon="-2.33105">
        <ele>12.60000038147</ele>
        <time>2022-06-26T07:12:03.000Z</time>
      </trkpt>
      <trkpt lat="47.25368" lon="-2.33107">
        <ele>12.60000038147</ele>
        <time>2022-06-26T07:12:04.000Z</time>
      </trkpt>
      <trkpt lat="47.25374" lon="-2.33121">
        <ele>12.60000038147</ele>
        <time>2022-06-26T07:12:11.000Z</time>
      </trkpt>
      <trkpt lat="47.25377" lon="-2.33135">
        <ele>12.60000038147</ele>
        <time>2022-06-26T07:12:17.000Z</time>
      </trkpt>
      <trkpt lat="47.25377" lon="-2.33137">
        <ele>12.60000038147</ele>
        <time>2022-06-26T07:12:18.000Z</time>
      </trkpt>
      <trkpt lat="47.25373" lon="-2.33147">
        <ele>12.60000038147</ele>
        <time>2022-06-26T07:12:21.000Z</time>
      </trkpt>
      <trkpt lat="47.25368" lon="-2.33156">
        <ele>12.199999809265</ele>
        <time>2022-06-26T07:12:24.000Z</time>
      </trkpt>
      <trkpt lat="47.25367" lon="-2.33159">
        <ele>11.800000190735</ele>
        <time>2022-06-26T07:12:25.000Z</time>
      </trkpt>
      <trkpt lat="47.25365" lon="-2.33162">
        <ele>11.39999961853</ele>
        <time>2022-06-26T07:12:26.000Z</time>
      </trkpt>
      <trkpt lat="47.25363" lon="-2.33165">
        <ele>11</ele>
        <time>2022-06-26T07:12:27.000Z</time>
      </trkpt>
      <trkpt lat="47.2536" lon="-2.33169">
        <ele>10.60000038147</ele>
        <time>2022-06-26T07:12:28.000Z</time>
      </trkpt>
      <trkpt lat="47.25346" lon="-2.3319">
        <ele>10.60000038147</ele>
        <time>2022-06-26T07:12:34.000Z</time>
      </trkpt>
      <trkpt lat="47.25331" lon="-2.33212">
        <ele>10.60000038147</ele>
        <time>2022-06-26T07:12:40.000Z</time>
      </trkpt>
      <trkpt lat="47.25318" lon="-2.33226">
        <ele>10.60000038147</ele>
        <time>2022-06-26T07:12:45.000Z</time>
      </trkpt>
      <trkpt lat="47.25315" lon="-2.33225">
        <ele>10.60000038147</ele>
        <time>2022-06-26T07:12:46.000Z</time>
      </trkpt>
      <trkpt lat="47.2531" lon="-2.33217">
        <ele>10.60000038147</ele>
        <time>2022-06-26T07:12:48.000Z</time>
      </trkpt>
      <trkpt lat="47.25291" lon="-2.33184">
        <ele>10.60000038147</ele>
        <time>2022-06-26T07:12:55.000Z</time>
      </trkpt>
      <trkpt lat="47.25272" lon="-2.33149">
        <ele>10.60000038147</ele>
        <time>2022-06-26T07:13:02.000Z</time>
      </trkpt>
      <trkpt lat="47.25252" lon="-2.33112">
        <ele>10.60000038147</ele>
        <time>2022-06-26T07:13:09.000Z</time>
      </trkpt>
      <trkpt lat="47.2523" lon="-2.33072">
        <ele>10.60000038147</ele>
        <time>2022-06-26T07:13:17.000Z</time>
      </trkpt>
      <trkpt lat="47.25227" lon="-2.33066">
        <ele>10.60000038147</ele>
        <time>2022-06-26T07:13:18.000Z</time>
      </trkpt>
      <trkpt lat="47.2521" lon="-2.33034">
        <ele>10.60000038147</ele>
        <time>2022-06-26T07:13:25.000Z</time>
      </trkpt>
      <trkpt lat="47.25204" lon="-2.33028">
        <ele>10.60000038147</ele>
        <time>2022-06-26T07:13:28.000Z</time>
      </trkpt>
      <trkpt lat="47.25201" lon="-2.33028">
        <ele>10.60000038147</ele>
        <time>2022-06-26T07:13:29.000Z</time>
      </trkpt>
      <trkpt lat="47.25188" lon="-2.33042">
        <ele>10.60000038147</ele>
        <time>2022-06-26T07:13:33.000Z</time>
      </trkpt>
      <trkpt lat="47.25168" lon="-2.33063">
        <ele>10.60000038147</ele>
        <time>2022-06-26T07:13:38.000Z</time>
      </trkpt>
      <trkpt lat="47.25159" lon="-2.33069">
        <ele>10.60000038147</ele>
        <time>2022-06-26T07:13:40.000Z</time>
      </trkpt>
      <trkpt lat="47.25133" lon="-2.33083">
        <ele>10.60000038147</ele>
        <time>2022-06-26T07:13:46.000Z</time>
      </trkpt>
      <trkpt lat="47.25118" lon="-2.33085">
        <ele>10.60000038147</ele>
        <time>2022-06-26T07:13:51.000Z</time>
      </trkpt>
      <trkpt lat="47.25113" lon="-2.33071">
        <ele>10.60000038147</ele>
        <time>2022-06-26T07:13:54.000Z</time>
      </trkpt>
      <trkpt lat="47.25119" lon="-2.33058">
        <ele>10.60000038147</ele>
        <time>2022-06-26T07:13:57.000Z</time>
      </trkpt>
      <trkpt lat="47.25135" lon="-2.33024">
        <ele>10.60000038147</ele>
        <time>2022-06-26T07:14:03.000Z</time>
      </trkpt>
      <trkpt lat="47.25136" lon="-2.33017">
        <ele>10.60000038147</ele>
        <time>2022-06-26T07:14:04.000Z</time>
      </trkpt>
      <trkpt lat="47.25136" lon="-2.33002">
        <ele>10.60000038147</ele>
        <time>2022-06-26T07:14:06.000Z</time>
      </trkpt>
      <trkpt lat="47.25127" lon="-2.32986">
        <ele>10.60000038147</ele>
        <time>2022-06-26T07:14:09.000Z</time>
      </trkpt>
      <trkpt lat="47.25102" lon="-2.32945">
        <ele>10.60000038147</ele>
        <time>2022-06-26T07:14:17.000Z</time>
      </trkpt>
      <trkpt lat="47.25091" lon="-2.32925">
        <ele>10.60000038147</ele>
        <time>2022-06-26T07:14:21.000Z</time>
      </trkpt>
      <trkpt lat="47.25089" lon="-2.32919">
        <ele>10.60000038147</ele>
        <time>2022-06-26T07:14:22.000Z</time>
      </trkpt>
      <trkpt lat="47.25086" lon="-2.32909">
        <ele>10.199999809265</ele>
        <time>2022-06-26T07:14:24.000Z</time>
      </trkpt>
      <trkpt lat="47.25085" lon="-2.32905">
        <ele>9.8000001907349</ele>
        <time>2022-06-26T07:14:25.000Z</time>
      </trkpt>
      <trkpt lat="47.25084" lon="-2.32902">
        <ele>9.3999996185303</ele>
        <time>2022-06-26T07:14:26.000Z</time>
      </trkpt>
      <trkpt lat="47.25083" lon="-2.329">
        <ele>9</ele>
        <time>2022-06-26T07:14:27.000Z</time>
      </trkpt>
      <trkpt lat="47.25082" lon="-2.32898">
        <ele>8.6000003814697</ele>
        <time>2022-06-26T07:14:28.000Z</time>
      </trkpt>
      <trkpt lat="47.25081" lon="-2.32891">
        <ele>8.6000003814697</ele>
        <time>2022-06-26T07:14:31.000Z</time>
      </trkpt>
      <trkpt lat="47.2508" lon="-2.32887">
        <ele>8.6000003814697</ele>
        <time>2022-06-26T07:14:32.000Z</time>
      </trkpt>
      <trkpt lat="47.25078" lon="-2.32868">
        <ele>8.6000003814697</ele>
        <time>2022-06-26T07:14:37.000Z</time>
      </trkpt>
      <trkpt lat="47.25075" lon="-2.32852">
        <ele>8.6000003814697</ele>
        <time>2022-06-26T07:14:42.000Z</time>
      </trkpt>
      <trkpt lat="47.25056" lon="-2.32823">
        <ele>8.6000003814697</ele>
        <time>2022-06-26T07:14:48.000Z</time>
      </trkpt>
      <trkpt lat="47.25053" lon="-2.32816">
        <ele>8.6000003814697</ele>
        <time>2022-06-26T07:14:49.000Z</time>
      </trkpt>
      <trkpt lat="47.25046" lon="-2.32798">
        <ele>8.6000003814697</ele>
        <time>2022-06-26T07:14:52.000Z</time>
      </trkpt>
      <trkpt lat="47.25045" lon="-2.32793">
        <ele>9</ele>
        <time>2022-06-26T07:14:53.000Z</time>
      </trkpt>
      <trkpt lat="47.25044" lon="-2.32788">
        <ele>9.3999996185303</ele>
        <time>2022-06-26T07:14:54.000Z</time>
      </trkpt>
      <trkpt lat="47.25043" lon="-2.32784">
        <ele>9.8000001907349</ele>
        <time>2022-06-26T07:14:55.000Z</time>
      </trkpt>
      <trkpt lat="47.25041" lon="-2.32779">
        <ele>10.199999809265</ele>
        <time>2022-06-26T07:14:56.000Z</time>
      </trkpt>
      <trkpt lat="47.25039" lon="-2.32775">
        <ele>10.800000190735</ele>
        <time>2022-06-26T07:14:57.000Z</time>
      </trkpt>
      <trkpt lat="47.25029" lon="-2.32756">
        <ele>10.800000190735</ele>
        <time>2022-06-26T07:15:02.000Z</time>
      </trkpt>
      <trkpt lat="47.25029" lon="-2.32748">
        <ele>10.800000190735</ele>
        <time>2022-06-26T07:15:04.000Z</time>
      </trkpt>
      <trkpt lat="47.25033" lon="-2.32741">
        <ele>10.800000190735</ele>
        <time>2022-06-26T07:15:06.000Z</time>
      </trkpt>
      <trkpt lat="47.25039" lon="-2.32735">
        <ele>10.800000190735</ele>
        <time>2022-06-26T07:15:08.000Z</time>
      </trkpt>
      <trkpt lat="47.25049" lon="-2.32725">
        <ele>10.800000190735</ele>
        <time>2022-06-26T07:15:11.000Z</time>
      </trkpt>
      <trkpt lat="47.25075" lon="-2.32702">
        <ele>10.800000190735</ele>
        <time>2022-06-26T07:15:18.000Z</time>
      </trkpt>
      <trkpt lat="47.25082" lon="-2.32693">
        <ele>10.800000190735</ele>
        <time>2022-06-26T07:15:20.000Z</time>
      </trkpt>
      <trkpt lat="47.25084" lon="-2.32681">
        <ele>10.800000190735</ele>
        <time>2022-06-26T07:15:22.000Z</time>
      </trkpt>
      <trkpt lat="47.25082" lon="-2.32676">
        <ele>11.199999809265</ele>
        <time>2022-06-26T07:15:23.000Z</time>
      </trkpt>
      <trkpt lat="47.2508" lon="-2.3267">
        <ele>11.60000038147</ele>
        <time>2022-06-26T07:15:24.000Z</time>
      </trkpt>
      <trkpt lat="47.25078" lon="-2.32665">
        <ele>12.39999961853</ele>
        <time>2022-06-26T07:15:25.000Z</time>
      </trkpt>
      <trkpt lat="47.25076" lon="-2.32658">
        <ele>12.800000190735</ele>
        <time>2022-06-26T07:15:26.000Z</time>
      </trkpt>
      <trkpt lat="47.25069" lon="-2.32641">
        <ele>12.800000190735</ele>
        <time>2022-06-26T07:15:29.000Z</time>
      </trkpt>
      <trkpt lat="47.25064" lon="-2.32631">
        <ele>12.800000190735</ele>
        <time>2022-06-26T07:15:31.000Z</time>
      </trkpt>
      <trkpt lat="47.2505" lon="-2.32606">
        <ele>12.800000190735</ele>
        <time>2022-06-26T07:15:36.000Z</time>
      </trkpt>
      <trkpt lat="47.25045" lon="-2.32596">
        <ele>12.800000190735</ele>
        <time>2022-06-26T07:15:38.000Z</time>
      </trkpt>
      <trkpt lat="47.25043" lon="-2.32591">
        <ele>12.800000190735</ele>
        <time>2022-06-26T07:15:39.000Z</time>
      </trkpt>
      <trkpt lat="47.25042" lon="-2.32585">
        <ele>13.199999809265</ele>
        <time>2022-06-26T07:15:40.000Z</time>
      </trkpt>
      <trkpt lat="47.25039" lon="-2.3258">
        <ele>13.60000038147</ele>
        <time>2022-06-26T07:15:41.000Z</time>
      </trkpt>
      <trkpt lat="47.25037" lon="-2.32576">
        <ele>14</ele>
        <time>2022-06-26T07:15:42.000Z</time>
      </trkpt>
      <trkpt lat="47.25035" lon="-2.32571">
        <ele>14.39999961853</ele>
        <time>2022-06-26T07:15:43.000Z</time>
      </trkpt>
      <trkpt lat="47.25033" lon="-2.32566">
        <ele>14.800000190735</ele>
        <time>2022-06-26T07:15:44.000Z</time>
      </trkpt>
      <trkpt lat="47.25029" lon="-2.32545">
        <ele>14.800000190735</ele>
        <time>2022-06-26T07:15:48.000Z</time>
      </trkpt>
      <trkpt lat="47.25029" lon="-2.32533">
        <ele>14.800000190735</ele>
        <time>2022-06-26T07:15:50.000Z</time>
      </trkpt>
      <trkpt lat="47.2503" lon="-2.32526">
        <ele>15.199999809265</ele>
        <time>2022-06-26T07:15:51.000Z</time>
      </trkpt>
      <trkpt lat="47.25032" lon="-2.32521">
        <ele>15.60000038147</ele>
        <time>2022-06-26T07:15:52.000Z</time>
      </trkpt>
      <trkpt lat="47.25034" lon="-2.32517">
        <ele>16</ele>
        <time>2022-06-26T07:15:53.000Z</time>
      </trkpt>
      <trkpt lat="47.25037" lon="-2.32514">
        <ele>16.39999961853</ele>
        <time>2022-06-26T07:15:54.000Z</time>
      </trkpt>
      <trkpt lat="47.2504" lon="-2.32511">
        <ele>16.799999237061</ele>
        <time>2022-06-26T07:15:55.000Z</time>
      </trkpt>
      <trkpt lat="47.25044" lon="-2.32508">
        <ele>16.799999237061</ele>
        <time>2022-06-26T07:15:56.000Z</time>
      </trkpt>
      <trkpt lat="47.25054" lon="-2.325">
        <ele>16.799999237061</ele>
        <time>2022-06-26T07:15:59.000Z</time>
      </trkpt>
      <trkpt lat="47.25072" lon="-2.32491">
        <ele>16.799999237061</ele>
        <time>2022-06-26T07:16:04.000Z</time>
      </trkpt>
      <trkpt lat="47.25077" lon="-2.3249">
        <ele>16.799999237061</ele>
        <time>2022-06-26T07:16:05.000Z</time>
      </trkpt>
      <trkpt lat="47.25081" lon="-2.32488">
        <ele>17.39999961853</ele>
        <time>2022-06-26T07:16:06.000Z</time>
      </trkpt>
      <trkpt lat="47.25085" lon="-2.32486">
        <ele>17.799999237061</ele>
        <time>2022-06-26T07:16:07.000Z</time>
      </trkpt>
      <trkpt lat="47.25089" lon="-2.32484">
        <ele>18.200000762939</ele>
        <time>2022-06-26T07:16:08.000Z</time>
      </trkpt>
      <trkpt lat="47.25093" lon="-2.32481">
        <ele>18.60000038147</ele>
        <time>2022-06-26T07:16:09.000Z</time>
      </trkpt>
      <trkpt lat="47.25097" lon="-2.32478">
        <ele>19</ele>
        <time>2022-06-26T07:16:10.000Z</time>
      </trkpt>
      <trkpt lat="47.251" lon="-2.32475">
        <ele>19</ele>
        <time>2022-06-26T07:16:11.000Z</time>
      </trkpt>
      <trkpt lat="47.25108" lon="-2.32451">
        <ele>19</ele>
        <time>2022-06-26T07:16:15.000Z</time>
      </trkpt>
      <trkpt lat="47.25107" lon="-2.32426">
        <ele>19</ele>
        <time>2022-06-26T07:16:19.000Z</time>
      </trkpt>
      <trkpt lat="47.25107" lon="-2.3242">
        <ele>19</ele>
        <time>2022-06-26T07:16:20.000Z</time>
      </trkpt>
      <trkpt lat="47.25108" lon="-2.32384">
        <ele>19.39999961853</ele>
        <time>2022-06-26T07:16:26.000Z</time>
      </trkpt>
      <trkpt lat="47.25108" lon="-2.32379">
        <ele>19.799999237061</ele>
        <time>2022-06-26T07:16:27.000Z</time>
      </trkpt>
      <trkpt lat="47.25108" lon="-2.32373">
        <ele>20.200000762939</ele>
        <time>2022-06-26T07:16:28.000Z</time>
      </trkpt>
      <trkpt lat="47.25108" lon="-2.32367">
        <ele>20.799999237061</ele>
        <time>2022-06-26T07:16:29.000Z</time>
      </trkpt>
      <trkpt lat="47.25109" lon="-2.32361">
        <ele>21.200000762939</ele>
        <time>2022-06-26T07:16:30.000Z</time>
      </trkpt>
      <trkpt lat="47.2511" lon="-2.32355">
        <ele>21.200000762939</ele>
        <time>2022-06-26T07:16:31.000Z</time>
      </trkpt>
      <trkpt lat="47.25112" lon="-2.32343">
        <ele>21.200000762939</ele>
        <time>2022-06-26T07:16:33.000Z</time>
      </trkpt>
      <trkpt lat="47.25122" lon="-2.32312">
        <ele>22</ele>
        <time>2022-06-26T07:16:39.000Z</time>
      </trkpt>
      <trkpt lat="47.25125" lon="-2.32308">
        <ele>22.39999961853</ele>
        <time>2022-06-26T07:16:40.000Z</time>
      </trkpt>
      <trkpt lat="47.25127" lon="-2.32304">
        <ele>23</ele>
        <time>2022-06-26T07:16:41.000Z</time>
      </trkpt>
      <trkpt lat="47.25129" lon="-2.32299">
        <ele>23.39999961853</ele>
        <time>2022-06-26T07:16:42.000Z</time>
      </trkpt>
      <trkpt lat="47.25132" lon="-2.32284">
        <ele>23.39999961853</ele>
        <time>2022-06-26T07:16:45.000Z</time>
      </trkpt>
      <trkpt lat="47.2513" lon="-2.32242">
        <ele>23.39999961853</ele>
        <time>2022-06-26T07:16:52.000Z</time>
      </trkpt>
      <trkpt lat="47.25127" lon="-2.32206">
        <ele>23.799999237061</ele>
        <time>2022-06-26T07:16:58.000Z</time>
      </trkpt>
      <trkpt lat="47.25127" lon="-2.322">
        <ele>24.200000762939</ele>
        <time>2022-06-26T07:16:59.000Z</time>
      </trkpt>
      <trkpt lat="47.25126" lon="-2.32193">
        <ele>24.60000038147</ele>
        <time>2022-06-26T07:17:00.000Z</time>
      </trkpt>
      <trkpt lat="47.25125" lon="-2.32186">
        <ele>25</ele>
        <time>2022-06-26T07:17:01.000Z</time>
      </trkpt>
      <trkpt lat="47.25125" lon="-2.3218">
        <ele>25.39999961853</ele>
        <time>2022-06-26T07:17:02.000Z</time>
      </trkpt>
      <trkpt lat="47.25121" lon="-2.3214">
        <ele>25.39999961853</ele>
        <time>2022-06-26T07:17:08.000Z</time>
      </trkpt>
      <trkpt lat="47.25118" lon="-2.32104">
        <ele>25.39999961853</ele>
        <time>2022-06-26T07:17:13.000Z</time>
      </trkpt>
      <trkpt lat="47.25117" lon="-2.32097">
        <ele>25.39999961853</ele>
        <time>2022-06-26T07:17:14.000Z</time>
      </trkpt>
      <trkpt lat="47.25113" lon="-2.32045">
        <ele>25.39999961853</ele>
        <time>2022-06-26T07:17:21.000Z</time>
      </trkpt>
      <trkpt lat="47.25109" lon="-2.31989">
        <ele>25.39999961853</ele>
        <time>2022-06-26T07:17:28.000Z</time>
      </trkpt>
      <trkpt lat="47.25105" lon="-2.31944">
        <ele>25.39999961853</ele>
        <time>2022-06-26T07:17:34.000Z</time>
      </trkpt>
      <trkpt lat="47.251" lon="-2.319">
        <ele>25.39999961853</ele>
        <time>2022-06-26T07:17:40.000Z</time>
      </trkpt>
      <trkpt lat="47.25093" lon="-2.31848">
        <ele>25.39999961853</ele>
        <time>2022-06-26T07:17:47.000Z</time>
      </trkpt>
      <trkpt lat="47.25081" lon="-2.31785">
        <ele>25.39999961853</ele>
        <time>2022-06-26T07:17:55.000Z</time>
      </trkpt>
      <trkpt lat="47.25071" lon="-2.31747">
        <ele>25.799999237061</ele>
        <time>2022-06-26T07:18:00.000Z</time>
      </trkpt>
      <trkpt lat="47.25069" lon="-2.31739">
        <ele>26.200000762939</ele>
        <time>2022-06-26T07:18:01.000Z</time>
      </trkpt>
      <trkpt lat="47.25067" lon="-2.31731">
        <ele>26.60000038147</ele>
        <time>2022-06-26T07:18:02.000Z</time>
      </trkpt>
      <trkpt lat="47.25065" lon="-2.31724">
        <ele>27</ele>
        <time>2022-06-26T07:18:03.000Z</time>
      </trkpt>
      <trkpt lat="47.25063" lon="-2.31716">
        <ele>27.39999961853</ele>
        <time>2022-06-26T07:18:04.000Z</time>
      </trkpt>
      <trkpt lat="47.2505" lon="-2.31666">
        <ele>27.39999961853</ele>
        <time>2022-06-26T07:18:11.000Z</time>
      </trkpt>
      <trkpt lat="47.25044" lon="-2.31651">
        <ele>27.39999961853</ele>
        <time>2022-06-26T07:18:15.000Z</time>
      </trkpt>
      <trkpt lat="47.25031" lon="-2.31629">
        <ele>27.39999961853</ele>
        <time>2022-06-26T07:18:21.000Z</time>
      </trkpt>
      <trkpt lat="47.25004" lon="-2.31603">
        <ele>27.39999961853</ele>
        <time>2022-06-26T07:18:29.000Z</time>
      </trkpt>
      <trkpt lat="47.24977" lon="-2.31571">
        <ele>27.39999961853</ele>
        <time>2022-06-26T07:18:37.000Z</time>
      </trkpt>
      <trkpt lat="47.24974" lon="-2.31566">
        <ele>27.39999961853</ele>
        <time>2022-06-26T07:18:38.000Z</time>
      </trkpt>
      <trkpt lat="47.24968" lon="-2.31548">
        <ele>27.39999961853</ele>
        <time>2022-06-26T07:18:41.000Z</time>
      </trkpt>
      <trkpt lat="47.24965" lon="-2.31535">
        <ele>27.39999961853</ele>
        <time>2022-06-26T07:18:43.000Z</time>
      </trkpt>
      <trkpt lat="47.24961" lon="-2.31502">
        <ele>27.39999961853</ele>
        <time>2022-06-26T07:18:48.000Z</time>
      </trkpt>
      <trkpt lat="47.24959" lon="-2.31455">
        <ele>27.39999961853</ele>
        <time>2022-06-26T07:18:55.000Z</time>
      </trkpt>
      <trkpt lat="47.24957" lon="-2.31434">
        <ele>27.799999237061</ele>
        <time>2022-06-26T07:18:58.000Z</time>
      </trkpt>
      <trkpt lat="47.24956" lon="-2.31428">
        <ele>28.200000762939</ele>
        <time>2022-06-26T07:18:59.000Z</time>
      </trkpt>
      <trkpt lat="47.24955" lon="-2.31421">
        <ele>28.799999237061</ele>
        <time>2022-06-26T07:19:00.000Z</time>
      </trkpt>
      <trkpt lat="47.24954" lon="-2.31414">
        <ele>29.200000762939</ele>
        <time>2022-06-26T07:19:01.000Z</time>
      </trkpt>
      <trkpt lat="47.24952" lon="-2.31408">
        <ele>29.60000038147</ele>
        <time>2022-06-26T07:19:02.000Z</time>
      </trkpt>
      <trkpt lat="47.24939" lon="-2.31363">
        <ele>29.60000038147</ele>
        <time>2022-06-26T07:19:09.000Z</time>
      </trkpt>
      <trkpt lat="47.24927" lon="-2.31321">
        <ele>29.60000038147</ele>
        <time>2022-06-26T07:19:16.000Z</time>
      </trkpt>
      <trkpt lat="47.2492" lon="-2.31298">
        <ele>29.60000038147</ele>
        <time>2022-06-26T07:19:21.000Z</time>
      </trkpt>
      <trkpt lat="47.24913" lon="-2.31272">
        <ele>29.60000038147</ele>
        <time>2022-06-26T07:19:26.000Z</time>
      </trkpt>
      <trkpt lat="47.24901" lon="-2.31226">
        <ele>29.60000038147</ele>
        <time>2022-06-26T07:19:33.000Z</time>
      </trkpt>
      <trkpt lat="47.24885" lon="-2.3117">
        <ele>29.60000038147</ele>
        <time>2022-06-26T07:19:41.000Z</time>
      </trkpt>
      <trkpt lat="47.24882" lon="-2.31157">
        <ele>29.60000038147</ele>
        <time>2022-06-26T07:19:43.000Z</time>
      </trkpt>
      <trkpt lat="47.24874" lon="-2.31129">
        <ele>29.60000038147</ele>
        <time>2022-06-26T07:19:47.000Z</time>
      </trkpt>
      <trkpt lat="47.24859" lon="-2.31081">
        <ele>29.60000038147</ele>
        <time>2022-06-26T07:19:54.000Z</time>
      </trkpt>
      <trkpt lat="47.24857" lon="-2.31074">
        <ele>29.60000038147</ele>
        <time>2022-06-26T07:19:55.000Z</time>
      </trkpt>
      <trkpt lat="47.24839" lon="-2.31028">
        <ele>29.60000038147</ele>
        <time>2022-06-26T07:20:02.000Z</time>
      </trkpt>
      <trkpt lat="47.24822" lon="-2.30986">
        <ele>29.60000038147</ele>
        <time>2022-06-26T07:20:09.000Z</time>
      </trkpt>
      <trkpt lat="47.24811" lon="-2.30967">
        <ele>29.60000038147</ele>
        <time>2022-06-26T07:20:14.000Z</time>
      </trkpt>
      <trkpt lat="47.24807" lon="-2.30968">
        <ele>29.60000038147</ele>
        <time>2022-06-26T07:20:15.000Z</time>
      </trkpt>
      <trkpt lat="47.24795" lon="-2.30974">
        <ele>29.60000038147</ele>
        <time>2022-06-26T07:20:18.000Z</time>
      </trkpt>
      <trkpt lat="47.24784" lon="-2.3098">
        <ele>29.60000038147</ele>
        <time>2022-06-26T07:20:20.000Z</time>
      </trkpt>
      <trkpt lat="47.24748" lon="-2.30997">
        <ele>29.60000038147</ele>
        <time>2022-06-26T07:20:26.000Z</time>
      </trkpt>
      <trkpt lat="47.24743" lon="-2.31">
        <ele>29.200000762939</ele>
        <time>2022-06-26T07:20:27.000Z</time>
      </trkpt>
      <trkpt lat="47.24737" lon="-2.31004">
        <ele>28.60000038147</ele>
        <time>2022-06-26T07:20:28.000Z</time>
      </trkpt>
      <trkpt lat="47.24732" lon="-2.31009">
        <ele>28.200000762939</ele>
        <time>2022-06-26T07:20:29.000Z</time>
      </trkpt>
      <trkpt lat="47.24727" lon="-2.31015">
        <ele>27.799999237061</ele>
        <time>2022-06-26T07:20:30.000Z</time>
      </trkpt>
      <trkpt lat="47.24721" lon="-2.31023">
        <ele>27.39999961853</ele>
        <time>2022-06-26T07:20:31.000Z</time>
      </trkpt>
      <trkpt lat="47.24707" lon="-2.31047">
        <ele>27.39999961853</ele>
        <time>2022-06-26T07:20:34.000Z</time>
      </trkpt>
      <trkpt lat="47.2469" lon="-2.31076">
        <ele>27</ele>
        <time>2022-06-26T07:20:38.000Z</time>
      </trkpt>
      <trkpt lat="47.24686" lon="-2.31083">
        <ele>26.60000038147</ele>
        <time>2022-06-26T07:20:39.000Z</time>
      </trkpt>
      <trkpt lat="47.24683" lon="-2.3109">
        <ele>26.200000762939</ele>
        <time>2022-06-26T07:20:40.000Z</time>
      </trkpt>
      <trkpt lat="47.2468" lon="-2.31097">
        <ele>25.799999237061</ele>
        <time>2022-06-26T07:20:41.000Z</time>
      </trkpt>
      <trkpt lat="47.24677" lon="-2.31103">
        <ele>25.39999961853</ele>
        <time>2022-06-26T07:20:42.000Z</time>
      </trkpt>
      <trkpt lat="47.24662" lon="-2.31135">
        <ele>25.39999961853</ele>
        <time>2022-06-26T07:20:47.000Z</time>
      </trkpt>
      <trkpt lat="47.24655" lon="-2.31147">
        <ele>25.39999961853</ele>
        <time>2022-06-26T07:20:49.000Z</time>
      </trkpt>
      <trkpt lat="47.24639" lon="-2.31167">
        <ele>25.39999961853</ele>
        <time>2022-06-26T07:20:53.000Z</time>
      </trkpt>
      <trkpt lat="47.2461" lon="-2.31197">
        <ele>25.39999961853</ele>
        <time>2022-06-26T07:21:00.000Z</time>
      </trkpt>
      <trkpt lat="47.2458" lon="-2.31229">
        <ele>25.39999961853</ele>
        <time>2022-06-26T07:21:08.000Z</time>
      </trkpt>
      <trkpt lat="47.24556" lon="-2.31256">
        <ele>25.39999961853</ele>
        <time>2022-06-26T07:21:14.000Z</time>
      </trkpt>
      <trkpt lat="47.24528" lon="-2.31283">
        <ele>25.39999961853</ele>
        <time>2022-06-26T07:21:20.000Z</time>
      </trkpt>
      <trkpt lat="47.24507" lon="-2.31302">
        <ele>24.799999237061</ele>
        <time>2022-06-26T07:21:24.000Z</time>
      </trkpt>
      <trkpt lat="47.24502" lon="-2.31307">
        <ele>24.39999961853</ele>
        <time>2022-06-26T07:21:25.000Z</time>
      </trkpt>
      <trkpt lat="47.24497" lon="-2.3131">
        <ele>24</ele>
        <time>2022-06-26T07:21:26.000Z</time>
      </trkpt>
      <trkpt lat="47.24493" lon="-2.31312">
        <ele>23.39999961853</ele>
        <time>2022-06-26T07:21:27.000Z</time>
      </trkpt>
      <trkpt lat="47.24489" lon="-2.31312">
        <ele>23</ele>
        <time>2022-06-26T07:21:28.000Z</time>
      </trkpt>
      <trkpt lat="47.24482" lon="-2.31306">
        <ele>22.60000038147</ele>
        <time>2022-06-26T07:21:30.000Z</time>
      </trkpt>
      <trkpt lat="47.24479" lon="-2.313">
        <ele>22.200000762939</ele>
        <time>2022-06-26T07:21:31.000Z</time>
      </trkpt>
      <trkpt lat="47.24476" lon="-2.31293">
        <ele>21.60000038147</ele>
        <time>2022-06-26T07:21:32.000Z</time>
      </trkpt>
      <trkpt lat="47.24472" lon="-2.31286">
        <ele>21.200000762939</ele>
        <time>2022-06-26T07:21:33.000Z</time>
      </trkpt>
      <trkpt lat="47.24469" lon="-2.31278">
        <ele>20.799999237061</ele>
        <time>2022-06-26T07:21:34.000Z</time>
      </trkpt>
      <trkpt lat="47.24459" lon="-2.31256">
        <ele>20.799999237061</ele>
        <time>2022-06-26T07:21:37.000Z</time>
      </trkpt>
      <trkpt lat="47.24454" lon="-2.31242">
        <ele>20.799999237061</ele>
        <time>2022-06-26T07:21:39.000Z</time>
      </trkpt>
      <trkpt lat="47.24447" lon="-2.31227">
        <ele>20.39999961853</ele>
        <time>2022-06-26T07:21:42.000Z</time>
      </trkpt>
      <trkpt lat="47.24444" lon="-2.31223">
        <ele>20</ele>
        <time>2022-06-26T07:21:43.000Z</time>
      </trkpt>
      <trkpt lat="47.24441" lon="-2.31221">
        <ele>19.60000038147</ele>
        <time>2022-06-26T07:21:44.000Z</time>
      </trkpt>
      <trkpt lat="47.24438" lon="-2.3122">
        <ele>19.200000762939</ele>
        <time>2022-06-26T07:21:45.000Z</time>
      </trkpt>
      <trkpt lat="47.24434" lon="-2.3122">
        <ele>18.60000038147</ele>
        <time>2022-06-26T07:21:46.000Z</time>
      </trkpt>
      <trkpt lat="47.2443" lon="-2.31221">
        <ele>18</ele>
        <time>2022-06-26T07:21:47.000Z</time>
      </trkpt>
      <trkpt lat="47.24426" lon="-2.31221">
        <ele>17.60000038147</ele>
        <time>2022-06-26T07:21:48.000Z</time>
      </trkpt>
      <trkpt lat="47.24423" lon="-2.31218">
        <ele>17</ele>
        <time>2022-06-26T07:21:49.000Z</time>
      </trkpt>
      <trkpt lat="47.24421" lon="-2.31214">
        <ele>16.60000038147</ele>
        <time>2022-06-26T07:21:50.000Z</time>
      </trkpt>
      <trkpt lat="47.24418" lon="-2.31205">
        <ele>16.60000038147</ele>
        <time>2022-06-26T07:21:52.000Z</time>
      </trkpt>
      <trkpt lat="47.24414" lon="-2.31193">
        <ele>16.60000038147</ele>
        <time>2022-06-26T07:21:55.000Z</time>
      </trkpt>
      <trkpt lat="47.24408" lon="-2.31187">
        <ele>17</ele>
        <time>2022-06-26T07:21:59.000Z</time>
      </trkpt>
      <trkpt lat="47.24405" lon="-2.31184">
        <ele>17.799999237061</ele>
        <time>2022-06-26T07:22:00.000Z</time>
      </trkpt>
      <trkpt lat="47.24402" lon="-2.31181">
        <ele>18.200000762939</ele>
        <time>2022-06-26T07:22:01.000Z</time>
      </trkpt>
      <trkpt lat="47.24399" lon="-2.31177">
        <ele>18.60000038147</ele>
        <time>2022-06-26T07:22:02.000Z</time>
      </trkpt>
      <trkpt lat="47.24396" lon="-2.31172">
        <ele>18.60000038147</ele>
        <time>2022-06-26T07:22:03.000Z</time>
      </trkpt>
      <trkpt lat="47.2438" lon="-2.31155">
        <ele>18.60000038147</ele>
        <time>2022-06-26T07:22:08.000Z</time>
      </trkpt>
      <trkpt lat="47.24361" lon="-2.3112">
        <ele>18.60000038147</ele>
        <time>2022-06-26T07:22:15.000Z</time>
      </trkpt>
      <trkpt lat="47.24358" lon="-2.31114">
        <ele>18.60000038147</ele>
        <time>2022-06-26T07:22:16.000Z</time>
      </trkpt>
      <trkpt lat="47.24348" lon="-2.31087">
        <ele>18.60000038147</ele>
        <time>2022-06-26T07:22:21.000Z</time>
      </trkpt>
      <trkpt lat="47.24338" lon="-2.31059">
        <ele>18.60000038147</ele>
        <time>2022-06-26T07:22:27.000Z</time>
      </trkpt>
      <trkpt lat="47.24331" lon="-2.31044">
        <ele>18.60000038147</ele>
        <time>2022-06-26T07:22:31.000Z</time>
      </trkpt>
      <trkpt lat="47.24324" lon="-2.3104">
        <ele>18.60000038147</ele>
        <time>2022-06-26T07:22:33.000Z</time>
      </trkpt>
      <trkpt lat="47.24302" lon="-2.31036">
        <ele>18.60000038147</ele>
        <time>2022-06-26T07:22:37.000Z</time>
      </trkpt>
      <trkpt lat="47.24297" lon="-2.31036">
        <ele>18.60000038147</ele>
        <time>2022-06-26T07:22:38.000Z</time>
      </trkpt>
      <trkpt lat="47.24281" lon="-2.31029">
        <ele>18.200000762939</ele>
        <time>2022-06-26T07:22:42.000Z</time>
      </trkpt>
      <trkpt lat="47.24279" lon="-2.31024">
        <ele>17.799999237061</ele>
        <time>2022-06-26T07:22:43.000Z</time>
      </trkpt>
      <trkpt lat="47.24279" lon="-2.31018">
        <ele>17.39999961853</ele>
        <time>2022-06-26T07:22:44.000Z</time>
      </trkpt>
      <trkpt lat="47.2428" lon="-2.31012">
        <ele>17</ele>
        <time>2022-06-26T07:22:45.000Z</time>
      </trkpt>
      <trkpt lat="47.24281" lon="-2.31006">
        <ele>16.39999961853</ele>
        <time>2022-06-26T07:22:46.000Z</time>
      </trkpt>
      <trkpt lat="47.24281" lon="-2.30999">
        <ele>16.39999961853</ele>
        <time>2022-06-26T07:22:47.000Z</time>
      </trkpt>
      <trkpt lat="47.24285" lon="-2.30974">
        <ele>17</ele>
        <time>2022-06-26T07:22:51.000Z</time>
      </trkpt>
      <trkpt lat="47.24286" lon="-2.30969">
        <ele>17.39999961853</ele>
        <time>2022-06-26T07:22:52.000Z</time>
      </trkpt>
      <trkpt lat="47.24287" lon="-2.30964">
        <ele>18</ele>
        <time>2022-06-26T07:22:53.000Z</time>
      </trkpt>
      <trkpt lat="47.24288" lon="-2.30958">
        <ele>18.39999961853</ele>
        <time>2022-06-26T07:22:54.000Z</time>
      </trkpt>
      <trkpt lat="47.24288" lon="-2.30953">
        <ele>19</ele>
        <time>2022-06-26T07:22:55.000Z</time>
      </trkpt>
      <trkpt lat="47.24289" lon="-2.30944">
        <ele>19</ele>
        <time>2022-06-26T07:22:57.000Z</time>
      </trkpt>
      <trkpt lat="47.2429" lon="-2.3094">
        <ele>19.39999961853</ele>
        <time>2022-06-26T07:22:58.000Z</time>
      </trkpt>
      <trkpt lat="47.2429" lon="-2.30935">
        <ele>19.799999237061</ele>
        <time>2022-06-26T07:22:59.000Z</time>
      </trkpt>
      <trkpt lat="47.2429" lon="-2.3093">
        <ele>20.200000762939</ele>
        <time>2022-06-26T07:23:00.000Z</time>
      </trkpt>
      <trkpt lat="47.2429" lon="-2.30924">
        <ele>20.60000038147</ele>
        <time>2022-06-26T07:23:01.000Z</time>
      </trkpt>
      <trkpt lat="47.24291" lon="-2.30918">
        <ele>21.200000762939</ele>
        <time>2022-06-26T07:23:02.000Z</time>
      </trkpt>
      <trkpt lat="47.24289" lon="-2.30907">
        <ele>21.200000762939</ele>
        <time>2022-06-26T07:23:04.000Z</time>
      </trkpt>
      <trkpt lat="47.24285" lon="-2.30883">
        <ele>21.60000038147</ele>
        <time>2022-06-26T07:23:08.000Z</time>
      </trkpt>
      <trkpt lat="47.24284" lon="-2.30877">
        <ele>22</ele>
        <time>2022-06-26T07:23:09.000Z</time>
      </trkpt>
      <trkpt lat="47.24284" lon="-2.30871">
        <ele>22.39999961853</ele>
        <time>2022-06-26T07:23:10.000Z</time>
      </trkpt>
      <trkpt lat="47.24284" lon="-2.30865">
        <ele>22.799999237061</ele>
        <time>2022-06-26T07:23:11.000Z</time>
      </trkpt>
      <trkpt lat="47.24284" lon="-2.30858">
        <ele>23.200000762939</ele>
        <time>2022-06-26T07:23:12.000Z</time>
      </trkpt>
      <trkpt lat="47.24287" lon="-2.30835">
        <ele>23.200000762939</ele>
        <time>2022-06-26T07:23:16.000Z</time>
      </trkpt>
      <trkpt lat="47.24298" lon="-2.30816">
        <ele>23.200000762939</ele>
        <time>2022-06-26T07:23:21.000Z</time>
      </trkpt>
      <trkpt lat="47.24309" lon="-2.30808">
        <ele>23.60000038147</ele>
        <time>2022-06-26T07:23:24.000Z</time>
      </trkpt>
      <trkpt lat="47.24313" lon="-2.30806">
        <ele>24</ele>
        <time>2022-06-26T07:23:25.000Z</time>
      </trkpt>
      <trkpt lat="47.24316" lon="-2.30806">
        <ele>24.39999961853</ele>
        <time>2022-06-26T07:23:26.000Z</time>
      </trkpt>
      <trkpt lat="47.2432" lon="-2.30805">
        <ele>24.799999237061</ele>
        <time>2022-06-26T07:23:27.000Z</time>
      </trkpt>
      <trkpt lat="47.24324" lon="-2.30803">
        <ele>25.39999961853</ele>
        <time>2022-06-26T07:23:28.000Z</time>
      </trkpt>
      <trkpt lat="47.24345" lon="-2.30796">
        <ele>25.39999961853</ele>
        <time>2022-06-26T07:23:33.000Z</time>
      </trkpt>
      <trkpt lat="47.24364" lon="-2.30785">
        <ele>25.799999237061</ele>
        <time>2022-06-26T07:23:39.000Z</time>
      </trkpt>
      <trkpt lat="47.24367" lon="-2.30782">
        <ele>26.200000762939</ele>
        <time>2022-06-26T07:23:40.000Z</time>
      </trkpt>
      <trkpt lat="47.2437" lon="-2.30778">
        <ele>26.60000038147</ele>
        <time>2022-06-26T07:23:41.000Z</time>
      </trkpt>
      <trkpt lat="47.24372" lon="-2.30774">
        <ele>27</ele>
        <time>2022-06-26T07:23:42.000Z</time>
      </trkpt>
      <trkpt lat="47.24375" lon="-2.3077">
        <ele>27.39999961853</ele>
        <time>2022-06-26T07:23:43.000Z</time>
      </trkpt>
      <trkpt lat="47.2438" lon="-2.30763">
        <ele>27.39999961853</ele>
        <time>2022-06-26T07:23:45.000Z</time>
      </trkpt>
      <trkpt lat="47.24387" lon="-2.30756">
        <ele>28</ele>
        <time>2022-06-26T07:23:48.000Z</time>
      </trkpt>
      <trkpt lat="47.2439" lon="-2.30754">
        <ele>28.39999961853</ele>
        <time>2022-06-26T07:23:49.000Z</time>
      </trkpt>
      <trkpt lat="47.24391" lon="-2.30751">
        <ele>28.799999237061</ele>
        <time>2022-06-26T07:23:50.000Z</time>
      </trkpt>
      <trkpt lat="47.24392" lon="-2.30746">
        <ele>29.39999961853</ele>
        <time>2022-06-26T07:23:51.000Z</time>
      </trkpt>
      <trkpt lat="47.24393" lon="-2.30741">
        <ele>29.799999237061</ele>
        <time>2022-06-26T07:23:52.000Z</time>
      </trkpt>
      <trkpt lat="47.24395" lon="-2.30731">
        <ele>29.799999237061</ele>
        <time>2022-06-26T07:23:54.000Z</time>
      </trkpt>
      <trkpt lat="47.24401" lon="-2.30692">
        <ele>29.799999237061</ele>
        <time>2022-06-26T07:24:01.000Z</time>
      </trkpt>
      <trkpt lat="47.2441" lon="-2.30662">
        <ele>29.799999237061</ele>
        <time>2022-06-26T07:24:07.000Z</time>
      </trkpt>
      <trkpt lat="47.24419" lon="-2.30633">
        <ele>29.799999237061</ele>
        <time>2022-06-26T07:24:13.000Z</time>
      </trkpt>
      <trkpt lat="47.24427" lon="-2.3062">
        <ele>29.799999237061</ele>
        <time>2022-06-26T07:24:16.000Z</time>
      </trkpt>
      <trkpt lat="47.24435" lon="-2.30609">
        <ele>29.799999237061</ele>
        <time>2022-06-26T07:24:19.000Z</time>
      </trkpt>
      <trkpt lat="47.24456" lon="-2.30577">
        <ele>29.799999237061</ele>
        <time>2022-06-26T07:24:25.000Z</time>
      </trkpt>
      <trkpt lat="47.24462" lon="-2.30562">
        <ele>29.39999961853</ele>
        <time>2022-06-26T07:24:27.000Z</time>
      </trkpt>
      <trkpt lat="47.24463" lon="-2.30556">
        <ele>29</ele>
        <time>2022-06-26T07:24:28.000Z</time>
      </trkpt>
      <trkpt lat="47.24463" lon="-2.30551">
        <ele>28.200000762939</ele>
        <time>2022-06-26T07:24:29.000Z</time>
      </trkpt>
      <trkpt lat="47.24462" lon="-2.30548">
        <ele>27.799999237061</ele>
        <time>2022-06-26T07:24:30.000Z</time>
      </trkpt>
      <trkpt lat="47.24457" lon="-2.3055">
        <ele>27.799999237061</ele>
        <time>2022-06-26T07:24:32.000Z</time>
      </trkpt>
      <trkpt lat="47.2445" lon="-2.30557">
        <ele>27.200000762939</ele>
        <time>2022-06-26T07:24:34.000Z</time>
      </trkpt>
      <trkpt lat="47.24447" lon="-2.3056">
        <ele>26.799999237061</ele>
        <time>2022-06-26T07:24:35.000Z</time>
      </trkpt>
      <trkpt lat="47.24443" lon="-2.30564">
        <ele>26.39999961853</ele>
        <time>2022-06-26T07:24:36.000Z</time>
      </trkpt>
      <trkpt lat="47.24438" lon="-2.30568">
        <ele>26</ele>
        <time>2022-06-26T07:24:37.000Z</time>
      </trkpt>
      <trkpt lat="47.24433" lon="-2.30572">
        <ele>25.60000038147</ele>
        <time>2022-06-26T07:24:38.000Z</time>
      </trkpt>
      <trkpt lat="47.24422" lon="-2.30578">
        <ele>25.60000038147</ele>
        <time>2022-06-26T07:24:40.000Z</time>
      </trkpt>
      <trkpt lat="47.24417" lon="-2.3058">
        <ele>25.60000038147</ele>
        <time>2022-06-26T07:24:41.000Z</time>
      </trkpt>
      <trkpt lat="47.24411" lon="-2.30582">
        <ele>25.200000762939</ele>
        <time>2022-06-26T07:24:42.000Z</time>
      </trkpt>
      <trkpt lat="47.24405" lon="-2.30584">
        <ele>24.799999237061</ele>
        <time>2022-06-26T07:24:43.000Z</time>
      </trkpt>
      <trkpt lat="47.244" lon="-2.30585">
        <ele>24.39999961853</ele>
        <time>2022-06-26T07:24:44.000Z</time>
      </trkpt>
      <trkpt lat="47.24394" lon="-2.30586">
        <ele>24</ele>
        <time>2022-06-26T07:24:45.000Z</time>
      </trkpt>
      <trkpt lat="47.24388" lon="-2.30585">
        <ele>23.60000038147</ele>
        <time>2022-06-26T07:24:46.000Z</time>
      </trkpt>
      <trkpt lat="47.24375" lon="-2.30579">
        <ele>23.60000038147</ele>
        <time>2022-06-26T07:24:48.000Z</time>
      </trkpt>
      <trkpt lat="47.24349" lon="-2.30562">
        <ele>23.60000038147</ele>
        <time>2022-06-26T07:24:53.000Z</time>
      </trkpt>
      <trkpt lat="47.24345" lon="-2.30554">
        <ele>23.60000038147</ele>
        <time>2022-06-26T07:24:54.000Z</time>
      </trkpt>
      <trkpt lat="47.24343" lon="-2.3054">
        <ele>23.60000038147</ele>
        <time>2022-06-26T07:24:56.000Z</time>
      </trkpt>
      <trkpt lat="47.24349" lon="-2.30517">
        <ele>23.60000038147</ele>
        <time>2022-06-26T07:25:00.000Z</time>
      </trkpt>
      <trkpt lat="47.24352" lon="-2.3051">
        <ele>24</ele>
        <time>2022-06-26T07:25:01.000Z</time>
      </trkpt>
      <trkpt lat="47.24356" lon="-2.30502">
        <ele>24.39999961853</ele>
        <time>2022-06-26T07:25:02.000Z</time>
      </trkpt>
      <trkpt lat="47.24359" lon="-2.30496">
        <ele>24.799999237061</ele>
        <time>2022-06-26T07:25:03.000Z</time>
      </trkpt>
      <trkpt lat="47.24362" lon="-2.30489">
        <ele>25.200000762939</ele>
        <time>2022-06-26T07:25:04.000Z</time>
      </trkpt>
      <trkpt lat="47.24364" lon="-2.30483">
        <ele>25.60000038147</ele>
        <time>2022-06-26T07:25:05.000Z</time>
      </trkpt>
      <trkpt lat="47.24371" lon="-2.30459">
        <ele>26.200000762939</ele>
        <time>2022-06-26T07:25:09.000Z</time>
      </trkpt>
      <trkpt lat="47.2437" lon="-2.30454">
        <ele>26.60000038147</ele>
        <time>2022-06-26T07:25:10.000Z</time>
      </trkpt>
      <trkpt lat="47.2437" lon="-2.30451">
        <ele>27</ele>
        <time>2022-06-26T07:25:11.000Z</time>
      </trkpt>
      <trkpt lat="47.24367" lon="-2.30451">
        <ele>27.39999961853</ele>
        <time>2022-06-26T07:25:12.000Z</time>
      </trkpt>
      <trkpt lat="47.24364" lon="-2.30452">
        <ele>28</ele>
        <time>2022-06-26T07:25:13.000Z</time>
      </trkpt>
      <trkpt lat="47.24345" lon="-2.30449">
        <ele>28</ele>
        <time>2022-06-26T07:25:19.000Z</time>
      </trkpt>
      <trkpt lat="47.24338" lon="-2.30445">
        <ele>28</ele>
        <time>2022-06-26T07:25:21.000Z</time>
      </trkpt>
      <trkpt lat="47.24323" lon="-2.30435">
        <ele>28</ele>
        <time>2022-06-26T07:25:25.000Z</time>
      </trkpt>
      <trkpt lat="47.24318" lon="-2.30432">
        <ele>28.39999961853</ele>
        <time>2022-06-26T07:25:26.000Z</time>
      </trkpt>
      <trkpt lat="47.24315" lon="-2.3043">
        <ele>28.799999237061</ele>
        <time>2022-06-26T07:25:27.000Z</time>
      </trkpt>
      <trkpt lat="47.24313" lon="-2.30427">
        <ele>29.200000762939</ele>
        <time>2022-06-26T07:25:28.000Z</time>
      </trkpt>
      <trkpt lat="47.2431" lon="-2.30425">
        <ele>29.60000038147</ele>
        <time>2022-06-26T07:25:29.000Z</time>
      </trkpt>
      <trkpt lat="47.24307" lon="-2.30423">
        <ele>30</ele>
        <time>2022-06-26T07:25:30.000Z</time>
      </trkpt>
      <trkpt lat="47.24287" lon="-2.30407">
        <ele>30</ele>
        <time>2022-06-26T07:25:37.000Z</time>
      </trkpt>
      <trkpt lat="47.24265" lon="-2.30375">
        <ele>30</ele>
        <time>2022-06-26T07:25:44.000Z</time>
      </trkpt>
      <trkpt lat="47.24263" lon="-2.30369">
        <ele>30</ele>
        <time>2022-06-26T07:25:45.000Z</time>
      </trkpt>
      <trkpt lat="47.24252" lon="-2.30348">
        <ele>30</ele>
        <time>2022-06-26T07:25:49.000Z</time>
      </trkpt>
      <trkpt lat="47.24234" lon="-2.30327">
        <ele>30</ele>
        <time>2022-06-26T07:25:55.000Z</time>
      </trkpt>
      <trkpt lat="47.24215" lon="-2.3033">
        <ele>30</ele>
        <time>2022-06-26T07:25:59.000Z</time>
      </trkpt>
      <trkpt lat="47.2421" lon="-2.3033">
        <ele>29.60000038147</ele>
        <time>2022-06-26T07:26:00.000Z</time>
      </trkpt>
      <trkpt lat="47.24206" lon="-2.30327">
        <ele>29.200000762939</ele>
        <time>2022-06-26T07:26:01.000Z</time>
      </trkpt>
      <trkpt lat="47.24202" lon="-2.30324">
        <ele>28.60000038147</ele>
        <time>2022-06-26T07:26:02.000Z</time>
      </trkpt>
      <trkpt lat="47.242" lon="-2.30319">
        <ele>28.200000762939</ele>
        <time>2022-06-26T07:26:03.000Z</time>
      </trkpt>
      <trkpt lat="47.24198" lon="-2.30315">
        <ele>27.799999237061</ele>
        <time>2022-06-26T07:26:04.000Z</time>
      </trkpt>
      <trkpt lat="47.24195" lon="-2.30292">
        <ele>27.799999237061</ele>
        <time>2022-06-26T07:26:07.000Z</time>
      </trkpt>
      <trkpt lat="47.24192" lon="-2.30274">
        <ele>27.39999961853</ele>
        <time>2022-06-26T07:26:09.000Z</time>
      </trkpt>
      <trkpt lat="47.24191" lon="-2.30265">
        <ele>27</ele>
        <time>2022-06-26T07:26:10.000Z</time>
      </trkpt>
      <trkpt lat="47.24189" lon="-2.30257">
        <ele>26.60000038147</ele>
        <time>2022-06-26T07:26:11.000Z</time>
      </trkpt>
      <trkpt lat="47.24189" lon="-2.30248">
        <ele>26</ele>
        <time>2022-06-26T07:26:12.000Z</time>
      </trkpt>
      <trkpt lat="47.24187" lon="-2.30242">
        <ele>25.60000038147</ele>
        <time>2022-06-26T07:26:13.000Z</time>
      </trkpt>
      <trkpt lat="47.2418" lon="-2.30243">
        <ele>25.60000038147</ele>
        <time>2022-06-26T07:26:16.000Z</time>
      </trkpt>
      <trkpt lat="47.24174" lon="-2.30245">
        <ele>25.60000038147</ele>
        <time>2022-06-26T07:26:18.000Z</time>
      </trkpt>
      <trkpt lat="47.24163" lon="-2.30242">
        <ele>25.60000038147</ele>
        <time>2022-06-26T07:26:21.000Z</time>
      </trkpt>
      <trkpt lat="47.24153" lon="-2.30225">
        <ele>25.60000038147</ele>
        <time>2022-06-26T07:26:25.000Z</time>
      </trkpt>
      <trkpt lat="47.2414" lon="-2.30192">
        <ele>26.39999961853</ele>
        <time>2022-06-26T07:26:32.000Z</time>
      </trkpt>
      <trkpt lat="47.24139" lon="-2.30188">
        <ele>26.799999237061</ele>
        <time>2022-06-26T07:26:33.000Z</time>
      </trkpt>
      <trkpt lat="47.24138" lon="-2.30184">
        <ele>27.39999961853</ele>
        <time>2022-06-26T07:26:34.000Z</time>
      </trkpt>
      <trkpt lat="47.24136" lon="-2.3018">
        <ele>27.799999237061</ele>
        <time>2022-06-26T07:26:35.000Z</time>
      </trkpt>
      <trkpt lat="47.24132" lon="-2.3017">
        <ele>27.799999237061</ele>
        <time>2022-06-26T07:26:38.000Z</time>
      </trkpt>
      <trkpt lat="47.24131" lon="-2.30168">
        <ele>28.200000762939</ele>
        <time>2022-06-26T07:26:39.000Z</time>
      </trkpt>
      <trkpt lat="47.24131" lon="-2.30167">
        <ele>28.60000038147</ele>
        <time>2022-06-26T07:26:40.000Z</time>
      </trkpt>
      <trkpt lat="47.2413" lon="-2.30165">
        <ele>29</ele>
        <time>2022-06-26T07:26:41.000Z</time>
      </trkpt>
      <trkpt lat="47.24131" lon="-2.30163">
        <ele>29.39999961853</ele>
        <time>2022-06-26T07:26:42.000Z</time>
      </trkpt>
      <trkpt lat="47.2413" lon="-2.30161">
        <ele>29.799999237061</ele>
        <time>2022-06-26T07:26:43.000Z</time>
      </trkpt>
      <trkpt lat="47.24129" lon="-2.30156">
        <ele>29.799999237061</ele>
        <time>2022-06-26T07:26:45.000Z</time>
      </trkpt>
      <trkpt lat="47.24129" lon="-2.30154">
        <ele>30.200000762939</ele>
        <time>2022-06-26T07:26:46.000Z</time>
      </trkpt>
      <trkpt lat="47.24129" lon="-2.30151">
        <ele>30.60000038147</ele>
        <time>2022-06-26T07:26:47.000Z</time>
      </trkpt>
      <trkpt lat="47.24128" lon="-2.30148">
        <ele>31</ele>
        <time>2022-06-26T07:26:48.000Z</time>
      </trkpt>
      <trkpt lat="47.24128" lon="-2.30146">
        <ele>31.60000038147</ele>
        <time>2022-06-26T07:26:49.000Z</time>
      </trkpt>
      <trkpt lat="47.24128" lon="-2.30145">
        <ele>32</ele>
        <time>2022-06-26T07:26:50.000Z</time>
      </trkpt>
      <trkpt lat="47.24129" lon="-2.30139">
        <ele>32</ele>
        <time>2022-06-26T07:26:54.000Z</time>
      </trkpt>
      <trkpt lat="47.24139" lon="-2.30134">
        <ele>32</ele>
        <time>2022-06-26T07:27:06.000Z</time>
      </trkpt>
      <trkpt lat="47.24143" lon="-2.30115">
        <ele>32</ele>
        <time>2022-06-26T07:27:12.000Z</time>
      </trkpt>
      <trkpt lat="47.24145" lon="-2.3009">
        <ele>32</ele>
        <time>2022-06-26T07:27:18.000Z</time>
      </trkpt>
      <trkpt lat="47.24151" lon="-2.30065">
        <ele>32</ele>
        <time>2022-06-26T07:27:24.000Z</time>
      </trkpt>
      <trkpt lat="47.24154" lon="-2.30058">
        <ele>32.400001525879</ele>
        <time>2022-06-26T07:27:26.000Z</time>
      </trkpt>
      <trkpt lat="47.24155" lon="-2.30057">
        <ele>32.799999237061</ele>
        <time>2022-06-26T07:27:27.000Z</time>
      </trkpt>
      <trkpt lat="47.24157" lon="-2.30056">
        <ele>33.200000762939</ele>
        <time>2022-06-26T07:27:28.000Z</time>
      </trkpt>
      <trkpt lat="47.24159" lon="-2.30055">
        <ele>33.599998474121</ele>
        <time>2022-06-26T07:27:29.000Z</time>
      </trkpt>
      <trkpt lat="47.2416" lon="-2.30055">
        <ele>34</ele>
        <time>2022-06-26T07:27:30.000Z</time>
      </trkpt>
      <trkpt lat="47.24168" lon="-2.30046">
        <ele>34</ele>
        <time>2022-06-26T07:27:36.000Z</time>
      </trkpt>
      <trkpt lat="47.24175" lon="-2.30037">
        <ele>34</ele>
        <time>2022-06-26T07:27:40.000Z</time>
      </trkpt>
      <trkpt lat="47.24176" lon="-2.30033">
        <ele>34</ele>
        <time>2022-06-26T07:27:41.000Z</time>
      </trkpt>
      <trkpt lat="47.24173" lon="-2.3002">
        <ele>34</ele>
        <time>2022-06-26T07:27:45.000Z</time>
      </trkpt>
      <trkpt lat="47.24173" lon="-2.30017">
        <ele>34</ele>
        <time>2022-06-26T07:27:46.000Z</time>
      </trkpt>
      <trkpt lat="47.24172" lon="-2.30015">
        <ele>34.400001525879</ele>
        <time>2022-06-26T07:27:47.000Z</time>
      </trkpt>
      <trkpt lat="47.24171" lon="-2.30011">
        <ele>34.799999237061</ele>
        <time>2022-06-26T07:27:48.000Z</time>
      </trkpt>
      <trkpt lat="47.2417" lon="-2.30009">
        <ele>35.200000762939</ele>
        <time>2022-06-26T07:27:49.000Z</time>
      </trkpt>
      <trkpt lat="47.24168" lon="-2.30006">
        <ele>35.599998474121</ele>
        <time>2022-06-26T07:27:50.000Z</time>
      </trkpt>
      <trkpt lat="47.24167" lon="-2.30003">
        <ele>36</ele>
        <time>2022-06-26T07:27:51.000Z</time>
      </trkpt>
      <trkpt lat="47.24166" lon="-2.30001">
        <ele>36</ele>
        <time>2022-06-26T07:27:52.000Z</time>
      </trkpt>
      <trkpt lat="47.24157" lon="-2.29994">
        <ele>36</ele>
        <time>2022-06-26T07:27:58.000Z</time>
      </trkpt>
      <trkpt lat="47.24153" lon="-2.29992">
        <ele>36</ele>
        <time>2022-06-26T07:28:05.000Z</time>
      </trkpt>
      <trkpt lat="47.24146" lon="-2.29991">
        <ele>36</ele>
        <time>2022-06-26T07:28:08.000Z</time>
      </trkpt>
      <trkpt lat="47.24132" lon="-2.29988">
        <ele>36</ele>
        <time>2022-06-26T07:28:13.000Z</time>
      </trkpt>
      <trkpt lat="47.24117" lon="-2.29987">
        <ele>36</ele>
        <time>2022-06-26T07:28:20.000Z</time>
      </trkpt>
      <trkpt lat="47.24103" lon="-2.29986">
        <ele>36</ele>
        <time>2022-06-26T07:28:25.000Z</time>
      </trkpt>
      <trkpt lat="47.24084" lon="-2.2998">
        <ele>36</ele>
        <time>2022-06-26T07:28:30.000Z</time>
      </trkpt>
      <trkpt lat="47.2408" lon="-2.29981">
        <ele>36</ele>
        <time>2022-06-26T07:28:31.000Z</time>
      </trkpt>
      <trkpt lat="47.2407" lon="-2.2998">
        <ele>36</ele>
        <time>2022-06-26T07:28:35.000Z</time>
      </trkpt>
      <trkpt lat="47.24066" lon="-2.2998">
        <ele>36</ele>
        <time>2022-06-26T07:28:38.000Z</time>
      </trkpt>
      <trkpt lat="47.24064" lon="-2.29974">
        <ele>36</ele>
        <time>2022-06-26T07:28:46.000Z</time>
      </trkpt>
      <trkpt lat="47.24064" lon="-2.29971">
        <ele>36</ele>
        <time>2022-06-26T07:28:47.000Z</time>
      </trkpt>
      <trkpt lat="47.24068" lon="-2.29949">
        <ele>36</ele>
        <time>2022-06-26T07:28:53.000Z</time>
      </trkpt>
      <trkpt lat="47.24069" lon="-2.29946">
        <ele>36</ele>
        <time>2022-06-26T07:28:54.000Z</time>
      </trkpt>
      <trkpt lat="47.24072" lon="-2.29927">
        <ele>36</ele>
        <time>2022-06-26T07:28:59.000Z</time>
      </trkpt>
      <trkpt lat="47.24074" lon="-2.29904">
        <ele>36</ele>
        <time>2022-06-26T07:29:05.000Z</time>
      </trkpt>
      <trkpt lat="47.24077" lon="-2.29877">
        <ele>36</ele>
        <time>2022-06-26T07:29:11.000Z</time>
      </trkpt>
      <trkpt lat="47.24078" lon="-2.29867">
        <ele>36.400001525879</ele>
        <time>2022-06-26T07:29:14.000Z</time>
      </trkpt>
      <trkpt lat="47.24078" lon="-2.29866">
        <ele>36.799999237061</ele>
        <time>2022-06-26T07:29:15.000Z</time>
      </trkpt>
      <trkpt lat="47.24078" lon="-2.29864">
        <ele>37.200000762939</ele>
        <time>2022-06-26T07:29:16.000Z</time>
      </trkpt>
      <trkpt lat="47.24078" lon="-2.29861">
        <ele>37.599998474121</ele>
        <time>2022-06-26T07:29:17.000Z</time>
      </trkpt>
      <trkpt lat="47.24078" lon="-2.2986">
        <ele>38.200000762939</ele>
        <time>2022-06-26T07:29:18.000Z</time>
      </trkpt>
      <trkpt lat="47.2408" lon="-2.2985">
        <ele>38.200000762939</ele>
        <time>2022-06-26T07:29:23.000Z</time>
      </trkpt>
      <trkpt lat="47.24087" lon="-2.2985">
        <ele>38.200000762939</ele>
        <time>2022-06-26T07:29:29.000Z</time>
      </trkpt>
      <trkpt lat="47.2409" lon="-2.29851">
        <ele>38.200000762939</ele>
        <time>2022-06-26T07:29:30.000Z</time>
      </trkpt>
      <trkpt lat="47.24098" lon="-2.29852">
        <ele>38.200000762939</ele>
        <time>2022-06-26T07:29:34.000Z</time>
      </trkpt>
      <trkpt lat="47.24102" lon="-2.29852">
        <ele>38.200000762939</ele>
        <time>2022-06-26T07:29:36.000Z</time>
      </trkpt>
      <trkpt lat="47.24114" lon="-2.29848">
        <ele>38.200000762939</ele>
        <time>2022-06-26T07:29:41.000Z</time>
      </trkpt>
      <trkpt lat="47.24132" lon="-2.29843">
        <ele>38.200000762939</ele>
        <time>2022-06-26T07:29:47.000Z</time>
      </trkpt>
      <trkpt lat="47.24158" lon="-2.29846">
        <ele>38.200000762939</ele>
        <time>2022-06-26T07:29:52.000Z</time>
      </trkpt>
      <trkpt lat="47.24165" lon="-2.29854">
        <ele>38.200000762939</ele>
        <time>2022-06-26T07:29:56.000Z</time>
      </trkpt>
      <trkpt lat="47.24172" lon="-2.29878">
        <ele>38.200000762939</ele>
        <time>2022-06-26T07:30:03.000Z</time>
      </trkpt>
      <trkpt lat="47.24173" lon="-2.2989">
        <ele>38.200000762939</ele>
        <time>2022-06-26T07:30:07.000Z</time>
      </trkpt>
      <trkpt lat="47.24172" lon="-2.29893">
        <ele>38.200000762939</ele>
        <time>2022-06-26T07:30:08.000Z</time>
      </trkpt>
      <trkpt lat="47.24166" lon="-2.29909">
        <ele>38.200000762939</ele>
        <time>2022-06-26T07:30:12.000Z</time>
      </trkpt>
      <trkpt lat="47.24164" lon="-2.29914">
        <ele>38.200000762939</ele>
        <time>2022-06-26T07:30:13.000Z</time>
      </trkpt>
      <trkpt lat="47.24156" lon="-2.29946">
        <ele>38.200000762939</ele>
        <time>2022-06-26T07:30:19.000Z</time>
      </trkpt>
      <trkpt lat="47.24157" lon="-2.29965">
        <ele>38.200000762939</ele>
        <time>2022-06-26T07:30:24.000Z</time>
      </trkpt>
      <trkpt lat="47.24162" lon="-2.29969">
        <ele>38.200000762939</ele>
        <time>2022-06-26T07:30:28.000Z</time>
      </trkpt>
      <trkpt lat="47.24164" lon="-2.29969">
        <ele>38.200000762939</ele>
        <time>2022-06-26T07:30:29.000Z</time>
      </trkpt>
      <trkpt lat="47.24181" lon="-2.2997">
        <ele>38.200000762939</ele>
        <time>2022-06-26T07:30:34.000Z</time>
      </trkpt>
      <trkpt lat="47.24191" lon="-2.29968">
        <ele>37.799999237061</ele>
        <time>2022-06-26T07:30:36.000Z</time>
      </trkpt>
      <trkpt lat="47.24197" lon="-2.29968">
        <ele>37.400001525879</ele>
        <time>2022-06-26T07:30:37.000Z</time>
      </trkpt>
      <trkpt lat="47.24202" lon="-2.29966">
        <ele>36.799999237061</ele>
        <time>2022-06-26T07:30:38.000Z</time>
      </trkpt>
      <trkpt lat="47.24207" lon="-2.29965">
        <ele>36</ele>
        <time>2022-06-26T07:30:39.000Z</time>
      </trkpt>
      <trkpt lat="47.24226" lon="-2.29958">
        <ele>36</ele>
        <time>2022-06-26T07:30:44.000Z</time>
      </trkpt>
      <trkpt lat="47.24244" lon="-2.29949">
        <ele>35.599998474121</ele>
        <time>2022-06-26T07:30:48.000Z</time>
      </trkpt>
      <trkpt lat="47.24249" lon="-2.29944">
        <ele>35.200000762939</ele>
        <time>2022-06-26T07:30:49.000Z</time>
      </trkpt>
      <trkpt lat="47.24254" lon="-2.29939">
        <ele>34.799999237061</ele>
        <time>2022-06-26T07:30:50.000Z</time>
      </trkpt>
      <trkpt lat="47.24258" lon="-2.29935">
        <ele>34.400001525879</ele>
        <time>2022-06-26T07:30:51.000Z</time>
      </trkpt>
      <trkpt lat="47.24263" lon="-2.29931">
        <ele>34</ele>
        <time>2022-06-26T07:30:52.000Z</time>
      </trkpt>
      <trkpt lat="47.24272" lon="-2.29923">
        <ele>34</ele>
        <time>2022-06-26T07:30:54.000Z</time>
      </trkpt>
      <trkpt lat="47.24289" lon="-2.29909">
        <ele>34</ele>
        <time>2022-06-26T07:30:58.000Z</time>
      </trkpt>
      <trkpt lat="47.24307" lon="-2.29892">
        <ele>34</ele>
        <time>2022-06-26T07:31:02.000Z</time>
      </trkpt>
      <trkpt lat="47.2431" lon="-2.29885">
        <ele>34</ele>
        <time>2022-06-26T07:31:03.000Z</time>
      </trkpt>
      <trkpt lat="47.24313" lon="-2.29855">
        <ele>34</ele>
        <time>2022-06-26T07:31:07.000Z</time>
      </trkpt>
      <trkpt lat="47.24314" lon="-2.2984">
        <ele>34.400001525879</ele>
        <time>2022-06-26T07:31:09.000Z</time>
      </trkpt>
      <trkpt lat="47.24315" lon="-2.29832">
        <ele>35</ele>
        <time>2022-06-26T07:31:10.000Z</time>
      </trkpt>
      <trkpt lat="47.24317" lon="-2.29825">
        <ele>35.400001525879</ele>
        <time>2022-06-26T07:31:11.000Z</time>
      </trkpt>
      <trkpt lat="47.2432" lon="-2.29819">
        <ele>35.799999237061</ele>
        <time>2022-06-26T07:31:12.000Z</time>
      </trkpt>
      <trkpt lat="47.24323" lon="-2.29815">
        <ele>36.200000762939</ele>
        <time>2022-06-26T07:31:13.000Z</time>
      </trkpt>
      <trkpt lat="47.24332" lon="-2.2981">
        <ele>36.200000762939</ele>
        <time>2022-06-26T07:31:15.000Z</time>
      </trkpt>
      <trkpt lat="47.24338" lon="-2.29808">
        <ele>36.200000762939</ele>
        <time>2022-06-26T07:31:16.000Z</time>
      </trkpt>
      <trkpt lat="47.24356" lon="-2.29797">
        <ele>36.200000762939</ele>
        <time>2022-06-26T07:31:20.000Z</time>
      </trkpt>
      <trkpt lat="47.2436" lon="-2.29792">
        <ele>36.200000762939</ele>
        <time>2022-06-26T07:31:21.000Z</time>
      </trkpt>
      <trkpt lat="47.24372" lon="-2.29768">
        <ele>36.200000762939</ele>
        <time>2022-06-26T07:31:25.000Z</time>
      </trkpt>
      <trkpt lat="47.24375" lon="-2.29761">
        <ele>36.200000762939</ele>
        <time>2022-06-26T07:31:26.000Z</time>
      </trkpt>
      <trkpt lat="47.24391" lon="-2.29722">
        <ele>36.200000762939</ele>
        <time>2022-06-26T07:31:32.000Z</time>
      </trkpt>
      <trkpt lat="47.24393" lon="-2.29715">
        <ele>36.200000762939</ele>
        <time>2022-06-26T07:31:33.000Z</time>
      </trkpt>
      <trkpt lat="47.24395" lon="-2.2971">
        <ele>36.200000762939</ele>
        <time>2022-06-26T07:31:34.000Z</time>
      </trkpt>
      <trkpt lat="47.24405" lon="-2.29698">
        <ele>36.200000762939</ele>
        <time>2022-06-26T07:31:37.000Z</time>
      </trkpt>
      <trkpt lat="47.24424" lon="-2.29691">
        <ele>36.200000762939</ele>
        <time>2022-06-26T07:31:41.000Z</time>
      </trkpt>
      <trkpt lat="47.24437" lon="-2.29701">
        <ele>36.200000762939</ele>
        <time>2022-06-26T07:31:44.000Z</time>
      </trkpt>
      <trkpt lat="47.24443" lon="-2.29719">
        <ele>36.200000762939</ele>
        <time>2022-06-26T07:31:47.000Z</time>
      </trkpt>
      <trkpt lat="47.24455" lon="-2.29749">
        <ele>36.200000762939</ele>
        <time>2022-06-26T07:31:52.000Z</time>
      </trkpt>
      <trkpt lat="47.2446" lon="-2.29776">
        <ele>36.200000762939</ele>
        <time>2022-06-26T07:31:56.000Z</time>
      </trkpt>
      <trkpt lat="47.24462" lon="-2.29783">
        <ele>36.200000762939</ele>
        <time>2022-06-26T07:31:57.000Z</time>
      </trkpt>
      <trkpt lat="47.24467" lon="-2.29797">
        <ele>36.200000762939</ele>
        <time>2022-06-26T07:31:59.000Z</time>
      </trkpt>
      <trkpt lat="47.24469" lon="-2.29803">
        <ele>36.599998474121</ele>
        <time>2022-06-26T07:32:00.000Z</time>
      </trkpt>
      <trkpt lat="47.24472" lon="-2.29808">
        <ele>37</ele>
        <time>2022-06-26T07:32:01.000Z</time>
      </trkpt>
      <trkpt lat="47.24475" lon="-2.29814">
        <ele>37.400001525879</ele>
        <time>2022-06-26T07:32:02.000Z</time>
      </trkpt>
      <trkpt lat="47.24478" lon="-2.2982">
        <ele>37.799999237061</ele>
        <time>2022-06-26T07:32:03.000Z</time>
      </trkpt>
      <trkpt lat="47.24481" lon="-2.29825">
        <ele>38.200000762939</ele>
        <time>2022-06-26T07:32:04.000Z</time>
      </trkpt>
      <trkpt lat="47.24487" lon="-2.29835">
        <ele>38.200000762939</ele>
        <time>2022-06-26T07:32:06.000Z</time>
      </trkpt>
      <trkpt lat="47.24491" lon="-2.2984">
        <ele>38.200000762939</ele>
        <time>2022-06-26T07:32:07.000Z</time>
      </trkpt>
      <trkpt lat="47.24505" lon="-2.29849">
        <ele>38.200000762939</ele>
        <time>2022-06-26T07:32:10.000Z</time>
      </trkpt>
      <trkpt lat="47.24511" lon="-2.29853">
        <ele>38.200000762939</ele>
        <time>2022-06-26T07:32:11.000Z</time>
      </trkpt>
      <trkpt lat="47.24529" lon="-2.29862">
        <ele>38.200000762939</ele>
        <time>2022-06-26T07:32:15.000Z</time>
      </trkpt>
      <trkpt lat="47.24542" lon="-2.29867">
        <ele>38.200000762939</ele>
        <time>2022-06-26T07:32:18.000Z</time>
      </trkpt>
      <trkpt lat="47.24555" lon="-2.29874">
        <ele>38.200000762939</ele>
        <time>2022-06-26T07:32:21.000Z</time>
      </trkpt>
      <trkpt lat="47.24564" lon="-2.29884">
        <ele>38.200000762939</ele>
        <time>2022-06-26T07:32:24.000Z</time>
      </trkpt>
      <trkpt lat="47.24572" lon="-2.29903">
        <ele>38.200000762939</ele>
        <time>2022-06-26T07:32:28.000Z</time>
      </trkpt>
      <trkpt lat="47.24593" lon="-2.29935">
        <ele>38.200000762939</ele>
        <time>2022-06-26T07:32:36.000Z</time>
      </trkpt>
      <trkpt lat="47.24607" lon="-2.29942">
        <ele>38.200000762939</ele>
        <time>2022-06-26T07:32:40.000Z</time>
      </trkpt>
      <trkpt lat="47.24612" lon="-2.2994">
        <ele>38.200000762939</ele>
        <time>2022-06-26T07:32:41.000Z</time>
      </trkpt>
      <trkpt lat="47.24656" lon="-2.29924">
        <ele>38.200000762939</ele>
        <time>2022-06-26T07:32:50.000Z</time>
      </trkpt>
      <trkpt lat="47.24661" lon="-2.29922">
        <ele>38.599998474121</ele>
        <time>2022-06-26T07:32:51.000Z</time>
      </trkpt>
      <trkpt lat="47.24666" lon="-2.2992">
        <ele>39</ele>
        <time>2022-06-26T07:32:52.000Z</time>
      </trkpt>
      <trkpt lat="47.24671" lon="-2.29919">
        <ele>39.400001525879</ele>
        <time>2022-06-26T07:32:53.000Z</time>
      </trkpt>
      <trkpt lat="47.24675" lon="-2.29917">
        <ele>39.799999237061</ele>
        <time>2022-06-26T07:32:54.000Z</time>
      </trkpt>
      <trkpt lat="47.2468" lon="-2.29916">
        <ele>40.200000762939</ele>
        <time>2022-06-26T07:32:55.000Z</time>
      </trkpt>
      <trkpt lat="47.24692" lon="-2.29912">
        <ele>40.200000762939</ele>
        <time>2022-06-26T07:32:57.000Z</time>
      </trkpt>
      <trkpt lat="47.24727" lon="-2.29901">
        <ele>40.200000762939</ele>
        <time>2022-06-26T07:33:04.000Z</time>
      </trkpt>
      <trkpt lat="47.24759" lon="-2.29886">
        <ele>40.200000762939</ele>
        <time>2022-06-26T07:33:10.000Z</time>
      </trkpt>
      <trkpt lat="47.24765" lon="-2.29881">
        <ele>40.200000762939</ele>
        <time>2022-06-26T07:33:11.000Z</time>
      </trkpt>
      <trkpt lat="47.24771" lon="-2.29877">
        <ele>40.599998474121</ele>
        <time>2022-06-26T07:33:12.000Z</time>
      </trkpt>
      <trkpt lat="47.24776" lon="-2.29873">
        <ele>41</ele>
        <time>2022-06-26T07:33:13.000Z</time>
      </trkpt>
      <trkpt lat="47.24781" lon="-2.29869">
        <ele>41.400001525879</ele>
        <time>2022-06-26T07:33:14.000Z</time>
      </trkpt>
      <trkpt lat="47.24786" lon="-2.29865">
        <ele>41.799999237061</ele>
        <time>2022-06-26T07:33:15.000Z</time>
      </trkpt>
      <trkpt lat="47.24791" lon="-2.29861">
        <ele>42.200000762939</ele>
        <time>2022-06-26T07:33:16.000Z</time>
      </trkpt>
      <trkpt lat="47.24802" lon="-2.29855">
        <ele>42.200000762939</ele>
        <time>2022-06-26T07:33:18.000Z</time>
      </trkpt>
      <trkpt lat="47.24841" lon="-2.2984">
        <ele>42.200000762939</ele>
        <time>2022-06-26T07:33:25.000Z</time>
      </trkpt>
      <trkpt lat="47.24853" lon="-2.29834">
        <ele>42.200000762939</ele>
        <time>2022-06-26T07:33:28.000Z</time>
      </trkpt>
      <trkpt lat="47.24857" lon="-2.29831">
        <ele>42.200000762939</ele>
        <time>2022-06-26T07:33:29.000Z</time>
      </trkpt>
      <trkpt lat="47.24861" lon="-2.2983">
        <ele>42.200000762939</ele>
        <time>2022-06-26T07:33:30.000Z</time>
      </trkpt>
      <trkpt lat="47.24867" lon="-2.29834">
        <ele>42.200000762939</ele>
        <time>2022-06-26T07:33:32.000Z</time>
      </trkpt>
      <trkpt lat="47.2487" lon="-2.29845">
        <ele>42.200000762939</ele>
        <time>2022-06-26T07:33:34.000Z</time>
      </trkpt>
      <trkpt lat="47.24872" lon="-2.29859">
        <ele>42.200000762939</ele>
        <time>2022-06-26T07:33:36.000Z</time>
      </trkpt>
      <trkpt lat="47.24879" lon="-2.29905">
        <ele>42.200000762939</ele>
        <time>2022-06-26T07:33:42.000Z</time>
      </trkpt>
      <trkpt lat="47.24883" lon="-2.29942">
        <ele>42.200000762939</ele>
        <time>2022-06-26T07:33:46.000Z</time>
      </trkpt>
      <trkpt lat="47.24885" lon="-2.2995">
        <ele>42.200000762939</ele>
        <time>2022-06-26T07:33:47.000Z</time>
      </trkpt>
      <trkpt lat="47.24895" lon="-2.29985">
        <ele>42.200000762939</ele>
        <time>2022-06-26T07:33:51.000Z</time>
      </trkpt>
      <trkpt lat="47.24898" lon="-2.30002">
        <ele>42.200000762939</ele>
        <time>2022-06-26T07:33:53.000Z</time>
      </trkpt>
      <trkpt lat="47.24902" lon="-2.30035">
        <ele>42.200000762939</ele>
        <time>2022-06-26T07:33:57.000Z</time>
      </trkpt>
      <trkpt lat="47.24902" lon="-2.30042">
        <ele>42.200000762939</ele>
        <time>2022-06-26T07:33:58.000Z</time>
      </trkpt>
      <trkpt lat="47.24907" lon="-2.30057">
        <ele>42.200000762939</ele>
        <time>2022-06-26T07:34:01.000Z</time>
      </trkpt>
      <trkpt lat="47.24918" lon="-2.30058">
        <ele>42.200000762939</ele>
        <time>2022-06-26T07:34:04.000Z</time>
      </trkpt>
      <trkpt lat="47.24926" lon="-2.30058">
        <ele>42.200000762939</ele>
        <time>2022-06-26T07:34:06.000Z</time>
      </trkpt>
      <trkpt lat="47.24956" lon="-2.30057">
        <ele>42.200000762939</ele>
        <time>2022-06-26T07:34:13.000Z</time>
      </trkpt>
      <trkpt lat="47.24989" lon="-2.30055">
        <ele>42.200000762939</ele>
        <time>2022-06-26T07:34:20.000Z</time>
      </trkpt>
      <trkpt lat="47.25016" lon="-2.30055">
        <ele>42.200000762939</ele>
        <time>2022-06-26T07:34:26.000Z</time>
      </trkpt>
      <trkpt lat="47.25029" lon="-2.30056">
        <ele>42.200000762939</ele>
        <time>2022-06-26T07:34:29.000Z</time>
      </trkpt>
      <trkpt lat="47.25047" lon="-2.30057">
        <ele>42.200000762939</ele>
        <time>2022-06-26T07:34:33.000Z</time>
      </trkpt>
      <trkpt lat="47.25063" lon="-2.30058">
        <ele>42.200000762939</ele>
        <time>2022-06-26T07:34:36.000Z</time>
      </trkpt>
      <trkpt lat="47.25067" lon="-2.30059">
        <ele>41.799999237061</ele>
        <time>2022-06-26T07:34:37.000Z</time>
      </trkpt>
      <trkpt lat="47.2507" lon="-2.30063">
        <ele>41.400001525879</ele>
        <time>2022-06-26T07:34:38.000Z</time>
      </trkpt>
      <trkpt lat="47.2507" lon="-2.30068">
        <ele>41</ele>
        <time>2022-06-26T07:34:39.000Z</time>
      </trkpt>
      <trkpt lat="47.2507" lon="-2.30074">
        <ele>40.599998474121</ele>
        <time>2022-06-26T07:34:40.000Z</time>
      </trkpt>
      <trkpt lat="47.25069" lon="-2.3008">
        <ele>40.200000762939</ele>
        <time>2022-06-26T07:34:41.000Z</time>
      </trkpt>
      <trkpt lat="47.25068" lon="-2.30088">
        <ele>40.200000762939</ele>
        <time>2022-06-26T07:34:42.000Z</time>
      </trkpt>
      <trkpt lat="47.25067" lon="-2.30121">
        <ele>40.200000762939</ele>
        <time>2022-06-26T07:34:46.000Z</time>
      </trkpt>
      <trkpt lat="47.25067" lon="-2.30128">
        <ele>40.200000762939</ele>
        <time>2022-06-26T07:34:47.000Z</time>
      </trkpt>
      <trkpt lat="47.25072" lon="-2.30137">
        <ele>40.200000762939</ele>
        <time>2022-06-26T07:34:49.000Z</time>
      </trkpt>
      <trkpt lat="47.25086" lon="-2.30137">
        <ele>40.200000762939</ele>
        <time>2022-06-26T07:34:52.000Z</time>
      </trkpt>
      <trkpt lat="47.25092" lon="-2.30136">
        <ele>40.200000762939</ele>
        <time>2022-06-26T07:34:53.000Z</time>
      </trkpt>
      <trkpt lat="47.25126" lon="-2.30129">
        <ele>40.200000762939</ele>
        <time>2022-06-26T07:34:59.000Z</time>
      </trkpt>
      <trkpt lat="47.25132" lon="-2.30128">
        <ele>40.200000762939</ele>
        <time>2022-06-26T07:35:00.000Z</time>
      </trkpt>
      <trkpt lat="47.25155" lon="-2.30121">
        <ele>39.599998474121</ele>
        <time>2022-06-26T07:35:04.000Z</time>
      </trkpt>
      <trkpt lat="47.25161" lon="-2.30119">
        <ele>39.200000762939</ele>
        <time>2022-06-26T07:35:05.000Z</time>
      </trkpt>
      <trkpt lat="47.25166" lon="-2.30117">
        <ele>38.799999237061</ele>
        <time>2022-06-26T07:35:06.000Z</time>
      </trkpt>
      <trkpt lat="47.25172" lon="-2.30116">
        <ele>38.400001525879</ele>
        <time>2022-06-26T07:35:07.000Z</time>
      </trkpt>
      <trkpt lat="47.25178" lon="-2.30118">
        <ele>38</ele>
        <time>2022-06-26T07:35:08.000Z</time>
      </trkpt>
      <trkpt lat="47.25191" lon="-2.30134">
        <ele>38</ele>
        <time>2022-06-26T07:35:11.000Z</time>
      </trkpt>
      <trkpt lat="47.25199" lon="-2.30146">
        <ele>38</ele>
        <time>2022-06-26T07:35:13.000Z</time>
      </trkpt>
      <trkpt lat="47.25214" lon="-2.30164">
        <ele>37.599998474121</ele>
        <time>2022-06-26T07:35:16.000Z</time>
      </trkpt>
      <trkpt lat="47.25219" lon="-2.30168">
        <ele>37.200000762939</ele>
        <time>2022-06-26T07:35:17.000Z</time>
      </trkpt>
      <trkpt lat="47.25224" lon="-2.30172">
        <ele>36.799999237061</ele>
        <time>2022-06-26T07:35:18.000Z</time>
      </trkpt>
      <trkpt lat="47.2523" lon="-2.30175">
        <ele>36.400001525879</ele>
        <time>2022-06-26T07:35:19.000Z</time>
      </trkpt>
      <trkpt lat="47.25235" lon="-2.30177">
        <ele>36</ele>
        <time>2022-06-26T07:35:20.000Z</time>
      </trkpt>
      <trkpt lat="47.25269" lon="-2.30194">
        <ele>35.599998474121</ele>
        <time>2022-06-26T07:35:26.000Z</time>
      </trkpt>
      <trkpt lat="47.25274" lon="-2.30197">
        <ele>35.200000762939</ele>
        <time>2022-06-26T07:35:27.000Z</time>
      </trkpt>
      <trkpt lat="47.2528" lon="-2.302">
        <ele>34.799999237061</ele>
        <time>2022-06-26T07:35:28.000Z</time>
      </trkpt>
      <trkpt lat="47.25285" lon="-2.30202">
        <ele>34.400001525879</ele>
        <time>2022-06-26T07:35:29.000Z</time>
      </trkpt>
      <trkpt lat="47.25289" lon="-2.30204">
        <ele>34</ele>
        <time>2022-06-26T07:35:30.000Z</time>
      </trkpt>
      <trkpt lat="47.25297" lon="-2.30208">
        <ele>34</ele>
        <time>2022-06-26T07:35:32.000Z</time>
      </trkpt>
      <trkpt lat="47.25302" lon="-2.30209">
        <ele>34</ele>
        <time>2022-06-26T07:35:34.000Z</time>
      </trkpt>
      <trkpt lat="47.25303" lon="-2.30206">
        <ele>34</ele>
        <time>2022-06-26T07:35:35.000Z</time>
      </trkpt>
      <trkpt lat="47.25311" lon="-2.30205">
        <ele>34</ele>
        <time>2022-06-26T07:35:38.000Z</time>
      </trkpt>
      <trkpt lat="47.25319" lon="-2.30206">
        <ele>34</ele>
        <time>2022-06-26T07:35:40.000Z</time>
      </trkpt>
      <trkpt lat="47.25324" lon="-2.30207">
        <ele>34</ele>
        <time>2022-06-26T07:35:41.000Z</time>
      </trkpt>
      <trkpt lat="47.25329" lon="-2.30207">
        <ele>34</ele>
        <time>2022-06-26T07:35:42.000Z</time>
      </trkpt>
      <trkpt lat="47.25358" lon="-2.30209">
        <ele>33.599998474121</ele>
        <time>2022-06-26T07:35:47.000Z</time>
      </trkpt>
      <trkpt lat="47.25364" lon="-2.30209">
        <ele>33.200000762939</ele>
        <time>2022-06-26T07:35:48.000Z</time>
      </trkpt>
      <trkpt lat="47.2537" lon="-2.30209">
        <ele>32.799999237061</ele>
        <time>2022-06-26T07:35:49.000Z</time>
      </trkpt>
      <trkpt lat="47.25376" lon="-2.3021">
        <ele>32.200000762939</ele>
        <time>2022-06-26T07:35:50.000Z</time>
      </trkpt>
      <trkpt lat="47.2538" lon="-2.30212">
        <ele>31.799999237061</ele>
        <time>2022-06-26T07:35:51.000Z</time>
      </trkpt>
      <trkpt lat="47.25385" lon="-2.30215">
        <ele>31.799999237061</ele>
        <time>2022-06-26T07:35:52.000Z</time>
      </trkpt>
      <trkpt lat="47.25408" lon="-2.30226">
        <ele>31.799999237061</ele>
        <time>2022-06-26T07:35:58.000Z</time>
      </trkpt>
      <trkpt lat="47.25434" lon="-2.30236">
        <ele>31.799999237061</ele>
        <time>2022-06-26T07:36:04.000Z</time>
      </trkpt>
      <trkpt lat="47.25457" lon="-2.30244">
        <ele>31.39999961853</ele>
        <time>2022-06-26T07:36:09.000Z</time>
      </trkpt>
      <trkpt lat="47.25462" lon="-2.30245">
        <ele>31</ele>
        <time>2022-06-26T07:36:10.000Z</time>
      </trkpt>
      <trkpt lat="47.25466" lon="-2.30246">
        <ele>30.60000038147</ele>
        <time>2022-06-26T07:36:11.000Z</time>
      </trkpt>
      <trkpt lat="47.25469" lon="-2.30244">
        <ele>30.200000762939</ele>
        <time>2022-06-26T07:36:12.000Z</time>
      </trkpt>
      <trkpt lat="47.25472" lon="-2.30241">
        <ele>29.799999237061</ele>
        <time>2022-06-26T07:36:13.000Z</time>
      </trkpt>
      <trkpt lat="47.25475" lon="-2.3023">
        <ele>29.799999237061</ele>
        <time>2022-06-26T07:36:15.000Z</time>
      </trkpt>
      <trkpt lat="47.25477" lon="-2.30224">
        <ele>29.799999237061</ele>
        <time>2022-06-26T07:36:16.000Z</time>
      </trkpt>
      <trkpt lat="47.25479" lon="-2.30218">
        <ele>29.799999237061</ele>
        <time>2022-06-26T07:36:17.000Z</time>
      </trkpt>
      <trkpt lat="47.25488" lon="-2.30203">
        <ele>29.799999237061</ele>
        <time>2022-06-26T07:36:20.000Z</time>
      </trkpt>
      <trkpt lat="47.25499" lon="-2.30195">
        <ele>29.799999237061</ele>
        <time>2022-06-26T07:36:23.000Z</time>
      </trkpt>
      <trkpt lat="47.25517" lon="-2.30197">
        <ele>29.39999961853</ele>
        <time>2022-06-26T07:36:28.000Z</time>
      </trkpt>
      <trkpt lat="47.25521" lon="-2.30196">
        <ele>29</ele>
        <time>2022-06-26T07:36:29.000Z</time>
      </trkpt>
      <trkpt lat="47.25525" lon="-2.30195">
        <ele>28.60000038147</ele>
        <time>2022-06-26T07:36:30.000Z</time>
      </trkpt>
      <trkpt lat="47.2553" lon="-2.30194">
        <ele>28.200000762939</ele>
        <time>2022-06-26T07:36:31.000Z</time>
      </trkpt>
      <trkpt lat="47.25534" lon="-2.30192">
        <ele>27.799999237061</ele>
        <time>2022-06-26T07:36:32.000Z</time>
      </trkpt>
      <trkpt lat="47.25547" lon="-2.30189">
        <ele>27.799999237061</ele>
        <time>2022-06-26T07:36:34.000Z</time>
      </trkpt>
      <trkpt lat="47.25571" lon="-2.30194">
        <ele>27.799999237061</ele>
        <time>2022-06-26T07:36:38.000Z</time>
      </trkpt>
      <trkpt lat="47.25583" lon="-2.30201">
        <ele>27.799999237061</ele>
        <time>2022-06-26T07:36:40.000Z</time>
      </trkpt>
      <trkpt lat="47.25589" lon="-2.30206">
        <ele>27.799999237061</ele>
        <time>2022-06-26T07:36:41.000Z</time>
      </trkpt>
      <trkpt lat="47.25599" lon="-2.30218">
        <ele>27.799999237061</ele>
        <time>2022-06-26T07:36:43.000Z</time>
      </trkpt>
      <trkpt lat="47.25604" lon="-2.30224">
        <ele>27.799999237061</ele>
        <time>2022-06-26T07:36:44.000Z</time>
      </trkpt>
      <trkpt lat="47.25612" lon="-2.30245">
        <ele>27.799999237061</ele>
        <time>2022-06-26T07:36:47.000Z</time>
      </trkpt>
      <trkpt lat="47.25614" lon="-2.30252">
        <ele>27.799999237061</ele>
        <time>2022-06-26T07:36:48.000Z</time>
      </trkpt>
      <trkpt lat="47.25621" lon="-2.3029">
        <ele>27.799999237061</ele>
        <time>2022-06-26T07:36:54.000Z</time>
      </trkpt>
      <trkpt lat="47.25623" lon="-2.30318">
        <ele>27.799999237061</ele>
        <time>2022-06-26T07:36:59.000Z</time>
      </trkpt>
      <trkpt lat="47.25628" lon="-2.30343">
        <ele>27.799999237061</ele>
        <time>2022-06-26T07:37:04.000Z</time>
      </trkpt>
      <trkpt lat="47.25631" lon="-2.30343">
        <ele>27.799999237061</ele>
        <time>2022-06-26T07:37:05.000Z</time>
      </trkpt>
      <trkpt lat="47.25644" lon="-2.30331">
        <ele>27.799999237061</ele>
        <time>2022-06-26T07:37:10.000Z</time>
      </trkpt>
      <trkpt lat="47.25653" lon="-2.30311">
        <ele>27.799999237061</ele>
        <time>2022-06-26T07:37:14.000Z</time>
      </trkpt>
      <trkpt lat="47.25655" lon="-2.30306">
        <ele>27.799999237061</ele>
        <time>2022-06-26T07:37:15.000Z</time>
      </trkpt>
      <trkpt lat="47.25656" lon="-2.30301">
        <ele>27.799999237061</ele>
        <time>2022-06-26T07:37:16.000Z</time>
      </trkpt>
      <trkpt lat="47.25658" lon="-2.30289">
        <ele>27.799999237061</ele>
        <time>2022-06-26T07:37:18.000Z</time>
      </trkpt>
      <trkpt lat="47.25667" lon="-2.3027">
        <ele>27.799999237061</ele>
        <time>2022-06-26T07:37:22.000Z</time>
      </trkpt>
      <trkpt lat="47.25674" lon="-2.30263">
        <ele>27.799999237061</ele>
        <time>2022-06-26T07:37:24.000Z</time>
      </trkpt>
      <trkpt lat="47.25677" lon="-2.30258">
        <ele>27.799999237061</ele>
        <time>2022-06-26T07:37:25.000Z</time>
      </trkpt>
      <trkpt lat="47.25682" lon="-2.30247">
        <ele>27.799999237061</ele>
        <time>2022-06-26T07:37:27.000Z</time>
      </trkpt>
      <trkpt lat="47.25694" lon="-2.30221">
        <ele>27.799999237061</ele>
        <time>2022-06-26T07:37:31.000Z</time>
      </trkpt>
      <trkpt lat="47.25702" lon="-2.30212">
        <ele>27.39999961853</ele>
        <time>2022-06-26T07:37:33.000Z</time>
      </trkpt>
      <trkpt lat="47.25707" lon="-2.30208">
        <ele>27</ele>
        <time>2022-06-26T07:37:34.000Z</time>
      </trkpt>
      <trkpt lat="47.25714" lon="-2.30206">
        <ele>26.39999961853</ele>
        <time>2022-06-26T07:37:35.000Z</time>
      </trkpt>
      <trkpt lat="47.2572" lon="-2.30205">
        <ele>26</ele>
        <time>2022-06-26T07:37:36.000Z</time>
      </trkpt>
      <trkpt lat="47.25726" lon="-2.30206">
        <ele>25.60000038147</ele>
        <time>2022-06-26T07:37:37.000Z</time>
      </trkpt>
      <trkpt lat="47.25745" lon="-2.30212">
        <ele>25.60000038147</ele>
        <time>2022-06-26T07:37:40.000Z</time>
      </trkpt>
      <trkpt lat="47.25764" lon="-2.30223">
        <ele>25.200000762939</ele>
        <time>2022-06-26T07:37:43.000Z</time>
      </trkpt>
      <trkpt lat="47.2577" lon="-2.30226">
        <ele>24.799999237061</ele>
        <time>2022-06-26T07:37:44.000Z</time>
      </trkpt>
      <trkpt lat="47.25776" lon="-2.30229">
        <ele>24.39999961853</ele>
        <time>2022-06-26T07:37:45.000Z</time>
      </trkpt>
      <trkpt lat="47.25783" lon="-2.30233">
        <ele>24</ele>
        <time>2022-06-26T07:37:46.000Z</time>
      </trkpt>
      <trkpt lat="47.25789" lon="-2.30237">
        <ele>23.60000038147</ele>
        <time>2022-06-26T07:37:47.000Z</time>
      </trkpt>
      <trkpt lat="47.25823" lon="-2.30251">
        <ele>23.60000038147</ele>
        <time>2022-06-26T07:37:52.000Z</time>
      </trkpt>
      <trkpt lat="47.25834" lon="-2.30256">
        <ele>23.60000038147</ele>
        <time>2022-06-26T07:37:54.000Z</time>
      </trkpt>
      <trkpt lat="47.25849" lon="-2.30263">
        <ele>23.60000038147</ele>
        <time>2022-06-26T07:37:57.000Z</time>
      </trkpt>
      <trkpt lat="47.25871" lon="-2.30271">
        <ele>23.60000038147</ele>
        <time>2022-06-26T07:38:02.000Z</time>
      </trkpt>
      <trkpt lat="47.25875" lon="-2.30269">
        <ele>23.60000038147</ele>
        <time>2022-06-26T07:38:03.000Z</time>
      </trkpt>
      <trkpt lat="47.25889" lon="-2.30252">
        <ele>23.60000038147</ele>
        <time>2022-06-26T07:38:07.000Z</time>
      </trkpt>
      <trkpt lat="47.25892" lon="-2.30246">
        <ele>23.60000038147</ele>
        <time>2022-06-26T07:38:08.000Z</time>
      </trkpt>
      <trkpt lat="47.25894" lon="-2.30224">
        <ele>23.60000038147</ele>
        <time>2022-06-26T07:38:11.000Z</time>
      </trkpt>
      <trkpt lat="47.25894" lon="-2.30217">
        <ele>23.60000038147</ele>
        <time>2022-06-26T07:38:12.000Z</time>
      </trkpt>
      <trkpt lat="47.25886" lon="-2.30192">
        <ele>23.60000038147</ele>
        <time>2022-06-26T07:38:16.000Z</time>
      </trkpt>
      <trkpt lat="47.25883" lon="-2.30187">
        <ele>23.60000038147</ele>
        <time>2022-06-26T07:38:17.000Z</time>
      </trkpt>
      <trkpt lat="47.25879" lon="-2.30178">
        <ele>23.60000038147</ele>
        <time>2022-06-26T07:38:20.000Z</time>
      </trkpt>
      <trkpt lat="47.25879" lon="-2.30177">
        <ele>23.60000038147</ele>
        <time>2022-06-26T07:38:22.000Z</time>
      </trkpt>
      <trkpt lat="47.2588" lon="-2.30175">
        <ele>23.60000038147</ele>
        <time>2022-06-26T07:38:34.000Z</time>
      </trkpt>
      <trkpt lat="47.2588" lon="-2.30173">
        <ele>23.60000038147</ele>
        <time>2022-06-26T07:38:35.000Z</time>
      </trkpt>
      <trkpt lat="47.25885" lon="-2.30163">
        <ele>23.60000038147</ele>
        <time>2022-06-26T07:38:38.000Z</time>
      </trkpt>
      <trkpt lat="47.25887" lon="-2.30158">
        <ele>23.60000038147</ele>
        <time>2022-06-26T07:38:39.000Z</time>
      </trkpt>
      <trkpt lat="47.25888" lon="-2.30152">
        <ele>23.60000038147</ele>
        <time>2022-06-26T07:38:40.000Z</time>
      </trkpt>
      <trkpt lat="47.25888" lon="-2.3014">
        <ele>23.60000038147</ele>
        <time>2022-06-26T07:38:42.000Z</time>
      </trkpt>
      <trkpt lat="47.25888" lon="-2.30134">
        <ele>23.60000038147</ele>
        <time>2022-06-26T07:38:43.000Z</time>
      </trkpt>
      <trkpt lat="47.25884" lon="-2.30098">
        <ele>23.60000038147</ele>
        <time>2022-06-26T07:38:49.000Z</time>
      </trkpt>
      <trkpt lat="47.25877" lon="-2.30053">
        <ele>23.60000038147</ele>
        <time>2022-06-26T07:38:57.000Z</time>
      </trkpt>
      <trkpt lat="47.25878" lon="-2.30023">
        <ele>23.60000038147</ele>
        <time>2022-06-26T07:39:03.000Z</time>
      </trkpt>
      <trkpt lat="47.25882" lon="-2.30001">
        <ele>23.60000038147</ele>
        <time>2022-06-26T07:39:08.000Z</time>
      </trkpt>
      <trkpt lat="47.25889" lon="-2.29976">
        <ele>23.60000038147</ele>
        <time>2022-06-26T07:39:15.000Z</time>
      </trkpt>
      <trkpt lat="47.25889" lon="-2.29976">
        <ele>23.60000038147</ele>
        <time>2022-06-26T07:39:16.000Z</time>
      </trkpt>
      <trkpt lat="47.25889" lon="-2.29974">
        <ele>23.60000038147</ele>
        <time>2022-06-26T07:39:34.000Z</time>
      </trkpt>
      <trkpt lat="47.2589" lon="-2.29972">
        <ele>23.60000038147</ele>
        <time>2022-06-26T07:39:35.000Z</time>
      </trkpt>
      <trkpt lat="47.25886" lon="-2.2997">
        <ele>23.60000038147</ele>
        <time>2022-06-26T07:39:38.000Z</time>
      </trkpt>
      <trkpt lat="47.25884" lon="-2.29981">
        <ele>23.60000038147</ele>
        <time>2022-06-26T07:39:41.000Z</time>
      </trkpt>
      <trkpt lat="47.25883" lon="-2.29986">
        <ele>23.60000038147</ele>
        <time>2022-06-26T07:39:42.000Z</time>
      </trkpt>
      <trkpt lat="47.25879" lon="-2.30018">
        <ele>23.60000038147</ele>
        <time>2022-06-26T07:39:48.000Z</time>
      </trkpt>
      <trkpt lat="47.25877" lon="-2.30044">
        <ele>23.60000038147</ele>
        <time>2022-06-26T07:39:53.000Z</time>
      </trkpt>
      <trkpt lat="47.25885" lon="-2.30064">
        <ele>23.60000038147</ele>
        <time>2022-06-26T07:39:58.000Z</time>
      </trkpt>
      <trkpt lat="47.25886" lon="-2.30067">
        <ele>23.60000038147</ele>
        <time>2022-06-26T07:39:59.000Z</time>
      </trkpt>
      <trkpt lat="47.25883" lon="-2.30073">
        <ele>23.60000038147</ele>
        <time>2022-06-26T07:40:02.000Z</time>
      </trkpt>
      <trkpt lat="47.25883" lon="-2.30086">
        <ele>23.60000038147</ele>
        <time>2022-06-26T07:40:06.000Z</time>
      </trkpt>
      <trkpt lat="47.25886" lon="-2.30106">
        <ele>23.60000038147</ele>
        <time>2022-06-26T07:40:11.000Z</time>
      </trkpt>
      <trkpt lat="47.25889" lon="-2.30146">
        <ele>23.60000038147</ele>
        <time>2022-06-26T07:40:18.000Z</time>
      </trkpt>
      <trkpt lat="47.25891" lon="-2.30164">
        <ele>23.60000038147</ele>
        <time>2022-06-26T07:40:21.000Z</time>
      </trkpt>
      <trkpt lat="47.25896" lon="-2.30173">
        <ele>23.60000038147</ele>
        <time>2022-06-26T07:40:23.000Z</time>
      </trkpt>
      <trkpt lat="47.2591" lon="-2.30174">
        <ele>23.60000038147</ele>
        <time>2022-06-26T07:40:26.000Z</time>
      </trkpt>
      <trkpt lat="47.25915" lon="-2.30172">
        <ele>23.60000038147</ele>
        <time>2022-06-26T07:40:27.000Z</time>
      </trkpt>
      <trkpt lat="47.25936" lon="-2.30168">
        <ele>23.60000038147</ele>
        <time>2022-06-26T07:40:31.000Z</time>
      </trkpt>
      <trkpt lat="47.25942" lon="-2.30165">
        <ele>23.60000038147</ele>
        <time>2022-06-26T07:40:32.000Z</time>
      </trkpt>
      <trkpt lat="47.25948" lon="-2.30162">
        <ele>23.200000762939</ele>
        <time>2022-06-26T07:40:33.000Z</time>
      </trkpt>
      <trkpt lat="47.25953" lon="-2.30158">
        <ele>22.799999237061</ele>
        <time>2022-06-26T07:40:34.000Z</time>
      </trkpt>
      <trkpt lat="47.25957" lon="-2.30153">
        <ele>22.39999961853</ele>
        <time>2022-06-26T07:40:35.000Z</time>
      </trkpt>
      <trkpt lat="47.25961" lon="-2.30147">
        <ele>22</ele>
        <time>2022-06-26T07:40:36.000Z</time>
      </trkpt>
      <trkpt lat="47.25965" lon="-2.3014">
        <ele>21.39999961853</ele>
        <time>2022-06-26T07:40:37.000Z</time>
      </trkpt>
      <trkpt lat="47.25976" lon="-2.30131">
        <ele>21.39999961853</ele>
        <time>2022-06-26T07:40:40.000Z</time>
      </trkpt>
      <trkpt lat="47.25979" lon="-2.30131">
        <ele>21.39999961853</ele>
        <time>2022-06-26T07:40:41.000Z</time>
      </trkpt>
      <trkpt lat="47.25989" lon="-2.3013">
        <ele>21.39999961853</ele>
        <time>2022-06-26T07:40:44.000Z</time>
      </trkpt>
      <trkpt lat="47.26006" lon="-2.30129">
        <ele>21.39999961853</ele>
        <time>2022-06-26T07:40:49.000Z</time>
      </trkpt>
      <trkpt lat="47.26023" lon="-2.30134">
        <ele>21.39999961853</ele>
        <time>2022-06-26T07:40:54.000Z</time>
      </trkpt>
      <trkpt lat="47.26031" lon="-2.30135">
        <ele>22</ele>
        <time>2022-06-26T07:40:56.000Z</time>
      </trkpt>
      <trkpt lat="47.26036" lon="-2.30135">
        <ele>22.39999961853</ele>
        <time>2022-06-26T07:40:57.000Z</time>
      </trkpt>
      <trkpt lat="47.2604" lon="-2.30135">
        <ele>23.200000762939</ele>
        <time>2022-06-26T07:40:58.000Z</time>
      </trkpt>
      <trkpt lat="47.26045" lon="-2.30134">
        <ele>23.60000038147</ele>
        <time>2022-06-26T07:40:59.000Z</time>
      </trkpt>
      <trkpt lat="47.26059" lon="-2.30143">
        <ele>23.60000038147</ele>
        <time>2022-06-26T07:41:03.000Z</time>
      </trkpt>
      <trkpt lat="47.26072" lon="-2.3015">
        <ele>24</ele>
        <time>2022-06-26T07:41:07.000Z</time>
      </trkpt>
      <trkpt lat="47.26075" lon="-2.3015">
        <ele>24.60000038147</ele>
        <time>2022-06-26T07:41:08.000Z</time>
      </trkpt>
      <trkpt lat="47.26078" lon="-2.30149">
        <ele>25</ele>
        <time>2022-06-26T07:41:09.000Z</time>
      </trkpt>
      <trkpt lat="47.26081" lon="-2.30149">
        <ele>25.39999961853</ele>
        <time>2022-06-26T07:41:10.000Z</time>
      </trkpt>
      <trkpt lat="47.26084" lon="-2.30149">
        <ele>26</ele>
        <time>2022-06-26T07:41:11.000Z</time>
      </trkpt>
      <trkpt lat="47.26089" lon="-2.30157">
        <ele>26</ele>
        <time>2022-06-26T07:41:13.000Z</time>
      </trkpt>
      <trkpt lat="47.26099" lon="-2.30162">
        <ele>26</ele>
        <time>2022-06-26T07:41:16.000Z</time>
      </trkpt>
      <trkpt lat="47.26102" lon="-2.30163">
        <ele>26</ele>
        <time>2022-06-26T07:41:17.000Z</time>
      </trkpt>
      <trkpt lat="47.26107" lon="-2.30161">
        <ele>26.39999961853</ele>
        <time>2022-06-26T07:41:18.000Z</time>
      </trkpt>
      <trkpt lat="47.26111" lon="-2.3016">
        <ele>26.799999237061</ele>
        <time>2022-06-26T07:41:19.000Z</time>
      </trkpt>
      <trkpt lat="47.26115" lon="-2.30159">
        <ele>27.200000762939</ele>
        <time>2022-06-26T07:41:20.000Z</time>
      </trkpt>
      <trkpt lat="47.26119" lon="-2.30157">
        <ele>27.60000038147</ele>
        <time>2022-06-26T07:41:21.000Z</time>
      </trkpt>
      <trkpt lat="47.26123" lon="-2.30156">
        <ele>28.200000762939</ele>
        <time>2022-06-26T07:41:22.000Z</time>
      </trkpt>
      <trkpt lat="47.26137" lon="-2.30151">
        <ele>28.200000762939</ele>
        <time>2022-06-26T07:41:26.000Z</time>
      </trkpt>
      <trkpt lat="47.26146" lon="-2.3015">
        <ele>28.60000038147</ele>
        <time>2022-06-26T07:41:29.000Z</time>
      </trkpt>
      <trkpt lat="47.26149" lon="-2.30149">
        <ele>29</ele>
        <time>2022-06-26T07:41:30.000Z</time>
      </trkpt>
      <trkpt lat="47.26152" lon="-2.30148">
        <ele>29.39999961853</ele>
        <time>2022-06-26T07:41:31.000Z</time>
      </trkpt>
      <trkpt lat="47.26155" lon="-2.30148">
        <ele>29.799999237061</ele>
        <time>2022-06-26T07:41:32.000Z</time>
      </trkpt>
      <trkpt lat="47.26158" lon="-2.30147">
        <ele>30.200000762939</ele>
        <time>2022-06-26T07:41:33.000Z</time>
      </trkpt>
      <trkpt lat="47.26166" lon="-2.30148">
        <ele>30.200000762939</ele>
        <time>2022-06-26T07:41:36.000Z</time>
      </trkpt>
      <trkpt lat="47.26168" lon="-2.30151">
        <ele>30.200000762939</ele>
        <time>2022-06-26T07:41:37.000Z</time>
      </trkpt>
      <trkpt lat="47.26172" lon="-2.30154">
        <ele>30.200000762939</ele>
        <time>2022-06-26T07:41:39.000Z</time>
      </trkpt>
      <trkpt lat="47.26178" lon="-2.30152">
        <ele>30.200000762939</ele>
        <time>2022-06-26T07:41:41.000Z</time>
      </trkpt>
      <trkpt lat="47.26193" lon="-2.30146">
        <ele>30.60000038147</ele>
        <time>2022-06-26T07:41:45.000Z</time>
      </trkpt>
      <trkpt lat="47.26196" lon="-2.30144">
        <ele>31</ele>
        <time>2022-06-26T07:41:46.000Z</time>
      </trkpt>
      <trkpt lat="47.262" lon="-2.30143">
        <ele>31.39999961853</ele>
        <time>2022-06-26T07:41:47.000Z</time>
      </trkpt>
      <trkpt lat="47.26204" lon="-2.30141">
        <ele>32.200000762939</ele>
        <time>2022-06-26T07:41:48.000Z</time>
      </trkpt>
      <trkpt lat="47.26227" lon="-2.30132">
        <ele>32.200000762939</ele>
        <time>2022-06-26T07:41:54.000Z</time>
      </trkpt>
      <trkpt lat="47.26245" lon="-2.3013">
        <ele>32.200000762939</ele>
        <time>2022-06-26T07:41:59.000Z</time>
      </trkpt>
      <trkpt lat="47.26256" lon="-2.30149">
        <ele>32.200000762939</ele>
        <time>2022-06-26T07:42:03.000Z</time>
      </trkpt>
      <trkpt lat="47.26269" lon="-2.30193">
        <ele>32.200000762939</ele>
        <time>2022-06-26T07:42:09.000Z</time>
      </trkpt>
      <trkpt lat="47.26282" lon="-2.30247">
        <ele>32.200000762939</ele>
        <time>2022-06-26T07:42:15.000Z</time>
      </trkpt>
      <trkpt lat="47.26291" lon="-2.30293">
        <ele>32.200000762939</ele>
        <time>2022-06-26T07:42:20.000Z</time>
      </trkpt>
      <trkpt lat="47.26296" lon="-2.3031">
        <ele>32.200000762939</ele>
        <time>2022-06-26T07:42:22.000Z</time>
      </trkpt>
      <trkpt lat="47.26302" lon="-2.3033">
        <ele>32.200000762939</ele>
        <time>2022-06-26T07:42:25.000Z</time>
      </trkpt>
      <trkpt lat="47.26304" lon="-2.30345">
        <ele>32.200000762939</ele>
        <time>2022-06-26T07:42:27.000Z</time>
      </trkpt>
      <trkpt lat="47.26312" lon="-2.30404">
        <ele>32.200000762939</ele>
        <time>2022-06-26T07:42:35.000Z</time>
      </trkpt>
      <trkpt lat="47.26315" lon="-2.30417">
        <ele>32.200000762939</ele>
        <time>2022-06-26T07:42:37.000Z</time>
      </trkpt>
      <trkpt lat="47.26322" lon="-2.30443">
        <ele>32.200000762939</ele>
        <time>2022-06-26T07:42:41.000Z</time>
      </trkpt>
      <trkpt lat="47.26323" lon="-2.3045">
        <ele>32.200000762939</ele>
        <time>2022-06-26T07:42:42.000Z</time>
      </trkpt>
      <trkpt lat="47.26326" lon="-2.30465">
        <ele>32.200000762939</ele>
        <time>2022-06-26T07:42:44.000Z</time>
      </trkpt>
      <trkpt lat="47.26329" lon="-2.30481">
        <ele>32.200000762939</ele>
        <time>2022-06-26T07:42:46.000Z</time>
      </trkpt>
      <trkpt lat="47.26341" lon="-2.30532">
        <ele>32.200000762939</ele>
        <time>2022-06-26T07:42:53.000Z</time>
      </trkpt>
      <trkpt lat="47.26343" lon="-2.30539">
        <ele>32.200000762939</ele>
        <time>2022-06-26T07:42:54.000Z</time>
      </trkpt>
      <trkpt lat="47.26345" lon="-2.30566">
        <ele>32.200000762939</ele>
        <time>2022-06-26T07:42:58.000Z</time>
      </trkpt>
      <trkpt lat="47.26346" lon="-2.30581">
        <ele>32.200000762939</ele>
        <time>2022-06-26T07:43:00.000Z</time>
      </trkpt>
      <trkpt lat="47.26357" lon="-2.30611">
        <ele>32.200000762939</ele>
        <time>2022-06-26T07:43:04.000Z</time>
      </trkpt>
      <trkpt lat="47.26368" lon="-2.30637">
        <ele>32.200000762939</ele>
        <time>2022-06-26T07:43:08.000Z</time>
      </trkpt>
      <trkpt lat="47.26371" lon="-2.30643">
        <ele>32.200000762939</ele>
        <time>2022-06-26T07:43:09.000Z</time>
      </trkpt>
      <trkpt lat="47.26374" lon="-2.30649">
        <ele>31.799999237061</ele>
        <time>2022-06-26T07:43:10.000Z</time>
      </trkpt>
      <trkpt lat="47.26378" lon="-2.30655">
        <ele>31.39999961853</ele>
        <time>2022-06-26T07:43:11.000Z</time>
      </trkpt>
      <trkpt lat="47.26382" lon="-2.30659">
        <ele>31</ele>
        <time>2022-06-26T07:43:12.000Z</time>
      </trkpt>
      <trkpt lat="47.26386" lon="-2.30663">
        <ele>30.60000038147</ele>
        <time>2022-06-26T07:43:13.000Z</time>
      </trkpt>
      <trkpt lat="47.26391" lon="-2.30666">
        <ele>30.200000762939</ele>
        <time>2022-06-26T07:43:14.000Z</time>
      </trkpt>
      <trkpt lat="47.26414" lon="-2.30683">
        <ele>30.200000762939</ele>
        <time>2022-06-26T07:43:20.000Z</time>
      </trkpt>
      <trkpt lat="47.26423" lon="-2.30702">
        <ele>30.200000762939</ele>
        <time>2022-06-26T07:43:24.000Z</time>
      </trkpt>
      <trkpt lat="47.26439" lon="-2.30742">
        <ele>30.200000762939</ele>
        <time>2022-06-26T07:43:31.000Z</time>
      </trkpt>
      <trkpt lat="47.26453" lon="-2.30776">
        <ele>29.799999237061</ele>
        <time>2022-06-26T07:43:36.000Z</time>
      </trkpt>
      <trkpt lat="47.26456" lon="-2.30783">
        <ele>29.39999961853</ele>
        <time>2022-06-26T07:43:37.000Z</time>
      </trkpt>
      <trkpt lat="47.26459" lon="-2.30792">
        <ele>28.799999237061</ele>
        <time>2022-06-26T07:43:38.000Z</time>
      </trkpt>
      <trkpt lat="47.26461" lon="-2.30799">
        <ele>28.39999961853</ele>
        <time>2022-06-26T07:43:39.000Z</time>
      </trkpt>
      <trkpt lat="47.26464" lon="-2.30805">
        <ele>28</ele>
        <time>2022-06-26T07:43:40.000Z</time>
      </trkpt>
      <trkpt lat="47.26469" lon="-2.30819">
        <ele>28</ele>
        <time>2022-06-26T07:43:42.000Z</time>
      </trkpt>
      <trkpt lat="47.26471" lon="-2.30825">
        <ele>28</ele>
        <time>2022-06-26T07:43:43.000Z</time>
      </trkpt>
      <trkpt lat="47.26474" lon="-2.30831">
        <ele>27.60000038147</ele>
        <time>2022-06-26T07:43:44.000Z</time>
      </trkpt>
      <trkpt lat="47.26476" lon="-2.30837">
        <ele>27.200000762939</ele>
        <time>2022-06-26T07:43:45.000Z</time>
      </trkpt>
      <trkpt lat="47.26479" lon="-2.30842">
        <ele>26.799999237061</ele>
        <time>2022-06-26T07:43:46.000Z</time>
      </trkpt>
      <trkpt lat="47.26481" lon="-2.30846">
        <ele>26.39999961853</ele>
        <time>2022-06-26T07:43:47.000Z</time>
      </trkpt>
      <trkpt lat="47.26483" lon="-2.30851">
        <ele>26</ele>
        <time>2022-06-26T07:43:48.000Z</time>
      </trkpt>
      <trkpt lat="47.26488" lon="-2.30859">
        <ele>25.60000038147</ele>
        <time>2022-06-26T07:43:50.000Z</time>
      </trkpt>
      <trkpt lat="47.26491" lon="-2.30863">
        <ele>24.60000038147</ele>
        <time>2022-06-26T07:43:51.000Z</time>
      </trkpt>
      <trkpt lat="47.26493" lon="-2.30868">
        <ele>24.200000762939</ele>
        <time>2022-06-26T07:43:52.000Z</time>
      </trkpt>
      <trkpt lat="47.26496" lon="-2.30872">
        <ele>23.60000038147</ele>
        <time>2022-06-26T07:43:53.000Z</time>
      </trkpt>
      <trkpt lat="47.265" lon="-2.30876">
        <ele>23</ele>
        <time>2022-06-26T07:43:54.000Z</time>
      </trkpt>
      <trkpt lat="47.26503" lon="-2.30877">
        <ele>22.39999961853</ele>
        <time>2022-06-26T07:43:55.000Z</time>
      </trkpt>
      <trkpt lat="47.26506" lon="-2.30876">
        <ele>21.799999237061</ele>
        <time>2022-06-26T07:43:56.000Z</time>
      </trkpt>
      <trkpt lat="47.26508" lon="-2.30875">
        <ele>21.200000762939</ele>
        <time>2022-06-26T07:43:57.000Z</time>
      </trkpt>
      <trkpt lat="47.2652" lon="-2.30865">
        <ele>21.200000762939</ele>
        <time>2022-06-26T07:44:01.000Z</time>
      </trkpt>
      <trkpt lat="47.26527" lon="-2.30856">
        <ele>21.200000762939</ele>
        <time>2022-06-26T07:44:04.000Z</time>
      </trkpt>
      <trkpt lat="47.26532" lon="-2.3085">
        <ele>21.200000762939</ele>
        <time>2022-06-26T07:44:06.000Z</time>
      </trkpt>
      <trkpt lat="47.26541" lon="-2.30844">
        <ele>21.200000762939</ele>
        <time>2022-06-26T07:44:09.000Z</time>
      </trkpt>
      <trkpt lat="47.26543" lon="-2.30843">
        <ele>21.200000762939</ele>
        <time>2022-06-26T07:44:10.000Z</time>
      </trkpt>
      <trkpt lat="47.26549" lon="-2.30835">
        <ele>21.200000762939</ele>
        <time>2022-06-26T07:44:14.000Z</time>
      </trkpt>
      <trkpt lat="47.26552" lon="-2.30831">
        <ele>21.60000038147</ele>
        <time>2022-06-26T07:44:16.000Z</time>
      </trkpt>
      <trkpt lat="47.26554" lon="-2.30828">
        <ele>22</ele>
        <time>2022-06-26T07:44:17.000Z</time>
      </trkpt>
      <trkpt lat="47.26557" lon="-2.30825">
        <ele>22.39999961853</ele>
        <time>2022-06-26T07:44:18.000Z</time>
      </trkpt>
      <trkpt lat="47.26559" lon="-2.30822">
        <ele>23</ele>
        <time>2022-06-26T07:44:19.000Z</time>
      </trkpt>
      <trkpt lat="47.26562" lon="-2.3082">
        <ele>23.39999961853</ele>
        <time>2022-06-26T07:44:20.000Z</time>
      </trkpt>
      <trkpt lat="47.26582" lon="-2.308">
        <ele>23.39999961853</ele>
        <time>2022-06-26T07:44:26.000Z</time>
      </trkpt>
      <trkpt lat="47.26594" lon="-2.30787">
        <ele>23.799999237061</ele>
        <time>2022-06-26T07:44:29.000Z</time>
      </trkpt>
      <trkpt lat="47.26597" lon="-2.30782">
        <ele>24.200000762939</ele>
        <time>2022-06-26T07:44:30.000Z</time>
      </trkpt>
      <trkpt lat="47.26599" lon="-2.30777">
        <ele>24.60000038147</ele>
        <time>2022-06-26T07:44:31.000Z</time>
      </trkpt>
      <trkpt lat="47.26601" lon="-2.30772">
        <ele>25</ele>
        <time>2022-06-26T07:44:32.000Z</time>
      </trkpt>
      <trkpt lat="47.26603" lon="-2.30768">
        <ele>25.39999961853</ele>
        <time>2022-06-26T07:44:33.000Z</time>
      </trkpt>
      <trkpt lat="47.26611" lon="-2.30751">
        <ele>25.39999961853</ele>
        <time>2022-06-26T07:44:37.000Z</time>
      </trkpt>
      <trkpt lat="47.26633" lon="-2.30726">
        <ele>25.39999961853</ele>
        <time>2022-06-26T07:44:42.000Z</time>
      </trkpt>
      <trkpt lat="47.26637" lon="-2.30715">
        <ele>25.799999237061</ele>
        <time>2022-06-26T07:44:44.000Z</time>
      </trkpt>
      <trkpt lat="47.26639" lon="-2.3071">
        <ele>26.200000762939</ele>
        <time>2022-06-26T07:44:45.000Z</time>
      </trkpt>
      <trkpt lat="47.2664" lon="-2.30706">
        <ele>26.60000038147</ele>
        <time>2022-06-26T07:44:46.000Z</time>
      </trkpt>
      <trkpt lat="47.26644" lon="-2.307">
        <ele>27</ele>
        <time>2022-06-26T07:44:47.000Z</time>
      </trkpt>
      <trkpt lat="47.26647" lon="-2.30697">
        <ele>27.39999961853</ele>
        <time>2022-06-26T07:44:48.000Z</time>
      </trkpt>
      <trkpt lat="47.26656" lon="-2.30702">
        <ele>27.39999961853</ele>
        <time>2022-06-26T07:44:52.000Z</time>
      </trkpt>
      <trkpt lat="47.26662" lon="-2.30715">
        <ele>27.39999961853</ele>
        <time>2022-06-26T07:44:55.000Z</time>
      </trkpt>
      <trkpt lat="47.26667" lon="-2.30722">
        <ele>27.39999961853</ele>
        <time>2022-06-26T07:44:56.000Z</time>
      </trkpt>
      <trkpt lat="47.26671" lon="-2.30731">
        <ele>27.39999961853</ele>
        <time>2022-06-26T07:44:57.000Z</time>
      </trkpt>
      <trkpt lat="47.26682" lon="-2.30754">
        <ele>27.39999961853</ele>
        <time>2022-06-26T07:45:00.000Z</time>
      </trkpt>
      <trkpt lat="47.26686" lon="-2.30761">
        <ele>27.799999237061</ele>
        <time>2022-06-26T07:45:01.000Z</time>
      </trkpt>
      <trkpt lat="47.26689" lon="-2.30767">
        <ele>28.200000762939</ele>
        <time>2022-06-26T07:45:02.000Z</time>
      </trkpt>
      <trkpt lat="47.26691" lon="-2.30773">
        <ele>28.60000038147</ele>
        <time>2022-06-26T07:45:03.000Z</time>
      </trkpt>
      <trkpt lat="47.26694" lon="-2.30779">
        <ele>29.200000762939</ele>
        <time>2022-06-26T07:45:04.000Z</time>
      </trkpt>
      <trkpt lat="47.26695" lon="-2.30784">
        <ele>29.60000038147</ele>
        <time>2022-06-26T07:45:05.000Z</time>
      </trkpt>
      <trkpt lat="47.26706" lon="-2.30811">
        <ele>29.60000038147</ele>
        <time>2022-06-26T07:45:10.000Z</time>
      </trkpt>
      <trkpt lat="47.2671" lon="-2.30822">
        <ele>30</ele>
        <time>2022-06-26T07:45:12.000Z</time>
      </trkpt>
      <trkpt lat="47.26712" lon="-2.30827">
        <ele>30.39999961853</ele>
        <time>2022-06-26T07:45:13.000Z</time>
      </trkpt>
      <trkpt lat="47.26715" lon="-2.30832">
        <ele>30.799999237061</ele>
        <time>2022-06-26T07:45:14.000Z</time>
      </trkpt>
      <trkpt lat="47.26717" lon="-2.30837">
        <ele>31.200000762939</ele>
        <time>2022-06-26T07:45:15.000Z</time>
      </trkpt>
      <trkpt lat="47.2672" lon="-2.30843">
        <ele>31.799999237061</ele>
        <time>2022-06-26T07:45:16.000Z</time>
      </trkpt>
      <trkpt lat="47.26722" lon="-2.30848">
        <ele>31.799999237061</ele>
        <time>2022-06-26T07:45:17.000Z</time>
      </trkpt>
      <trkpt lat="47.26741" lon="-2.30868">
        <ele>31.799999237061</ele>
        <time>2022-06-26T07:45:23.000Z</time>
      </trkpt>
      <trkpt lat="47.26749" lon="-2.30865">
        <ele>31.799999237061</ele>
        <time>2022-06-26T07:45:25.000Z</time>
      </trkpt>
      <trkpt lat="47.26753" lon="-2.30861">
        <ele>31.799999237061</ele>
        <time>2022-06-26T07:45:26.000Z</time>
      </trkpt>
      <trkpt lat="47.26782" lon="-2.30831">
        <ele>31.799999237061</ele>
        <time>2022-06-26T07:45:33.000Z</time>
      </trkpt>
      <trkpt lat="47.26806" lon="-2.30804">
        <ele>31.799999237061</ele>
        <time>2022-06-26T07:45:39.000Z</time>
      </trkpt>
      <trkpt lat="47.26811" lon="-2.308">
        <ele>31.799999237061</ele>
        <time>2022-06-26T07:45:40.000Z</time>
      </trkpt>
      <trkpt lat="47.26825" lon="-2.30789">
        <ele>31.799999237061</ele>
        <time>2022-06-26T07:45:43.000Z</time>
      </trkpt>
      <trkpt lat="47.26833" lon="-2.30777">
        <ele>31.799999237061</ele>
        <time>2022-06-26T07:45:45.000Z</time>
      </trkpt>
      <trkpt lat="47.26841" lon="-2.30757">
        <ele>31.799999237061</ele>
        <time>2022-06-26T07:45:48.000Z</time>
      </trkpt>
      <trkpt lat="47.26843" lon="-2.3075">
        <ele>31.799999237061</ele>
        <time>2022-06-26T07:45:49.000Z</time>
      </trkpt>
      <trkpt lat="47.26862" lon="-2.30703">
        <ele>31.799999237061</ele>
        <time>2022-06-26T07:45:56.000Z</time>
      </trkpt>
      <trkpt lat="47.26888" lon="-2.30667">
        <ele>31.799999237061</ele>
        <time>2022-06-26T07:46:03.000Z</time>
      </trkpt>
      <trkpt lat="47.26908" lon="-2.30645">
        <ele>31.799999237061</ele>
        <time>2022-06-26T07:46:08.000Z</time>
      </trkpt>
      <trkpt lat="47.26917" lon="-2.30639">
        <ele>31.799999237061</ele>
        <time>2022-06-26T07:46:10.000Z</time>
      </trkpt>
      <trkpt lat="47.26932" lon="-2.3063">
        <ele>31.799999237061</ele>
        <time>2022-06-26T07:46:13.000Z</time>
      </trkpt>
      <trkpt lat="47.26944" lon="-2.30628">
        <ele>31.799999237061</ele>
        <time>2022-06-26T07:46:15.000Z</time>
      </trkpt>
      <trkpt lat="47.26984" lon="-2.30614">
        <ele>31.799999237061</ele>
        <time>2022-06-26T07:46:22.000Z</time>
      </trkpt>
      <trkpt lat="47.27001" lon="-2.30602">
        <ele>31.799999237061</ele>
        <time>2022-06-26T07:46:25.000Z</time>
      </trkpt>
      <trkpt lat="47.2701" lon="-2.30589">
        <ele>31.799999237061</ele>
        <time>2022-06-26T07:46:27.000Z</time>
      </trkpt>
      <trkpt lat="47.27016" lon="-2.30571">
        <ele>31.799999237061</ele>
        <time>2022-06-26T07:46:29.000Z</time>
      </trkpt>
      <trkpt lat="47.27021" lon="-2.30554">
        <ele>31.799999237061</ele>
        <time>2022-06-26T07:46:31.000Z</time>
      </trkpt>
      <trkpt lat="47.27033" lon="-2.30502">
        <ele>31.799999237061</ele>
        <time>2022-06-26T07:46:37.000Z</time>
      </trkpt>
      <trkpt lat="47.27042" lon="-2.30471">
        <ele>31.799999237061</ele>
        <time>2022-06-26T07:46:42.000Z</time>
      </trkpt>
      <trkpt lat="47.27044" lon="-2.30469">
        <ele>31.200000762939</ele>
        <time>2022-06-26T07:46:44.000Z</time>
      </trkpt>
      <trkpt lat="47.27046" lon="-2.30469">
        <ele>30.799999237061</ele>
        <time>2022-06-26T07:46:45.000Z</time>
      </trkpt>
      <trkpt lat="47.27048" lon="-2.3047">
        <ele>30.39999961853</ele>
        <time>2022-06-26T07:46:46.000Z</time>
      </trkpt>
      <trkpt lat="47.2705" lon="-2.30472">
        <ele>30</ele>
        <time>2022-06-26T07:46:47.000Z</time>
      </trkpt>
      <trkpt lat="47.27053" lon="-2.30474">
        <ele>29.60000038147</ele>
        <time>2022-06-26T07:46:48.000Z</time>
      </trkpt>
      <trkpt lat="47.2706" lon="-2.30474">
        <ele>29.60000038147</ele>
        <time>2022-06-26T07:46:50.000Z</time>
      </trkpt>
      <trkpt lat="47.27077" lon="-2.3048">
        <ele>29.60000038147</ele>
        <time>2022-06-26T07:46:55.000Z</time>
      </trkpt>
      <trkpt lat="47.27089" lon="-2.30483">
        <ele>29.200000762939</ele>
        <time>2022-06-26T07:46:58.000Z</time>
      </trkpt>
      <trkpt lat="47.27093" lon="-2.30484">
        <ele>28.799999237061</ele>
        <time>2022-06-26T07:46:59.000Z</time>
      </trkpt>
      <trkpt lat="47.27097" lon="-2.30484">
        <ele>28.39999961853</ele>
        <time>2022-06-26T07:47:00.000Z</time>
      </trkpt>
      <trkpt lat="47.27101" lon="-2.30486">
        <ele>28</ele>
        <time>2022-06-26T07:47:01.000Z</time>
      </trkpt>
      <trkpt lat="47.27106" lon="-2.30489">
        <ele>27.60000038147</ele>
        <time>2022-06-26T07:47:02.000Z</time>
      </trkpt>
      <trkpt lat="47.27121" lon="-2.30496">
        <ele>27.60000038147</ele>
        <time>2022-06-26T07:47:05.000Z</time>
      </trkpt>
      <trkpt lat="47.27126" lon="-2.30498">
        <ele>27.60000038147</ele>
        <time>2022-06-26T07:47:06.000Z</time>
      </trkpt>
      <trkpt lat="47.27142" lon="-2.30508">
        <ele>27.200000762939</ele>
        <time>2022-06-26T07:47:10.000Z</time>
      </trkpt>
      <trkpt lat="47.27146" lon="-2.30512">
        <ele>26.799999237061</ele>
        <time>2022-06-26T07:47:11.000Z</time>
      </trkpt>
      <trkpt lat="47.27149" lon="-2.30516">
        <ele>26.39999961853</ele>
        <time>2022-06-26T07:47:12.000Z</time>
      </trkpt>
      <trkpt lat="47.27152" lon="-2.30518">
        <ele>26</ele>
        <time>2022-06-26T07:47:13.000Z</time>
      </trkpt>
      <trkpt lat="47.27156" lon="-2.30521">
        <ele>25.60000038147</ele>
        <time>2022-06-26T07:47:14.000Z</time>
      </trkpt>
      <trkpt lat="47.27162" lon="-2.30526">
        <ele>25.60000038147</ele>
        <time>2022-06-26T07:47:16.000Z</time>
      </trkpt>
      <trkpt lat="47.27181" lon="-2.30533">
        <ele>25.60000038147</ele>
        <time>2022-06-26T07:47:22.000Z</time>
      </trkpt>
      <trkpt lat="47.27207" lon="-2.30539">
        <ele>25.200000762939</ele>
        <time>2022-06-26T07:47:31.000Z</time>
      </trkpt>
      <trkpt lat="47.2721" lon="-2.30539">
        <ele>24.60000038147</ele>
        <time>2022-06-26T07:47:32.000Z</time>
      </trkpt>
      <trkpt lat="47.27213" lon="-2.30539">
        <ele>24.200000762939</ele>
        <time>2022-06-26T07:47:33.000Z</time>
      </trkpt>
      <trkpt lat="47.27217" lon="-2.30538">
        <ele>23.39999961853</ele>
        <time>2022-06-26T07:47:34.000Z</time>
      </trkpt>
      <trkpt lat="47.27224" lon="-2.30539">
        <ele>23.39999961853</ele>
        <time>2022-06-26T07:47:36.000Z</time>
      </trkpt>
      <trkpt lat="47.2724" lon="-2.30541">
        <ele>23.39999961853</ele>
        <time>2022-06-26T07:47:41.000Z</time>
      </trkpt>
      <trkpt lat="47.27261" lon="-2.30541">
        <ele>23.39999961853</ele>
        <time>2022-06-26T07:47:47.000Z</time>
      </trkpt>
      <trkpt lat="47.27273" lon="-2.30539">
        <ele>23.39999961853</ele>
        <time>2022-06-26T07:47:52.000Z</time>
      </trkpt>
      <trkpt lat="47.27282" lon="-2.30534">
        <ele>23.39999961853</ele>
        <time>2022-06-26T07:47:55.000Z</time>
      </trkpt>
      <trkpt lat="47.2729" lon="-2.30529">
        <ele>23.39999961853</ele>
        <time>2022-06-26T07:47:57.000Z</time>
      </trkpt>
      <trkpt lat="47.27314" lon="-2.30519">
        <ele>23.39999961853</ele>
        <time>2022-06-26T07:48:03.000Z</time>
      </trkpt>
      <trkpt lat="47.27328" lon="-2.30516">
        <ele>23.39999961853</ele>
        <time>2022-06-26T07:48:08.000Z</time>
      </trkpt>
      <trkpt lat="47.27341" lon="-2.30512">
        <ele>23.39999961853</ele>
        <time>2022-06-26T07:48:14.000Z</time>
      </trkpt>
      <trkpt lat="47.27354" lon="-2.30504">
        <ele>23.39999961853</ele>
        <time>2022-06-26T07:48:19.000Z</time>
      </trkpt>
      <trkpt lat="47.27371" lon="-2.3049">
        <ele>23.39999961853</ele>
        <time>2022-06-26T07:48:25.000Z</time>
      </trkpt>
      <trkpt lat="47.27388" lon="-2.30479">
        <ele>23.39999961853</ele>
        <time>2022-06-26T07:48:30.000Z</time>
      </trkpt>
      <trkpt lat="47.27396" lon="-2.30472">
        <ele>23.39999961853</ele>
        <time>2022-06-26T07:48:35.000Z</time>
      </trkpt>
      <trkpt lat="47.27399" lon="-2.30469">
        <ele>23.39999961853</ele>
        <time>2022-06-26T07:48:45.000Z</time>
      </trkpt>
      <trkpt lat="47.27401" lon="-2.30466">
        <ele>23.39999961853</ele>
        <time>2022-06-26T07:48:46.000Z</time>
      </trkpt>
      <trkpt lat="47.27423" lon="-2.30455">
        <ele>23.39999961853</ele>
        <time>2022-06-26T07:48:50.000Z</time>
      </trkpt>
      <trkpt lat="47.27455" lon="-2.30449">
        <ele>23.39999961853</ele>
        <time>2022-06-26T07:48:56.000Z</time>
      </trkpt>
      <trkpt lat="47.27482" lon="-2.3044">
        <ele>23.39999961853</ele>
        <time>2022-06-26T07:49:01.000Z</time>
      </trkpt>
      <trkpt lat="47.27487" lon="-2.30438">
        <ele>23.39999961853</ele>
        <time>2022-06-26T07:49:02.000Z</time>
      </trkpt>
      <trkpt lat="47.27496" lon="-2.30431">
        <ele>23.39999961853</ele>
        <time>2022-06-26T07:49:04.000Z</time>
      </trkpt>
      <trkpt lat="47.27502" lon="-2.30419">
        <ele>23.39999961853</ele>
        <time>2022-06-26T07:49:06.000Z</time>
      </trkpt>
      <trkpt lat="47.27503" lon="-2.30392">
        <ele>23.39999961853</ele>
        <time>2022-06-26T07:49:10.000Z</time>
      </trkpt>
      <trkpt lat="47.275" lon="-2.30379">
        <ele>23.39999961853</ele>
        <time>2022-06-26T07:49:12.000Z</time>
      </trkpt>
      <trkpt lat="47.27495" lon="-2.30358">
        <ele>23.39999961853</ele>
        <time>2022-06-26T07:49:15.000Z</time>
      </trkpt>
      <trkpt lat="47.27488" lon="-2.30328">
        <ele>23.799999237061</ele>
        <time>2022-06-26T07:49:20.000Z</time>
      </trkpt>
      <trkpt lat="47.27487" lon="-2.30322">
        <ele>24.39999961853</ele>
        <time>2022-06-26T07:49:21.000Z</time>
      </trkpt>
      <trkpt lat="47.27485" lon="-2.30315">
        <ele>24.799999237061</ele>
        <time>2022-06-26T07:49:22.000Z</time>
      </trkpt>
      <trkpt lat="47.27484" lon="-2.3031">
        <ele>25.200000762939</ele>
        <time>2022-06-26T07:49:23.000Z</time>
      </trkpt>
      <trkpt lat="47.27483" lon="-2.30303">
        <ele>25.60000038147</ele>
        <time>2022-06-26T07:49:24.000Z</time>
      </trkpt>
      <trkpt lat="47.27476" lon="-2.30272">
        <ele>25.60000038147</ele>
        <time>2022-06-26T07:49:29.000Z</time>
      </trkpt>
      <trkpt lat="47.27473" lon="-2.30259">
        <ele>26</ele>
        <time>2022-06-26T07:49:31.000Z</time>
      </trkpt>
      <trkpt lat="47.27472" lon="-2.30254">
        <ele>26.39999961853</ele>
        <time>2022-06-26T07:49:32.000Z</time>
      </trkpt>
      <trkpt lat="47.27471" lon="-2.30248">
        <ele>26.799999237061</ele>
        <time>2022-06-26T07:49:33.000Z</time>
      </trkpt>
      <trkpt lat="47.27469" lon="-2.30242">
        <ele>27.200000762939</ele>
        <time>2022-06-26T07:49:34.000Z</time>
      </trkpt>
      <trkpt lat="47.27468" lon="-2.30236">
        <ele>27.799999237061</ele>
        <time>2022-06-26T07:49:35.000Z</time>
      </trkpt>
      <trkpt lat="47.27466" lon="-2.30231">
        <ele>27.799999237061</ele>
        <time>2022-06-26T07:49:36.000Z</time>
      </trkpt>
      <trkpt lat="47.27459" lon="-2.30218">
        <ele>27.799999237061</ele>
        <time>2022-06-26T07:49:39.000Z</time>
      </trkpt>
      <trkpt lat="47.27456" lon="-2.30217">
        <ele>27.799999237061</ele>
        <time>2022-06-26T07:49:40.000Z</time>
      </trkpt>
      <trkpt lat="47.27443" lon="-2.30222">
        <ele>27.799999237061</ele>
        <time>2022-06-26T07:49:44.000Z</time>
      </trkpt>
      <trkpt lat="47.27433" lon="-2.30226">
        <ele>27.799999237061</ele>
        <time>2022-06-26T07:49:46.000Z</time>
      </trkpt>
      <trkpt lat="47.27412" lon="-2.30234">
        <ele>27.799999237061</ele>
        <time>2022-06-26T07:49:50.000Z</time>
      </trkpt>
      <trkpt lat="47.27401" lon="-2.3024">
        <ele>28.200000762939</ele>
        <time>2022-06-26T07:49:52.000Z</time>
      </trkpt>
      <trkpt lat="47.27396" lon="-2.30242">
        <ele>28.60000038147</ele>
        <time>2022-06-26T07:49:53.000Z</time>
      </trkpt>
      <trkpt lat="47.27391" lon="-2.30245">
        <ele>29</ele>
        <time>2022-06-26T07:49:54.000Z</time>
      </trkpt>
      <trkpt lat="47.27386" lon="-2.30247">
        <ele>29.39999961853</ele>
        <time>2022-06-26T07:49:55.000Z</time>
      </trkpt>
      <trkpt lat="47.2738" lon="-2.30249">
        <ele>29.799999237061</ele>
        <time>2022-06-26T07:49:56.000Z</time>
      </trkpt>
      <trkpt lat="47.27353" lon="-2.30253">
        <ele>29.799999237061</ele>
        <time>2022-06-26T07:50:01.000Z</time>
      </trkpt>
      <trkpt lat="47.2733" lon="-2.30256">
        <ele>29.799999237061</ele>
        <time>2022-06-26T07:50:05.000Z</time>
      </trkpt>
      <trkpt lat="47.27325" lon="-2.30258">
        <ele>29.799999237061</ele>
        <time>2022-06-26T07:50:06.000Z</time>
      </trkpt>
      <trkpt lat="47.27291" lon="-2.30261">
        <ele>29.799999237061</ele>
        <time>2022-06-26T07:50:12.000Z</time>
      </trkpt>
      <trkpt lat="47.27278" lon="-2.30261">
        <ele>29.39999961853</ele>
        <time>2022-06-26T07:50:14.000Z</time>
      </trkpt>
      <trkpt lat="47.27271" lon="-2.30262">
        <ele>29</ele>
        <time>2022-06-26T07:50:15.000Z</time>
      </trkpt>
      <trkpt lat="47.27265" lon="-2.30264">
        <ele>28.60000038147</ele>
        <time>2022-06-26T07:50:16.000Z</time>
      </trkpt>
      <trkpt lat="47.27259" lon="-2.30265">
        <ele>28.200000762939</ele>
        <time>2022-06-26T07:50:17.000Z</time>
      </trkpt>
      <trkpt lat="47.27253" lon="-2.30267">
        <ele>27.799999237061</ele>
        <time>2022-06-26T07:50:18.000Z</time>
      </trkpt>
      <trkpt lat="47.27241" lon="-2.30264">
        <ele>27.799999237061</ele>
        <time>2022-06-26T07:50:21.000Z</time>
      </trkpt>
      <trkpt lat="47.2722" lon="-2.30258">
        <ele>27.799999237061</ele>
        <time>2022-06-26T07:50:26.000Z</time>
      </trkpt>
      <trkpt lat="47.272" lon="-2.30257">
        <ele>27.799999237061</ele>
        <time>2022-06-26T07:50:31.000Z</time>
      </trkpt>
      <trkpt lat="47.27187" lon="-2.30259">
        <ele>27.799999237061</ele>
        <time>2022-06-26T07:50:35.000Z</time>
      </trkpt>
      <trkpt lat="47.27185" lon="-2.30257">
        <ele>27.799999237061</ele>
        <time>2022-06-26T07:50:36.000Z</time>
      </trkpt>
      <trkpt lat="47.27172" lon="-2.30243">
        <ele>27.799999237061</ele>
        <time>2022-06-26T07:50:41.000Z</time>
      </trkpt>
      <trkpt lat="47.2717" lon="-2.30239">
        <ele>27.799999237061</ele>
        <time>2022-06-26T07:50:42.000Z</time>
      </trkpt>
      <trkpt lat="47.27167" lon="-2.30236">
        <ele>27.799999237061</ele>
        <time>2022-06-26T07:50:43.000Z</time>
      </trkpt>
      <trkpt lat="47.27161" lon="-2.30236">
        <ele>27.799999237061</ele>
        <time>2022-06-26T07:50:45.000Z</time>
      </trkpt>
      <trkpt lat="47.27156" lon="-2.30239">
        <ele>27.799999237061</ele>
        <time>2022-06-26T07:50:47.000Z</time>
      </trkpt>
      <trkpt lat="47.2715" lon="-2.30241">
        <ele>27.799999237061</ele>
        <time>2022-06-26T07:50:50.000Z</time>
      </trkpt>
      <trkpt lat="47.27148" lon="-2.30242">
        <ele>27.799999237061</ele>
        <time>2022-06-26T07:50:52.000Z</time>
      </trkpt>
      <trkpt lat="47.27152" lon="-2.30238">
        <ele>27.799999237061</ele>
        <time>2022-06-26T07:51:06.000Z</time>
      </trkpt>
      <trkpt lat="47.27153" lon="-2.30236">
        <ele>27.799999237061</ele>
        <time>2022-06-26T07:51:07.000Z</time>
      </trkpt>
      <trkpt lat="47.27157" lon="-2.30227">
        <ele>27.799999237061</ele>
        <time>2022-06-26T07:51:11.000Z</time>
      </trkpt>
      <trkpt lat="47.27157" lon="-2.30226">
        <ele>27.799999237061</ele>
        <time>2022-06-26T07:51:12.000Z</time>
      </trkpt>
      <trkpt lat="47.27157" lon="-2.30222">
        <ele>27.799999237061</ele>
        <time>2022-06-26T07:52:04.000Z</time>
      </trkpt>
      <trkpt lat="47.27159" lon="-2.30215">
        <ele>27.799999237061</ele>
        <time>2022-06-26T07:52:06.000Z</time>
      </trkpt>
      <trkpt lat="47.27158" lon="-2.30194">
        <ele>27.799999237061</ele>
        <time>2022-06-26T07:52:10.000Z</time>
      </trkpt>
      <trkpt lat="47.27158" lon="-2.3017">
        <ele>28.200000762939</ele>
        <time>2022-06-26T07:52:14.000Z</time>
      </trkpt>
      <trkpt lat="47.27157" lon="-2.30165">
        <ele>28.60000038147</ele>
        <time>2022-06-26T07:52:15.000Z</time>
      </trkpt>
      <trkpt lat="47.27157" lon="-2.30161">
        <ele>29</ele>
        <time>2022-06-26T07:52:16.000Z</time>
      </trkpt>
      <trkpt lat="47.27157" lon="-2.30156">
        <ele>29.60000038147</ele>
        <time>2022-06-26T07:52:17.000Z</time>
      </trkpt>
      <trkpt lat="47.27158" lon="-2.3015">
        <ele>30</ele>
        <time>2022-06-26T07:52:18.000Z</time>
      </trkpt>
      <trkpt lat="47.27158" lon="-2.3013">
        <ele>30.39999961853</ele>
        <time>2022-06-26T07:52:22.000Z</time>
      </trkpt>
      <trkpt lat="47.27157" lon="-2.30125">
        <ele>30.799999237061</ele>
        <time>2022-06-26T07:52:23.000Z</time>
      </trkpt>
      <trkpt lat="47.27156" lon="-2.30119">
        <ele>31.200000762939</ele>
        <time>2022-06-26T07:52:24.000Z</time>
      </trkpt>
      <trkpt lat="47.27155" lon="-2.30115">
        <ele>31.60000038147</ele>
        <time>2022-06-26T07:52:25.000Z</time>
      </trkpt>
      <trkpt lat="47.27153" lon="-2.30111">
        <ele>32</ele>
        <time>2022-06-26T07:52:26.000Z</time>
      </trkpt>
      <trkpt lat="47.2715" lon="-2.30109">
        <ele>32</ele>
        <time>2022-06-26T07:52:27.000Z</time>
      </trkpt>
      <trkpt lat="47.27132" lon="-2.30106">
        <ele>32</ele>
        <time>2022-06-26T07:52:31.000Z</time>
      </trkpt>
      <trkpt lat="47.27109" lon="-2.30098">
        <ele>32</ele>
        <time>2022-06-26T07:52:37.000Z</time>
      </trkpt>
      <trkpt lat="47.27098" lon="-2.30091">
        <ele>32.599998474121</ele>
        <time>2022-06-26T07:52:40.000Z</time>
      </trkpt>
      <trkpt lat="47.27095" lon="-2.30088">
        <ele>33</ele>
        <time>2022-06-26T07:52:41.000Z</time>
      </trkpt>
      <trkpt lat="47.27092" lon="-2.30085">
        <ele>33.400001525879</ele>
        <time>2022-06-26T07:52:42.000Z</time>
      </trkpt>
      <trkpt lat="47.27088" lon="-2.30081">
        <ele>33.799999237061</ele>
        <time>2022-06-26T07:52:43.000Z</time>
      </trkpt>
      <trkpt lat="47.27085" lon="-2.30077">
        <ele>34.200000762939</ele>
        <time>2022-06-26T07:52:44.000Z</time>
      </trkpt>
      <trkpt lat="47.27072" lon="-2.30068">
        <ele>34.200000762939</ele>
        <time>2022-06-26T07:52:47.000Z</time>
      </trkpt>
      <trkpt lat="47.27063" lon="-2.30065">
        <ele>34.200000762939</ele>
        <time>2022-06-26T07:52:49.000Z</time>
      </trkpt>
      <trkpt lat="47.27036" lon="-2.30059">
        <ele>34.200000762939</ele>
        <time>2022-06-26T07:52:55.000Z</time>
      </trkpt>
      <trkpt lat="47.27032" lon="-2.30059">
        <ele>34.200000762939</ele>
        <time>2022-06-26T07:52:56.000Z</time>
      </trkpt>
      <trkpt lat="47.27016" lon="-2.30057">
        <ele>34.200000762939</ele>
        <time>2022-06-26T07:53:01.000Z</time>
      </trkpt>
      <trkpt lat="47.27013" lon="-2.30046">
        <ele>34.599998474121</ele>
        <time>2022-06-26T07:53:04.000Z</time>
      </trkpt>
      <trkpt lat="47.27014" lon="-2.30041">
        <ele>35</ele>
        <time>2022-06-26T07:53:05.000Z</time>
      </trkpt>
      <trkpt lat="47.27015" lon="-2.30036">
        <ele>35.400001525879</ele>
        <time>2022-06-26T07:53:06.000Z</time>
      </trkpt>
      <trkpt lat="47.27017" lon="-2.30031">
        <ele>35.799999237061</ele>
        <time>2022-06-26T07:53:07.000Z</time>
      </trkpt>
      <trkpt lat="47.27019" lon="-2.30025">
        <ele>36.200000762939</ele>
        <time>2022-06-26T07:53:08.000Z</time>
      </trkpt>
      <trkpt lat="47.27021" lon="-2.30018">
        <ele>36.200000762939</ele>
        <time>2022-06-26T07:53:09.000Z</time>
      </trkpt>
      <trkpt lat="47.27033" lon="-2.29987">
        <ele>36.200000762939</ele>
        <time>2022-06-26T07:53:14.000Z</time>
      </trkpt>
      <trkpt lat="47.27039" lon="-2.29977">
        <ele>36.200000762939</ele>
        <time>2022-06-26T07:53:16.000Z</time>
      </trkpt>
      <trkpt lat="47.27052" lon="-2.29948">
        <ele>36.200000762939</ele>
        <time>2022-06-26T07:53:22.000Z</time>
      </trkpt>
      <trkpt lat="47.27064" lon="-2.29927">
        <ele>36.200000762939</ele>
        <time>2022-06-26T07:53:27.000Z</time>
      </trkpt>
      <trkpt lat="47.27087" lon="-2.29897">
        <ele>36.200000762939</ele>
        <time>2022-06-26T07:53:34.000Z</time>
      </trkpt>
      <trkpt lat="47.27099" lon="-2.29869">
        <ele>36.200000762939</ele>
        <time>2022-06-26T07:53:39.000Z</time>
      </trkpt>
      <trkpt lat="47.27109" lon="-2.29839">
        <ele>36.200000762939</ele>
        <time>2022-06-26T07:53:45.000Z</time>
      </trkpt>
      <trkpt lat="47.27114" lon="-2.29802">
        <ele>36.200000762939</ele>
        <time>2022-06-26T07:53:51.000Z</time>
      </trkpt>
      <trkpt lat="47.27113" lon="-2.29761">
        <ele>36.200000762939</ele>
        <time>2022-06-26T07:53:58.000Z</time>
      </trkpt>
      <trkpt lat="47.27115" lon="-2.29729">
        <ele>36.200000762939</ele>
        <time>2022-06-26T07:54:03.000Z</time>
      </trkpt>
      <trkpt lat="47.27119" lon="-2.29694">
        <ele>36.200000762939</ele>
        <time>2022-06-26T07:54:10.000Z</time>
      </trkpt>
      <trkpt lat="47.27118" lon="-2.29666">
        <ele>36.200000762939</ele>
        <time>2022-06-26T07:54:17.000Z</time>
      </trkpt>
      <trkpt lat="47.27119" lon="-2.29662">
        <ele>36.200000762939</ele>
        <time>2022-06-26T07:54:18.000Z</time>
      </trkpt>
      <trkpt lat="47.27123" lon="-2.2965">
        <ele>36.200000762939</ele>
        <time>2022-06-26T07:54:21.000Z</time>
      </trkpt>
      <trkpt lat="47.27127" lon="-2.29645">
        <ele>36.200000762939</ele>
        <time>2022-06-26T07:54:23.000Z</time>
      </trkpt>
      <trkpt lat="47.27133" lon="-2.29642">
        <ele>36.200000762939</ele>
        <time>2022-06-26T07:54:25.000Z</time>
      </trkpt>
      <trkpt lat="47.27152" lon="-2.29639">
        <ele>36.200000762939</ele>
        <time>2022-06-26T07:54:30.000Z</time>
      </trkpt>
      <trkpt lat="47.27157" lon="-2.29638">
        <ele>36.200000762939</ele>
        <time>2022-06-26T07:54:31.000Z</time>
      </trkpt>
      <trkpt lat="47.2717" lon="-2.29629">
        <ele>36.200000762939</ele>
        <time>2022-06-26T07:54:34.000Z</time>
      </trkpt>
      <trkpt lat="47.272" lon="-2.29606">
        <ele>36.200000762939</ele>
        <time>2022-06-26T07:54:41.000Z</time>
      </trkpt>
      <trkpt lat="47.27224" lon="-2.29589">
        <ele>36.200000762939</ele>
        <time>2022-06-26T07:54:47.000Z</time>
      </trkpt>
      <trkpt lat="47.27228" lon="-2.29587">
        <ele>36.200000762939</ele>
        <time>2022-06-26T07:54:48.000Z</time>
      </trkpt>
      <trkpt lat="47.27237" lon="-2.2958">
        <ele>36.200000762939</ele>
        <time>2022-06-26T07:54:50.000Z</time>
      </trkpt>
      <trkpt lat="47.27242" lon="-2.29567">
        <ele>36.200000762939</ele>
        <time>2022-06-26T07:54:52.000Z</time>
      </trkpt>
      <trkpt lat="47.27245" lon="-2.29542">
        <ele>36.200000762939</ele>
        <time>2022-06-26T07:54:55.000Z</time>
      </trkpt>
      <trkpt lat="47.27245" lon="-2.29535">
        <ele>36.200000762939</ele>
        <time>2022-06-26T07:54:56.000Z</time>
      </trkpt>
      <trkpt lat="47.27237" lon="-2.29511">
        <ele>36.200000762939</ele>
        <time>2022-06-26T07:55:00.000Z</time>
      </trkpt>
      <trkpt lat="47.27225" lon="-2.2947">
        <ele>36.200000762939</ele>
        <time>2022-06-26T07:55:05.000Z</time>
      </trkpt>
      <trkpt lat="47.27209" lon="-2.29418">
        <ele>36.200000762939</ele>
        <time>2022-06-26T07:55:11.000Z</time>
      </trkpt>
      <trkpt lat="47.27201" lon="-2.29393">
        <ele>36.200000762939</ele>
        <time>2022-06-26T07:55:14.000Z</time>
      </trkpt>
      <trkpt lat="47.27186" lon="-2.29362">
        <ele>36.200000762939</ele>
        <time>2022-06-26T07:55:18.000Z</time>
      </trkpt>
      <trkpt lat="47.27182" lon="-2.29356">
        <ele>36.200000762939</ele>
        <time>2022-06-26T07:55:19.000Z</time>
      </trkpt>
      <trkpt lat="47.27171" lon="-2.29337">
        <ele>36.200000762939</ele>
        <time>2022-06-26T07:55:22.000Z</time>
      </trkpt>
      <trkpt lat="47.27157" lon="-2.29313">
        <ele>36.200000762939</ele>
        <time>2022-06-26T07:55:27.000Z</time>
      </trkpt>
      <trkpt lat="47.27155" lon="-2.29295">
        <ele>36.200000762939</ele>
        <time>2022-06-26T07:55:30.000Z</time>
      </trkpt>
      <trkpt lat="47.27156" lon="-2.29268">
        <ele>36.200000762939</ele>
        <time>2022-06-26T07:55:34.000Z</time>
      </trkpt>
      <trkpt lat="47.27159" lon="-2.29262">
        <ele>36.200000762939</ele>
        <time>2022-06-26T07:55:35.000Z</time>
      </trkpt>
      <trkpt lat="47.27164" lon="-2.29248">
        <ele>36.200000762939</ele>
        <time>2022-06-26T07:55:37.000Z</time>
      </trkpt>
      <trkpt lat="47.27164" lon="-2.29233">
        <ele>36.200000762939</ele>
        <time>2022-06-26T07:55:39.000Z</time>
      </trkpt>
      <trkpt lat="47.2716" lon="-2.29212">
        <ele>36.200000762939</ele>
        <time>2022-06-26T07:55:42.000Z</time>
      </trkpt>
      <trkpt lat="47.27154" lon="-2.29199">
        <ele>35.799999237061</ele>
        <time>2022-06-26T07:55:44.000Z</time>
      </trkpt>
      <trkpt lat="47.27151" lon="-2.29192">
        <ele>35.400001525879</ele>
        <time>2022-06-26T07:55:45.000Z</time>
      </trkpt>
      <trkpt lat="47.27148" lon="-2.29187">
        <ele>35</ele>
        <time>2022-06-26T07:55:46.000Z</time>
      </trkpt>
      <trkpt lat="47.27147" lon="-2.29183">
        <ele>34.400001525879</ele>
        <time>2022-06-26T07:55:47.000Z</time>
      </trkpt>
      <trkpt lat="47.27146" lon="-2.2918">
        <ele>34</ele>
        <time>2022-06-26T07:55:48.000Z</time>
      </trkpt>
      <trkpt lat="47.27146" lon="-2.29175">
        <ele>34</ele>
        <time>2022-06-26T07:55:50.000Z</time>
      </trkpt>
      <trkpt lat="47.27147" lon="-2.29172">
        <ele>34</ele>
        <time>2022-06-26T07:55:52.000Z</time>
      </trkpt>
      <trkpt lat="47.27155" lon="-2.29175">
        <ele>34</ele>
        <time>2022-06-26T07:55:55.000Z</time>
      </trkpt>
      <trkpt lat="47.27153" lon="-2.29184">
        <ele>34</ele>
        <time>2022-06-26T07:55:58.000Z</time>
      </trkpt>
      <trkpt lat="47.27147" lon="-2.29177">
        <ele>34</ele>
        <time>2022-06-26T07:56:01.000Z</time>
      </trkpt>
      <trkpt lat="47.27148" lon="-2.29152">
        <ele>34</ele>
        <time>2022-06-26T07:56:06.000Z</time>
      </trkpt>
      <trkpt lat="47.27159" lon="-2.29137">
        <ele>34</ele>
        <time>2022-06-26T07:56:09.000Z</time>
      </trkpt>
      <trkpt lat="47.27172" lon="-2.29125">
        <ele>34</ele>
        <time>2022-06-26T07:56:12.000Z</time>
      </trkpt>
      <trkpt lat="47.27176" lon="-2.29119">
        <ele>34</ele>
        <time>2022-06-26T07:56:13.000Z</time>
      </trkpt>
      <trkpt lat="47.27183" lon="-2.29109">
        <ele>34</ele>
        <time>2022-06-26T07:56:15.000Z</time>
      </trkpt>
      <trkpt lat="47.27202" lon="-2.29096">
        <ele>34</ele>
        <time>2022-06-26T07:56:19.000Z</time>
      </trkpt>
      <trkpt lat="47.27206" lon="-2.29092">
        <ele>34</ele>
        <time>2022-06-26T07:56:20.000Z</time>
      </trkpt>
      <trkpt lat="47.27218" lon="-2.29079">
        <ele>34</ele>
        <time>2022-06-26T07:56:23.000Z</time>
      </trkpt>
      <trkpt lat="47.2723" lon="-2.29069">
        <ele>34</ele>
        <time>2022-06-26T07:56:27.000Z</time>
      </trkpt>
      <trkpt lat="47.27249" lon="-2.29055">
        <ele>34</ele>
        <time>2022-06-26T07:56:33.000Z</time>
      </trkpt>
      <trkpt lat="47.27265" lon="-2.29031">
        <ele>34</ele>
        <time>2022-06-26T07:56:39.000Z</time>
      </trkpt>
      <trkpt lat="47.27273" lon="-2.29012">
        <ele>33.599998474121</ele>
        <time>2022-06-26T07:56:43.000Z</time>
      </trkpt>
      <trkpt lat="47.27275" lon="-2.29008">
        <ele>33.200000762939</ele>
        <time>2022-06-26T07:56:44.000Z</time>
      </trkpt>
      <trkpt lat="47.27277" lon="-2.29004">
        <ele>32.799999237061</ele>
        <time>2022-06-26T07:56:45.000Z</time>
      </trkpt>
      <trkpt lat="47.2728" lon="-2.28999">
        <ele>32.400001525879</ele>
        <time>2022-06-26T07:56:46.000Z</time>
      </trkpt>
      <trkpt lat="47.27284" lon="-2.28993">
        <ele>32</ele>
        <time>2022-06-26T07:56:47.000Z</time>
      </trkpt>
      <trkpt lat="47.27292" lon="-2.28982">
        <ele>32</ele>
        <time>2022-06-26T07:56:49.000Z</time>
      </trkpt>
      <trkpt lat="47.27305" lon="-2.28963">
        <ele>32</ele>
        <time>2022-06-26T07:56:53.000Z</time>
      </trkpt>
      <trkpt lat="47.27318" lon="-2.28946">
        <ele>32</ele>
        <time>2022-06-26T07:56:57.000Z</time>
      </trkpt>
      <trkpt lat="47.27323" lon="-2.28946">
        <ele>32</ele>
        <time>2022-06-26T07:56:58.000Z</time>
      </trkpt>
      <trkpt lat="47.27339" lon="-2.28952">
        <ele>32</ele>
        <time>2022-06-26T07:57:02.000Z</time>
      </trkpt>
      <trkpt lat="47.27341" lon="-2.28943">
        <ele>32</ele>
        <time>2022-06-26T07:57:04.000Z</time>
      </trkpt>
      <trkpt lat="47.27345" lon="-2.28917">
        <ele>32</ele>
        <time>2022-06-26T07:57:08.000Z</time>
      </trkpt>
      <trkpt lat="47.27346" lon="-2.28909">
        <ele>32</ele>
        <time>2022-06-26T07:57:09.000Z</time>
      </trkpt>
      <trkpt lat="47.27353" lon="-2.28872">
        <ele>32</ele>
        <time>2022-06-26T07:57:13.000Z</time>
      </trkpt>
      <trkpt lat="47.27365" lon="-2.28816">
        <ele>32</ele>
        <time>2022-06-26T07:57:19.000Z</time>
      </trkpt>
      <trkpt lat="47.27356" lon="-2.28794">
        <ele>32</ele>
        <time>2022-06-26T07:57:22.000Z</time>
      </trkpt>
      <trkpt lat="47.27342" lon="-2.28782">
        <ele>32</ele>
        <time>2022-06-26T07:57:25.000Z</time>
      </trkpt>
      <trkpt lat="47.27337" lon="-2.28778">
        <ele>32</ele>
        <time>2022-06-26T07:57:26.000Z</time>
      </trkpt>
      <trkpt lat="47.27329" lon="-2.2877">
        <ele>32</ele>
        <time>2022-06-26T07:57:28.000Z</time>
      </trkpt>
      <trkpt lat="47.27326" lon="-2.28757">
        <ele>32</ele>
        <time>2022-06-26T07:57:30.000Z</time>
      </trkpt>
      <trkpt lat="47.27327" lon="-2.28743">
        <ele>32</ele>
        <time>2022-06-26T07:57:32.000Z</time>
      </trkpt>
      <trkpt lat="47.27328" lon="-2.28736">
        <ele>32</ele>
        <time>2022-06-26T07:57:33.000Z</time>
      </trkpt>
      <trkpt lat="47.27336" lon="-2.28695">
        <ele>32</ele>
        <time>2022-06-26T07:57:38.000Z</time>
      </trkpt>
      <trkpt lat="47.27343" lon="-2.28662">
        <ele>32</ele>
        <time>2022-06-26T07:57:43.000Z</time>
      </trkpt>
      <trkpt lat="47.27346" lon="-2.2865">
        <ele>32</ele>
        <time>2022-06-26T07:57:45.000Z</time>
      </trkpt>
      <trkpt lat="47.2735" lon="-2.28637">
        <ele>32</ele>
        <time>2022-06-26T07:57:47.000Z</time>
      </trkpt>
      <trkpt lat="47.27356" lon="-2.28626">
        <ele>32</ele>
        <time>2022-06-26T07:57:49.000Z</time>
      </trkpt>
      <trkpt lat="47.2736" lon="-2.28624">
        <ele>32</ele>
        <time>2022-06-26T07:57:50.000Z</time>
      </trkpt>
      <trkpt lat="47.27368" lon="-2.28625">
        <ele>32</ele>
        <time>2022-06-26T07:57:52.000Z</time>
      </trkpt>
      <trkpt lat="47.27376" lon="-2.28632">
        <ele>32</ele>
        <time>2022-06-26T07:57:54.000Z</time>
      </trkpt>
      <trkpt lat="47.27385" lon="-2.28638">
        <ele>32</ele>
        <time>2022-06-26T07:57:56.000Z</time>
      </trkpt>
      <trkpt lat="47.2739" lon="-2.28639">
        <ele>32</ele>
        <time>2022-06-26T07:57:57.000Z</time>
      </trkpt>
      <trkpt lat="47.27417" lon="-2.2865">
        <ele>32</ele>
        <time>2022-06-26T07:58:02.000Z</time>
      </trkpt>
      <trkpt lat="47.27423" lon="-2.28651">
        <ele>32</ele>
        <time>2022-06-26T07:58:03.000Z</time>
      </trkpt>
      <trkpt lat="47.2744" lon="-2.28652">
        <ele>32</ele>
        <time>2022-06-26T07:58:06.000Z</time>
      </trkpt>
      <trkpt lat="47.27445" lon="-2.28651">
        <ele>32</ele>
        <time>2022-06-26T07:58:07.000Z</time>
      </trkpt>
      <trkpt lat="47.27457" lon="-2.28636">
        <ele>32</ele>
        <time>2022-06-26T07:58:10.000Z</time>
      </trkpt>
      <trkpt lat="47.27465" lon="-2.2862">
        <ele>32</ele>
        <time>2022-06-26T07:58:12.000Z</time>
      </trkpt>
      <trkpt lat="47.2747" lon="-2.28614">
        <ele>32</ele>
        <time>2022-06-26T07:58:13.000Z</time>
      </trkpt>
      <trkpt lat="47.27474" lon="-2.28613">
        <ele>32</ele>
        <time>2022-06-26T07:58:14.000Z</time>
      </trkpt>
      <trkpt lat="47.27485" lon="-2.28629">
        <ele>32</ele>
        <time>2022-06-26T07:58:17.000Z</time>
      </trkpt>
      <trkpt lat="47.27491" lon="-2.28644">
        <ele>32</ele>
        <time>2022-06-26T07:58:19.000Z</time>
      </trkpt>
      <trkpt lat="47.27502" lon="-2.28664">
        <ele>32</ele>
        <time>2022-06-26T07:58:22.000Z</time>
      </trkpt>
      <trkpt lat="47.27505" lon="-2.28671">
        <ele>32</ele>
        <time>2022-06-26T07:58:23.000Z</time>
      </trkpt>
      <trkpt lat="47.27512" lon="-2.28681">
        <ele>32</ele>
        <time>2022-06-26T07:58:25.000Z</time>
      </trkpt>
      <trkpt lat="47.2752" lon="-2.28691">
        <ele>32</ele>
        <time>2022-06-26T07:58:27.000Z</time>
      </trkpt>
      <trkpt lat="47.27524" lon="-2.28696">
        <ele>32</ele>
        <time>2022-06-26T07:58:28.000Z</time>
      </trkpt>
      <trkpt lat="47.27535" lon="-2.28704">
        <ele>32</ele>
        <time>2022-06-26T07:58:30.000Z</time>
      </trkpt>
      <trkpt lat="47.27547" lon="-2.28711">
        <ele>32</ele>
        <time>2022-06-26T07:58:32.000Z</time>
      </trkpt>
      <trkpt lat="47.27588" lon="-2.28738">
        <ele>32</ele>
        <time>2022-06-26T07:58:39.000Z</time>
      </trkpt>
      <trkpt lat="47.27608" lon="-2.28748">
        <ele>32</ele>
        <time>2022-06-26T07:58:42.000Z</time>
      </trkpt>
      <trkpt lat="47.27619" lon="-2.28753">
        <ele>32</ele>
        <time>2022-06-26T07:58:44.000Z</time>
      </trkpt>
      <trkpt lat="47.27647" lon="-2.28761">
        <ele>32</ele>
        <time>2022-06-26T07:58:49.000Z</time>
      </trkpt>
      <trkpt lat="47.27675" lon="-2.28778">
        <ele>32</ele>
        <time>2022-06-26T07:58:55.000Z</time>
      </trkpt>
      <trkpt lat="47.27689" lon="-2.28802">
        <ele>32</ele>
        <time>2022-06-26T07:58:59.000Z</time>
      </trkpt>
      <trkpt lat="47.277" lon="-2.28814">
        <ele>32</ele>
        <time>2022-06-26T07:59:02.000Z</time>
      </trkpt>
      <trkpt lat="47.27704" lon="-2.28815">
        <ele>32</ele>
        <time>2022-06-26T07:59:03.000Z</time>
      </trkpt>
      <trkpt lat="47.27718" lon="-2.28809">
        <ele>32</ele>
        <time>2022-06-26T07:59:06.000Z</time>
      </trkpt>
      <trkpt lat="47.27765" lon="-2.28795">
        <ele>32</ele>
        <time>2022-06-26T07:59:14.000Z</time>
      </trkpt>
      <trkpt lat="47.27777" lon="-2.28794">
        <ele>32</ele>
        <time>2022-06-26T07:59:16.000Z</time>
      </trkpt>
      <trkpt lat="47.27796" lon="-2.28793">
        <ele>32</ele>
        <time>2022-06-26T07:59:19.000Z</time>
      </trkpt>
      <trkpt lat="47.27816" lon="-2.28793">
        <ele>32</ele>
        <time>2022-06-26T07:59:22.000Z</time>
      </trkpt>
      <trkpt lat="47.27828" lon="-2.28796">
        <ele>32</ele>
        <time>2022-06-26T07:59:24.000Z</time>
      </trkpt>
      <trkpt lat="47.2784" lon="-2.28801">
        <ele>32</ele>
        <time>2022-06-26T07:59:26.000Z</time>
      </trkpt>
      <trkpt lat="47.27845" lon="-2.28805">
        <ele>32</ele>
        <time>2022-06-26T07:59:27.000Z</time>
      </trkpt>
      <trkpt lat="47.27855" lon="-2.28812">
        <ele>32</ele>
        <time>2022-06-26T07:59:29.000Z</time>
      </trkpt>
      <trkpt lat="47.27864" lon="-2.28816">
        <ele>32</ele>
        <time>2022-06-26T07:59:32.000Z</time>
      </trkpt>
      <trkpt lat="47.27866" lon="-2.28813">
        <ele>32</ele>
        <time>2022-06-26T07:59:33.000Z</time>
      </trkpt>
      <trkpt lat="47.27871" lon="-2.28798">
        <ele>32</ele>
        <time>2022-06-26T07:59:36.000Z</time>
      </trkpt>
      <trkpt lat="47.27873" lon="-2.28785">
        <ele>32</ele>
        <time>2022-06-26T07:59:38.000Z</time>
      </trkpt>
      <trkpt lat="47.27876" lon="-2.28779">
        <ele>32</ele>
        <time>2022-06-26T07:59:39.000Z</time>
      </trkpt>
      <trkpt lat="47.27884" lon="-2.28769">
        <ele>32</ele>
        <time>2022-06-26T07:59:41.000Z</time>
      </trkpt>
      <trkpt lat="47.27901" lon="-2.28762">
        <ele>31.60000038147</ele>
        <time>2022-06-26T07:59:44.000Z</time>
      </trkpt>
      <trkpt lat="47.27907" lon="-2.2876">
        <ele>31.200000762939</ele>
        <time>2022-06-26T07:59:45.000Z</time>
      </trkpt>
      <trkpt lat="47.27913" lon="-2.28758">
        <ele>30.799999237061</ele>
        <time>2022-06-26T07:59:46.000Z</time>
      </trkpt>
      <trkpt lat="47.27918" lon="-2.28755">
        <ele>30.39999961853</ele>
        <time>2022-06-26T07:59:47.000Z</time>
      </trkpt>
      <trkpt lat="47.27924" lon="-2.28753">
        <ele>30</ele>
        <time>2022-06-26T07:59:48.000Z</time>
      </trkpt>
      <trkpt lat="47.27949" lon="-2.28745">
        <ele>30</ele>
        <time>2022-06-26T07:59:52.000Z</time>
      </trkpt>
      <trkpt lat="47.27955" lon="-2.28745">
        <ele>30</ele>
        <time>2022-06-26T07:59:53.000Z</time>
      </trkpt>
      <trkpt lat="47.27987" lon="-2.28746">
        <ele>30</ele>
        <time>2022-06-26T07:59:58.000Z</time>
      </trkpt>
      <trkpt lat="47.2803" lon="-2.28756">
        <ele>30</ele>
        <time>2022-06-26T08:00:05.000Z</time>
      </trkpt>
      <trkpt lat="47.28079" lon="-2.28772">
        <ele>30</ele>
        <time>2022-06-26T08:00:13.000Z</time>
      </trkpt>
      <trkpt lat="47.28113" lon="-2.28791">
        <ele>30</ele>
        <time>2022-06-26T08:00:19.000Z</time>
      </trkpt>
      <trkpt lat="47.28129" lon="-2.28802">
        <ele>30.39999961853</ele>
        <time>2022-06-26T08:00:22.000Z</time>
      </trkpt>
      <trkpt lat="47.28134" lon="-2.28806">
        <ele>30.799999237061</ele>
        <time>2022-06-26T08:00:23.000Z</time>
      </trkpt>
      <trkpt lat="47.28139" lon="-2.28809">
        <ele>31.200000762939</ele>
        <time>2022-06-26T08:00:24.000Z</time>
      </trkpt>
      <trkpt lat="47.28144" lon="-2.28813">
        <ele>31.60000038147</ele>
        <time>2022-06-26T08:00:25.000Z</time>
      </trkpt>
      <trkpt lat="47.28148" lon="-2.28817">
        <ele>32.200000762939</ele>
        <time>2022-06-26T08:00:26.000Z</time>
      </trkpt>
      <trkpt lat="47.28166" lon="-2.28831">
        <ele>32.200000762939</ele>
        <time>2022-06-26T08:00:30.000Z</time>
      </trkpt>
      <trkpt lat="47.2817" lon="-2.28835">
        <ele>32.599998474121</ele>
        <time>2022-06-26T08:00:31.000Z</time>
      </trkpt>
      <trkpt lat="47.28174" lon="-2.28839">
        <ele>33</ele>
        <time>2022-06-26T08:00:32.000Z</time>
      </trkpt>
      <trkpt lat="47.28178" lon="-2.28843">
        <ele>33.400001525879</ele>
        <time>2022-06-26T08:00:33.000Z</time>
      </trkpt>
      <trkpt lat="47.28183" lon="-2.28848">
        <ele>33.799999237061</ele>
        <time>2022-06-26T08:00:34.000Z</time>
      </trkpt>
      <trkpt lat="47.28187" lon="-2.28852">
        <ele>34.200000762939</ele>
        <time>2022-06-26T08:00:35.000Z</time>
      </trkpt>
      <trkpt lat="47.28206" lon="-2.28867">
        <ele>34.200000762939</ele>
        <time>2022-06-26T08:00:39.000Z</time>
      </trkpt>
      <trkpt lat="47.28221" lon="-2.28866">
        <ele>34.200000762939</ele>
        <time>2022-06-26T08:00:42.000Z</time>
      </trkpt>
      <trkpt lat="47.2823" lon="-2.28849">
        <ele>34.200000762939</ele>
        <time>2022-06-26T08:00:45.000Z</time>
      </trkpt>
      <trkpt lat="47.28233" lon="-2.28833">
        <ele>34.200000762939</ele>
        <time>2022-06-26T08:00:47.000Z</time>
      </trkpt>
      <trkpt lat="47.28237" lon="-2.28809">
        <ele>34.200000762939</ele>
        <time>2022-06-26T08:00:50.000Z</time>
      </trkpt>
      <trkpt lat="47.28249" lon="-2.28744">
        <ele>34.200000762939</ele>
        <time>2022-06-26T08:00:58.000Z</time>
      </trkpt>
      <trkpt lat="47.28259" lon="-2.28685">
        <ele>34.200000762939</ele>
        <time>2022-06-26T08:01:05.000Z</time>
      </trkpt>
      <trkpt lat="47.28273" lon="-2.28624">
        <ele>34.200000762939</ele>
        <time>2022-06-26T08:01:12.000Z</time>
      </trkpt>
      <trkpt lat="47.28288" lon="-2.28544">
        <ele>34.200000762939</ele>
        <time>2022-06-26T08:01:21.000Z</time>
      </trkpt>
      <trkpt lat="47.28296" lon="-2.28482">
        <ele>34.200000762939</ele>
        <time>2022-06-26T08:01:28.000Z</time>
      </trkpt>
      <trkpt lat="47.28302" lon="-2.28458">
        <ele>34.599998474121</ele>
        <time>2022-06-26T08:01:31.000Z</time>
      </trkpt>
      <trkpt lat="47.28303" lon="-2.28449">
        <ele>35.400001525879</ele>
        <time>2022-06-26T08:01:32.000Z</time>
      </trkpt>
      <trkpt lat="47.28306" lon="-2.28441">
        <ele>35.799999237061</ele>
        <time>2022-06-26T08:01:33.000Z</time>
      </trkpt>
      <trkpt lat="47.28307" lon="-2.28433">
        <ele>36.200000762939</ele>
        <time>2022-06-26T08:01:34.000Z</time>
      </trkpt>
      <trkpt lat="47.28322" lon="-2.2838">
        <ele>36.200000762939</ele>
        <time>2022-06-26T08:01:41.000Z</time>
      </trkpt>
      <trkpt lat="47.28326" lon="-2.28332">
        <ele>36.200000762939</ele>
        <time>2022-06-26T08:01:47.000Z</time>
      </trkpt>
      <trkpt lat="47.28326" lon="-2.28324">
        <ele>36.200000762939</ele>
        <time>2022-06-26T08:01:48.000Z</time>
      </trkpt>
      <trkpt lat="47.28324" lon="-2.28284">
        <ele>36.200000762939</ele>
        <time>2022-06-26T08:01:53.000Z</time>
      </trkpt>
      <trkpt lat="47.28325" lon="-2.28275">
        <ele>36.200000762939</ele>
        <time>2022-06-26T08:01:54.000Z</time>
      </trkpt>
      <trkpt lat="47.28325" lon="-2.28237">
        <ele>36.200000762939</ele>
        <time>2022-06-26T08:01:58.000Z</time>
      </trkpt>
      <trkpt lat="47.28325" lon="-2.28217">
        <ele>35.799999237061</ele>
        <time>2022-06-26T08:02:00.000Z</time>
      </trkpt>
      <trkpt lat="47.28325" lon="-2.28207">
        <ele>35.400001525879</ele>
        <time>2022-06-26T08:02:01.000Z</time>
      </trkpt>
      <trkpt lat="47.28325" lon="-2.28196">
        <ele>35</ele>
        <time>2022-06-26T08:02:02.000Z</time>
      </trkpt>
      <trkpt lat="47.28325" lon="-2.28185">
        <ele>34.400001525879</ele>
        <time>2022-06-26T08:02:03.000Z</time>
      </trkpt>
      <trkpt lat="47.28326" lon="-2.28173">
        <ele>34</ele>
        <time>2022-06-26T08:02:04.000Z</time>
      </trkpt>
      <trkpt lat="47.28325" lon="-2.28162">
        <ele>33.599998474121</ele>
        <time>2022-06-26T08:02:05.000Z</time>
      </trkpt>
      <trkpt lat="47.28325" lon="-2.28149">
        <ele>33.200000762939</ele>
        <time>2022-06-26T08:02:06.000Z</time>
      </trkpt>
      <trkpt lat="47.28325" lon="-2.28137">
        <ele>32.799999237061</ele>
        <time>2022-06-26T08:02:07.000Z</time>
      </trkpt>
      <trkpt lat="47.28325" lon="-2.28125">
        <ele>32.400001525879</ele>
        <time>2022-06-26T08:02:08.000Z</time>
      </trkpt>
      <trkpt lat="47.28325" lon="-2.28116">
        <ele>31.799999237061</ele>
        <time>2022-06-26T08:02:09.000Z</time>
      </trkpt>
      <trkpt lat="47.28326" lon="-2.28108">
        <ele>31.200000762939</ele>
        <time>2022-06-26T08:02:10.000Z</time>
      </trkpt>
      <trkpt lat="47.28326" lon="-2.28102">
        <ele>30.799999237061</ele>
        <time>2022-06-26T08:02:11.000Z</time>
      </trkpt>
      <trkpt lat="47.28326" lon="-2.28096">
        <ele>30.200000762939</ele>
        <time>2022-06-26T08:02:12.000Z</time>
      </trkpt>
      <trkpt lat="47.28327" lon="-2.28092">
        <ele>29.60000038147</ele>
        <time>2022-06-26T08:02:13.000Z</time>
      </trkpt>
      <trkpt lat="47.28328" lon="-2.28089">
        <ele>29.60000038147</ele>
        <time>2022-06-26T08:02:14.000Z</time>
      </trkpt>
      <trkpt lat="47.28331" lon="-2.28088">
        <ele>29.200000762939</ele>
        <time>2022-06-26T08:02:15.000Z</time>
      </trkpt>
      <trkpt lat="47.28332" lon="-2.28087">
        <ele>28.799999237061</ele>
        <time>2022-06-26T08:02:16.000Z</time>
      </trkpt>
      <trkpt lat="47.28334" lon="-2.28085">
        <ele>28.39999961853</ele>
        <time>2022-06-26T08:02:17.000Z</time>
      </trkpt>
      <trkpt lat="47.28336" lon="-2.28084">
        <ele>28</ele>
        <time>2022-06-26T08:02:18.000Z</time>
      </trkpt>
      <trkpt lat="47.28338" lon="-2.28083">
        <ele>27.60000038147</ele>
        <time>2022-06-26T08:02:19.000Z</time>
      </trkpt>
      <trkpt lat="47.2836" lon="-2.28067">
        <ele>27.60000038147</ele>
        <time>2022-06-26T08:02:30.000Z</time>
      </trkpt>
      <trkpt lat="47.28363" lon="-2.28054">
        <ele>28</ele>
        <time>2022-06-26T08:02:34.000Z</time>
      </trkpt>
      <trkpt lat="47.28364" lon="-2.2805">
        <ele>28.39999961853</ele>
        <time>2022-06-26T08:02:35.000Z</time>
      </trkpt>
      <trkpt lat="47.28365" lon="-2.28047">
        <ele>28.799999237061</ele>
        <time>2022-06-26T08:02:36.000Z</time>
      </trkpt>
      <trkpt lat="47.28365" lon="-2.28045">
        <ele>29.39999961853</ele>
        <time>2022-06-26T08:02:37.000Z</time>
      </trkpt>
      <trkpt lat="47.28366" lon="-2.28043">
        <ele>29.799999237061</ele>
        <time>2022-06-26T08:02:38.000Z</time>
      </trkpt>
      <trkpt lat="47.28368" lon="-2.28039">
        <ele>30.200000762939</ele>
        <time>2022-06-26T08:02:40.000Z</time>
      </trkpt>
      <trkpt lat="47.28369" lon="-2.28037">
        <ele>30.60000038147</ele>
        <time>2022-06-26T08:02:41.000Z</time>
      </trkpt>
      <trkpt lat="47.28369" lon="-2.28035">
        <ele>31.200000762939</ele>
        <time>2022-06-26T08:02:42.000Z</time>
      </trkpt>
      <trkpt lat="47.2837" lon="-2.28033">
        <ele>31.60000038147</ele>
        <time>2022-06-26T08:02:43.000Z</time>
      </trkpt>
      <trkpt lat="47.2837" lon="-2.2803">
        <ele>32</ele>
        <time>2022-06-26T08:02:44.000Z</time>
      </trkpt>
      <trkpt lat="47.28372" lon="-2.28024">
        <ele>32.400001525879</ele>
        <time>2022-06-26T08:02:47.000Z</time>
      </trkpt>
      <trkpt lat="47.28372" lon="-2.28022">
        <ele>32.799999237061</ele>
        <time>2022-06-26T08:02:48.000Z</time>
      </trkpt>
      <trkpt lat="47.28373" lon="-2.2802">
        <ele>33.200000762939</ele>
        <time>2022-06-26T08:02:49.000Z</time>
      </trkpt>
      <trkpt lat="47.28374" lon="-2.2802">
        <ele>33.599998474121</ele>
        <time>2022-06-26T08:02:50.000Z</time>
      </trkpt>
      <trkpt lat="47.28375" lon="-2.28019">
        <ele>34</ele>
        <time>2022-06-26T08:02:51.000Z</time>
      </trkpt>
      <trkpt lat="47.28378" lon="-2.28016">
        <ele>34</ele>
        <time>2022-06-26T08:02:53.000Z</time>
      </trkpt>
      <trkpt lat="47.28383" lon="-2.28013">
        <ele>34</ele>
        <time>2022-06-26T08:02:55.000Z</time>
      </trkpt>
      <trkpt lat="47.28388" lon="-2.28015">
        <ele>34</ele>
        <time>2022-06-26T08:02:58.000Z</time>
      </trkpt>
      <trkpt lat="47.28389" lon="-2.28017">
        <ele>34</ele>
        <time>2022-06-26T08:03:00.000Z</time>
      </trkpt>
      <trkpt lat="47.28389" lon="-2.28023">
        <ele>34</ele>
        <time>2022-06-26T08:03:03.000Z</time>
      </trkpt>
      <trkpt lat="47.28387" lon="-2.28028">
        <ele>34</ele>
        <time>2022-06-26T08:03:05.000Z</time>
      </trkpt>
      <trkpt lat="47.28383" lon="-2.28034">
        <ele>34</ele>
        <time>2022-06-26T08:03:08.000Z</time>
      </trkpt>
      <trkpt lat="47.2838" lon="-2.28036">
        <ele>34</ele>
        <time>2022-06-26T08:03:10.000Z</time>
      </trkpt>
      <trkpt lat="47.28377" lon="-2.28039">
        <ele>33.599998474121</ele>
        <time>2022-06-26T08:03:13.000Z</time>
      </trkpt>
      <trkpt lat="47.28376" lon="-2.28041">
        <ele>33.200000762939</ele>
        <time>2022-06-26T08:03:14.000Z</time>
      </trkpt>
      <trkpt lat="47.28376" lon="-2.28043">
        <ele>32.799999237061</ele>
        <time>2022-06-26T08:03:15.000Z</time>
      </trkpt>
      <trkpt lat="47.28376" lon="-2.28045">
        <ele>32.400001525879</ele>
        <time>2022-06-26T08:03:16.000Z</time>
      </trkpt>
      <trkpt lat="47.28376" lon="-2.28047">
        <ele>32</ele>
        <time>2022-06-26T08:03:17.000Z</time>
      </trkpt>
      <trkpt lat="47.28375" lon="-2.2805">
        <ele>31.60000038147</ele>
        <time>2022-06-26T08:03:19.000Z</time>
      </trkpt>
      <trkpt lat="47.28375" lon="-2.28052">
        <ele>31.200000762939</ele>
        <time>2022-06-26T08:03:20.000Z</time>
      </trkpt>
      <trkpt lat="47.28375" lon="-2.28054">
        <ele>30.799999237061</ele>
        <time>2022-06-26T08:03:21.000Z</time>
      </trkpt>
      <trkpt lat="47.28375" lon="-2.28057">
        <ele>30.39999961853</ele>
        <time>2022-06-26T08:03:22.000Z</time>
      </trkpt>
      <trkpt lat="47.28375" lon="-2.28059">
        <ele>30</ele>
        <time>2022-06-26T08:03:23.000Z</time>
      </trkpt>
      <trkpt lat="47.28376" lon="-2.28063">
        <ele>29.60000038147</ele>
        <time>2022-06-26T08:03:24.000Z</time>
      </trkpt>
      <trkpt lat="47.28376" lon="-2.28064">
        <ele>29.200000762939</ele>
        <time>2022-06-26T08:03:25.000Z</time>
      </trkpt>
      <trkpt lat="47.28378" lon="-2.28065">
        <ele>28.799999237061</ele>
        <time>2022-06-26T08:03:26.000Z</time>
      </trkpt>
      <trkpt lat="47.28378" lon="-2.28067">
        <ele>28.39999961853</ele>
        <time>2022-06-26T08:03:27.000Z</time>
      </trkpt>
      <trkpt lat="47.2838" lon="-2.28068">
        <ele>28</ele>
        <time>2022-06-26T08:03:28.000Z</time>
      </trkpt>
      <trkpt lat="47.28386" lon="-2.28072">
        <ele>28</ele>
        <time>2022-06-26T08:03:31.000Z</time>
      </trkpt>
      <trkpt lat="47.28402" lon="-2.28078">
        <ele>28</ele>
        <time>2022-06-26T08:03:38.000Z</time>
      </trkpt>
      <trkpt lat="47.28417" lon="-2.28081">
        <ele>28</ele>
        <time>2022-06-26T08:03:43.000Z</time>
      </trkpt>
      <trkpt lat="47.28419" lon="-2.2808">
        <ele>28</ele>
        <time>2022-06-26T08:03:44.000Z</time>
      </trkpt>
      <trkpt lat="47.28431" lon="-2.28081">
        <ele>28</ele>
        <time>2022-06-26T08:03:49.000Z</time>
      </trkpt>
      <trkpt lat="47.28439" lon="-2.28084">
        <ele>28</ele>
        <time>2022-06-26T08:03:52.000Z</time>
      </trkpt>
      <trkpt lat="47.28441" lon="-2.28085">
        <ele>28</ele>
        <time>2022-06-26T08:03:53.000Z</time>
      </trkpt>
      <trkpt lat="47.28461" lon="-2.28096">
        <ele>28</ele>
        <time>2022-06-26T08:04:00.000Z</time>
      </trkpt>
      <trkpt lat="47.28468" lon="-2.28095">
        <ele>28</ele>
        <time>2022-06-26T08:04:02.000Z</time>
      </trkpt>
      <trkpt lat="47.28475" lon="-2.2809">
        <ele>28</ele>
        <time>2022-06-26T08:04:04.000Z</time>
      </trkpt>
      <trkpt lat="47.28483" lon="-2.28079">
        <ele>28.39999961853</ele>
        <time>2022-06-26T08:04:09.000Z</time>
      </trkpt>
      <trkpt lat="47.28482" lon="-2.28075">
        <ele>28.799999237061</ele>
        <time>2022-06-26T08:04:10.000Z</time>
      </trkpt>
      <trkpt lat="47.28482" lon="-2.28073">
        <ele>29.200000762939</ele>
        <time>2022-06-26T08:04:11.000Z</time>
      </trkpt>
      <trkpt lat="47.28482" lon="-2.28069">
        <ele>29.60000038147</ele>
        <time>2022-06-26T08:04:12.000Z</time>
      </trkpt>
      <trkpt lat="47.28481" lon="-2.28066">
        <ele>30.200000762939</ele>
        <time>2022-06-26T08:04:13.000Z</time>
      </trkpt>
      <trkpt lat="47.2848" lon="-2.28063">
        <ele>30.200000762939</ele>
        <time>2022-06-26T08:04:14.000Z</time>
      </trkpt>
      <trkpt lat="47.28479" lon="-2.28047">
        <ele>30.200000762939</ele>
        <time>2022-06-26T08:04:19.000Z</time>
      </trkpt>
      <trkpt lat="47.2849" lon="-2.28038">
        <ele>30.200000762939</ele>
        <time>2022-06-26T08:04:24.000Z</time>
      </trkpt>
      <trkpt lat="47.28499" lon="-2.28041">
        <ele>30.200000762939</ele>
        <time>2022-06-26T08:04:27.000Z</time>
      </trkpt>
      <trkpt lat="47.28505" lon="-2.28044">
        <ele>30.200000762939</ele>
        <time>2022-06-26T08:04:29.000Z</time>
      </trkpt>
      <trkpt lat="47.28524" lon="-2.28045">
        <ele>30.200000762939</ele>
        <time>2022-06-26T08:04:34.000Z</time>
      </trkpt>
      <trkpt lat="47.28529" lon="-2.28046">
        <ele>29.60000038147</ele>
        <time>2022-06-26T08:04:35.000Z</time>
      </trkpt>
      <trkpt lat="47.28533" lon="-2.28047">
        <ele>29.200000762939</ele>
        <time>2022-06-26T08:04:36.000Z</time>
      </trkpt>
      <trkpt lat="47.28536" lon="-2.28046">
        <ele>28.799999237061</ele>
        <time>2022-06-26T08:04:37.000Z</time>
      </trkpt>
      <trkpt lat="47.28539" lon="-2.28047">
        <ele>28.200000762939</ele>
        <time>2022-06-26T08:04:38.000Z</time>
      </trkpt>
      <trkpt lat="47.28543" lon="-2.28048">
        <ele>27.60000038147</ele>
        <time>2022-06-26T08:04:39.000Z</time>
      </trkpt>
      <trkpt lat="47.28548" lon="-2.28049">
        <ele>27.200000762939</ele>
        <time>2022-06-26T08:04:40.000Z</time>
      </trkpt>
      <trkpt lat="47.28553" lon="-2.28049">
        <ele>26.60000038147</ele>
        <time>2022-06-26T08:04:41.000Z</time>
      </trkpt>
      <trkpt lat="47.28557" lon="-2.28047">
        <ele>26</ele>
        <time>2022-06-26T08:04:42.000Z</time>
      </trkpt>
      <trkpt lat="47.2856" lon="-2.28045">
        <ele>25.39999961853</ele>
        <time>2022-06-26T08:04:43.000Z</time>
      </trkpt>
      <trkpt lat="47.28574" lon="-2.28038">
        <ele>25.39999961853</ele>
        <time>2022-06-26T08:04:48.000Z</time>
      </trkpt>
      <trkpt lat="47.28589" lon="-2.28026">
        <ele>25.39999961853</ele>
        <time>2022-06-26T08:04:52.000Z</time>
      </trkpt>
      <trkpt lat="47.28592" lon="-2.28021">
        <ele>25.39999961853</ele>
        <time>2022-06-26T08:04:53.000Z</time>
      </trkpt>
      <trkpt lat="47.28602" lon="-2.28">
        <ele>25.39999961853</ele>
        <time>2022-06-26T08:04:56.000Z</time>
      </trkpt>
      <trkpt lat="47.28606" lon="-2.2798">
        <ele>25.39999961853</ele>
        <time>2022-06-26T08:04:59.000Z</time>
      </trkpt>
      <trkpt lat="47.2861" lon="-2.27967">
        <ele>25</ele>
        <time>2022-06-26T08:05:01.000Z</time>
      </trkpt>
      <trkpt lat="47.28612" lon="-2.27961">
        <ele>24.60000038147</ele>
        <time>2022-06-26T08:05:02.000Z</time>
      </trkpt>
      <trkpt lat="47.28615" lon="-2.27956">
        <ele>24.200000762939</ele>
        <time>2022-06-26T08:05:03.000Z</time>
      </trkpt>
      <trkpt lat="47.28617" lon="-2.27952">
        <ele>23.799999237061</ele>
        <time>2022-06-26T08:05:04.000Z</time>
      </trkpt>
      <trkpt lat="47.28619" lon="-2.27951">
        <ele>23.39999961853</ele>
        <time>2022-06-26T08:05:05.000Z</time>
      </trkpt>
      <trkpt lat="47.28621" lon="-2.2795">
        <ele>23.39999961853</ele>
        <time>2022-06-26T08:05:06.000Z</time>
      </trkpt>
      <trkpt lat="47.28624" lon="-2.2795">
        <ele>23.39999961853</ele>
        <time>2022-06-26T08:05:11.000Z</time>
      </trkpt>
      <trkpt lat="47.28627" lon="-2.27946">
        <ele>23.39999961853</ele>
        <time>2022-06-26T08:05:46.000Z</time>
      </trkpt>
      <trkpt lat="47.28629" lon="-2.27936">
        <ele>23.39999961853</ele>
        <time>2022-06-26T08:05:48.000Z</time>
      </trkpt>
      <trkpt lat="47.28631" lon="-2.27908">
        <ele>23.39999961853</ele>
        <time>2022-06-26T08:05:50.000Z</time>
      </trkpt>
      <trkpt lat="47.28632" lon="-2.2788">
        <ele>23.39999961853</ele>
        <time>2022-06-26T08:05:57.000Z</time>
      </trkpt>
      <trkpt lat="47.2864" lon="-2.27831">
        <ele>23.39999961853</ele>
        <time>2022-06-26T08:06:04.000Z</time>
      </trkpt>
      <trkpt lat="47.28649" lon="-2.27786">
        <ele>23.39999961853</ele>
        <time>2022-06-26T08:06:11.000Z</time>
      </trkpt>
      <trkpt lat="47.2866" lon="-2.27755">
        <ele>23.39999961853</ele>
        <time>2022-06-26T08:06:16.000Z</time>
      </trkpt>
      <trkpt lat="47.28663" lon="-2.27748">
        <ele>23.39999961853</ele>
        <time>2022-06-26T08:06:17.000Z</time>
      </trkpt>
      <trkpt lat="47.28674" lon="-2.27728">
        <ele>23.39999961853</ele>
        <time>2022-06-26T08:06:20.000Z</time>
      </trkpt>
      <trkpt lat="47.28682" lon="-2.27716">
        <ele>23.39999961853</ele>
        <time>2022-06-26T08:06:22.000Z</time>
      </trkpt>
      <trkpt lat="47.28712" lon="-2.27664">
        <ele>23.39999961853</ele>
        <time>2022-06-26T08:06:30.000Z</time>
      </trkpt>
      <trkpt lat="47.28743" lon="-2.27617">
        <ele>23.39999961853</ele>
        <time>2022-06-26T08:06:37.000Z</time>
      </trkpt>
      <trkpt lat="47.28748" lon="-2.27611">
        <ele>23</ele>
        <time>2022-06-26T08:06:38.000Z</time>
      </trkpt>
      <trkpt lat="47.28752" lon="-2.27605">
        <ele>22.60000038147</ele>
        <time>2022-06-26T08:06:39.000Z</time>
      </trkpt>
      <trkpt lat="47.28757" lon="-2.276">
        <ele>22.200000762939</ele>
        <time>2022-06-26T08:06:40.000Z</time>
      </trkpt>
      <trkpt lat="47.28761" lon="-2.27594">
        <ele>21.799999237061</ele>
        <time>2022-06-26T08:06:41.000Z</time>
      </trkpt>
      <trkpt lat="47.28766" lon="-2.27589">
        <ele>21.39999961853</ele>
        <time>2022-06-26T08:06:42.000Z</time>
      </trkpt>
      <trkpt lat="47.28775" lon="-2.27579">
        <ele>21.39999961853</ele>
        <time>2022-06-26T08:06:44.000Z</time>
      </trkpt>
      <trkpt lat="47.28788" lon="-2.27562">
        <ele>21.39999961853</ele>
        <time>2022-06-26T08:06:47.000Z</time>
      </trkpt>
      <trkpt lat="47.28795" lon="-2.27549">
        <ele>21.39999961853</ele>
        <time>2022-06-26T08:06:49.000Z</time>
      </trkpt>
      <trkpt lat="47.2881" lon="-2.27539">
        <ele>21.39999961853</ele>
        <time>2022-06-26T08:06:52.000Z</time>
      </trkpt>
      <trkpt lat="47.28816" lon="-2.27538">
        <ele>21.39999961853</ele>
        <time>2022-06-26T08:06:53.000Z</time>
      </trkpt>
      <trkpt lat="47.28846" lon="-2.27534">
        <ele>21.39999961853</ele>
        <time>2022-06-26T08:06:58.000Z</time>
      </trkpt>
      <trkpt lat="47.28885" lon="-2.27526">
        <ele>21.39999961853</ele>
        <time>2022-06-26T08:07:04.000Z</time>
      </trkpt>
      <trkpt lat="47.28918" lon="-2.2752">
        <ele>21.39999961853</ele>
        <time>2022-06-26T08:07:09.000Z</time>
      </trkpt>
      <trkpt lat="47.28957" lon="-2.2752">
        <ele>21.39999961853</ele>
        <time>2022-06-26T08:07:15.000Z</time>
      </trkpt>
      <trkpt lat="47.28973" lon="-2.27521">
        <ele>21.39999961853</ele>
        <time>2022-06-26T08:07:18.000Z</time>
      </trkpt>
      <trkpt lat="47.28979" lon="-2.27522">
        <ele>21.39999961853</ele>
        <time>2022-06-26T08:07:19.000Z</time>
      </trkpt>
      <trkpt lat="47.29017" lon="-2.2752">
        <ele>21.39999961853</ele>
        <time>2022-06-26T08:07:25.000Z</time>
      </trkpt>
      <trkpt lat="47.29059" lon="-2.27523">
        <ele>21.39999961853</ele>
        <time>2022-06-26T08:07:32.000Z</time>
      </trkpt>
      <trkpt lat="47.2909" lon="-2.2753">
        <ele>21.39999961853</ele>
        <time>2022-06-26T08:07:38.000Z</time>
      </trkpt>
      <trkpt lat="47.29094" lon="-2.27531">
        <ele>21.39999961853</ele>
        <time>2022-06-26T08:07:39.000Z</time>
      </trkpt>
      <trkpt lat="47.29102" lon="-2.27525">
        <ele>21.39999961853</ele>
        <time>2022-06-26T08:07:42.000Z</time>
      </trkpt>
      <trkpt lat="47.29102" lon="-2.27514">
        <ele>21.39999961853</ele>
        <time>2022-06-26T08:07:44.000Z</time>
      </trkpt>
      <trkpt lat="47.29103" lon="-2.27493">
        <ele>21.39999961853</ele>
        <time>2022-06-26T08:07:47.000Z</time>
      </trkpt>
      <trkpt lat="47.29106" lon="-2.2744">
        <ele>21.39999961853</ele>
        <time>2022-06-26T08:07:54.000Z</time>
      </trkpt>
      <trkpt lat="47.29106" lon="-2.27423">
        <ele>21.39999961853</ele>
        <time>2022-06-26T08:07:56.000Z</time>
      </trkpt>
      <trkpt lat="47.29103" lon="-2.27396">
        <ele>21.39999961853</ele>
        <time>2022-06-26T08:07:59.000Z</time>
      </trkpt>
      <trkpt lat="47.29097" lon="-2.27372">
        <ele>21</ele>
        <time>2022-06-26T08:08:02.000Z</time>
      </trkpt>
      <trkpt lat="47.29096" lon="-2.27366">
        <ele>20.39999961853</ele>
        <time>2022-06-26T08:08:03.000Z</time>
      </trkpt>
      <trkpt lat="47.29094" lon="-2.27362">
        <ele>20</ele>
        <time>2022-06-26T08:08:04.000Z</time>
      </trkpt>
      <trkpt lat="47.29092" lon="-2.27359">
        <ele>19.60000038147</ele>
        <time>2022-06-26T08:08:05.000Z</time>
      </trkpt>
      <trkpt lat="47.2909" lon="-2.27357">
        <ele>19.200000762939</ele>
        <time>2022-06-26T08:08:06.000Z</time>
      </trkpt>
      <trkpt lat="47.29091" lon="-2.27338">
        <ele>19.200000762939</ele>
        <time>2022-06-26T08:08:10.000Z</time>
      </trkpt>
      <trkpt lat="47.29092" lon="-2.27333">
        <ele>19.200000762939</ele>
        <time>2022-06-26T08:08:11.000Z</time>
      </trkpt>
      <trkpt lat="47.29093" lon="-2.27311">
        <ele>19.200000762939</ele>
        <time>2022-06-26T08:08:16.000Z</time>
      </trkpt>
      <trkpt lat="47.29094" lon="-2.27296">
        <ele>19.200000762939</ele>
        <time>2022-06-26T08:08:19.000Z</time>
      </trkpt>
      <trkpt lat="47.29096" lon="-2.27287">
        <ele>19.200000762939</ele>
        <time>2022-06-26T08:08:21.000Z</time>
      </trkpt>
      <trkpt lat="47.29102" lon="-2.27264">
        <ele>19.200000762939</ele>
        <time>2022-06-26T08:08:26.000Z</time>
      </trkpt>
      <trkpt lat="47.29107" lon="-2.27237">
        <ele>19.200000762939</ele>
        <time>2022-06-26T08:08:31.000Z</time>
      </trkpt>
      <trkpt lat="47.29111" lon="-2.27226">
        <ele>19.200000762939</ele>
        <time>2022-06-26T08:08:35.000Z</time>
      </trkpt>
      <trkpt lat="47.29112" lon="-2.27222">
        <ele>19.200000762939</ele>
        <time>2022-06-26T08:08:36.000Z</time>
      </trkpt>
      <trkpt lat="47.29114" lon="-2.2721">
        <ele>19.200000762939</ele>
        <time>2022-06-26T08:08:41.000Z</time>
      </trkpt>
      <trkpt lat="47.29113" lon="-2.27207">
        <ele>19.200000762939</ele>
        <time>2022-06-26T08:08:43.000Z</time>
      </trkpt>
      <trkpt lat="47.29109" lon="-2.27205">
        <ele>19.200000762939</ele>
        <time>2022-06-26T08:08:46.000Z</time>
      </trkpt>
      <trkpt lat="47.29095" lon="-2.27206">
        <ele>19.200000762939</ele>
        <time>2022-06-26T08:08:51.000Z</time>
      </trkpt>
      <trkpt lat="47.29089" lon="-2.27205">
        <ele>19.200000762939</ele>
        <time>2022-06-26T08:08:53.000Z</time>
      </trkpt>
      <trkpt lat="47.29082" lon="-2.272">
        <ele>19.200000762939</ele>
        <time>2022-06-26T08:08:55.000Z</time>
      </trkpt>
      <trkpt lat="47.29071" lon="-2.27184">
        <ele>19.200000762939</ele>
        <time>2022-06-26T08:08:59.000Z</time>
      </trkpt>
      <trkpt lat="47.29063" lon="-2.27166">
        <ele>19.200000762939</ele>
        <time>2022-06-26T08:09:03.000Z</time>
      </trkpt>
      <trkpt lat="47.29061" lon="-2.27162">
        <ele>19.200000762939</ele>
        <time>2022-06-26T08:09:04.000Z</time>
      </trkpt>
      <trkpt lat="47.29045" lon="-2.27145">
        <ele>19.200000762939</ele>
        <time>2022-06-26T08:09:08.000Z</time>
      </trkpt>
      <trkpt lat="47.2903" lon="-2.2713">
        <ele>19.200000762939</ele>
        <time>2022-06-26T08:09:12.000Z</time>
      </trkpt>
      <trkpt lat="47.29021" lon="-2.27112">
        <ele>19.200000762939</ele>
        <time>2022-06-26T08:09:16.000Z</time>
      </trkpt>
      <trkpt lat="47.29024" lon="-2.27107">
        <ele>19.200000762939</ele>
        <time>2022-06-26T08:09:17.000Z</time>
      </trkpt>
      <trkpt lat="47.29028" lon="-2.27104">
        <ele>19.200000762939</ele>
        <time>2022-06-26T08:09:18.000Z</time>
      </trkpt>
      <trkpt lat="47.29046" lon="-2.27093">
        <ele>19.200000762939</ele>
        <time>2022-06-26T08:09:23.000Z</time>
      </trkpt>
      <trkpt lat="47.29062" lon="-2.27066">
        <ele>19.200000762939</ele>
        <time>2022-06-26T08:09:28.000Z</time>
      </trkpt>
      <trkpt lat="47.29067" lon="-2.27039">
        <ele>19.200000762939</ele>
        <time>2022-06-26T08:09:33.000Z</time>
      </trkpt>
      <trkpt lat="47.29076" lon="-2.27031">
        <ele>19.200000762939</ele>
        <time>2022-06-26T08:09:37.000Z</time>
      </trkpt>
      <trkpt lat="47.29077" lon="-2.27028">
        <ele>19.200000762939</ele>
        <time>2022-06-26T08:09:38.000Z</time>
      </trkpt>
      <trkpt lat="47.29078" lon="-2.2701">
        <ele>19.200000762939</ele>
        <time>2022-06-26T08:09:43.000Z</time>
      </trkpt>
      <trkpt lat="47.29077" lon="-2.26998">
        <ele>19.200000762939</ele>
        <time>2022-06-26T08:09:48.000Z</time>
      </trkpt>
      <trkpt lat="47.29077" lon="-2.26997">
        <ele>19.200000762939</ele>
        <time>2022-06-26T08:09:49.000Z</time>
      </trkpt>
      <trkpt lat="47.29077" lon="-2.26995">
        <ele>19.200000762939</ele>
        <time>2022-06-26T08:09:55.000Z</time>
      </trkpt>
      <trkpt lat="47.29078" lon="-2.26988">
        <ele>19.200000762939</ele>
        <time>2022-06-26T08:09:57.000Z</time>
      </trkpt>
      <trkpt lat="47.29078" lon="-2.26968">
        <ele>19.200000762939</ele>
        <time>2022-06-26T08:10:03.000Z</time>
      </trkpt>
      <trkpt lat="47.29079" lon="-2.26964">
        <ele>19.200000762939</ele>
        <time>2022-06-26T08:10:06.000Z</time>
      </trkpt>
      <trkpt lat="47.29079" lon="-2.2696">
        <ele>19.200000762939</ele>
        <time>2022-06-26T08:10:12.000Z</time>
      </trkpt>
      <trkpt lat="47.29079" lon="-2.26957">
        <ele>19.200000762939</ele>
        <time>2022-06-26T08:10:13.000Z</time>
      </trkpt>
      <trkpt lat="47.2908" lon="-2.26938">
        <ele>19.200000762939</ele>
        <time>2022-06-26T08:10:19.000Z</time>
      </trkpt>
      <trkpt lat="47.29082" lon="-2.26923">
        <ele>19.200000762939</ele>
        <time>2022-06-26T08:10:24.000Z</time>
      </trkpt>
      <trkpt lat="47.29074" lon="-2.26906">
        <ele>19.200000762939</ele>
        <time>2022-06-26T08:10:30.000Z</time>
      </trkpt>
      <trkpt lat="47.29066" lon="-2.26893">
        <ele>19.200000762939</ele>
        <time>2022-06-26T08:10:35.000Z</time>
      </trkpt>
      <trkpt lat="47.29064" lon="-2.2688">
        <ele>19.200000762939</ele>
        <time>2022-06-26T08:10:37.000Z</time>
      </trkpt>
      <trkpt lat="47.29063" lon="-2.26867">
        <ele>19.200000762939</ele>
        <time>2022-06-26T08:10:39.000Z</time>
      </trkpt>
      <trkpt lat="47.29062" lon="-2.2686">
        <ele>19.200000762939</ele>
        <time>2022-06-26T08:10:40.000Z</time>
      </trkpt>
      <trkpt lat="47.29064" lon="-2.26825">
        <ele>19.200000762939</ele>
        <time>2022-06-26T08:10:45.000Z</time>
      </trkpt>
      <trkpt lat="47.29065" lon="-2.26779">
        <ele>19.200000762939</ele>
        <time>2022-06-26T08:10:51.000Z</time>
      </trkpt>
      <trkpt lat="47.29057" lon="-2.26728">
        <ele>19.200000762939</ele>
        <time>2022-06-26T08:10:59.000Z</time>
      </trkpt>
      <trkpt lat="47.29056" lon="-2.26722">
        <ele>19.60000038147</ele>
        <time>2022-06-26T08:11:00.000Z</time>
      </trkpt>
      <trkpt lat="47.29055" lon="-2.26716">
        <ele>20.39999961853</ele>
        <time>2022-06-26T08:11:01.000Z</time>
      </trkpt>
      <trkpt lat="47.29054" lon="-2.26709">
        <ele>20.799999237061</ele>
        <time>2022-06-26T08:11:02.000Z</time>
      </trkpt>
      <trkpt lat="47.29053" lon="-2.26702">
        <ele>21.200000762939</ele>
        <time>2022-06-26T08:11:03.000Z</time>
      </trkpt>
      <trkpt lat="47.29051" lon="-2.26689">
        <ele>21.60000038147</ele>
        <time>2022-06-26T08:11:05.000Z</time>
      </trkpt>
      <trkpt lat="47.2905" lon="-2.26682">
        <ele>22</ele>
        <time>2022-06-26T08:11:06.000Z</time>
      </trkpt>
      <trkpt lat="47.2905" lon="-2.26676">
        <ele>22.39999961853</ele>
        <time>2022-06-26T08:11:07.000Z</time>
      </trkpt>
      <trkpt lat="47.29049" lon="-2.26669">
        <ele>22.799999237061</ele>
        <time>2022-06-26T08:11:08.000Z</time>
      </trkpt>
      <trkpt lat="47.29048" lon="-2.26663">
        <ele>23.39999961853</ele>
        <time>2022-06-26T08:11:09.000Z</time>
      </trkpt>
      <trkpt lat="47.29048" lon="-2.26643">
        <ele>23.39999961853</ele>
        <time>2022-06-26T08:11:12.000Z</time>
      </trkpt>
      <trkpt lat="47.29048" lon="-2.26631">
        <ele>23.799999237061</ele>
        <time>2022-06-26T08:11:14.000Z</time>
      </trkpt>
      <trkpt lat="47.29047" lon="-2.26625">
        <ele>24.200000762939</ele>
        <time>2022-06-26T08:11:15.000Z</time>
      </trkpt>
      <trkpt lat="47.29046" lon="-2.26619">
        <ele>24.60000038147</ele>
        <time>2022-06-26T08:11:16.000Z</time>
      </trkpt>
      <trkpt lat="47.29045" lon="-2.26614">
        <ele>25</ele>
        <time>2022-06-26T08:11:17.000Z</time>
      </trkpt>
      <trkpt lat="47.29045" lon="-2.26609">
        <ele>25.39999961853</ele>
        <time>2022-06-26T08:11:18.000Z</time>
      </trkpt>
      <trkpt lat="47.29042" lon="-2.26577">
        <ele>25.39999961853</ele>
        <time>2022-06-26T08:11:25.000Z</time>
      </trkpt>
      <trkpt lat="47.29033" lon="-2.2654">
        <ele>25.39999961853</ele>
        <time>2022-06-26T08:11:31.000Z</time>
      </trkpt>
      <trkpt lat="47.29021" lon="-2.26481">
        <ele>25.39999961853</ele>
        <time>2022-06-26T08:11:39.000Z</time>
      </trkpt>
      <trkpt lat="47.29013" lon="-2.26434">
        <ele>25.39999961853</ele>
        <time>2022-06-26T08:11:46.000Z</time>
      </trkpt>
      <trkpt lat="47.29012" lon="-2.26421">
        <ele>25.799999237061</ele>
        <time>2022-06-26T08:11:48.000Z</time>
      </trkpt>
      <trkpt lat="47.29012" lon="-2.26415">
        <ele>26.200000762939</ele>
        <time>2022-06-26T08:11:49.000Z</time>
      </trkpt>
      <trkpt lat="47.29012" lon="-2.26409">
        <ele>26.799999237061</ele>
        <time>2022-06-26T08:11:50.000Z</time>
      </trkpt>
      <trkpt lat="47.29012" lon="-2.26402">
        <ele>27.60000038147</ele>
        <time>2022-06-26T08:11:51.000Z</time>
      </trkpt>
      <trkpt lat="47.29013" lon="-2.2639">
        <ele>28</ele>
        <time>2022-06-26T08:11:53.000Z</time>
      </trkpt>
      <trkpt lat="47.29013" lon="-2.26383">
        <ele>28.39999961853</ele>
        <time>2022-06-26T08:11:54.000Z</time>
      </trkpt>
      <trkpt lat="47.29014" lon="-2.26377">
        <ele>28.799999237061</ele>
        <time>2022-06-26T08:11:55.000Z</time>
      </trkpt>
      <trkpt lat="47.29017" lon="-2.26372">
        <ele>29.200000762939</ele>
        <time>2022-06-26T08:11:56.000Z</time>
      </trkpt>
      <trkpt lat="47.2902" lon="-2.26366">
        <ele>29.799999237061</ele>
        <time>2022-06-26T08:11:57.000Z</time>
      </trkpt>
      <trkpt lat="47.29023" lon="-2.26362">
        <ele>29.799999237061</ele>
        <time>2022-06-26T08:11:58.000Z</time>
      </trkpt>
      <trkpt lat="47.29027" lon="-2.26357">
        <ele>29.799999237061</ele>
        <time>2022-06-26T08:11:59.000Z</time>
      </trkpt>
      <trkpt lat="47.29045" lon="-2.26342">
        <ele>29.799999237061</ele>
        <time>2022-06-26T08:12:03.000Z</time>
      </trkpt>
      <trkpt lat="47.29065" lon="-2.26312">
        <ele>29.799999237061</ele>
        <time>2022-06-26T08:12:08.000Z</time>
      </trkpt>
      <trkpt lat="47.29071" lon="-2.26296">
        <ele>29.799999237061</ele>
        <time>2022-06-26T08:12:10.000Z</time>
      </trkpt>
      <trkpt lat="47.29074" lon="-2.26279">
        <ele>29.799999237061</ele>
        <time>2022-06-26T08:12:12.000Z</time>
      </trkpt>
      <trkpt lat="47.29087" lon="-2.26215">
        <ele>29.799999237061</ele>
        <time>2022-06-26T08:12:20.000Z</time>
      </trkpt>
      <trkpt lat="47.29096" lon="-2.2616">
        <ele>29.799999237061</ele>
        <time>2022-06-26T08:12:27.000Z</time>
      </trkpt>
      <trkpt lat="47.29104" lon="-2.26113">
        <ele>29.200000762939</ele>
        <time>2022-06-26T08:12:34.000Z</time>
      </trkpt>
      <trkpt lat="47.29105" lon="-2.26108">
        <ele>28.799999237061</ele>
        <time>2022-06-26T08:12:35.000Z</time>
      </trkpt>
      <trkpt lat="47.29106" lon="-2.26103">
        <ele>28.39999961853</ele>
        <time>2022-06-26T08:12:36.000Z</time>
      </trkpt>
      <trkpt lat="47.29106" lon="-2.26098">
        <ele>28</ele>
        <time>2022-06-26T08:12:37.000Z</time>
      </trkpt>
      <trkpt lat="47.29106" lon="-2.26092">
        <ele>27.60000038147</ele>
        <time>2022-06-26T08:12:38.000Z</time>
      </trkpt>
      <trkpt lat="47.29106" lon="-2.26086">
        <ele>27.60000038147</ele>
        <time>2022-06-26T08:12:39.000Z</time>
      </trkpt>
      <trkpt lat="47.29105" lon="-2.26065">
        <ele>27.60000038147</ele>
        <time>2022-06-26T08:12:42.000Z</time>
      </trkpt>
      <trkpt lat="47.29101" lon="-2.26052">
        <ele>27.60000038147</ele>
        <time>2022-06-26T08:12:44.000Z</time>
      </trkpt>
      <trkpt lat="47.29089" lon="-2.26014">
        <ele>27.60000038147</ele>
        <time>2022-06-26T08:12:51.000Z</time>
      </trkpt>
      <trkpt lat="47.29086" lon="-2.26">
        <ele>27.60000038147</ele>
        <time>2022-06-26T08:12:55.000Z</time>
      </trkpt>
      <trkpt lat="47.29089" lon="-2.25992">
        <ele>27.60000038147</ele>
        <time>2022-06-26T08:12:57.000Z</time>
      </trkpt>
      <trkpt lat="47.29092" lon="-2.25988">
        <ele>27.60000038147</ele>
        <time>2022-06-26T08:12:58.000Z</time>
      </trkpt>
      <trkpt lat="47.2911" lon="-2.25975">
        <ele>27.60000038147</ele>
        <time>2022-06-26T08:13:03.000Z</time>
      </trkpt>
      <trkpt lat="47.29115" lon="-2.25974">
        <ele>27.200000762939</ele>
        <time>2022-06-26T08:13:04.000Z</time>
      </trkpt>
      <trkpt lat="47.29119" lon="-2.25974">
        <ele>26.39999961853</ele>
        <time>2022-06-26T08:13:05.000Z</time>
      </trkpt>
      <trkpt lat="47.29124" lon="-2.25974">
        <ele>26</ele>
        <time>2022-06-26T08:13:06.000Z</time>
      </trkpt>
      <trkpt lat="47.29129" lon="-2.25974">
        <ele>25.60000038147</ele>
        <time>2022-06-26T08:13:07.000Z</time>
      </trkpt>
      <trkpt lat="47.29133" lon="-2.25974">
        <ele>25.60000038147</ele>
        <time>2022-06-26T08:13:08.000Z</time>
      </trkpt>
      <trkpt lat="47.29138" lon="-2.25975">
        <ele>25.60000038147</ele>
        <time>2022-06-26T08:13:09.000Z</time>
      </trkpt>
      <trkpt lat="47.29153" lon="-2.2598">
        <ele>25.60000038147</ele>
        <time>2022-06-26T08:13:12.000Z</time>
      </trkpt>
      <trkpt lat="47.29158" lon="-2.25981">
        <ele>25.60000038147</ele>
        <time>2022-06-26T08:13:13.000Z</time>
      </trkpt>
      <trkpt lat="47.29173" lon="-2.2598">
        <ele>25.60000038147</ele>
        <time>2022-06-26T08:13:16.000Z</time>
      </trkpt>
      <trkpt lat="47.29178" lon="-2.25979">
        <ele>25.60000038147</ele>
        <time>2022-06-26T08:13:17.000Z</time>
      </trkpt>
      <trkpt lat="47.29201" lon="-2.25973">
        <ele>25.60000038147</ele>
        <time>2022-06-26T08:13:22.000Z</time>
      </trkpt>
      <trkpt lat="47.29215" lon="-2.2597">
        <ele>25.60000038147</ele>
        <time>2022-06-26T08:13:25.000Z</time>
      </trkpt>
      <trkpt lat="47.2922" lon="-2.25968">
        <ele>25.60000038147</ele>
        <time>2022-06-26T08:13:26.000Z</time>
      </trkpt>
      <trkpt lat="47.29232" lon="-2.25959">
        <ele>25.60000038147</ele>
        <time>2022-06-26T08:13:29.000Z</time>
      </trkpt>
      <trkpt lat="47.2926" lon="-2.25946">
        <ele>25.60000038147</ele>
        <time>2022-06-26T08:13:35.000Z</time>
      </trkpt>
      <trkpt lat="47.29285" lon="-2.25935">
        <ele>25.60000038147</ele>
        <time>2022-06-26T08:13:41.000Z</time>
      </trkpt>
      <trkpt lat="47.29292" lon="-2.2593">
        <ele>25.60000038147</ele>
        <time>2022-06-26T08:13:45.000Z</time>
      </trkpt>
      <trkpt lat="47.29299" lon="-2.25922">
        <ele>25.60000038147</ele>
        <time>2022-06-26T08:13:52.000Z</time>
      </trkpt>
      <trkpt lat="47.29303" lon="-2.25916">
        <ele>25.60000038147</ele>
        <time>2022-06-26T08:13:56.000Z</time>
      </trkpt>
      <trkpt lat="47.29303" lon="-2.25912">
        <ele>25.60000038147</ele>
        <time>2022-06-26T08:13:57.000Z</time>
      </trkpt>
      <trkpt lat="47.29295" lon="-2.25888">
        <ele>25.60000038147</ele>
        <time>2022-06-26T08:14:03.000Z</time>
      </trkpt>
      <trkpt lat="47.29287" lon="-2.25872">
        <ele>25.60000038147</ele>
        <time>2022-06-26T08:14:08.000Z</time>
      </trkpt>
      <trkpt lat="47.29288" lon="-2.25869">
        <ele>25.60000038147</ele>
        <time>2022-06-26T08:14:10.000Z</time>
      </trkpt>
      <trkpt lat="47.2929" lon="-2.25871">
        <ele>25.60000038147</ele>
        <time>2022-06-26T08:14:13.000Z</time>
      </trkpt>
      <trkpt lat="47.29298" lon="-2.25879">
        <ele>25.60000038147</ele>
        <time>2022-06-26T08:14:18.000Z</time>
      </trkpt>
      <trkpt lat="47.29298" lon="-2.2588">
        <ele>25.60000038147</ele>
        <time>2022-06-26T08:14:19.000Z</time>
      </trkpt>
      <trkpt lat="47.2931" lon="-2.25882">
        <ele>25.60000038147</ele>
        <time>2022-06-26T08:14:48.000Z</time>
      </trkpt>
      <trkpt lat="47.29308" lon="-2.25876">
        <ele>25.60000038147</ele>
        <time>2022-06-26T08:14:50.000Z</time>
      </trkpt>
      <trkpt lat="47.29304" lon="-2.25853">
        <ele>25.60000038147</ele>
        <time>2022-06-26T08:14:57.000Z</time>
      </trkpt>
      <trkpt lat="47.29314" lon="-2.25847">
        <ele>25.60000038147</ele>
        <time>2022-06-26T08:15:01.000Z</time>
      </trkpt>
      <trkpt lat="47.29323" lon="-2.25854">
        <ele>25.60000038147</ele>
        <time>2022-06-26T08:15:05.000Z</time>
      </trkpt>
      <trkpt lat="47.29324" lon="-2.25856">
        <ele>25.60000038147</ele>
        <time>2022-06-26T08:15:06.000Z</time>
      </trkpt>
      <trkpt lat="47.2933" lon="-2.25873">
        <ele>25.60000038147</ele>
        <time>2022-06-26T08:15:10.000Z</time>
      </trkpt>
      <trkpt lat="47.29341" lon="-2.25878">
        <ele>25.60000038147</ele>
        <time>2022-06-26T08:15:13.000Z</time>
      </trkpt>
      <trkpt lat="47.29344" lon="-2.25877">
        <ele>25.200000762939</ele>
        <time>2022-06-26T08:15:14.000Z</time>
      </trkpt>
      <trkpt lat="47.29347" lon="-2.25875">
        <ele>24.799999237061</ele>
        <time>2022-06-26T08:15:15.000Z</time>
      </trkpt>
      <trkpt lat="47.2935" lon="-2.25874">
        <ele>24.39999961853</ele>
        <time>2022-06-26T08:15:16.000Z</time>
      </trkpt>
      <trkpt lat="47.29354" lon="-2.25873">
        <ele>24</ele>
        <time>2022-06-26T08:15:17.000Z</time>
      </trkpt>
      <trkpt lat="47.29357" lon="-2.25872">
        <ele>23.60000038147</ele>
        <time>2022-06-26T08:15:18.000Z</time>
      </trkpt>
      <trkpt lat="47.29367" lon="-2.25867">
        <ele>23.60000038147</ele>
        <time>2022-06-26T08:15:22.000Z</time>
      </trkpt>
      <trkpt lat="47.29368" lon="-2.25867">
        <ele>23.60000038147</ele>
        <time>2022-06-26T08:15:23.000Z</time>
      </trkpt>
      <trkpt lat="47.29375" lon="-2.25871">
        <ele>23.60000038147</ele>
        <time>2022-06-26T08:15:27.000Z</time>
      </trkpt>
      <trkpt lat="47.29382" lon="-2.25869">
        <ele>23.60000038147</ele>
        <time>2022-06-26T08:15:32.000Z</time>
      </trkpt>
      <trkpt lat="47.29387" lon="-2.25865">
        <ele>23.60000038147</ele>
        <time>2022-06-26T08:15:34.000Z</time>
      </trkpt>
      <trkpt lat="47.29393" lon="-2.25865">
        <ele>23.60000038147</ele>
        <time>2022-06-26T08:15:36.000Z</time>
      </trkpt>
      <trkpt lat="47.29405" lon="-2.25864">
        <ele>23.60000038147</ele>
        <time>2022-06-26T08:15:39.000Z</time>
      </trkpt>
      <trkpt lat="47.29411" lon="-2.25862">
        <ele>23.60000038147</ele>
        <time>2022-06-26T08:15:41.000Z</time>
      </trkpt>
      <trkpt lat="47.29418" lon="-2.25862">
        <ele>23.200000762939</ele>
        <time>2022-06-26T08:15:43.000Z</time>
      </trkpt>
      <trkpt lat="47.2942" lon="-2.25862">
        <ele>22.799999237061</ele>
        <time>2022-06-26T08:15:44.000Z</time>
      </trkpt>
      <trkpt lat="47.29423" lon="-2.25863">
        <ele>22.39999961853</ele>
        <time>2022-06-26T08:15:45.000Z</time>
      </trkpt>
      <trkpt lat="47.29424" lon="-2.25864">
        <ele>22</ele>
        <time>2022-06-26T08:15:46.000Z</time>
      </trkpt>
      <trkpt lat="47.2942" lon="-2.2586">
        <ele>21.60000038147</ele>
        <time>2022-06-26T08:16:50.000Z</time>
      </trkpt>
      <trkpt lat="47.29416" lon="-2.2586">
        <ele>21.60000038147</ele>
        <time>2022-06-26T08:16:53.000Z</time>
      </trkpt>
      <trkpt lat="47.29401" lon="-2.25857">
        <ele>21.60000038147</ele>
        <time>2022-06-26T08:16:59.000Z</time>
      </trkpt>
      <trkpt lat="47.29389" lon="-2.25863">
        <ele>21.60000038147</ele>
        <time>2022-06-26T08:17:04.000Z</time>
      </trkpt>
      <trkpt lat="47.29384" lon="-2.25865">
        <ele>21.60000038147</ele>
        <time>2022-06-26T08:17:06.000Z</time>
      </trkpt>
      <trkpt lat="47.29381" lon="-2.25865">
        <ele>22</ele>
        <time>2022-06-26T08:17:07.000Z</time>
      </trkpt>
      <trkpt lat="47.29379" lon="-2.25865">
        <ele>22.39999961853</ele>
        <time>2022-06-26T08:17:08.000Z</time>
      </trkpt>
      <trkpt lat="47.29376" lon="-2.25864">
        <ele>22.799999237061</ele>
        <time>2022-06-26T08:17:09.000Z</time>
      </trkpt>
      <trkpt lat="47.29373" lon="-2.25864">
        <ele>23.200000762939</ele>
        <time>2022-06-26T08:17:10.000Z</time>
      </trkpt>
      <trkpt lat="47.29371" lon="-2.25864">
        <ele>23.60000038147</ele>
        <time>2022-06-26T08:17:11.000Z</time>
      </trkpt>
      <trkpt lat="47.29366" lon="-2.25866">
        <ele>23.60000038147</ele>
        <time>2022-06-26T08:17:13.000Z</time>
      </trkpt>
      <trkpt lat="47.29347" lon="-2.25878">
        <ele>23.60000038147</ele>
        <time>2022-06-26T08:17:20.000Z</time>
      </trkpt>
      <trkpt lat="47.29338" lon="-2.25879">
        <ele>23.60000038147</ele>
        <time>2022-06-26T08:17:23.000Z</time>
      </trkpt>
      <trkpt lat="47.29332" lon="-2.25874">
        <ele>23.60000038147</ele>
        <time>2022-06-26T08:17:26.000Z</time>
      </trkpt>
      <trkpt lat="47.29324" lon="-2.25867">
        <ele>23.60000038147</ele>
        <time>2022-06-26T08:17:30.000Z</time>
      </trkpt>
      <trkpt lat="47.29319" lon="-2.25864">
        <ele>24</ele>
        <time>2022-06-26T08:17:33.000Z</time>
      </trkpt>
      <trkpt lat="47.29318" lon="-2.25864">
        <ele>24.39999961853</ele>
        <time>2022-06-26T08:17:34.000Z</time>
      </trkpt>
      <trkpt lat="47.29318" lon="-2.25865">
        <ele>24.799999237061</ele>
        <time>2022-06-26T08:17:35.000Z</time>
      </trkpt>
      <trkpt lat="47.29318" lon="-2.25866">
        <ele>25.200000762939</ele>
        <time>2022-06-26T08:17:36.000Z</time>
      </trkpt>
      <trkpt lat="47.29318" lon="-2.25867">
        <ele>25.60000038147</ele>
        <time>2022-06-26T08:17:37.000Z</time>
      </trkpt>
      <trkpt lat="47.2932" lon="-2.25871">
        <ele>25.60000038147</ele>
        <time>2022-06-26T08:17:38.000Z</time>
      </trkpt>
      <trkpt lat="47.29321" lon="-2.25884">
        <ele>25.60000038147</ele>
        <time>2022-06-26T08:17:41.000Z</time>
      </trkpt>
      <trkpt lat="47.2932" lon="-2.2589">
        <ele>25.60000038147</ele>
        <time>2022-06-26T08:17:42.000Z</time>
      </trkpt>
      <trkpt lat="47.29318" lon="-2.25902">
        <ele>25.60000038147</ele>
        <time>2022-06-26T08:17:46.000Z</time>
      </trkpt>
      <trkpt lat="47.29317" lon="-2.25904">
        <ele>25.60000038147</ele>
        <time>2022-06-26T08:17:48.000Z</time>
      </trkpt>
      <trkpt lat="47.29313" lon="-2.25901">
        <ele>25.60000038147</ele>
        <time>2022-06-26T08:27:38.000Z</time>
      </trkpt>
      <trkpt lat="47.29312" lon="-2.25897">
        <ele>25.60000038147</ele>
        <time>2022-06-26T08:27:40.000Z</time>
      </trkpt>
      <trkpt lat="47.29308" lon="-2.25883">
        <ele>25.60000038147</ele>
        <time>2022-06-26T08:27:45.000Z</time>
      </trkpt>
      <trkpt lat="47.293" lon="-2.25871">
        <ele>25.60000038147</ele>
        <time>2022-06-26T08:27:50.000Z</time>
      </trkpt>
      <trkpt lat="47.29293" lon="-2.25856">
        <ele>25.60000038147</ele>
        <time>2022-06-26T08:27:55.000Z</time>
      </trkpt>
      <trkpt lat="47.29293" lon="-2.25856">
        <ele>25.60000038147</ele>
        <time>2022-06-26T08:27:56.000Z</time>
      </trkpt>
      <trkpt lat="47.29296" lon="-2.25859">
        <ele>25.60000038147</ele>
        <time>2022-06-26T08:27:59.000Z</time>
      </trkpt>
      <trkpt lat="47.29301" lon="-2.25866">
        <ele>25.60000038147</ele>
        <time>2022-06-26T08:28:01.000Z</time>
      </trkpt>
      <trkpt lat="47.29313" lon="-2.25878">
        <ele>25.60000038147</ele>
        <time>2022-06-26T08:28:06.000Z</time>
      </trkpt>
      <trkpt lat="47.29319" lon="-2.25882">
        <ele>25.60000038147</ele>
        <time>2022-06-26T08:28:11.000Z</time>
      </trkpt>
      <trkpt lat="47.29318" lon="-2.25877">
        <ele>25.60000038147</ele>
        <time>2022-06-26T08:28:14.000Z</time>
      </trkpt>
      <trkpt lat="47.29316" lon="-2.25871">
        <ele>25.60000038147</ele>
        <time>2022-06-26T08:28:16.000Z</time>
      </trkpt>
      <trkpt lat="47.29316" lon="-2.25867">
        <ele>25.60000038147</ele>
        <time>2022-06-26T08:28:20.000Z</time>
      </trkpt>
      <trkpt lat="47.2932" lon="-2.25869">
        <ele>25.60000038147</ele>
        <time>2022-06-26T08:28:24.000Z</time>
      </trkpt>
      <trkpt lat="47.29321" lon="-2.25872">
        <ele>25.60000038147</ele>
        <time>2022-06-26T08:28:25.000Z</time>
      </trkpt>
      <trkpt lat="47.29334" lon="-2.25882">
        <ele>25.60000038147</ele>
        <time>2022-06-26T08:28:30.000Z</time>
      </trkpt>
      <trkpt lat="47.2934" lon="-2.25881">
        <ele>25.60000038147</ele>
        <time>2022-06-26T08:28:32.000Z</time>
      </trkpt>
      <trkpt lat="47.29352" lon="-2.25872">
        <ele>25.60000038147</ele>
        <time>2022-06-26T08:28:37.000Z</time>
      </trkpt>
      <trkpt lat="47.29361" lon="-2.25862">
        <ele>25.60000038147</ele>
        <time>2022-06-26T08:28:43.000Z</time>
      </trkpt>
      <trkpt lat="47.2936" lon="-2.25852">
        <ele>25.60000038147</ele>
        <time>2022-06-26T08:28:47.000Z</time>
      </trkpt>
      <trkpt lat="47.2936" lon="-2.2585">
        <ele>25.60000038147</ele>
        <time>2022-06-26T08:28:48.000Z</time>
      </trkpt>
      <trkpt lat="47.29358" lon="-2.25843">
        <ele>25.60000038147</ele>
        <time>2022-06-26T08:28:51.000Z</time>
      </trkpt>
      <trkpt lat="47.29353" lon="-2.25838">
        <ele>25.60000038147</ele>
        <time>2022-06-26T08:28:54.000Z</time>
      </trkpt>
      <trkpt lat="47.2935" lon="-2.25835">
        <ele>25.60000038147</ele>
        <time>2022-06-26T08:28:56.000Z</time>
      </trkpt>
      <trkpt lat="47.29343" lon="-2.25823">
        <ele>25.60000038147</ele>
        <time>2022-06-26T08:29:02.000Z</time>
      </trkpt>
      <trkpt lat="47.29341" lon="-2.25815">
        <ele>25.60000038147</ele>
        <time>2022-06-26T08:29:07.000Z</time>
      </trkpt>
      <trkpt lat="47.29341" lon="-2.25806">
        <ele>25.60000038147</ele>
        <time>2022-06-26T08:29:13.000Z</time>
      </trkpt>
      <trkpt lat="47.29335" lon="-2.25796">
        <ele>25.60000038147</ele>
        <time>2022-06-26T08:29:19.000Z</time>
      </trkpt>
      <trkpt lat="47.29331" lon="-2.25792">
        <ele>25.60000038147</ele>
        <time>2022-06-26T08:29:23.000Z</time>
      </trkpt>
      <trkpt lat="47.29333" lon="-2.25778">
        <ele>25.60000038147</ele>
        <time>2022-06-26T08:30:16.000Z</time>
      </trkpt>
      <trkpt lat="47.29338" lon="-2.2576">
        <ele>25.60000038147</ele>
        <time>2022-06-26T08:30:22.000Z</time>
      </trkpt>
      <trkpt lat="47.29354" lon="-2.25731">
        <ele>25.60000038147</ele>
        <time>2022-06-26T08:30:30.000Z</time>
      </trkpt>
      <trkpt lat="47.29363" lon="-2.25708">
        <ele>25.60000038147</ele>
        <time>2022-06-26T08:30:34.000Z</time>
      </trkpt>
      <trkpt lat="47.29366" lon="-2.25701">
        <ele>25.60000038147</ele>
        <time>2022-06-26T08:30:35.000Z</time>
      </trkpt>
      <trkpt lat="47.29372" lon="-2.25683">
        <ele>25.60000038147</ele>
        <time>2022-06-26T08:30:37.000Z</time>
      </trkpt>
      <trkpt lat="47.29381" lon="-2.25661">
        <ele>25.60000038147</ele>
        <time>2022-06-26T08:30:40.000Z</time>
      </trkpt>
      <trkpt lat="47.29386" lon="-2.25649">
        <ele>25.60000038147</ele>
        <time>2022-06-26T08:30:42.000Z</time>
      </trkpt>
      <trkpt lat="47.29395" lon="-2.25633">
        <ele>25.60000038147</ele>
        <time>2022-06-26T08:30:45.000Z</time>
      </trkpt>
      <trkpt lat="47.29403" lon="-2.25627">
        <ele>26.39999961853</ele>
        <time>2022-06-26T08:30:47.000Z</time>
      </trkpt>
      <trkpt lat="47.29408" lon="-2.25625">
        <ele>26.799999237061</ele>
        <time>2022-06-26T08:30:48.000Z</time>
      </trkpt>
      <trkpt lat="47.29413" lon="-2.25622">
        <ele>27.200000762939</ele>
        <time>2022-06-26T08:30:49.000Z</time>
      </trkpt>
      <trkpt lat="47.29418" lon="-2.2562">
        <ele>27.60000038147</ele>
        <time>2022-06-26T08:30:50.000Z</time>
      </trkpt>
      <trkpt lat="47.2944" lon="-2.25611">
        <ele>27.60000038147</ele>
        <time>2022-06-26T08:30:54.000Z</time>
      </trkpt>
      <trkpt lat="47.29479" lon="-2.25593">
        <ele>27.60000038147</ele>
        <time>2022-06-26T08:31:01.000Z</time>
      </trkpt>
      <trkpt lat="47.2952" lon="-2.25568">
        <ele>27.60000038147</ele>
        <time>2022-06-26T08:31:08.000Z</time>
      </trkpt>
      <trkpt lat="47.29538" lon="-2.25557">
        <ele>26.799999237061</ele>
        <time>2022-06-26T08:31:11.000Z</time>
      </trkpt>
      <trkpt lat="47.29544" lon="-2.25552">
        <ele>26.39999961853</ele>
        <time>2022-06-26T08:31:12.000Z</time>
      </trkpt>
      <trkpt lat="47.2955" lon="-2.25548">
        <ele>26</ele>
        <time>2022-06-26T08:31:13.000Z</time>
      </trkpt>
      <trkpt lat="47.29556" lon="-2.25544">
        <ele>25.60000038147</ele>
        <time>2022-06-26T08:31:14.000Z</time>
      </trkpt>
      <trkpt lat="47.29568" lon="-2.25534">
        <ele>25.60000038147</ele>
        <time>2022-06-26T08:31:16.000Z</time>
      </trkpt>
      <trkpt lat="47.29574" lon="-2.25527">
        <ele>25.60000038147</ele>
        <time>2022-06-26T08:31:17.000Z</time>
      </trkpt>
      <trkpt lat="47.29584" lon="-2.25501">
        <ele>25.60000038147</ele>
        <time>2022-06-26T08:31:20.000Z</time>
      </trkpt>
      <trkpt lat="47.29586" lon="-2.2546">
        <ele>25.60000038147</ele>
        <time>2022-06-26T08:31:24.000Z</time>
      </trkpt>
      <trkpt lat="47.29585" lon="-2.2545">
        <ele>25.200000762939</ele>
        <time>2022-06-26T08:31:25.000Z</time>
      </trkpt>
      <trkpt lat="47.29584" lon="-2.25441">
        <ele>24.60000038147</ele>
        <time>2022-06-26T08:31:26.000Z</time>
      </trkpt>
      <trkpt lat="47.29584" lon="-2.25431">
        <ele>24.200000762939</ele>
        <time>2022-06-26T08:31:27.000Z</time>
      </trkpt>
      <trkpt lat="47.29584" lon="-2.25421">
        <ele>23.799999237061</ele>
        <time>2022-06-26T08:31:28.000Z</time>
      </trkpt>
      <trkpt lat="47.29583" lon="-2.25411">
        <ele>23.39999961853</ele>
        <time>2022-06-26T08:31:29.000Z</time>
      </trkpt>
      <trkpt lat="47.29582" lon="-2.25401">
        <ele>23.39999961853</ele>
        <time>2022-06-26T08:31:30.000Z</time>
      </trkpt>
      <trkpt lat="47.29569" lon="-2.25354">
        <ele>23.39999961853</ele>
        <time>2022-06-26T08:31:35.000Z</time>
      </trkpt>
      <trkpt lat="47.29557" lon="-2.25328">
        <ele>23</ele>
        <time>2022-06-26T08:31:38.000Z</time>
      </trkpt>
      <trkpt lat="47.29553" lon="-2.25319">
        <ele>22.60000038147</ele>
        <time>2022-06-26T08:31:39.000Z</time>
      </trkpt>
      <trkpt lat="47.29549" lon="-2.25311">
        <ele>22.200000762939</ele>
        <time>2022-06-26T08:31:40.000Z</time>
      </trkpt>
      <trkpt lat="47.29546" lon="-2.25302">
        <ele>21.60000038147</ele>
        <time>2022-06-26T08:31:41.000Z</time>
      </trkpt>
      <trkpt lat="47.29543" lon="-2.25293">
        <ele>21.200000762939</ele>
        <time>2022-06-26T08:31:42.000Z</time>
      </trkpt>
      <trkpt lat="47.29541" lon="-2.25283">
        <ele>21.200000762939</ele>
        <time>2022-06-26T08:31:43.000Z</time>
      </trkpt>
      <trkpt lat="47.29538" lon="-2.25264">
        <ele>21.200000762939</ele>
        <time>2022-06-26T08:31:45.000Z</time>
      </trkpt>
      <trkpt lat="47.29538" lon="-2.25254">
        <ele>21.200000762939</ele>
        <time>2022-06-26T08:31:46.000Z</time>
      </trkpt>
      <trkpt lat="47.29538" lon="-2.25244">
        <ele>21.200000762939</ele>
        <time>2022-06-26T08:31:47.000Z</time>
      </trkpt>
      <trkpt lat="47.29539" lon="-2.25227">
        <ele>20.799999237061</ele>
        <time>2022-06-26T08:31:49.000Z</time>
      </trkpt>
      <trkpt lat="47.2954" lon="-2.25218">
        <ele>20.39999961853</ele>
        <time>2022-06-26T08:31:50.000Z</time>
      </trkpt>
      <trkpt lat="47.29541" lon="-2.2521">
        <ele>20</ele>
        <time>2022-06-26T08:31:51.000Z</time>
      </trkpt>
      <trkpt lat="47.29544" lon="-2.25203">
        <ele>19.60000038147</ele>
        <time>2022-06-26T08:31:52.000Z</time>
      </trkpt>
      <trkpt lat="47.29546" lon="-2.25196">
        <ele>19.200000762939</ele>
        <time>2022-06-26T08:31:53.000Z</time>
      </trkpt>
      <trkpt lat="47.29547" lon="-2.25189">
        <ele>19.200000762939</ele>
        <time>2022-06-26T08:31:54.000Z</time>
      </trkpt>
      <trkpt lat="47.29548" lon="-2.25183">
        <ele>19.200000762939</ele>
        <time>2022-06-26T08:31:55.000Z</time>
      </trkpt>
      <trkpt lat="47.29547" lon="-2.25178">
        <ele>19.200000762939</ele>
        <time>2022-06-26T08:31:56.000Z</time>
      </trkpt>
      <trkpt lat="47.29536" lon="-2.25176">
        <ele>19.200000762939</ele>
        <time>2022-06-26T08:31:59.000Z</time>
      </trkpt>
      <trkpt lat="47.29527" lon="-2.25179">
        <ele>19.200000762939</ele>
        <time>2022-06-26T08:32:01.000Z</time>
      </trkpt>
      <trkpt lat="47.29523" lon="-2.25181">
        <ele>19.200000762939</ele>
        <time>2022-06-26T08:32:02.000Z</time>
      </trkpt>
      <trkpt lat="47.29513" lon="-2.25185">
        <ele>19.200000762939</ele>
        <time>2022-06-26T08:32:04.000Z</time>
      </trkpt>
      <trkpt lat="47.29485" lon="-2.25194">
        <ele>18.799999237061</ele>
        <time>2022-06-26T08:32:09.000Z</time>
      </trkpt>
      <trkpt lat="47.29479" lon="-2.25195">
        <ele>18.200000762939</ele>
        <time>2022-06-26T08:32:10.000Z</time>
      </trkpt>
      <trkpt lat="47.29474" lon="-2.25197">
        <ele>17.799999237061</ele>
        <time>2022-06-26T08:32:11.000Z</time>
      </trkpt>
      <trkpt lat="47.29468" lon="-2.25199">
        <ele>17.39999961853</ele>
        <time>2022-06-26T08:32:12.000Z</time>
      </trkpt>
      <trkpt lat="47.29462" lon="-2.252">
        <ele>17</ele>
        <time>2022-06-26T08:32:13.000Z</time>
      </trkpt>
      <trkpt lat="47.29442" lon="-2.25205">
        <ele>17</ele>
        <time>2022-06-26T08:32:16.000Z</time>
      </trkpt>
      <trkpt lat="47.2943" lon="-2.2521">
        <ele>17</ele>
        <time>2022-06-26T08:32:18.000Z</time>
      </trkpt>
      <trkpt lat="47.29418" lon="-2.25214">
        <ele>17</ele>
        <time>2022-06-26T08:32:20.000Z</time>
      </trkpt>
      <trkpt lat="47.29394" lon="-2.2521">
        <ele>16.60000038147</ele>
        <time>2022-06-26T08:32:24.000Z</time>
      </trkpt>
      <trkpt lat="47.29388" lon="-2.25208">
        <ele>16.200000762939</ele>
        <time>2022-06-26T08:32:25.000Z</time>
      </trkpt>
      <trkpt lat="47.29382" lon="-2.25207">
        <ele>15.39999961853</ele>
        <time>2022-06-26T08:32:26.000Z</time>
      </trkpt>
      <trkpt lat="47.29375" lon="-2.25206">
        <ele>15</ele>
        <time>2022-06-26T08:32:27.000Z</time>
      </trkpt>
      <trkpt lat="47.29352" lon="-2.252">
        <ele>15</ele>
        <time>2022-06-26T08:32:31.000Z</time>
      </trkpt>
      <trkpt lat="47.29323" lon="-2.25199">
        <ele>15</ele>
        <time>2022-06-26T08:32:36.000Z</time>
      </trkpt>
      <trkpt lat="47.2931" lon="-2.25189">
        <ele>15</ele>
        <time>2022-06-26T08:32:39.000Z</time>
      </trkpt>
      <trkpt lat="47.29307" lon="-2.25167">
        <ele>15</ele>
        <time>2022-06-26T08:32:42.000Z</time>
      </trkpt>
      <trkpt lat="47.29306" lon="-2.25154">
        <ele>15</ele>
        <time>2022-06-26T08:32:44.000Z</time>
      </trkpt>
      <trkpt lat="47.29302" lon="-2.25127">
        <ele>15</ele>
        <time>2022-06-26T08:32:48.000Z</time>
      </trkpt>
      <trkpt lat="47.29295" lon="-2.25088">
        <ele>15.39999961853</ele>
        <time>2022-06-26T08:32:54.000Z</time>
      </trkpt>
      <trkpt lat="47.29294" lon="-2.25082">
        <ele>15.800000190735</ele>
        <time>2022-06-26T08:32:55.000Z</time>
      </trkpt>
      <trkpt lat="47.29292" lon="-2.25075">
        <ele>16.200000762939</ele>
        <time>2022-06-26T08:32:56.000Z</time>
      </trkpt>
      <trkpt lat="47.29291" lon="-2.25069">
        <ele>16.60000038147</ele>
        <time>2022-06-26T08:32:57.000Z</time>
      </trkpt>
      <trkpt lat="47.2929" lon="-2.25063">
        <ele>17</ele>
        <time>2022-06-26T08:32:58.000Z</time>
      </trkpt>
      <trkpt lat="47.29284" lon="-2.25043">
        <ele>17</ele>
        <time>2022-06-26T08:33:01.000Z</time>
      </trkpt>
      <trkpt lat="47.29273" lon="-2.24999">
        <ele>17</ele>
        <time>2022-06-26T08:33:08.000Z</time>
      </trkpt>
      <trkpt lat="47.29269" lon="-2.24988">
        <ele>17</ele>
        <time>2022-06-26T08:33:10.000Z</time>
      </trkpt>
      <trkpt lat="47.29263" lon="-2.24969">
        <ele>17</ele>
        <time>2022-06-26T08:33:13.000Z</time>
      </trkpt>
      <trkpt lat="47.29259" lon="-2.2494">
        <ele>17</ele>
        <time>2022-06-26T08:33:18.000Z</time>
      </trkpt>
      <trkpt lat="47.29261" lon="-2.24926">
        <ele>17</ele>
        <time>2022-06-26T08:33:22.000Z</time>
      </trkpt>
      <trkpt lat="47.29261" lon="-2.24926">
        <ele>17</ele>
        <time>2022-06-26T08:33:23.000Z</time>
      </trkpt>
      <trkpt lat="47.29258" lon="-2.24923">
        <ele>17</ele>
        <time>2022-06-26T08:33:48.000Z</time>
      </trkpt>
      <trkpt lat="47.29257" lon="-2.24924">
        <ele>17</ele>
        <time>2022-06-26T08:33:49.000Z</time>
      </trkpt>
      <trkpt lat="47.29257" lon="-2.24925">
        <ele>17</ele>
        <time>2022-06-26T08:33:52.000Z</time>
      </trkpt>
      <trkpt lat="47.2926" lon="-2.24925">
        <ele>17</ele>
        <time>2022-06-26T08:33:58.000Z</time>
      </trkpt>
      <trkpt lat="47.2927" lon="-2.24919">
        <ele>17</ele>
        <time>2022-06-26T08:34:03.000Z</time>
      </trkpt>
      <trkpt lat="47.29289" lon="-2.24917">
        <ele>17</ele>
        <time>2022-06-26T08:34:11.000Z</time>
      </trkpt>
      <trkpt lat="47.29307" lon="-2.24915">
        <ele>17</ele>
        <time>2022-06-26T08:34:18.000Z</time>
      </trkpt>
      <trkpt lat="47.29311" lon="-2.24915">
        <ele>17</ele>
        <time>2022-06-26T08:34:23.000Z</time>
      </trkpt>
      <trkpt lat="47.29313" lon="-2.24915">
        <ele>17</ele>
        <time>2022-06-26T08:36:55.000Z</time>
      </trkpt>
      <trkpt lat="47.29319" lon="-2.24916">
        <ele>17</ele>
        <time>2022-06-26T08:36:58.000Z</time>
      </trkpt>
      <trkpt lat="47.29337" lon="-2.24915">
        <ele>17</ele>
        <time>2022-06-26T08:37:03.000Z</time>
      </trkpt>
      <trkpt lat="47.29363" lon="-2.24914">
        <ele>17</ele>
        <time>2022-06-26T08:37:08.000Z</time>
      </trkpt>
      <trkpt lat="47.29376" lon="-2.24913">
        <ele>16.60000038147</ele>
        <time>2022-06-26T08:37:10.000Z</time>
      </trkpt>
      <trkpt lat="47.29382" lon="-2.24913">
        <ele>16.200000762939</ele>
        <time>2022-06-26T08:37:11.000Z</time>
      </trkpt>
      <trkpt lat="47.29389" lon="-2.24913">
        <ele>15.800000190735</ele>
        <time>2022-06-26T08:37:12.000Z</time>
      </trkpt>
      <trkpt lat="47.29396" lon="-2.24912">
        <ele>15.39999961853</ele>
        <time>2022-06-26T08:37:13.000Z</time>
      </trkpt>
      <trkpt lat="47.29403" lon="-2.24912">
        <ele>15</ele>
        <time>2022-06-26T08:37:14.000Z</time>
      </trkpt>
      <trkpt lat="47.2941" lon="-2.24912">
        <ele>15</ele>
        <time>2022-06-26T08:37:15.000Z</time>
      </trkpt>
      <trkpt lat="47.29418" lon="-2.24912">
        <ele>14.60000038147</ele>
        <time>2022-06-26T08:37:16.000Z</time>
      </trkpt>
      <trkpt lat="47.29425" lon="-2.24912">
        <ele>14.199999809265</ele>
        <time>2022-06-26T08:37:17.000Z</time>
      </trkpt>
      <trkpt lat="47.29432" lon="-2.24912">
        <ele>13.60000038147</ele>
        <time>2022-06-26T08:37:18.000Z</time>
      </trkpt>
      <trkpt lat="47.2944" lon="-2.24913">
        <ele>13.199999809265</ele>
        <time>2022-06-26T08:37:19.000Z</time>
      </trkpt>
      <trkpt lat="47.29447" lon="-2.24914">
        <ele>12.800000190735</ele>
        <time>2022-06-26T08:37:20.000Z</time>
      </trkpt>
      <trkpt lat="47.29454" lon="-2.24916">
        <ele>12.800000190735</ele>
        <time>2022-06-26T08:37:21.000Z</time>
      </trkpt>
      <trkpt lat="47.29461" lon="-2.24918">
        <ele>12.800000190735</ele>
        <time>2022-06-26T08:37:22.000Z</time>
      </trkpt>
      <trkpt lat="47.29481" lon="-2.24928">
        <ele>12.39999961853</ele>
        <time>2022-06-26T08:37:25.000Z</time>
      </trkpt>
      <trkpt lat="47.29487" lon="-2.24929">
        <ele>12</ele>
        <time>2022-06-26T08:37:26.000Z</time>
      </trkpt>
      <trkpt lat="47.29493" lon="-2.24928">
        <ele>11.39999961853</ele>
        <time>2022-06-26T08:37:27.000Z</time>
      </trkpt>
      <trkpt lat="47.29499" lon="-2.24924">
        <ele>11</ele>
        <time>2022-06-26T08:37:28.000Z</time>
      </trkpt>
      <trkpt lat="47.29504" lon="-2.24919">
        <ele>10.60000038147</ele>
        <time>2022-06-26T08:37:29.000Z</time>
      </trkpt>
      <trkpt lat="47.29512" lon="-2.249">
        <ele>10.60000038147</ele>
        <time>2022-06-26T08:37:32.000Z</time>
      </trkpt>
      <trkpt lat="47.29508" lon="-2.24872">
        <ele>10.60000038147</ele>
        <time>2022-06-26T08:37:36.000Z</time>
      </trkpt>
      <trkpt lat="47.29499" lon="-2.24839">
        <ele>10.60000038147</ele>
        <time>2022-06-26T08:37:41.000Z</time>
      </trkpt>
      <trkpt lat="47.29491" lon="-2.24819">
        <ele>10.60000038147</ele>
        <time>2022-06-26T08:37:46.000Z</time>
      </trkpt>
      <trkpt lat="47.29486" lon="-2.24812">
        <ele>10.60000038147</ele>
        <time>2022-06-26T08:37:53.000Z</time>
      </trkpt>
      <trkpt lat="47.29482" lon="-2.24802">
        <ele>10.60000038147</ele>
        <time>2022-06-26T08:37:59.000Z</time>
      </trkpt>
      <trkpt lat="47.29477" lon="-2.24787">
        <ele>10.60000038147</ele>
        <time>2022-06-26T08:38:06.000Z</time>
      </trkpt>
      <trkpt lat="47.29472" lon="-2.24766">
        <ele>10.60000038147</ele>
        <time>2022-06-26T08:38:14.000Z</time>
      </trkpt>
      <trkpt lat="47.29462" lon="-2.24741">
        <ele>10.60000038147</ele>
        <time>2022-06-26T08:38:20.000Z</time>
      </trkpt>
      <trkpt lat="47.29448" lon="-2.24709">
        <ele>10.60000038147</ele>
        <time>2022-06-26T08:38:26.000Z</time>
      </trkpt>
      <trkpt lat="47.29441" lon="-2.24697">
        <ele>10.60000038147</ele>
        <time>2022-06-26T08:38:29.000Z</time>
      </trkpt>
      <trkpt lat="47.29435" lon="-2.24694">
        <ele>10.60000038147</ele>
        <time>2022-06-26T08:38:31.000Z</time>
      </trkpt>
      <trkpt lat="47.29411" lon="-2.24689">
        <ele>10.60000038147</ele>
        <time>2022-06-26T08:38:36.000Z</time>
      </trkpt>
      <trkpt lat="47.29386" lon="-2.24681">
        <ele>10.60000038147</ele>
        <time>2022-06-26T08:38:41.000Z</time>
      </trkpt>
      <trkpt lat="47.29359" lon="-2.24678">
        <ele>10.60000038147</ele>
        <time>2022-06-26T08:38:48.000Z</time>
      </trkpt>
      <trkpt lat="47.29348" lon="-2.2468">
        <ele>11</ele>
        <time>2022-06-26T08:38:51.000Z</time>
      </trkpt>
      <trkpt lat="47.29345" lon="-2.24681">
        <ele>11.39999961853</ele>
        <time>2022-06-26T08:38:52.000Z</time>
      </trkpt>
      <trkpt lat="47.29341" lon="-2.24681">
        <ele>11.800000190735</ele>
        <time>2022-06-26T08:38:53.000Z</time>
      </trkpt>
      <trkpt lat="47.29338" lon="-2.24681">
        <ele>12.800000190735</ele>
        <time>2022-06-26T08:38:54.000Z</time>
      </trkpt>
      <trkpt lat="47.29322" lon="-2.24684">
        <ele>12.800000190735</ele>
        <time>2022-06-26T08:38:59.000Z</time>
      </trkpt>
      <trkpt lat="47.29311" lon="-2.24687">
        <ele>13.199999809265</ele>
        <time>2022-06-26T08:39:03.000Z</time>
      </trkpt>
      <trkpt lat="47.29308" lon="-2.24687">
        <ele>13.60000038147</ele>
        <time>2022-06-26T08:39:04.000Z</time>
      </trkpt>
      <trkpt lat="47.29306" lon="-2.24688">
        <ele>14</ele>
        <time>2022-06-26T08:39:05.000Z</time>
      </trkpt>
      <trkpt lat="47.29304" lon="-2.24687">
        <ele>14.39999961853</ele>
        <time>2022-06-26T08:39:06.000Z</time>
      </trkpt>
      <trkpt lat="47.29302" lon="-2.24686">
        <ele>14.800000190735</ele>
        <time>2022-06-26T08:39:07.000Z</time>
      </trkpt>
      <trkpt lat="47.293" lon="-2.24683">
        <ele>14.800000190735</ele>
        <time>2022-06-26T08:39:08.000Z</time>
      </trkpt>
      <trkpt lat="47.29298" lon="-2.24674">
        <ele>14.800000190735</ele>
        <time>2022-06-26T08:39:10.000Z</time>
      </trkpt>
      <trkpt lat="47.29295" lon="-2.24636">
        <ele>14.800000190735</ele>
        <time>2022-06-26T08:39:16.000Z</time>
      </trkpt>
      <trkpt lat="47.29298" lon="-2.24594">
        <ele>14.800000190735</ele>
        <time>2022-06-26T08:39:22.000Z</time>
      </trkpt>
      <trkpt lat="47.29298" lon="-2.24586">
        <ele>14.800000190735</ele>
        <time>2022-06-26T08:39:23.000Z</time>
      </trkpt>
      <trkpt lat="47.29298" lon="-2.24565">
        <ele>14.800000190735</ele>
        <time>2022-06-26T08:39:26.000Z</time>
      </trkpt>
      <trkpt lat="47.29297" lon="-2.24544">
        <ele>14.800000190735</ele>
        <time>2022-06-26T08:39:29.000Z</time>
      </trkpt>
      <trkpt lat="47.29296" lon="-2.24496">
        <ele>14.800000190735</ele>
        <time>2022-06-26T08:39:36.000Z</time>
      </trkpt>
      <trkpt lat="47.29296" lon="-2.24461">
        <ele>14.800000190735</ele>
        <time>2022-06-26T08:39:41.000Z</time>
      </trkpt>
      <trkpt lat="47.29299" lon="-2.24454">
        <ele>14.800000190735</ele>
        <time>2022-06-26T08:39:42.000Z</time>
      </trkpt>
      <trkpt lat="47.29311" lon="-2.24441">
        <ele>14.800000190735</ele>
        <time>2022-06-26T08:39:45.000Z</time>
      </trkpt>
      <trkpt lat="47.2932" lon="-2.24433">
        <ele>14.800000190735</ele>
        <time>2022-06-26T08:39:47.000Z</time>
      </trkpt>
      <trkpt lat="47.29349" lon="-2.24404">
        <ele>14.39999961853</ele>
        <time>2022-06-26T08:39:53.000Z</time>
      </trkpt>
      <trkpt lat="47.29354" lon="-2.24399">
        <ele>14</ele>
        <time>2022-06-26T08:39:54.000Z</time>
      </trkpt>
      <trkpt lat="47.29359" lon="-2.24394">
        <ele>13.60000038147</ele>
        <time>2022-06-26T08:39:55.000Z</time>
      </trkpt>
      <trkpt lat="47.29363" lon="-2.24388">
        <ele>13.199999809265</ele>
        <time>2022-06-26T08:39:56.000Z</time>
      </trkpt>
      <trkpt lat="47.29368" lon="-2.24384">
        <ele>12.60000038147</ele>
        <time>2022-06-26T08:39:57.000Z</time>
      </trkpt>
      <trkpt lat="47.29387" lon="-2.24364">
        <ele>12.60000038147</ele>
        <time>2022-06-26T08:40:01.000Z</time>
      </trkpt>
      <trkpt lat="47.29427" lon="-2.24326">
        <ele>12.60000038147</ele>
        <time>2022-06-26T08:40:09.000Z</time>
      </trkpt>
      <trkpt lat="47.29456" lon="-2.24312">
        <ele>12.60000038147</ele>
        <time>2022-06-26T08:40:14.000Z</time>
      </trkpt>
      <trkpt lat="47.29482" lon="-2.24305">
        <ele>12.199999809265</ele>
        <time>2022-06-26T08:40:18.000Z</time>
      </trkpt>
      <trkpt lat="47.29489" lon="-2.24302">
        <ele>11.800000190735</ele>
        <time>2022-06-26T08:40:19.000Z</time>
      </trkpt>
      <trkpt lat="47.29496" lon="-2.24299">
        <ele>11.39999961853</ele>
        <time>2022-06-26T08:40:20.000Z</time>
      </trkpt>
      <trkpt lat="47.29503" lon="-2.24296">
        <ele>11</ele>
        <time>2022-06-26T08:40:21.000Z</time>
      </trkpt>
      <trkpt lat="47.29511" lon="-2.24293">
        <ele>10.60000038147</ele>
        <time>2022-06-26T08:40:22.000Z</time>
      </trkpt>
      <trkpt lat="47.29526" lon="-2.24288">
        <ele>10</ele>
        <time>2022-06-26T08:40:24.000Z</time>
      </trkpt>
      <trkpt lat="47.29531" lon="-2.24285">
        <ele>9.6000003814697</ele>
        <time>2022-06-26T08:40:25.000Z</time>
      </trkpt>
      <trkpt lat="47.29537" lon="-2.24284">
        <ele>9</ele>
        <time>2022-06-26T08:40:26.000Z</time>
      </trkpt>
      <trkpt lat="47.29543" lon="-2.24282">
        <ele>8.6000003814697</ele>
        <time>2022-06-26T08:40:27.000Z</time>
      </trkpt>
      <trkpt lat="47.29548" lon="-2.24282">
        <ele>8</ele>
        <time>2022-06-26T08:40:28.000Z</time>
      </trkpt>
      <trkpt lat="47.29555" lon="-2.24287">
        <ele>8</ele>
        <time>2022-06-26T08:40:30.000Z</time>
      </trkpt>
      <trkpt lat="47.29573" lon="-2.24311">
        <ele>8</ele>
        <time>2022-06-26T08:40:35.000Z</time>
      </trkpt>
      <trkpt lat="47.2959" lon="-2.24318">
        <ele>8</ele>
        <time>2022-06-26T08:40:39.000Z</time>
      </trkpt>
      <trkpt lat="47.29599" lon="-2.24316">
        <ele>8</ele>
        <time>2022-06-26T08:40:41.000Z</time>
      </trkpt>
      <trkpt lat="47.2962" lon="-2.24309">
        <ele>8</ele>
        <time>2022-06-26T08:40:45.000Z</time>
      </trkpt>
      <trkpt lat="47.29658" lon="-2.24291">
        <ele>8</ele>
        <time>2022-06-26T08:40:52.000Z</time>
      </trkpt>
      <trkpt lat="47.29681" lon="-2.24277">
        <ele>8.6000003814697</ele>
        <time>2022-06-26T08:40:57.000Z</time>
      </trkpt>
      <trkpt lat="47.29687" lon="-2.24274">
        <ele>9.3999996185303</ele>
        <time>2022-06-26T08:40:58.000Z</time>
      </trkpt>
      <trkpt lat="47.29692" lon="-2.24271">
        <ele>9.8000001907349</ele>
        <time>2022-06-26T08:40:59.000Z</time>
      </trkpt>
      <trkpt lat="47.29697" lon="-2.24268">
        <ele>10.39999961853</ele>
        <time>2022-06-26T08:41:00.000Z</time>
      </trkpt>
      <trkpt lat="47.29724" lon="-2.24254">
        <ele>10.800000190735</ele>
        <time>2022-06-26T08:41:05.000Z</time>
      </trkpt>
      <trkpt lat="47.29728" lon="-2.24252">
        <ele>11.199999809265</ele>
        <time>2022-06-26T08:41:06.000Z</time>
      </trkpt>
      <trkpt lat="47.29733" lon="-2.24249">
        <ele>11.60000038147</ele>
        <time>2022-06-26T08:41:07.000Z</time>
      </trkpt>
      <trkpt lat="47.29738" lon="-2.24246">
        <ele>12</ele>
        <time>2022-06-26T08:41:08.000Z</time>
      </trkpt>
      <trkpt lat="47.29743" lon="-2.24244">
        <ele>12.39999961853</ele>
        <time>2022-06-26T08:41:09.000Z</time>
      </trkpt>
      <trkpt lat="47.29758" lon="-2.24236">
        <ele>12.39999961853</ele>
        <time>2022-06-26T08:41:12.000Z</time>
      </trkpt>
      <trkpt lat="47.29772" lon="-2.24229">
        <ele>12.800000190735</ele>
        <time>2022-06-26T08:41:15.000Z</time>
      </trkpt>
      <trkpt lat="47.29776" lon="-2.24227">
        <ele>13.199999809265</ele>
        <time>2022-06-26T08:41:16.000Z</time>
      </trkpt>
      <trkpt lat="47.29781" lon="-2.24224">
        <ele>13.60000038147</ele>
        <time>2022-06-26T08:41:17.000Z</time>
      </trkpt>
      <trkpt lat="47.29785" lon="-2.24222">
        <ele>14.199999809265</ele>
        <time>2022-06-26T08:41:18.000Z</time>
      </trkpt>
      <trkpt lat="47.2979" lon="-2.2422">
        <ele>14.60000038147</ele>
        <time>2022-06-26T08:41:19.000Z</time>
      </trkpt>
      <trkpt lat="47.29803" lon="-2.24216">
        <ele>14.60000038147</ele>
        <time>2022-06-26T08:41:22.000Z</time>
      </trkpt>
      <trkpt lat="47.29812" lon="-2.2422">
        <ele>15</ele>
        <time>2022-06-26T08:41:24.000Z</time>
      </trkpt>
      <trkpt lat="47.29816" lon="-2.24223">
        <ele>15.39999961853</ele>
        <time>2022-06-26T08:41:25.000Z</time>
      </trkpt>
      <trkpt lat="47.29819" lon="-2.24225">
        <ele>15.800000190735</ele>
        <time>2022-06-26T08:41:26.000Z</time>
      </trkpt>
      <trkpt lat="47.29823" lon="-2.24228">
        <ele>16.200000762939</ele>
        <time>2022-06-26T08:41:27.000Z</time>
      </trkpt>
      <trkpt lat="47.29826" lon="-2.2423">
        <ele>16.60000038147</ele>
        <time>2022-06-26T08:41:28.000Z</time>
      </trkpt>
      <trkpt lat="47.29841" lon="-2.24239">
        <ele>16.60000038147</ele>
        <time>2022-06-26T08:41:32.000Z</time>
      </trkpt>
      <trkpt lat="47.29872" lon="-2.24251">
        <ele>16.60000038147</ele>
        <time>2022-06-26T08:41:40.000Z</time>
      </trkpt>
      <trkpt lat="47.29903" lon="-2.24274">
        <ele>16.60000038147</ele>
        <time>2022-06-26T08:41:48.000Z</time>
      </trkpt>
      <trkpt lat="47.29926" lon="-2.24289">
        <ele>16.60000038147</ele>
        <time>2022-06-26T08:41:54.000Z</time>
      </trkpt>
      <trkpt lat="47.29934" lon="-2.24296">
        <ele>16.60000038147</ele>
        <time>2022-06-26T08:41:56.000Z</time>
      </trkpt>
      <trkpt lat="47.29941" lon="-2.24306">
        <ele>16.60000038147</ele>
        <time>2022-06-26T08:41:58.000Z</time>
      </trkpt>
      <trkpt lat="47.29947" lon="-2.24317">
        <ele>16.60000038147</ele>
        <time>2022-06-26T08:42:00.000Z</time>
      </trkpt>
      <trkpt lat="47.29965" lon="-2.24337">
        <ele>16.60000038147</ele>
        <time>2022-06-26T08:42:05.000Z</time>
      </trkpt>
      <trkpt lat="47.29969" lon="-2.24342">
        <ele>16.60000038147</ele>
        <time>2022-06-26T08:42:06.000Z</time>
      </trkpt>
      <trkpt lat="47.2998" lon="-2.24355">
        <ele>16.60000038147</ele>
        <time>2022-06-26T08:42:09.000Z</time>
      </trkpt>
      <trkpt lat="47.29987" lon="-2.24361">
        <ele>16.60000038147</ele>
        <time>2022-06-26T08:42:11.000Z</time>
      </trkpt>
      <trkpt lat="47.29993" lon="-2.24357">
        <ele>16.60000038147</ele>
        <time>2022-06-26T08:42:13.000Z</time>
      </trkpt>
      <trkpt lat="47.29996" lon="-2.24347">
        <ele>16.60000038147</ele>
        <time>2022-06-26T08:42:15.000Z</time>
      </trkpt>
      <trkpt lat="47.29998" lon="-2.24343">
        <ele>17</ele>
        <time>2022-06-26T08:42:16.000Z</time>
      </trkpt>
      <trkpt lat="47.3" lon="-2.24338">
        <ele>17.39999961853</ele>
        <time>2022-06-26T08:42:17.000Z</time>
      </trkpt>
      <trkpt lat="47.30002" lon="-2.24334">
        <ele>17.799999237061</ele>
        <time>2022-06-26T08:42:18.000Z</time>
      </trkpt>
      <trkpt lat="47.30003" lon="-2.24329">
        <ele>18.200000762939</ele>
        <time>2022-06-26T08:42:19.000Z</time>
      </trkpt>
      <trkpt lat="47.30005" lon="-2.24324">
        <ele>18.60000038147</ele>
        <time>2022-06-26T08:42:20.000Z</time>
      </trkpt>
      <trkpt lat="47.30008" lon="-2.24316">
        <ele>18.60000038147</ele>
        <time>2022-06-26T08:42:22.000Z</time>
      </trkpt>
      <trkpt lat="47.30015" lon="-2.24302">
        <ele>18.60000038147</ele>
        <time>2022-06-26T08:42:26.000Z</time>
      </trkpt>
      <trkpt lat="47.3002" lon="-2.24288">
        <ele>18.60000038147</ele>
        <time>2022-06-26T08:42:30.000Z</time>
      </trkpt>
      <trkpt lat="47.30027" lon="-2.24275">
        <ele>18.60000038147</ele>
        <time>2022-06-26T08:42:34.000Z</time>
      </trkpt>
      <trkpt lat="47.30032" lon="-2.24257">
        <ele>18.200000762939</ele>
        <time>2022-06-26T08:42:38.000Z</time>
      </trkpt>
      <trkpt lat="47.30033" lon="-2.24251">
        <ele>17.60000038147</ele>
        <time>2022-06-26T08:42:39.000Z</time>
      </trkpt>
      <trkpt lat="47.30034" lon="-2.24246">
        <ele>17.200000762939</ele>
        <time>2022-06-26T08:42:40.000Z</time>
      </trkpt>
      <trkpt lat="47.30034" lon="-2.24239">
        <ele>16.799999237061</ele>
        <time>2022-06-26T08:42:41.000Z</time>
      </trkpt>
      <trkpt lat="47.30035" lon="-2.24233">
        <ele>16.39999961853</ele>
        <time>2022-06-26T08:42:42.000Z</time>
      </trkpt>
      <trkpt lat="47.30035" lon="-2.24227">
        <ele>16.39999961853</ele>
        <time>2022-06-26T08:42:43.000Z</time>
      </trkpt>
      <trkpt lat="47.30037" lon="-2.24216">
        <ele>15.800000190735</ele>
        <time>2022-06-26T08:42:45.000Z</time>
      </trkpt>
      <trkpt lat="47.30037" lon="-2.24208">
        <ele>15.39999961853</ele>
        <time>2022-06-26T08:42:46.000Z</time>
      </trkpt>
      <trkpt lat="47.30038" lon="-2.242">
        <ele>15</ele>
        <time>2022-06-26T08:42:47.000Z</time>
      </trkpt>
      <trkpt lat="47.30038" lon="-2.2419">
        <ele>14.39999961853</ele>
        <time>2022-06-26T08:42:48.000Z</time>
      </trkpt>
      <trkpt lat="47.30039" lon="-2.24182">
        <ele>14</ele>
        <time>2022-06-26T08:42:49.000Z</time>
      </trkpt>
      <trkpt lat="47.30039" lon="-2.24175">
        <ele>13.39999961853</ele>
        <time>2022-06-26T08:42:50.000Z</time>
      </trkpt>
      <trkpt lat="47.30039" lon="-2.24171">
        <ele>12.800000190735</ele>
        <time>2022-06-26T08:42:51.000Z</time>
      </trkpt>
      <trkpt lat="47.30037" lon="-2.24166">
        <ele>12.39999961853</ele>
        <time>2022-06-26T08:42:52.000Z</time>
      </trkpt>
      <trkpt lat="47.30036" lon="-2.24163">
        <ele>11.800000190735</ele>
        <time>2022-06-26T08:42:53.000Z</time>
      </trkpt>
      <trkpt lat="47.30035" lon="-2.24155">
        <ele>11.800000190735</ele>
        <time>2022-06-26T08:42:57.000Z</time>
      </trkpt>
      <trkpt lat="47.30036" lon="-2.24153">
        <ele>11.800000190735</ele>
        <time>2022-06-26T08:42:58.000Z</time>
      </trkpt>
      <trkpt lat="47.30041" lon="-2.24143">
        <ele>11.800000190735</ele>
        <time>2022-06-26T08:43:02.000Z</time>
      </trkpt>
      <trkpt lat="47.30045" lon="-2.24135">
        <ele>11.800000190735</ele>
        <time>2022-06-26T08:43:04.000Z</time>
      </trkpt>
      <trkpt lat="47.30051" lon="-2.2413">
        <ele>11.800000190735</ele>
        <time>2022-06-26T08:43:07.000Z</time>
      </trkpt>
      <trkpt lat="47.3006" lon="-2.24122">
        <ele>11.800000190735</ele>
        <time>2022-06-26T08:43:14.000Z</time>
      </trkpt>
      <trkpt lat="47.30073" lon="-2.24113">
        <ele>11.800000190735</ele>
        <time>2022-06-26T08:43:19.000Z</time>
      </trkpt>
      <trkpt lat="47.30101" lon="-2.24101">
        <ele>11.800000190735</ele>
        <time>2022-06-26T08:43:25.000Z</time>
      </trkpt>
      <trkpt lat="47.3012" lon="-2.24091">
        <ele>12.199999809265</ele>
        <time>2022-06-26T08:43:29.000Z</time>
      </trkpt>
      <trkpt lat="47.30125" lon="-2.24088">
        <ele>12.60000038147</ele>
        <time>2022-06-26T08:43:30.000Z</time>
      </trkpt>
      <trkpt lat="47.3013" lon="-2.24084">
        <ele>13</ele>
        <time>2022-06-26T08:43:31.000Z</time>
      </trkpt>
      <trkpt lat="47.30135" lon="-2.2408">
        <ele>13.39999961853</ele>
        <time>2022-06-26T08:43:32.000Z</time>
      </trkpt>
      <trkpt lat="47.30141" lon="-2.24077">
        <ele>13.800000190735</ele>
        <time>2022-06-26T08:43:33.000Z</time>
      </trkpt>
      <trkpt lat="47.30152" lon="-2.24071">
        <ele>13.800000190735</ele>
        <time>2022-06-26T08:43:35.000Z</time>
      </trkpt>
      <trkpt lat="47.30169" lon="-2.24062">
        <ele>13.800000190735</ele>
        <time>2022-06-26T08:43:38.000Z</time>
      </trkpt>
      <trkpt lat="47.30181" lon="-2.24058">
        <ele>13.800000190735</ele>
        <time>2022-06-26T08:43:40.000Z</time>
      </trkpt>
      <trkpt lat="47.30188" lon="-2.24056">
        <ele>13.800000190735</ele>
        <time>2022-06-26T08:43:41.000Z</time>
      </trkpt>
      <trkpt lat="47.30215" lon="-2.24056">
        <ele>13.800000190735</ele>
        <time>2022-06-26T08:43:45.000Z</time>
      </trkpt>
      <trkpt lat="47.30242" lon="-2.24057">
        <ele>13.39999961853</ele>
        <time>2022-06-26T08:43:49.000Z</time>
      </trkpt>
      <trkpt lat="47.30248" lon="-2.24058">
        <ele>13</ele>
        <time>2022-06-26T08:43:50.000Z</time>
      </trkpt>
      <trkpt lat="47.30254" lon="-2.24059">
        <ele>12.60000038147</ele>
        <time>2022-06-26T08:43:51.000Z</time>
      </trkpt>
      <trkpt lat="47.3026" lon="-2.24059">
        <ele>11.60000038147</ele>
        <time>2022-06-26T08:43:52.000Z</time>
      </trkpt>
      <trkpt lat="47.30272" lon="-2.2406">
        <ele>11.60000038147</ele>
        <time>2022-06-26T08:43:54.000Z</time>
      </trkpt>
      <trkpt lat="47.30281" lon="-2.24054">
        <ele>11.60000038147</ele>
        <time>2022-06-26T08:43:56.000Z</time>
      </trkpt>
      <trkpt lat="47.30291" lon="-2.24036">
        <ele>11.60000038147</ele>
        <time>2022-06-26T08:43:59.000Z</time>
      </trkpt>
      <trkpt lat="47.30293" lon="-2.24029">
        <ele>11.199999809265</ele>
        <time>2022-06-26T08:44:00.000Z</time>
      </trkpt>
      <trkpt lat="47.30295" lon="-2.2402">
        <ele>10.800000190735</ele>
        <time>2022-06-26T08:44:01.000Z</time>
      </trkpt>
      <trkpt lat="47.30297" lon="-2.2401">
        <ele>10.39999961853</ele>
        <time>2022-06-26T08:44:02.000Z</time>
      </trkpt>
      <trkpt lat="47.30298" lon="-2.23998">
        <ele>10</ele>
        <time>2022-06-26T08:44:03.000Z</time>
      </trkpt>
      <trkpt lat="47.30297" lon="-2.23986">
        <ele>9.6000003814697</ele>
        <time>2022-06-26T08:44:04.000Z</time>
      </trkpt>
      <trkpt lat="47.30292" lon="-2.23963">
        <ele>9.6000003814697</ele>
        <time>2022-06-26T08:44:06.000Z</time>
      </trkpt>
      <trkpt lat="47.30288" lon="-2.2395">
        <ele>9.1999998092651</ele>
        <time>2022-06-26T08:44:07.000Z</time>
      </trkpt>
      <trkpt lat="47.30285" lon="-2.23938">
        <ele>8.8000001907349</ele>
        <time>2022-06-26T08:44:08.000Z</time>
      </trkpt>
      <trkpt lat="47.30282" lon="-2.23927">
        <ele>8.1999998092651</ele>
        <time>2022-06-26T08:44:09.000Z</time>
      </trkpt>
      <trkpt lat="47.30281" lon="-2.23916">
        <ele>7.8000001907349</ele>
        <time>2022-06-26T08:44:10.000Z</time>
      </trkpt>
      <trkpt lat="47.3028" lon="-2.23906">
        <ele>7.4000000953674</ele>
        <time>2022-06-26T08:44:11.000Z</time>
      </trkpt>
      <trkpt lat="47.3029" lon="-2.23887">
        <ele>7.4000000953674</ele>
        <time>2022-06-26T08:44:14.000Z</time>
      </trkpt>
      <trkpt lat="47.30311" lon="-2.23879">
        <ele>7.4000000953674</ele>
        <time>2022-06-26T08:44:18.000Z</time>
      </trkpt>
      <trkpt lat="47.30315" lon="-2.23877">
        <ele>7.4000000953674</ele>
        <time>2022-06-26T08:44:19.000Z</time>
      </trkpt>
      <trkpt lat="47.30324" lon="-2.23873">
        <ele>7</ele>
        <time>2022-06-26T08:44:21.000Z</time>
      </trkpt>
      <trkpt lat="47.30329" lon="-2.2387">
        <ele>6.5999999046326</ele>
        <time>2022-06-26T08:44:22.000Z</time>
      </trkpt>
      <trkpt lat="47.30334" lon="-2.23867">
        <ele>6.1999998092651</ele>
        <time>2022-06-26T08:44:23.000Z</time>
      </trkpt>
      <trkpt lat="47.3034" lon="-2.23864">
        <ele>5.8000001907349</ele>
        <time>2022-06-26T08:44:24.000Z</time>
      </trkpt>
      <trkpt lat="47.30346" lon="-2.23861">
        <ele>5.4000000953674</ele>
        <time>2022-06-26T08:44:25.000Z</time>
      </trkpt>
      <trkpt lat="47.30352" lon="-2.23859">
        <ele>5.4000000953674</ele>
        <time>2022-06-26T08:44:26.000Z</time>
      </trkpt>
      <trkpt lat="47.30374" lon="-2.23854">
        <ele>5.4000000953674</ele>
        <time>2022-06-26T08:44:30.000Z</time>
      </trkpt>
      <trkpt lat="47.30426" lon="-2.23846">
        <ele>5.4000000953674</ele>
        <time>2022-06-26T08:44:39.000Z</time>
      </trkpt>
      <trkpt lat="47.30467" lon="-2.23841">
        <ele>5.4000000953674</ele>
        <time>2022-06-26T08:44:46.000Z</time>
      </trkpt>
      <trkpt lat="47.30486" lon="-2.2384">
        <ele>5.4000000953674</ele>
        <time>2022-06-26T08:44:49.000Z</time>
      </trkpt>
      <trkpt lat="47.30497" lon="-2.23846">
        <ele>5.4000000953674</ele>
        <time>2022-06-26T08:44:51.000Z</time>
      </trkpt>
      <trkpt lat="47.30506" lon="-2.23856">
        <ele>5.4000000953674</ele>
        <time>2022-06-26T08:44:53.000Z</time>
      </trkpt>
      <trkpt lat="47.30517" lon="-2.23877">
        <ele>5.4000000953674</ele>
        <time>2022-06-26T08:44:56.000Z</time>
      </trkpt>
      <trkpt lat="47.30546" lon="-2.23917">
        <ele>5.4000000953674</ele>
        <time>2022-06-26T08:45:03.000Z</time>
      </trkpt>
      <trkpt lat="47.30549" lon="-2.23923">
        <ele>5.4000000953674</ele>
        <time>2022-06-26T08:45:04.000Z</time>
      </trkpt>
      <trkpt lat="47.3055" lon="-2.23938">
        <ele>5.4000000953674</ele>
        <time>2022-06-26T08:45:06.000Z</time>
      </trkpt>
      <trkpt lat="47.30543" lon="-2.23956">
        <ele>5.4000000953674</ele>
        <time>2022-06-26T08:45:09.000Z</time>
      </trkpt>
      <trkpt lat="47.30536" lon="-2.23965">
        <ele>5.4000000953674</ele>
        <time>2022-06-26T08:45:11.000Z</time>
      </trkpt>
      <trkpt lat="47.30521" lon="-2.23981">
        <ele>5.8000001907349</ele>
        <time>2022-06-26T08:45:15.000Z</time>
      </trkpt>
      <trkpt lat="47.30517" lon="-2.23985">
        <ele>6.1999998092651</ele>
        <time>2022-06-26T08:45:16.000Z</time>
      </trkpt>
      <trkpt lat="47.30514" lon="-2.2399">
        <ele>6.8000001907349</ele>
        <time>2022-06-26T08:45:17.000Z</time>
      </trkpt>
      <trkpt lat="47.3051" lon="-2.23995">
        <ele>7.1999998092651</ele>
        <time>2022-06-26T08:45:18.000Z</time>
      </trkpt>
      <trkpt lat="47.30507" lon="-2.23999">
        <ele>7.5999999046326</ele>
        <time>2022-06-26T08:45:19.000Z</time>
      </trkpt>
      <trkpt lat="47.30504" lon="-2.24004">
        <ele>7.5999999046326</ele>
        <time>2022-06-26T08:45:20.000Z</time>
      </trkpt>
      <trkpt lat="47.30502" lon="-2.24008">
        <ele>7.5999999046326</ele>
        <time>2022-06-26T08:45:21.000Z</time>
      </trkpt>
      <trkpt lat="47.30499" lon="-2.24012">
        <ele>8</ele>
        <time>2022-06-26T08:45:22.000Z</time>
      </trkpt>
      <trkpt lat="47.30496" lon="-2.24016">
        <ele>8.3999996185303</ele>
        <time>2022-06-26T08:45:23.000Z</time>
      </trkpt>
      <trkpt lat="47.30493" lon="-2.2402">
        <ele>9</ele>
        <time>2022-06-26T08:45:24.000Z</time>
      </trkpt>
      <trkpt lat="47.3049" lon="-2.24023">
        <ele>9.3999996185303</ele>
        <time>2022-06-26T08:45:25.000Z</time>
      </trkpt>
      <trkpt lat="47.30488" lon="-2.24026">
        <ele>9.8000001907349</ele>
        <time>2022-06-26T08:45:26.000Z</time>
      </trkpt>
      <trkpt lat="47.30484" lon="-2.24029">
        <ele>9.8000001907349</ele>
        <time>2022-06-26T08:45:27.000Z</time>
      </trkpt>
      <trkpt lat="47.30482" lon="-2.24031">
        <ele>10.199999809265</ele>
        <time>2022-06-26T08:45:28.000Z</time>
      </trkpt>
      <trkpt lat="47.30479" lon="-2.24034">
        <ele>10.60000038147</ele>
        <time>2022-06-26T08:45:29.000Z</time>
      </trkpt>
      <trkpt lat="47.30476" lon="-2.24036">
        <ele>11</ele>
        <time>2022-06-26T08:45:30.000Z</time>
      </trkpt>
      <trkpt lat="47.30473" lon="-2.24037">
        <ele>12</ele>
        <time>2022-06-26T08:45:31.000Z</time>
      </trkpt>
      <trkpt lat="47.30466" lon="-2.24041">
        <ele>12</ele>
        <time>2022-06-26T08:45:34.000Z</time>
      </trkpt>
      <trkpt lat="47.30459" lon="-2.24046">
        <ele>12.39999961853</ele>
        <time>2022-06-26T08:45:36.000Z</time>
      </trkpt>
      <trkpt lat="47.30456" lon="-2.2405">
        <ele>12.800000190735</ele>
        <time>2022-06-26T08:45:37.000Z</time>
      </trkpt>
      <trkpt lat="47.30453" lon="-2.24054">
        <ele>13.199999809265</ele>
        <time>2022-06-26T08:45:38.000Z</time>
      </trkpt>
      <trkpt lat="47.30449" lon="-2.24058">
        <ele>13.60000038147</ele>
        <time>2022-06-26T08:45:39.000Z</time>
      </trkpt>
      <trkpt lat="47.30446" lon="-2.24061">
        <ele>14</ele>
        <time>2022-06-26T08:45:40.000Z</time>
      </trkpt>
      <trkpt lat="47.30434" lon="-2.24075">
        <ele>14</ele>
        <time>2022-06-26T08:45:44.000Z</time>
      </trkpt>
      <trkpt lat="47.30422" lon="-2.24089">
        <ele>14.60000038147</ele>
        <time>2022-06-26T08:45:48.000Z</time>
      </trkpt>
      <trkpt lat="47.30419" lon="-2.24092">
        <ele>15</ele>
        <time>2022-06-26T08:45:49.000Z</time>
      </trkpt>
      <trkpt lat="47.30416" lon="-2.24095">
        <ele>15.39999961853</ele>
        <time>2022-06-26T08:45:50.000Z</time>
      </trkpt>
      <trkpt lat="47.30413" lon="-2.24098">
        <ele>15.800000190735</ele>
        <time>2022-06-26T08:45:51.000Z</time>
      </trkpt>
      <trkpt lat="47.3041" lon="-2.24101">
        <ele>16.200000762939</ele>
        <time>2022-06-26T08:45:52.000Z</time>
      </trkpt>
      <trkpt lat="47.30405" lon="-2.24108">
        <ele>16.200000762939</ele>
        <time>2022-06-26T08:45:54.000Z</time>
      </trkpt>
      <trkpt lat="47.30398" lon="-2.24114">
        <ele>16.60000038147</ele>
        <time>2022-06-26T08:45:56.000Z</time>
      </trkpt>
      <trkpt lat="47.30395" lon="-2.24117">
        <ele>17</ele>
        <time>2022-06-26T08:45:57.000Z</time>
      </trkpt>
      <trkpt lat="47.30392" lon="-2.2412">
        <ele>17.39999961853</ele>
        <time>2022-06-26T08:45:58.000Z</time>
      </trkpt>
      <trkpt lat="47.30388" lon="-2.24123">
        <ele>17.799999237061</ele>
        <time>2022-06-26T08:45:59.000Z</time>
      </trkpt>
      <trkpt lat="47.30384" lon="-2.24126">
        <ele>18.200000762939</ele>
        <time>2022-06-26T08:46:00.000Z</time>
      </trkpt>
      <trkpt lat="47.3037" lon="-2.24142">
        <ele>18.200000762939</ele>
        <time>2022-06-26T08:46:03.000Z</time>
      </trkpt>
      <trkpt lat="47.30366" lon="-2.24148">
        <ele>18.200000762939</ele>
        <time>2022-06-26T08:46:04.000Z</time>
      </trkpt>
      <trkpt lat="47.30351" lon="-2.24176">
        <ele>18.200000762939</ele>
        <time>2022-06-26T08:46:08.000Z</time>
      </trkpt>
      <trkpt lat="47.3035" lon="-2.24185">
        <ele>18.200000762939</ele>
        <time>2022-06-26T08:46:09.000Z</time>
      </trkpt>
      <trkpt lat="47.30352" lon="-2.24202">
        <ele>17.799999237061</ele>
        <time>2022-06-26T08:46:11.000Z</time>
      </trkpt>
      <trkpt lat="47.30355" lon="-2.24208">
        <ele>17.39999961853</ele>
        <time>2022-06-26T08:46:12.000Z</time>
      </trkpt>
      <trkpt lat="47.30358" lon="-2.24214">
        <ele>17</ele>
        <time>2022-06-26T08:46:13.000Z</time>
      </trkpt>
      <trkpt lat="47.30362" lon="-2.24218">
        <ele>16.60000038147</ele>
        <time>2022-06-26T08:46:14.000Z</time>
      </trkpt>
      <trkpt lat="47.30367" lon="-2.24223">
        <ele>16.200000762939</ele>
        <time>2022-06-26T08:46:15.000Z</time>
      </trkpt>
      <trkpt lat="47.30371" lon="-2.24227">
        <ele>16.200000762939</ele>
        <time>2022-06-26T08:46:16.000Z</time>
      </trkpt>
      <trkpt lat="47.30399" lon="-2.24255">
        <ele>16.200000762939</ele>
        <time>2022-06-26T08:46:23.000Z</time>
      </trkpt>
      <trkpt lat="47.30418" lon="-2.24273">
        <ele>16.200000762939</ele>
        <time>2022-06-26T08:46:28.000Z</time>
      </trkpt>
      <trkpt lat="47.30437" lon="-2.24278">
        <ele>16.200000762939</ele>
        <time>2022-06-26T08:46:32.000Z</time>
      </trkpt>
      <trkpt lat="47.30474" lon="-2.24289">
        <ele>16.200000762939</ele>
        <time>2022-06-26T08:46:39.000Z</time>
      </trkpt>
      <trkpt lat="47.30501" lon="-2.24303">
        <ele>16.200000762939</ele>
        <time>2022-06-26T08:46:45.000Z</time>
      </trkpt>
      <trkpt lat="47.3052" lon="-2.24323">
        <ele>16.200000762939</ele>
        <time>2022-06-26T08:46:51.000Z</time>
      </trkpt>
      <trkpt lat="47.30539" lon="-2.24343">
        <ele>16.200000762939</ele>
        <time>2022-06-26T08:46:58.000Z</time>
      </trkpt>
      <trkpt lat="47.30544" lon="-2.24346">
        <ele>16.200000762939</ele>
        <time>2022-06-26T08:47:00.000Z</time>
      </trkpt>
      <trkpt lat="47.30552" lon="-2.24346">
        <ele>16.200000762939</ele>
        <time>2022-06-26T08:47:03.000Z</time>
      </trkpt>
      <trkpt lat="47.30552" lon="-2.24347">
        <ele>16.200000762939</ele>
        <time>2022-06-26T08:47:05.000Z</time>
      </trkpt>
      <trkpt lat="47.30551" lon="-2.24353">
        <ele>14</ele>
        <time>2022-06-26T08:56:02.000Z</time>
      </trkpt>
      <trkpt lat="47.3056" lon="-2.24368">
        <ele>14</ele>
        <time>2022-06-26T08:56:07.000Z</time>
      </trkpt>
      <trkpt lat="47.30582" lon="-2.24392">
        <ele>14</ele>
        <time>2022-06-26T08:56:14.000Z</time>
      </trkpt>
      <trkpt lat="47.30601" lon="-2.24412">
        <ele>14</ele>
        <time>2022-06-26T08:56:20.000Z</time>
      </trkpt>
      <trkpt lat="47.30619" lon="-2.24421">
        <ele>14</ele>
        <time>2022-06-26T08:56:25.000Z</time>
      </trkpt>
      <trkpt lat="47.30623" lon="-2.24423">
        <ele>13.60000038147</ele>
        <time>2022-06-26T08:56:27.000Z</time>
      </trkpt>
      <trkpt lat="47.30625" lon="-2.24424">
        <ele>13.199999809265</ele>
        <time>2022-06-26T08:56:28.000Z</time>
      </trkpt>
      <trkpt lat="47.30627" lon="-2.24426">
        <ele>12.800000190735</ele>
        <time>2022-06-26T08:56:29.000Z</time>
      </trkpt>
      <trkpt lat="47.30628" lon="-2.24427">
        <ele>12.39999961853</ele>
        <time>2022-06-26T08:56:30.000Z</time>
      </trkpt>
      <trkpt lat="47.3063" lon="-2.2443">
        <ele>12</ele>
        <time>2022-06-26T08:56:31.000Z</time>
      </trkpt>
      <trkpt lat="47.30632" lon="-2.24438">
        <ele>12</ele>
        <time>2022-06-26T08:56:33.000Z</time>
      </trkpt>
      <trkpt lat="47.30631" lon="-2.24461">
        <ele>11.60000038147</ele>
        <time>2022-06-26T08:56:37.000Z</time>
      </trkpt>
      <trkpt lat="47.3063" lon="-2.24468">
        <ele>11</ele>
        <time>2022-06-26T08:56:38.000Z</time>
      </trkpt>
      <trkpt lat="47.30629" lon="-2.24475">
        <ele>10.60000038147</ele>
        <time>2022-06-26T08:56:39.000Z</time>
      </trkpt>
      <trkpt lat="47.30628" lon="-2.24483">
        <ele>10.199999809265</ele>
        <time>2022-06-26T08:56:40.000Z</time>
      </trkpt>
      <trkpt lat="47.30627" lon="-2.24492">
        <ele>9.8000001907349</ele>
        <time>2022-06-26T08:56:41.000Z</time>
      </trkpt>
      <trkpt lat="47.30625" lon="-2.24511">
        <ele>9.8000001907349</ele>
        <time>2022-06-26T08:56:43.000Z</time>
      </trkpt>
      <trkpt lat="47.30624" lon="-2.24521">
        <ele>9.3999996185303</ele>
        <time>2022-06-26T08:56:44.000Z</time>
      </trkpt>
      <trkpt lat="47.30623" lon="-2.24531">
        <ele>9</ele>
        <time>2022-06-26T08:56:45.000Z</time>
      </trkpt>
      <trkpt lat="47.30621" lon="-2.24541">
        <ele>8.6000003814697</ele>
        <time>2022-06-26T08:56:46.000Z</time>
      </trkpt>
      <trkpt lat="47.3062" lon="-2.24551">
        <ele>8.1999998092651</ele>
        <time>2022-06-26T08:56:47.000Z</time>
      </trkpt>
      <trkpt lat="47.30618" lon="-2.24562">
        <ele>7.5999999046326</ele>
        <time>2022-06-26T08:56:48.000Z</time>
      </trkpt>
      <trkpt lat="47.30617" lon="-2.24572">
        <ele>7.1999998092651</ele>
        <time>2022-06-26T08:56:49.000Z</time>
      </trkpt>
      <trkpt lat="47.30615" lon="-2.24583">
        <ele>6.5999999046326</ele>
        <time>2022-06-26T08:56:50.000Z</time>
      </trkpt>
      <trkpt lat="47.30614" lon="-2.24594">
        <ele>6</ele>
        <time>2022-06-26T08:56:51.000Z</time>
      </trkpt>
      <trkpt lat="47.30614" lon="-2.24605">
        <ele>5.5999999046326</ele>
        <time>2022-06-26T08:56:52.000Z</time>
      </trkpt>
      <trkpt lat="47.30615" lon="-2.24616">
        <ele>5.5999999046326</ele>
        <time>2022-06-26T08:56:53.000Z</time>
      </trkpt>
      <trkpt lat="47.30625" lon="-2.24657">
        <ele>5.1999998092651</ele>
        <time>2022-06-26T08:56:57.000Z</time>
      </trkpt>
      <trkpt lat="47.30628" lon="-2.24666">
        <ele>4.4000000953674</ele>
        <time>2022-06-26T08:56:58.000Z</time>
      </trkpt>
      <trkpt lat="47.30631" lon="-2.24675">
        <ele>4</ele>
        <time>2022-06-26T08:56:59.000Z</time>
      </trkpt>
      <trkpt lat="47.30634" lon="-2.24684">
        <ele>3.5999999046326</ele>
        <time>2022-06-26T08:57:00.000Z</time>
      </trkpt>
      <trkpt lat="47.30644" lon="-2.24716">
        <ele>3.5999999046326</ele>
        <time>2022-06-26T08:57:04.000Z</time>
      </trkpt>
      <trkpt lat="47.30658" lon="-2.24757">
        <ele>3.5999999046326</ele>
        <time>2022-06-26T08:57:10.000Z</time>
      </trkpt>
      <trkpt lat="47.30667" lon="-2.24773">
        <ele>3.5999999046326</ele>
        <time>2022-06-26T08:57:13.000Z</time>
      </trkpt>
      <trkpt lat="47.30678" lon="-2.24789">
        <ele>3.5999999046326</ele>
        <time>2022-06-26T08:57:16.000Z</time>
      </trkpt>
      <trkpt lat="47.30707" lon="-2.24825">
        <ele>3.5999999046326</ele>
        <time>2022-06-26T08:57:23.000Z</time>
      </trkpt>
      <trkpt lat="47.30728" lon="-2.24863">
        <ele>3.5999999046326</ele>
        <time>2022-06-26T08:57:29.000Z</time>
      </trkpt>
      <trkpt lat="47.30732" lon="-2.24868">
        <ele>3.5999999046326</ele>
        <time>2022-06-26T08:57:30.000Z</time>
      </trkpt>
      <trkpt lat="47.30752" lon="-2.24885">
        <ele>3.5999999046326</ele>
        <time>2022-06-26T08:57:34.000Z</time>
      </trkpt>
      <trkpt lat="47.30757" lon="-2.24888">
        <ele>3.5999999046326</ele>
        <time>2022-06-26T08:57:35.000Z</time>
      </trkpt>
      <trkpt lat="47.30796" lon="-2.24907">
        <ele>3.5999999046326</ele>
        <time>2022-06-26T08:57:42.000Z</time>
      </trkpt>
      <trkpt lat="47.30829" lon="-2.24915">
        <ele>3.5999999046326</ele>
        <time>2022-06-26T08:57:48.000Z</time>
      </trkpt>
      <trkpt lat="47.30851" lon="-2.24903">
        <ele>3.5999999046326</ele>
        <time>2022-06-26T08:57:52.000Z</time>
      </trkpt>
      <trkpt lat="47.30861" lon="-2.24889">
        <ele>3.5999999046326</ele>
        <time>2022-06-26T08:57:54.000Z</time>
      </trkpt>
      <trkpt lat="47.30876" lon="-2.24868">
        <ele>3.5999999046326</ele>
        <time>2022-06-26T08:57:57.000Z</time>
      </trkpt>
      <trkpt lat="47.30912" lon="-2.24819">
        <ele>3.5999999046326</ele>
        <time>2022-06-26T08:58:05.000Z</time>
      </trkpt>
      <trkpt lat="47.30949" lon="-2.24772">
        <ele>3.5999999046326</ele>
        <time>2022-06-26T08:58:13.000Z</time>
      </trkpt>
      <trkpt lat="47.30954" lon="-2.24767">
        <ele>3.5999999046326</ele>
        <time>2022-06-26T08:58:14.000Z</time>
      </trkpt>
      <trkpt lat="47.30976" lon="-2.24753">
        <ele>3.5999999046326</ele>
        <time>2022-06-26T08:58:18.000Z</time>
      </trkpt>
      <trkpt lat="47.31009" lon="-2.24751">
        <ele>3.5999999046326</ele>
        <time>2022-06-26T08:58:23.000Z</time>
      </trkpt>
      <trkpt lat="47.31029" lon="-2.24756">
        <ele>3.5999999046326</ele>
        <time>2022-06-26T08:58:26.000Z</time>
      </trkpt>
      <trkpt lat="47.31049" lon="-2.24764">
        <ele>3.5999999046326</ele>
        <time>2022-06-26T08:58:29.000Z</time>
      </trkpt>
      <trkpt lat="47.31079" lon="-2.24772">
        <ele>3.5999999046326</ele>
        <time>2022-06-26T08:58:34.000Z</time>
      </trkpt>
      <trkpt lat="47.31109" lon="-2.24772">
        <ele>3.5999999046326</ele>
        <time>2022-06-26T08:58:39.000Z</time>
      </trkpt>
      <trkpt lat="47.31131" lon="-2.24758">
        <ele>3.5999999046326</ele>
        <time>2022-06-26T08:58:43.000Z</time>
      </trkpt>
      <trkpt lat="47.31151" lon="-2.24738">
        <ele>3.5999999046326</ele>
        <time>2022-06-26T08:58:48.000Z</time>
      </trkpt>
      <trkpt lat="47.31155" lon="-2.24733">
        <ele>3.5999999046326</ele>
        <time>2022-06-26T08:58:49.000Z</time>
      </trkpt>
      <trkpt lat="47.31169" lon="-2.24711">
        <ele>3.5999999046326</ele>
        <time>2022-06-26T08:58:53.000Z</time>
      </trkpt>
      <trkpt lat="47.31177" lon="-2.247">
        <ele>3.5999999046326</ele>
        <time>2022-06-26T08:58:55.000Z</time>
      </trkpt>
      <trkpt lat="47.31201" lon="-2.24669">
        <ele>3.5999999046326</ele>
        <time>2022-06-26T08:59:01.000Z</time>
      </trkpt>
      <trkpt lat="47.3123" lon="-2.24639">
        <ele>3.5999999046326</ele>
        <time>2022-06-26T08:59:08.000Z</time>
      </trkpt>
      <trkpt lat="47.31234" lon="-2.24634">
        <ele>3.5999999046326</ele>
        <time>2022-06-26T08:59:09.000Z</time>
      </trkpt>
      <trkpt lat="47.31242" lon="-2.24624">
        <ele>3.5999999046326</ele>
        <time>2022-06-26T08:59:11.000Z</time>
      </trkpt>
      <trkpt lat="47.31246" lon="-2.2462">
        <ele>3.5999999046326</ele>
        <time>2022-06-26T08:59:12.000Z</time>
      </trkpt>
      <trkpt lat="47.31255" lon="-2.24612">
        <ele>3.5999999046326</ele>
        <time>2022-06-26T08:59:14.000Z</time>
      </trkpt>
      <trkpt lat="47.31269" lon="-2.246">
        <ele>3.5999999046326</ele>
        <time>2022-06-26T08:59:17.000Z</time>
      </trkpt>
      <trkpt lat="47.31301" lon="-2.24569">
        <ele>3.5999999046326</ele>
        <time>2022-06-26T08:59:24.000Z</time>
      </trkpt>
      <trkpt lat="47.31317" lon="-2.2455">
        <ele>3.5999999046326</ele>
        <time>2022-06-26T08:59:28.000Z</time>
      </trkpt>
      <trkpt lat="47.31322" lon="-2.24545">
        <ele>3.5999999046326</ele>
        <time>2022-06-26T08:59:29.000Z</time>
      </trkpt>
      <trkpt lat="47.31336" lon="-2.24533">
        <ele>3.5999999046326</ele>
        <time>2022-06-26T08:59:32.000Z</time>
      </trkpt>
      <trkpt lat="47.31354" lon="-2.24514">
        <ele>3.5999999046326</ele>
        <time>2022-06-26T08:59:36.000Z</time>
      </trkpt>
      <trkpt lat="47.31375" lon="-2.24488">
        <ele>3.5999999046326</ele>
        <time>2022-06-26T08:59:41.000Z</time>
      </trkpt>
      <trkpt lat="47.31384" lon="-2.24478">
        <ele>3.5999999046326</ele>
        <time>2022-06-26T08:59:43.000Z</time>
      </trkpt>
      <trkpt lat="47.31413" lon="-2.24451">
        <ele>3.5999999046326</ele>
        <time>2022-06-26T08:59:49.000Z</time>
      </trkpt>
      <trkpt lat="47.31443" lon="-2.24414">
        <ele>3.5999999046326</ele>
        <time>2022-06-26T08:59:56.000Z</time>
      </trkpt>
      <trkpt lat="47.31456" lon="-2.24398">
        <ele>3.5999999046326</ele>
        <time>2022-06-26T08:59:59.000Z</time>
      </trkpt>
      <trkpt lat="47.31467" lon="-2.24391">
        <ele>3.5999999046326</ele>
        <time>2022-06-26T09:00:01.000Z</time>
      </trkpt>
      <trkpt lat="47.31477" lon="-2.24387">
        <ele>3.5999999046326</ele>
        <time>2022-06-26T09:00:03.000Z</time>
      </trkpt>
      <trkpt lat="47.31482" lon="-2.24384">
        <ele>3.5999999046326</ele>
        <time>2022-06-26T09:00:04.000Z</time>
      </trkpt>
      <trkpt lat="47.31491" lon="-2.24379">
        <ele>3.5999999046326</ele>
        <time>2022-06-26T09:00:06.000Z</time>
      </trkpt>
      <trkpt lat="47.315" lon="-2.24377">
        <ele>3.5999999046326</ele>
        <time>2022-06-26T09:00:08.000Z</time>
      </trkpt>
      <trkpt lat="47.31506" lon="-2.24373">
        <ele>3.5999999046326</ele>
        <time>2022-06-26T09:00:10.000Z</time>
      </trkpt>
      <trkpt lat="47.3151" lon="-2.24363">
        <ele>3.5999999046326</ele>
        <time>2022-06-26T09:00:13.000Z</time>
      </trkpt>
      <trkpt lat="47.3151" lon="-2.2436">
        <ele>3.5999999046326</ele>
        <time>2022-06-26T09:00:14.000Z</time>
      </trkpt>
      <trkpt lat="47.31506" lon="-2.24347">
        <ele>3.5999999046326</ele>
        <time>2022-06-26T09:00:19.000Z</time>
      </trkpt>
      <trkpt lat="47.31495" lon="-2.24332">
        <ele>3.5999999046326</ele>
        <time>2022-06-26T09:00:25.000Z</time>
      </trkpt>
      <trkpt lat="47.31488" lon="-2.24324">
        <ele>3.5999999046326</ele>
        <time>2022-06-26T09:00:28.000Z</time>
      </trkpt>
      <trkpt lat="47.31487" lon="-2.2432">
        <ele>3.5999999046326</ele>
        <time>2022-06-26T09:00:29.000Z</time>
      </trkpt>
      <trkpt lat="47.3149" lon="-2.24306">
        <ele>3.5999999046326</ele>
        <time>2022-06-26T09:00:32.000Z</time>
      </trkpt>
      <trkpt lat="47.31491" lon="-2.24301">
        <ele>3.5999999046326</ele>
        <time>2022-06-26T09:00:33.000Z</time>
      </trkpt>
      <trkpt lat="47.31496" lon="-2.24285">
        <ele>3.5999999046326</ele>
        <time>2022-06-26T09:00:36.000Z</time>
      </trkpt>
      <trkpt lat="47.31499" lon="-2.24282">
        <ele>3.5999999046326</ele>
        <time>2022-06-26T09:00:37.000Z</time>
      </trkpt>
      <trkpt lat="47.31514" lon="-2.24277">
        <ele>3.5999999046326</ele>
        <time>2022-06-26T09:00:41.000Z</time>
      </trkpt>
      <trkpt lat="47.31526" lon="-2.24278">
        <ele>3.5999999046326</ele>
        <time>2022-06-26T09:00:44.000Z</time>
      </trkpt>
      <trkpt lat="47.3153" lon="-2.24279">
        <ele>3.5999999046326</ele>
        <time>2022-06-26T09:00:45.000Z</time>
      </trkpt>
      <trkpt lat="47.31534" lon="-2.24281">
        <ele>3.5999999046326</ele>
        <time>2022-06-26T09:00:46.000Z</time>
      </trkpt>
      <trkpt lat="47.31544" lon="-2.24296">
        <ele>3.5999999046326</ele>
        <time>2022-06-26T09:00:49.000Z</time>
      </trkpt>
      <trkpt lat="47.31547" lon="-2.24301">
        <ele>3.5999999046326</ele>
        <time>2022-06-26T09:00:50.000Z</time>
      </trkpt>
      <trkpt lat="47.31564" lon="-2.24331">
        <ele>3.5999999046326</ele>
        <time>2022-06-26T09:00:56.000Z</time>
      </trkpt>
      <trkpt lat="47.31576" lon="-2.24341">
        <ele>3.5999999046326</ele>
        <time>2022-06-26T09:01:00.000Z</time>
      </trkpt>
      <trkpt lat="47.31589" lon="-2.24352">
        <ele>3.5999999046326</ele>
        <time>2022-06-26T09:01:04.000Z</time>
      </trkpt>
      <trkpt lat="47.31599" lon="-2.24372">
        <ele>3.5999999046326</ele>
        <time>2022-06-26T09:01:08.000Z</time>
      </trkpt>
      <trkpt lat="47.31595" lon="-2.24389">
        <ele>3.5999999046326</ele>
        <time>2022-06-26T09:01:11.000Z</time>
      </trkpt>
      <trkpt lat="47.31594" lon="-2.24393">
        <ele>3.5999999046326</ele>
        <time>2022-06-26T09:01:12.000Z</time>
      </trkpt>
      <trkpt lat="47.31591" lon="-2.24393">
        <ele>3.5999999046326</ele>
        <time>2022-06-26T09:01:15.000Z</time>
      </trkpt>
      <trkpt lat="47.31582" lon="-2.24392">
        <ele>3.5999999046326</ele>
        <time>2022-06-26T09:01:21.000Z</time>
      </trkpt>
      <trkpt lat="47.3158" lon="-2.24395">
        <ele>3.5999999046326</ele>
        <time>2022-06-26T09:01:24.000Z</time>
      </trkpt>
      <trkpt lat="47.31575" lon="-2.24394">
        <ele>3.5999999046326</ele>
        <time>2022-06-26T09:01:28.000Z</time>
      </trkpt>
      <trkpt lat="47.31571" lon="-2.24393">
        <ele>3.5999999046326</ele>
        <time>2022-06-26T09:01:30.000Z</time>
      </trkpt>
      <trkpt lat="47.31552" lon="-2.24386">
        <ele>3.5999999046326</ele>
        <time>2022-06-26T09:01:35.000Z</time>
      </trkpt>
      <trkpt lat="47.31529" lon="-2.2438">
        <ele>3.5999999046326</ele>
        <time>2022-06-26T09:01:40.000Z</time>
      </trkpt>
      <trkpt lat="47.31521" lon="-2.24386">
        <ele>3.5999999046326</ele>
        <time>2022-06-26T09:01:44.000Z</time>
      </trkpt>
      <trkpt lat="47.31523" lon="-2.24405">
        <ele>3.5999999046326</ele>
        <time>2022-06-26T09:01:49.000Z</time>
      </trkpt>
      <trkpt lat="47.31526" lon="-2.24443">
        <ele>3.5999999046326</ele>
        <time>2022-06-26T09:01:56.000Z</time>
      </trkpt>
      <trkpt lat="47.31528" lon="-2.24449">
        <ele>3.5999999046326</ele>
        <time>2022-06-26T09:01:57.000Z</time>
      </trkpt>
      <trkpt lat="47.31535" lon="-2.2446">
        <ele>3.5999999046326</ele>
        <time>2022-06-26T09:01:59.000Z</time>
      </trkpt>
      <trkpt lat="47.31545" lon="-2.24474">
        <ele>3.5999999046326</ele>
        <time>2022-06-26T09:02:03.000Z</time>
      </trkpt>
      <trkpt lat="47.31557" lon="-2.2449">
        <ele>3.5999999046326</ele>
        <time>2022-06-26T09:02:08.000Z</time>
      </trkpt>
      <trkpt lat="47.31565" lon="-2.24482">
        <ele>3.5999999046326</ele>
        <time>2022-06-26T09:02:12.000Z</time>
      </trkpt>
      <trkpt lat="47.31575" lon="-2.24484">
        <ele>3.5999999046326</ele>
        <time>2022-06-26T09:02:17.000Z</time>
      </trkpt>
      <trkpt lat="47.31585" lon="-2.24501">
        <ele>3.5999999046326</ele>
        <time>2022-06-26T09:02:22.000Z</time>
      </trkpt>
      <trkpt lat="47.31599" lon="-2.24506">
        <ele>3.5999999046326</ele>
        <time>2022-06-26T09:02:27.000Z</time>
      </trkpt>
      <trkpt lat="47.31607" lon="-2.24495">
        <ele>3.5999999046326</ele>
        <time>2022-06-26T09:02:31.000Z</time>
      </trkpt>
      <trkpt lat="47.31607" lon="-2.24491">
        <ele>3.5999999046326</ele>
        <time>2022-06-26T09:02:33.000Z</time>
      </trkpt>
      <trkpt lat="47.31606" lon="-2.24485">
        <ele>3.5999999046326</ele>
        <time>2022-06-26T09:02:36.000Z</time>
      </trkpt>
      <trkpt lat="47.31606" lon="-2.24483">
        <ele>3.5999999046326</ele>
        <time>2022-06-26T09:02:37.000Z</time>
      </trkpt>
      <trkpt lat="47.31608" lon="-2.24481">
        <ele>3.5999999046326</ele>
        <time>2022-06-26T09:02:39.000Z</time>
      </trkpt>
      <trkpt lat="47.3161" lon="-2.24481">
        <ele>3.5999999046326</ele>
        <time>2022-06-26T09:02:40.000Z</time>
      </trkpt>
      <trkpt lat="47.31624" lon="-2.2448">
        <ele>3.5999999046326</ele>
        <time>2022-06-26T09:02:44.000Z</time>
      </trkpt>
      <trkpt lat="47.31634" lon="-2.24469">
        <ele>3.5999999046326</ele>
        <time>2022-06-26T09:02:49.000Z</time>
      </trkpt>
      <trkpt lat="47.31652" lon="-2.24461">
        <ele>3.5999999046326</ele>
        <time>2022-06-26T09:02:56.000Z</time>
      </trkpt>
      <trkpt lat="47.31661" lon="-2.24453">
        <ele>3.5999999046326</ele>
        <time>2022-06-26T09:03:00.000Z</time>
      </trkpt>
      <trkpt lat="47.31663" lon="-2.24452">
        <ele>3.5999999046326</ele>
        <time>2022-06-26T09:03:01.000Z</time>
      </trkpt>
      <trkpt lat="47.31668" lon="-2.24448">
        <ele>3.5999999046326</ele>
        <time>2022-06-26T09:03:04.000Z</time>
      </trkpt>
      <trkpt lat="47.3167" lon="-2.24446">
        <ele>3.5999999046326</ele>
        <time>2022-06-26T09:03:06.000Z</time>
      </trkpt>
      <trkpt lat="47.31679" lon="-2.24438">
        <ele>3.5999999046326</ele>
        <time>2022-06-26T09:03:18.000Z</time>
      </trkpt>
      <trkpt lat="47.31687" lon="-2.24438">
        <ele>3.5999999046326</ele>
        <time>2022-06-26T09:03:22.000Z</time>
      </trkpt>
      <trkpt lat="47.31689" lon="-2.24437">
        <ele>3.5999999046326</ele>
        <time>2022-06-26T09:03:23.000Z</time>
      </trkpt>
      <trkpt lat="47.31705" lon="-2.24438">
        <ele>3.5999999046326</ele>
        <time>2022-06-26T09:03:30.000Z</time>
      </trkpt>
      <trkpt lat="47.31715" lon="-2.24456">
        <ele>3.5999999046326</ele>
        <time>2022-06-26T09:03:36.000Z</time>
      </trkpt>
      <trkpt lat="47.31725" lon="-2.24473">
        <ele>3.5999999046326</ele>
        <time>2022-06-26T09:03:41.000Z</time>
      </trkpt>
      <trkpt lat="47.31733" lon="-2.24499">
        <ele>3.5999999046326</ele>
        <time>2022-06-26T09:03:47.000Z</time>
      </trkpt>
      <trkpt lat="47.3174" lon="-2.24519">
        <ele>3.5999999046326</ele>
        <time>2022-06-26T09:03:50.000Z</time>
      </trkpt>
      <trkpt lat="47.31744" lon="-2.24531">
        <ele>3.5999999046326</ele>
        <time>2022-06-26T09:03:52.000Z</time>
      </trkpt>
      <trkpt lat="47.31751" lon="-2.24547">
        <ele>3.5999999046326</ele>
        <time>2022-06-26T09:03:55.000Z</time>
      </trkpt>
      <trkpt lat="47.31757" lon="-2.24565">
        <ele>3.5999999046326</ele>
        <time>2022-06-26T09:03:58.000Z</time>
      </trkpt>
      <trkpt lat="47.31769" lon="-2.24595">
        <ele>3.5999999046326</ele>
        <time>2022-06-26T09:04:04.000Z</time>
      </trkpt>
      <trkpt lat="47.31779" lon="-2.24618">
        <ele>3.5999999046326</ele>
        <time>2022-06-26T09:04:10.000Z</time>
      </trkpt>
      <trkpt lat="47.31781" lon="-2.2462">
        <ele>3.5999999046326</ele>
        <time>2022-06-26T09:04:11.000Z</time>
      </trkpt>
      <trkpt lat="47.31788" lon="-2.2462">
        <ele>3.5999999046326</ele>
        <time>2022-06-26T09:04:13.000Z</time>
      </trkpt>
      <trkpt lat="47.31798" lon="-2.24615">
        <ele>3.5999999046326</ele>
        <time>2022-06-26T09:04:15.000Z</time>
      </trkpt>
      <trkpt lat="47.31808" lon="-2.24612">
        <ele>3.5999999046326</ele>
        <time>2022-06-26T09:04:17.000Z</time>
      </trkpt>
      <trkpt lat="47.31836" lon="-2.24606">
        <ele>3.5999999046326</ele>
        <time>2022-06-26T09:04:23.000Z</time>
      </trkpt>
      <trkpt lat="47.31853" lon="-2.246">
        <ele>3.5999999046326</ele>
        <time>2022-06-26T09:04:27.000Z</time>
      </trkpt>
      <trkpt lat="47.3186" lon="-2.246">
        <ele>3.5999999046326</ele>
        <time>2022-06-26T09:04:29.000Z</time>
      </trkpt>
      <trkpt lat="47.31871" lon="-2.24607">
        <ele>3.5999999046326</ele>
        <time>2022-06-26T09:04:33.000Z</time>
      </trkpt>
      <trkpt lat="47.31873" lon="-2.24609">
        <ele>3.5999999046326</ele>
        <time>2022-06-26T09:04:34.000Z</time>
      </trkpt>
      <trkpt lat="47.31876" lon="-2.24614">
        <ele>3.5999999046326</ele>
        <time>2022-06-26T09:04:36.000Z</time>
      </trkpt>
      <trkpt lat="47.31878" lon="-2.24621">
        <ele>3.5999999046326</ele>
        <time>2022-06-26T09:04:38.000Z</time>
      </trkpt>
      <trkpt lat="47.31889" lon="-2.24634">
        <ele>3.5999999046326</ele>
        <time>2022-06-26T09:04:42.000Z</time>
      </trkpt>
      <trkpt lat="47.31904" lon="-2.24637">
        <ele>3.5999999046326</ele>
        <time>2022-06-26T09:04:46.000Z</time>
      </trkpt>
      <trkpt lat="47.31909" lon="-2.24637">
        <ele>3.5999999046326</ele>
        <time>2022-06-26T09:04:47.000Z</time>
      </trkpt>
      <trkpt lat="47.31931" lon="-2.24639">
        <ele>3.5999999046326</ele>
        <time>2022-06-26T09:04:52.000Z</time>
      </trkpt>
      <trkpt lat="47.31944" lon="-2.24647">
        <ele>3.5999999046326</ele>
        <time>2022-06-26T09:04:56.000Z</time>
      </trkpt>
      <trkpt lat="47.31969" lon="-2.24668">
        <ele>3.5999999046326</ele>
        <time>2022-06-26T09:05:03.000Z</time>
      </trkpt>
      <trkpt lat="47.31977" lon="-2.24684">
        <ele>3.5999999046326</ele>
        <time>2022-06-26T09:05:06.000Z</time>
      </trkpt>
      <trkpt lat="47.31982" lon="-2.24694">
        <ele>3.5999999046326</ele>
        <time>2022-06-26T09:05:08.000Z</time>
      </trkpt>
      <trkpt lat="47.31987" lon="-2.24705">
        <ele>3.5999999046326</ele>
        <time>2022-06-26T09:05:10.000Z</time>
      </trkpt>
      <trkpt lat="47.31995" lon="-2.24718">
        <ele>3.5999999046326</ele>
        <time>2022-06-26T09:05:13.000Z</time>
      </trkpt>
      <trkpt lat="47.32" lon="-2.24731">
        <ele>3.5999999046326</ele>
        <time>2022-06-26T09:05:18.000Z</time>
      </trkpt>
      <trkpt lat="47.32004" lon="-2.24732">
        <ele>3.5999999046326</ele>
        <time>2022-06-26T09:05:20.000Z</time>
      </trkpt>
      <trkpt lat="47.32011" lon="-2.2473">
        <ele>3.5999999046326</ele>
        <time>2022-06-26T09:05:23.000Z</time>
      </trkpt>
      <trkpt lat="47.32014" lon="-2.24729">
        <ele>3.2000000476837</ele>
        <time>2022-06-26T09:05:24.000Z</time>
      </trkpt>
      <trkpt lat="47.32017" lon="-2.24727">
        <ele>2.7999999523163</ele>
        <time>2022-06-26T09:05:25.000Z</time>
      </trkpt>
      <trkpt lat="47.3202" lon="-2.24725">
        <ele>2.4000000953674</ele>
        <time>2022-06-26T09:05:26.000Z</time>
      </trkpt>
      <trkpt lat="47.32024" lon="-2.24723">
        <ele>2</ele>
        <time>2022-06-26T09:05:27.000Z</time>
      </trkpt>
      <trkpt lat="47.32027" lon="-2.24724">
        <ele>1.3999999761581</ele>
        <time>2022-06-26T09:05:28.000Z</time>
      </trkpt>
      <trkpt lat="47.32037" lon="-2.24736">
        <ele>1.3999999761581</ele>
        <time>2022-06-26T09:05:32.000Z</time>
      </trkpt>
      <trkpt lat="47.32049" lon="-2.2476">
        <ele>1.3999999761581</ele>
        <time>2022-06-26T09:05:37.000Z</time>
      </trkpt>
      <trkpt lat="47.32054" lon="-2.24771">
        <ele>1.3999999761581</ele>
        <time>2022-06-26T09:05:39.000Z</time>
      </trkpt>
      <trkpt lat="47.32057" lon="-2.24776">
        <ele>1.3999999761581</ele>
        <time>2022-06-26T09:05:40.000Z</time>
      </trkpt>
      <trkpt lat="47.3206" lon="-2.24781">
        <ele>1.3999999761581</ele>
        <time>2022-06-26T09:05:41.000Z</time>
      </trkpt>
      <trkpt lat="47.32063" lon="-2.24786">
        <ele>1.3999999761581</ele>
        <time>2022-06-26T09:05:42.000Z</time>
      </trkpt>
      <trkpt lat="47.32073" lon="-2.24811">
        <ele>1.3999999761581</ele>
        <time>2022-06-26T09:05:46.000Z</time>
      </trkpt>
      <trkpt lat="47.32097" lon="-2.2486">
        <ele>1.3999999761581</ele>
        <time>2022-06-26T09:05:54.000Z</time>
      </trkpt>
      <trkpt lat="47.32112" lon="-2.2489">
        <ele>1.3999999761581</ele>
        <time>2022-06-26T09:05:59.000Z</time>
      </trkpt>
      <trkpt lat="47.32127" lon="-2.24922">
        <ele>1.3999999761581</ele>
        <time>2022-06-26T09:06:04.000Z</time>
      </trkpt>
      <trkpt lat="47.32133" lon="-2.24934">
        <ele>1.3999999761581</ele>
        <time>2022-06-26T09:06:06.000Z</time>
      </trkpt>
      <trkpt lat="47.32145" lon="-2.24957">
        <ele>1.3999999761581</ele>
        <time>2022-06-26T09:06:10.000Z</time>
      </trkpt>
      <trkpt lat="47.32156" lon="-2.24979">
        <ele>1.3999999761581</ele>
        <time>2022-06-26T09:06:15.000Z</time>
      </trkpt>
      <trkpt lat="47.32157" lon="-2.24982">
        <ele>1.3999999761581</ele>
        <time>2022-06-26T09:06:16.000Z</time>
      </trkpt>
      <trkpt lat="47.32158" lon="-2.24984">
        <ele>1.3999999761581</ele>
        <time>2022-06-26T09:06:19.000Z</time>
      </trkpt>
      <trkpt lat="47.32159" lon="-2.24979">
        <ele>1.3999999761581</ele>
        <time>2022-06-26T09:07:22.000Z</time>
      </trkpt>
      <trkpt lat="47.32154" lon="-2.24973">
        <ele>1.3999999761581</ele>
        <time>2022-06-26T09:07:25.000Z</time>
      </trkpt>
      <trkpt lat="47.32146" lon="-2.24958">
        <ele>1.3999999761581</ele>
        <time>2022-06-26T09:07:29.000Z</time>
      </trkpt>
      <trkpt lat="47.32144" lon="-2.24953">
        <ele>1.3999999761581</ele>
        <time>2022-06-26T09:07:30.000Z</time>
      </trkpt>
      <trkpt lat="47.32127" lon="-2.24919">
        <ele>1.3999999761581</ele>
        <time>2022-06-26T09:07:37.000Z</time>
      </trkpt>
      <trkpt lat="47.32108" lon="-2.24881">
        <ele>1.3999999761581</ele>
        <time>2022-06-26T09:07:44.000Z</time>
      </trkpt>
      <trkpt lat="47.32086" lon="-2.24838">
        <ele>1.3999999761581</ele>
        <time>2022-06-26T09:07:52.000Z</time>
      </trkpt>
      <trkpt lat="47.32063" lon="-2.24789">
        <ele>1.3999999761581</ele>
        <time>2022-06-26T09:08:01.000Z</time>
      </trkpt>
      <trkpt lat="47.32044" lon="-2.2475">
        <ele>1.3999999761581</ele>
        <time>2022-06-26T09:08:08.000Z</time>
      </trkpt>
      <trkpt lat="47.32034" lon="-2.24729">
        <ele>1.3999999761581</ele>
        <time>2022-06-26T09:08:12.000Z</time>
      </trkpt>
      <trkpt lat="47.32027" lon="-2.24725">
        <ele>1.3999999761581</ele>
        <time>2022-06-26T09:08:14.000Z</time>
      </trkpt>
      <trkpt lat="47.32015" lon="-2.24728">
        <ele>1.3999999761581</ele>
        <time>2022-06-26T09:08:17.000Z</time>
      </trkpt>
      <trkpt lat="47.31998" lon="-2.24729">
        <ele>1.3999999761581</ele>
        <time>2022-06-26T09:08:22.000Z</time>
      </trkpt>
      <trkpt lat="47.3199" lon="-2.24714">
        <ele>1.3999999761581</ele>
        <time>2022-06-26T09:08:26.000Z</time>
      </trkpt>
      <trkpt lat="47.31988" lon="-2.2471">
        <ele>1.3999999761581</ele>
        <time>2022-06-26T09:08:27.000Z</time>
      </trkpt>
      <trkpt lat="47.31974" lon="-2.24681">
        <ele>1.3999999761581</ele>
        <time>2022-06-26T09:08:34.000Z</time>
      </trkpt>
      <trkpt lat="47.3196" lon="-2.24662">
        <ele>1.3999999761581</ele>
        <time>2022-06-26T09:08:39.000Z</time>
      </trkpt>
      <trkpt lat="47.31942" lon="-2.2465">
        <ele>1.3999999761581</ele>
        <time>2022-06-26T09:08:45.000Z</time>
      </trkpt>
      <trkpt lat="47.31922" lon="-2.24643">
        <ele>1.3999999761581</ele>
        <time>2022-06-26T09:08:50.000Z</time>
      </trkpt>
      <trkpt lat="47.31893" lon="-2.24638">
        <ele>1.3999999761581</ele>
        <time>2022-06-26T09:08:57.000Z</time>
      </trkpt>
      <trkpt lat="47.31886" lon="-2.24631">
        <ele>1.3999999761581</ele>
        <time>2022-06-26T09:08:59.000Z</time>
      </trkpt>
      <trkpt lat="47.31882" lon="-2.24617">
        <ele>1.3999999761581</ele>
        <time>2022-06-26T09:09:01.000Z</time>
      </trkpt>
      <trkpt lat="47.31873" lon="-2.24601">
        <ele>1.3999999761581</ele>
        <time>2022-06-26T09:09:05.000Z</time>
      </trkpt>
      <trkpt lat="47.31858" lon="-2.24597">
        <ele>1.3999999761581</ele>
        <time>2022-06-26T09:09:10.000Z</time>
      </trkpt>
      <trkpt lat="47.31844" lon="-2.24602">
        <ele>1.3999999761581</ele>
        <time>2022-06-26T09:09:13.000Z</time>
      </trkpt>
      <trkpt lat="47.3184" lon="-2.24603">
        <ele>1.3999999761581</ele>
        <time>2022-06-26T09:09:14.000Z</time>
      </trkpt>
      <trkpt lat="47.31823" lon="-2.2461">
        <ele>1.3999999761581</ele>
        <time>2022-06-26T09:09:18.000Z</time>
      </trkpt>
      <trkpt lat="47.31813" lon="-2.24613">
        <ele>1.3999999761581</ele>
        <time>2022-06-26T09:09:20.000Z</time>
      </trkpt>
      <trkpt lat="47.31802" lon="-2.24616">
        <ele>1.3999999761581</ele>
        <time>2022-06-26T09:09:22.000Z</time>
      </trkpt>
      <trkpt lat="47.31787" lon="-2.24623">
        <ele>1.3999999761581</ele>
        <time>2022-06-26T09:09:25.000Z</time>
      </trkpt>
      <trkpt lat="47.31778" lon="-2.24618">
        <ele>1.3999999761581</ele>
        <time>2022-06-26T09:09:28.000Z</time>
      </trkpt>
      <trkpt lat="47.31777" lon="-2.24614">
        <ele>1.3999999761581</ele>
        <time>2022-06-26T09:09:29.000Z</time>
      </trkpt>
      <trkpt lat="47.3177" lon="-2.24593">
        <ele>1.3999999761581</ele>
        <time>2022-06-26T09:09:34.000Z</time>
      </trkpt>
      <trkpt lat="47.31767" lon="-2.24587">
        <ele>1.3999999761581</ele>
        <time>2022-06-26T09:09:35.000Z</time>
      </trkpt>
      <trkpt lat="47.31759" lon="-2.24568">
        <ele>1.3999999761581</ele>
        <time>2022-06-26T09:09:38.000Z</time>
      </trkpt>
      <trkpt lat="47.31754" lon="-2.24554">
        <ele>1.3999999761581</ele>
        <time>2022-06-26T09:09:40.000Z</time>
      </trkpt>
      <trkpt lat="47.31743" lon="-2.24528">
        <ele>1.3999999761581</ele>
        <time>2022-06-26T09:09:44.000Z</time>
      </trkpt>
      <trkpt lat="47.31741" lon="-2.24521">
        <ele>1.3999999761581</ele>
        <time>2022-06-26T09:09:45.000Z</time>
      </trkpt>
      <trkpt lat="47.31736" lon="-2.24508">
        <ele>1.3999999761581</ele>
        <time>2022-06-26T09:09:47.000Z</time>
      </trkpt>
      <trkpt lat="47.3173" lon="-2.24488">
        <ele>1.3999999761581</ele>
        <time>2022-06-26T09:09:50.000Z</time>
      </trkpt>
      <trkpt lat="47.31726" lon="-2.24475">
        <ele>1.3999999761581</ele>
        <time>2022-06-26T09:09:52.000Z</time>
      </trkpt>
      <trkpt lat="47.31718" lon="-2.24459">
        <ele>1.3999999761581</ele>
        <time>2022-06-26T09:09:55.000Z</time>
      </trkpt>
      <trkpt lat="47.31705" lon="-2.24437">
        <ele>1.3999999761581</ele>
        <time>2022-06-26T09:10:00.000Z</time>
      </trkpt>
      <trkpt lat="47.31698" lon="-2.24434">
        <ele>1.3999999761581</ele>
        <time>2022-06-26T09:10:02.000Z</time>
      </trkpt>
      <trkpt lat="47.31692" lon="-2.24433">
        <ele>1.3999999761581</ele>
        <time>2022-06-26T09:10:04.000Z</time>
      </trkpt>
      <trkpt lat="47.31683" lon="-2.24432">
        <ele>1.3999999761581</ele>
        <time>2022-06-26T09:10:09.000Z</time>
      </trkpt>
      <trkpt lat="47.3168" lon="-2.24428">
        <ele>1.3999999761581</ele>
        <time>2022-06-26T09:10:11.000Z</time>
      </trkpt>
      <trkpt lat="47.31676" lon="-2.24422">
        <ele>1.3999999761581</ele>
        <time>2022-06-26T09:10:13.000Z</time>
      </trkpt>
      <trkpt lat="47.31664" lon="-2.24397">
        <ele>1.3999999761581</ele>
        <time>2022-06-26T09:10:19.000Z</time>
      </trkpt>
      <trkpt lat="47.31655" lon="-2.24382">
        <ele>1.3999999761581</ele>
        <time>2022-06-26T09:10:22.000Z</time>
      </trkpt>
      <trkpt lat="47.31648" lon="-2.24374">
        <ele>1.3999999761581</ele>
        <time>2022-06-26T09:10:24.000Z</time>
      </trkpt>
      <trkpt lat="47.31631" lon="-2.24356">
        <ele>1.3999999761581</ele>
        <time>2022-06-26T09:10:29.000Z</time>
      </trkpt>
      <trkpt lat="47.3162" lon="-2.24338">
        <ele>1.3999999761581</ele>
        <time>2022-06-26T09:10:34.000Z</time>
      </trkpt>
      <trkpt lat="47.31616" lon="-2.24332">
        <ele>2</ele>
        <time>2022-06-26T09:10:36.000Z</time>
      </trkpt>
      <trkpt lat="47.31613" lon="-2.24329">
        <ele>2.4000000953674</ele>
        <time>2022-06-26T09:10:37.000Z</time>
      </trkpt>
      <trkpt lat="47.31609" lon="-2.24324">
        <ele>2.7999999523163</ele>
        <time>2022-06-26T09:10:38.000Z</time>
      </trkpt>
      <trkpt lat="47.31605" lon="-2.24319">
        <ele>3.2000000476837</ele>
        <time>2022-06-26T09:10:39.000Z</time>
      </trkpt>
      <trkpt lat="47.31601" lon="-2.24314">
        <ele>3.5999999046326</ele>
        <time>2022-06-26T09:10:40.000Z</time>
      </trkpt>
      <trkpt lat="47.31597" lon="-2.24309">
        <ele>3.5999999046326</ele>
        <time>2022-06-26T09:10:41.000Z</time>
      </trkpt>
      <trkpt lat="47.31587" lon="-2.24298">
        <ele>3.5999999046326</ele>
        <time>2022-06-26T09:10:44.000Z</time>
      </trkpt>
      <trkpt lat="47.31577" lon="-2.24282">
        <ele>3.5999999046326</ele>
        <time>2022-06-26T09:10:47.000Z</time>
      </trkpt>
      <trkpt lat="47.31573" lon="-2.24275">
        <ele>3.5999999046326</ele>
        <time>2022-06-26T09:10:48.000Z</time>
      </trkpt>
      <trkpt lat="47.31559" lon="-2.24253">
        <ele>3.5999999046326</ele>
        <time>2022-06-26T09:10:52.000Z</time>
      </trkpt>
      <trkpt lat="47.31551" lon="-2.24243">
        <ele>3.5999999046326</ele>
        <time>2022-06-26T09:10:54.000Z</time>
      </trkpt>
      <trkpt lat="47.31547" lon="-2.24239">
        <ele>3.5999999046326</ele>
        <time>2022-06-26T09:10:55.000Z</time>
      </trkpt>
      <trkpt lat="47.31535" lon="-2.24234">
        <ele>3.5999999046326</ele>
        <time>2022-06-26T09:10:58.000Z</time>
      </trkpt>
      <trkpt lat="47.31515" lon="-2.24232">
        <ele>3.5999999046326</ele>
        <time>2022-06-26T09:11:03.000Z</time>
      </trkpt>
      <trkpt lat="47.31511" lon="-2.24231">
        <ele>3.5999999046326</ele>
        <time>2022-06-26T09:11:04.000Z</time>
      </trkpt>
      <trkpt lat="47.31488" lon="-2.24224">
        <ele>3.5999999046326</ele>
        <time>2022-06-26T09:11:10.000Z</time>
      </trkpt>
      <trkpt lat="47.31479" lon="-2.24224">
        <ele>3.5999999046326</ele>
        <time>2022-06-26T09:11:12.000Z</time>
      </trkpt>
      <trkpt lat="47.31468" lon="-2.24219">
        <ele>3.5999999046326</ele>
        <time>2022-06-26T09:11:15.000Z</time>
      </trkpt>
      <trkpt lat="47.31468" lon="-2.24205">
        <ele>3.5999999046326</ele>
        <time>2022-06-26T09:11:17.000Z</time>
      </trkpt>
      <trkpt lat="47.31476" lon="-2.24189">
        <ele>3.5999999046326</ele>
        <time>2022-06-26T09:11:20.000Z</time>
      </trkpt>
      <trkpt lat="47.31479" lon="-2.24183">
        <ele>3.5999999046326</ele>
        <time>2022-06-26T09:11:21.000Z</time>
      </trkpt>
      <trkpt lat="47.3148" lon="-2.24162">
        <ele>3.5999999046326</ele>
        <time>2022-06-26T09:11:24.000Z</time>
      </trkpt>
      <trkpt lat="47.31472" lon="-2.24146">
        <ele>3.5999999046326</ele>
        <time>2022-06-26T09:11:27.000Z</time>
      </trkpt>
      <trkpt lat="47.31466" lon="-2.24135">
        <ele>3.5999999046326</ele>
        <time>2022-06-26T09:11:29.000Z</time>
      </trkpt>
      <trkpt lat="47.31456" lon="-2.24121">
        <ele>3.5999999046326</ele>
        <time>2022-06-26T09:11:32.000Z</time>
      </trkpt>
      <trkpt lat="47.31451" lon="-2.2411">
        <ele>3.5999999046326</ele>
        <time>2022-06-26T09:11:34.000Z</time>
      </trkpt>
      <trkpt lat="47.31443" lon="-2.24091">
        <ele>3.5999999046326</ele>
        <time>2022-06-26T09:11:37.000Z</time>
      </trkpt>
      <trkpt lat="47.31424" lon="-2.24049">
        <ele>3.5999999046326</ele>
        <time>2022-06-26T09:11:44.000Z</time>
      </trkpt>
      <trkpt lat="47.31404" lon="-2.24005">
        <ele>3.5999999046326</ele>
        <time>2022-06-26T09:11:52.000Z</time>
      </trkpt>
      <trkpt lat="47.31388" lon="-2.23965">
        <ele>3.5999999046326</ele>
        <time>2022-06-26T09:11:59.000Z</time>
      </trkpt>
      <trkpt lat="47.31382" lon="-2.23954">
        <ele>3.5999999046326</ele>
        <time>2022-06-26T09:12:01.000Z</time>
      </trkpt>
      <trkpt lat="47.31371" lon="-2.23933">
        <ele>3.5999999046326</ele>
        <time>2022-06-26T09:12:05.000Z</time>
      </trkpt>
      <trkpt lat="47.31356" lon="-2.23907">
        <ele>3.2000000476837</ele>
        <time>2022-06-26T09:12:11.000Z</time>
      </trkpt>
      <trkpt lat="47.31354" lon="-2.23903">
        <ele>2.5999999046326</ele>
        <time>2022-06-26T09:12:12.000Z</time>
      </trkpt>
      <trkpt lat="47.31352" lon="-2.239">
        <ele>2.2000000476837</ele>
        <time>2022-06-26T09:12:13.000Z</time>
      </trkpt>
      <trkpt lat="47.31349" lon="-2.23898">
        <ele>1.7999999523163</ele>
        <time>2022-06-26T09:12:14.000Z</time>
      </trkpt>
      <trkpt lat="47.31347" lon="-2.23896">
        <ele>1.3999999761581</ele>
        <time>2022-06-26T09:12:15.000Z</time>
      </trkpt>
      <trkpt lat="47.31342" lon="-2.23889">
        <ele>1.3999999761581</ele>
        <time>2022-06-26T09:12:18.000Z</time>
      </trkpt>
      <trkpt lat="47.31333" lon="-2.23877">
        <ele>1.3999999761581</ele>
        <time>2022-06-26T09:12:25.000Z</time>
      </trkpt>
      <trkpt lat="47.31328" lon="-2.23871">
        <ele>1.3999999761581</ele>
        <time>2022-06-26T09:12:31.000Z</time>
      </trkpt>
      <trkpt lat="47.31329" lon="-2.23874">
        <ele>1.3999999761581</ele>
        <time>2022-06-26T09:14:17.000Z</time>
      </trkpt>
      <trkpt lat="47.31334" lon="-2.23881">
        <ele>1.3999999761581</ele>
        <time>2022-06-26T09:14:20.000Z</time>
      </trkpt>
      <trkpt lat="47.31346" lon="-2.23896">
        <ele>1.3999999761581</ele>
        <time>2022-06-26T09:14:26.000Z</time>
      </trkpt>
      <trkpt lat="47.31359" lon="-2.23913">
        <ele>1.3999999761581</ele>
        <time>2022-06-26T09:14:32.000Z</time>
      </trkpt>
      <trkpt lat="47.31371" lon="-2.23938">
        <ele>1.3999999761581</ele>
        <time>2022-06-26T09:14:38.000Z</time>
      </trkpt>
      <trkpt lat="47.31389" lon="-2.23974">
        <ele>1.3999999761581</ele>
        <time>2022-06-26T09:14:45.000Z</time>
      </trkpt>
      <trkpt lat="47.31406" lon="-2.24011">
        <ele>1.3999999761581</ele>
        <time>2022-06-26T09:14:52.000Z</time>
      </trkpt>
      <trkpt lat="47.31421" lon="-2.24046">
        <ele>1.3999999761581</ele>
        <time>2022-06-26T09:14:59.000Z</time>
      </trkpt>
      <trkpt lat="47.31436" lon="-2.24076">
        <ele>1.3999999761581</ele>
        <time>2022-06-26T09:15:05.000Z</time>
      </trkpt>
      <trkpt lat="47.31451" lon="-2.24113">
        <ele>1.3999999761581</ele>
        <time>2022-06-26T09:15:12.000Z</time>
      </trkpt>
      <trkpt lat="47.31458" lon="-2.24127">
        <ele>1.3999999761581</ele>
        <time>2022-06-26T09:15:15.000Z</time>
      </trkpt>
      <trkpt lat="47.3147" lon="-2.24144">
        <ele>1.3999999761581</ele>
        <time>2022-06-26T09:15:19.000Z</time>
      </trkpt>
      <trkpt lat="47.31481" lon="-2.24167">
        <ele>1.3999999761581</ele>
        <time>2022-06-26T09:15:24.000Z</time>
      </trkpt>
      <trkpt lat="47.31486" lon="-2.24182">
        <ele>1.3999999761581</ele>
        <time>2022-06-26T09:15:28.000Z</time>
      </trkpt>
      <trkpt lat="47.31491" lon="-2.24186">
        <ele>1.3999999761581</ele>
        <time>2022-06-26T09:15:30.000Z</time>
      </trkpt>
      <trkpt lat="47.31499" lon="-2.24188">
        <ele>1.3999999761581</ele>
        <time>2022-06-26T09:15:32.000Z</time>
      </trkpt>
      <trkpt lat="47.31518" lon="-2.24195">
        <ele>1.3999999761581</ele>
        <time>2022-06-26T09:15:37.000Z</time>
      </trkpt>
      <trkpt lat="47.31532" lon="-2.24208">
        <ele>1.3999999761581</ele>
        <time>2022-06-26T09:15:42.000Z</time>
      </trkpt>
      <trkpt lat="47.31546" lon="-2.24225">
        <ele>1.3999999761581</ele>
        <time>2022-06-26T09:15:47.000Z</time>
      </trkpt>
      <trkpt lat="47.31559" lon="-2.24238">
        <ele>1.3999999761581</ele>
        <time>2022-06-26T09:15:52.000Z</time>
      </trkpt>
      <trkpt lat="47.3156" lon="-2.24243">
        <ele>1.3999999761581</ele>
        <time>2022-06-26T09:15:53.000Z</time>
      </trkpt>
      <trkpt lat="47.31562" lon="-2.24256">
        <ele>1.3999999761581</ele>
        <time>2022-06-26T09:15:56.000Z</time>
      </trkpt>
      <trkpt lat="47.3157" lon="-2.24278">
        <ele>1.3999999761581</ele>
        <time>2022-06-26T09:16:01.000Z</time>
      </trkpt>
      <trkpt lat="47.31585" lon="-2.24297">
        <ele>1.3999999761581</ele>
        <time>2022-06-26T09:16:06.000Z</time>
      </trkpt>
      <trkpt lat="47.31603" lon="-2.24319">
        <ele>1.3999999761581</ele>
        <time>2022-06-26T09:16:12.000Z</time>
      </trkpt>
      <trkpt lat="47.31622" lon="-2.24346">
        <ele>1.3999999761581</ele>
        <time>2022-06-26T09:16:19.000Z</time>
      </trkpt>
      <trkpt lat="47.31639" lon="-2.24368">
        <ele>1.3999999761581</ele>
        <time>2022-06-26T09:16:25.000Z</time>
      </trkpt>
      <trkpt lat="47.31657" lon="-2.24393">
        <ele>1.3999999761581</ele>
        <time>2022-06-26T09:16:31.000Z</time>
      </trkpt>
      <trkpt lat="47.31669" lon="-2.24418">
        <ele>1.3999999761581</ele>
        <time>2022-06-26T09:16:36.000Z</time>
      </trkpt>
      <trkpt lat="47.31675" lon="-2.24436">
        <ele>1.3999999761581</ele>
        <time>2022-06-26T09:16:40.000Z</time>
      </trkpt>
      <trkpt lat="47.31675" lon="-2.24438">
        <ele>1.3999999761581</ele>
        <time>2022-06-26T09:16:41.000Z</time>
      </trkpt>
      <trkpt lat="47.31674" lon="-2.24438">
        <ele>1.3999999761581</ele>
        <time>2022-06-26T09:16:44.000Z</time>
      </trkpt>
      <trkpt lat="47.31673" lon="-2.24441">
        <ele>1.3999999761581</ele>
        <time>2022-06-26T09:16:48.000Z</time>
      </trkpt>
      <trkpt lat="47.3167" lon="-2.24441">
        <ele>1.3999999761581</ele>
        <time>2022-06-26T09:16:54.000Z</time>
      </trkpt>
      <trkpt lat="47.31669" lon="-2.24442">
        <ele>1.3999999761581</ele>
        <time>2022-06-26T09:16:55.000Z</time>
      </trkpt>
      <trkpt lat="47.31668" lon="-2.24442">
        <ele>1.3999999761581</ele>
        <time>2022-06-26T09:16:56.000Z</time>
      </trkpt>
      <trkpt lat="47.31665" lon="-2.24449">
        <ele>1.3999999761581</ele>
        <time>2022-06-26T09:17:05.000Z</time>
      </trkpt>
      <trkpt lat="47.31661" lon="-2.24453">
        <ele>1.3999999761581</ele>
        <time>2022-06-26T09:17:07.000Z</time>
      </trkpt>
      <trkpt lat="47.31656" lon="-2.24455">
        <ele>1.3999999761581</ele>
        <time>2022-06-26T09:17:09.000Z</time>
      </trkpt>
      <trkpt lat="47.31649" lon="-2.24458">
        <ele>1.3999999761581</ele>
        <time>2022-06-26T09:17:12.000Z</time>
      </trkpt>
      <trkpt lat="47.31639" lon="-2.24458">
        <ele>1.3999999761581</ele>
        <time>2022-06-26T09:17:15.000Z</time>
      </trkpt>
      <trkpt lat="47.31634" lon="-2.24453">
        <ele>1.3999999761581</ele>
        <time>2022-06-26T09:17:17.000Z</time>
      </trkpt>
      <trkpt lat="47.31631" lon="-2.24445">
        <ele>1.3999999761581</ele>
        <time>2022-06-26T09:17:19.000Z</time>
      </trkpt>
      <trkpt lat="47.31627" lon="-2.2444">
        <ele>1.3999999761581</ele>
        <time>2022-06-26T09:17:21.000Z</time>
      </trkpt>
      <trkpt lat="47.31624" lon="-2.24439">
        <ele>1.3999999761581</ele>
        <time>2022-06-26T09:17:22.000Z</time>
      </trkpt>
      <trkpt lat="47.31617" lon="-2.24444">
        <ele>1.3999999761581</ele>
        <time>2022-06-26T09:17:25.000Z</time>
      </trkpt>
      <trkpt lat="47.31615" lon="-2.24445">
        <ele>1.3999999761581</ele>
        <time>2022-06-26T09:17:26.000Z</time>
      </trkpt>
      <trkpt lat="47.31599" lon="-2.24454">
        <ele>1.3999999761581</ele>
        <time>2022-06-26T09:17:32.000Z</time>
      </trkpt>
      <trkpt lat="47.31589" lon="-2.2447">
        <ele>1.3999999761581</ele>
        <time>2022-06-26T09:17:36.000Z</time>
      </trkpt>
      <trkpt lat="47.31568" lon="-2.2449">
        <ele>1.3999999761581</ele>
        <time>2022-06-26T09:17:42.000Z</time>
      </trkpt>
      <trkpt lat="47.31562" lon="-2.2449">
        <ele>1.3999999761581</ele>
        <time>2022-06-26T09:17:44.000Z</time>
      </trkpt>
      <trkpt lat="47.3156" lon="-2.24488">
        <ele>1.3999999761581</ele>
        <time>2022-06-26T09:17:45.000Z</time>
      </trkpt>
      <trkpt lat="47.31547" lon="-2.24476">
        <ele>1.3999999761581</ele>
        <time>2022-06-26T09:17:49.000Z</time>
      </trkpt>
      <trkpt lat="47.3153" lon="-2.24461">
        <ele>1.3999999761581</ele>
        <time>2022-06-26T09:17:54.000Z</time>
      </trkpt>
      <trkpt lat="47.31525" lon="-2.2444">
        <ele>1.3999999761581</ele>
        <time>2022-06-26T09:17:58.000Z</time>
      </trkpt>
      <trkpt lat="47.31523" lon="-2.24432">
        <ele>1.3999999761581</ele>
        <time>2022-06-26T09:18:00.000Z</time>
      </trkpt>
      <trkpt lat="47.31522" lon="-2.24414">
        <ele>1.3999999761581</ele>
        <time>2022-06-26T09:18:03.000Z</time>
      </trkpt>
      <trkpt lat="47.31517" lon="-2.24375">
        <ele>1.3999999761581</ele>
        <time>2022-06-26T09:18:09.000Z</time>
      </trkpt>
      <trkpt lat="47.31517" lon="-2.24347">
        <ele>1.3999999761581</ele>
        <time>2022-06-26T09:18:13.000Z</time>
      </trkpt>
      <trkpt lat="47.31517" lon="-2.2434">
        <ele>1.3999999761581</ele>
        <time>2022-06-26T09:18:14.000Z</time>
      </trkpt>
      <trkpt lat="47.31517" lon="-2.24326">
        <ele>1.3999999761581</ele>
        <time>2022-06-26T09:18:16.000Z</time>
      </trkpt>
      <trkpt lat="47.31515" lon="-2.24303">
        <ele>1.3999999761581</ele>
        <time>2022-06-26T09:18:20.000Z</time>
      </trkpt>
      <trkpt lat="47.31502" lon="-2.24281">
        <ele>1.3999999761581</ele>
        <time>2022-06-26T09:18:25.000Z</time>
      </trkpt>
      <trkpt lat="47.31494" lon="-2.24278">
        <ele>1.3999999761581</ele>
        <time>2022-06-26T09:18:27.000Z</time>
      </trkpt>
      <trkpt lat="47.31491" lon="-2.24278">
        <ele>1.3999999761581</ele>
        <time>2022-06-26T09:18:28.000Z</time>
      </trkpt>
      <trkpt lat="47.3147" lon="-2.24272">
        <ele>1.3999999761581</ele>
        <time>2022-06-26T09:18:33.000Z</time>
      </trkpt>
      <trkpt lat="47.31464" lon="-2.24264">
        <ele>1.3999999761581</ele>
        <time>2022-06-26T09:18:35.000Z</time>
      </trkpt>
      <trkpt lat="47.31465" lon="-2.24258">
        <ele>1.3999999761581</ele>
        <time>2022-06-26T09:18:36.000Z</time>
      </trkpt>
      <trkpt lat="47.31473" lon="-2.24249">
        <ele>1.3999999761581</ele>
        <time>2022-06-26T09:18:40.000Z</time>
      </trkpt>
      <trkpt lat="47.31477" lon="-2.2425">
        <ele>1.3999999761581</ele>
        <time>2022-06-26T09:18:41.000Z</time>
      </trkpt>
      <trkpt lat="47.31486" lon="-2.24249">
        <ele>1.3999999761581</ele>
        <time>2022-06-26T09:18:43.000Z</time>
      </trkpt>
      <trkpt lat="47.31507" lon="-2.24255">
        <ele>1.3999999761581</ele>
        <time>2022-06-26T09:18:48.000Z</time>
      </trkpt>
      <trkpt lat="47.31511" lon="-2.24258">
        <ele>1.3999999761581</ele>
        <time>2022-06-26T09:18:49.000Z</time>
      </trkpt>
      <trkpt lat="47.31529" lon="-2.24258">
        <ele>1.3999999761581</ele>
        <time>2022-06-26T09:18:53.000Z</time>
      </trkpt>
      <trkpt lat="47.31541" lon="-2.24268">
        <ele>1.3999999761581</ele>
        <time>2022-06-26T09:18:56.000Z</time>
      </trkpt>
      <trkpt lat="47.31553" lon="-2.24281">
        <ele>1.3999999761581</ele>
        <time>2022-06-26T09:18:59.000Z</time>
      </trkpt>
      <trkpt lat="47.3156" lon="-2.2429">
        <ele>1.3999999761581</ele>
        <time>2022-06-26T09:19:01.000Z</time>
      </trkpt>
      <trkpt lat="47.31576" lon="-2.24312">
        <ele>1.3999999761581</ele>
        <time>2022-06-26T09:19:06.000Z</time>
      </trkpt>
      <trkpt lat="47.31581" lon="-2.24316">
        <ele>1.3999999761581</ele>
        <time>2022-06-26T09:19:07.000Z</time>
      </trkpt>
      <trkpt lat="47.31598" lon="-2.24332">
        <ele>1.3999999761581</ele>
        <time>2022-06-26T09:19:11.000Z</time>
      </trkpt>
      <trkpt lat="47.31601" lon="-2.24335">
        <ele>1.3999999761581</ele>
        <time>2022-06-26T09:19:12.000Z</time>
      </trkpt>
      <trkpt lat="47.31611" lon="-2.24362">
        <ele>1.3999999761581</ele>
        <time>2022-06-26T09:19:17.000Z</time>
      </trkpt>
      <trkpt lat="47.31618" lon="-2.24377">
        <ele>1.3999999761581</ele>
        <time>2022-06-26T09:19:22.000Z</time>
      </trkpt>
      <trkpt lat="47.31628" lon="-2.24399">
        <ele>1.3999999761581</ele>
        <time>2022-06-26T09:19:28.000Z</time>
      </trkpt>
      <trkpt lat="47.31635" lon="-2.24411">
        <ele>1.3999999761581</ele>
        <time>2022-06-26T09:19:31.000Z</time>
      </trkpt>
      <trkpt lat="47.31641" lon="-2.24415">
        <ele>1.3999999761581</ele>
        <time>2022-06-26T09:19:33.000Z</time>
      </trkpt>
      <trkpt lat="47.31648" lon="-2.24424">
        <ele>1.3999999761581</ele>
        <time>2022-06-26T09:19:36.000Z</time>
      </trkpt>
      <trkpt lat="47.31645" lon="-2.24427">
        <ele>1.3999999761581</ele>
        <time>2022-06-26T09:19:37.000Z</time>
      </trkpt>
      <trkpt lat="47.31632" lon="-2.24428">
        <ele>1.3999999761581</ele>
        <time>2022-06-26T09:19:41.000Z</time>
      </trkpt>
      <trkpt lat="47.31615" lon="-2.24418">
        <ele>1.3999999761581</ele>
        <time>2022-06-26T09:19:46.000Z</time>
      </trkpt>
      <trkpt lat="47.316" lon="-2.24416">
        <ele>1.3999999761581</ele>
        <time>2022-06-26T09:19:50.000Z</time>
      </trkpt>
      <trkpt lat="47.31585" lon="-2.24413">
        <ele>1.3999999761581</ele>
        <time>2022-06-26T09:19:54.000Z</time>
      </trkpt>
      <trkpt lat="47.31566" lon="-2.24393">
        <ele>1.3999999761581</ele>
        <time>2022-06-26T09:20:00.000Z</time>
      </trkpt>
      <trkpt lat="47.3155" lon="-2.24387">
        <ele>1.3999999761581</ele>
        <time>2022-06-26T09:20:05.000Z</time>
      </trkpt>
      <trkpt lat="47.31522" lon="-2.24381">
        <ele>1.3999999761581</ele>
        <time>2022-06-26T09:20:11.000Z</time>
      </trkpt>
      <trkpt lat="47.31512" lon="-2.24378">
        <ele>1.3999999761581</ele>
        <time>2022-06-26T09:20:15.000Z</time>
      </trkpt>
      <trkpt lat="47.31494" lon="-2.24378">
        <ele>1.3999999761581</ele>
        <time>2022-06-26T09:20:20.000Z</time>
      </trkpt>
      <trkpt lat="47.31486" lon="-2.24383">
        <ele>1.3999999761581</ele>
        <time>2022-06-26T09:20:22.000Z</time>
      </trkpt>
      <trkpt lat="47.31477" lon="-2.2439">
        <ele>1.3999999761581</ele>
        <time>2022-06-26T09:20:24.000Z</time>
      </trkpt>
      <trkpt lat="47.31467" lon="-2.24395">
        <ele>1.3999999761581</ele>
        <time>2022-06-26T09:20:26.000Z</time>
      </trkpt>
      <trkpt lat="47.31456" lon="-2.24401">
        <ele>1.3999999761581</ele>
        <time>2022-06-26T09:20:28.000Z</time>
      </trkpt>
      <trkpt lat="47.31452" lon="-2.24407">
        <ele>1.3999999761581</ele>
        <time>2022-06-26T09:20:29.000Z</time>
      </trkpt>
      <trkpt lat="47.31435" lon="-2.24428">
        <ele>1.3999999761581</ele>
        <time>2022-06-26T09:20:33.000Z</time>
      </trkpt>
      <trkpt lat="47.31427" lon="-2.24437">
        <ele>1.3999999761581</ele>
        <time>2022-06-26T09:20:35.000Z</time>
      </trkpt>
      <trkpt lat="47.31386" lon="-2.24478">
        <ele>1.3999999761581</ele>
        <time>2022-06-26T09:20:44.000Z</time>
      </trkpt>
      <trkpt lat="47.31377" lon="-2.24487">
        <ele>1.3999999761581</ele>
        <time>2022-06-26T09:20:46.000Z</time>
      </trkpt>
      <trkpt lat="47.31361" lon="-2.24504">
        <ele>1.7999999523163</ele>
        <time>2022-06-26T09:20:50.000Z</time>
      </trkpt>
      <trkpt lat="47.31357" lon="-2.24509">
        <ele>2.2000000476837</ele>
        <time>2022-06-26T09:20:51.000Z</time>
      </trkpt>
      <trkpt lat="47.31353" lon="-2.24513">
        <ele>2.5999999046326</ele>
        <time>2022-06-26T09:20:52.000Z</time>
      </trkpt>
      <trkpt lat="47.31349" lon="-2.24518">
        <ele>3</ele>
        <time>2022-06-26T09:20:53.000Z</time>
      </trkpt>
      <trkpt lat="47.31345" lon="-2.24523">
        <ele>3.4000000953674</ele>
        <time>2022-06-26T09:20:54.000Z</time>
      </trkpt>
      <trkpt lat="47.3134" lon="-2.24527">
        <ele>3.4000000953674</ele>
        <time>2022-06-26T09:20:55.000Z</time>
      </trkpt>
      <trkpt lat="47.31326" lon="-2.24539">
        <ele>3.4000000953674</ele>
        <time>2022-06-26T09:20:58.000Z</time>
      </trkpt>
      <trkpt lat="47.31312" lon="-2.24552">
        <ele>3.4000000953674</ele>
        <time>2022-06-26T09:21:01.000Z</time>
      </trkpt>
      <trkpt lat="47.31295" lon="-2.24571">
        <ele>3.4000000953674</ele>
        <time>2022-06-26T09:21:05.000Z</time>
      </trkpt>
      <trkpt lat="47.31263" lon="-2.24601">
        <ele>3.4000000953674</ele>
        <time>2022-06-26T09:21:12.000Z</time>
      </trkpt>
      <trkpt lat="47.31242" lon="-2.2462">
        <ele>3.4000000953674</ele>
        <time>2022-06-26T09:21:17.000Z</time>
      </trkpt>
      <trkpt lat="47.31238" lon="-2.24624">
        <ele>3.4000000953674</ele>
        <time>2022-06-26T09:21:18.000Z</time>
      </trkpt>
      <trkpt lat="47.31227" lon="-2.24643">
        <ele>3.4000000953674</ele>
        <time>2022-06-26T09:21:21.000Z</time>
      </trkpt>
      <trkpt lat="47.31203" lon="-2.24668">
        <ele>3.4000000953674</ele>
        <time>2022-06-26T09:21:26.000Z</time>
      </trkpt>
      <trkpt lat="47.31174" lon="-2.24708">
        <ele>3.4000000953674</ele>
        <time>2022-06-26T09:21:32.000Z</time>
      </trkpt>
      <trkpt lat="47.31171" lon="-2.24732">
        <ele>3.4000000953674</ele>
        <time>2022-06-26T09:21:35.000Z</time>
      </trkpt>
      <trkpt lat="47.31164" lon="-2.24743">
        <ele>3.4000000953674</ele>
        <time>2022-06-26T09:21:37.000Z</time>
      </trkpt>
      <trkpt lat="47.31161" lon="-2.24749">
        <ele>3.4000000953674</ele>
        <time>2022-06-26T09:21:38.000Z</time>
      </trkpt>
      <trkpt lat="47.31149" lon="-2.24766">
        <ele>3.4000000953674</ele>
        <time>2022-06-26T09:21:41.000Z</time>
      </trkpt>
      <trkpt lat="47.31143" lon="-2.2477">
        <ele>3.4000000953674</ele>
        <time>2022-06-26T09:21:43.000Z</time>
      </trkpt>
      <trkpt lat="47.31133" lon="-2.24773">
        <ele>3</ele>
        <time>2022-06-26T09:21:47.000Z</time>
      </trkpt>
      <trkpt lat="47.31131" lon="-2.24774">
        <ele>2.5999999046326</ele>
        <time>2022-06-26T09:21:48.000Z</time>
      </trkpt>
      <trkpt lat="47.3113" lon="-2.24776">
        <ele>2.2000000476837</ele>
        <time>2022-06-26T09:21:49.000Z</time>
      </trkpt>
      <trkpt lat="47.31129" lon="-2.24778">
        <ele>1.7999999523163</ele>
        <time>2022-06-26T09:21:50.000Z</time>
      </trkpt>
      <trkpt lat="47.31128" lon="-2.2478">
        <ele>1.3999999761581</ele>
        <time>2022-06-26T09:21:51.000Z</time>
      </trkpt>
      <trkpt lat="47.31129" lon="-2.24783">
        <ele>1.3999999761581</ele>
        <time>2022-06-26T09:21:52.000Z</time>
      </trkpt>
      <trkpt lat="47.31135" lon="-2.24802">
        <ele>1.3999999761581</ele>
        <time>2022-06-26T09:21:57.000Z</time>
      </trkpt>
      <trkpt lat="47.31139" lon="-2.24825">
        <ele>1.3999999761581</ele>
        <time>2022-06-26T09:22:01.000Z</time>
      </trkpt>
      <trkpt lat="47.31143" lon="-2.24838">
        <ele>1.3999999761581</ele>
        <time>2022-06-26T09:22:03.000Z</time>
      </trkpt>
      <trkpt lat="47.31145" lon="-2.24851">
        <ele>1.3999999761581</ele>
        <time>2022-06-26T09:22:05.000Z</time>
      </trkpt>
      <trkpt lat="47.3115" lon="-2.2488">
        <ele>1.3999999761581</ele>
        <time>2022-06-26T09:22:09.000Z</time>
      </trkpt>
      <trkpt lat="47.31152" lon="-2.24886">
        <ele>1.3999999761581</ele>
        <time>2022-06-26T09:22:10.000Z</time>
      </trkpt>
      <trkpt lat="47.3116" lon="-2.24917">
        <ele>1.3999999761581</ele>
        <time>2022-06-26T09:22:14.000Z</time>
      </trkpt>
      <trkpt lat="47.31166" lon="-2.24983">
        <ele>1.3999999761581</ele>
        <time>2022-06-26T09:22:22.000Z</time>
      </trkpt>
      <trkpt lat="47.31159" lon="-2.25009">
        <ele>1.3999999761581</ele>
        <time>2022-06-26T09:22:25.000Z</time>
      </trkpt>
      <trkpt lat="47.31139" lon="-2.25031">
        <ele>1.3999999761581</ele>
        <time>2022-06-26T09:22:29.000Z</time>
      </trkpt>
      <trkpt lat="47.31104" lon="-2.25054">
        <ele>1.7999999523163</ele>
        <time>2022-06-26T09:22:35.000Z</time>
      </trkpt>
      <trkpt lat="47.31098" lon="-2.25058">
        <ele>2.4000000953674</ele>
        <time>2022-06-26T09:22:36.000Z</time>
      </trkpt>
      <trkpt lat="47.31092" lon="-2.25061">
        <ele>2.7999999523163</ele>
        <time>2022-06-26T09:22:37.000Z</time>
      </trkpt>
      <trkpt lat="47.31086" lon="-2.25064">
        <ele>3.2000000476837</ele>
        <time>2022-06-26T09:22:38.000Z</time>
      </trkpt>
      <trkpt lat="47.31081" lon="-2.25067">
        <ele>3.5999999046326</ele>
        <time>2022-06-26T09:22:39.000Z</time>
      </trkpt>
      <trkpt lat="47.31065" lon="-2.25078">
        <ele>3.5999999046326</ele>
        <time>2022-06-26T09:22:42.000Z</time>
      </trkpt>
      <trkpt lat="47.31048" lon="-2.25105">
        <ele>3.5999999046326</ele>
        <time>2022-06-26T09:22:46.000Z</time>
      </trkpt>
      <trkpt lat="47.31019" lon="-2.25158">
        <ele>3.5999999046326</ele>
        <time>2022-06-26T09:22:53.000Z</time>
      </trkpt>
      <trkpt lat="47.31007" lon="-2.25182">
        <ele>3.5999999046326</ele>
        <time>2022-06-26T09:22:56.000Z</time>
      </trkpt>
      <trkpt lat="47.31003" lon="-2.25198">
        <ele>3.5999999046326</ele>
        <time>2022-06-26T09:22:58.000Z</time>
      </trkpt>
      <trkpt lat="47.31001" lon="-2.25211">
        <ele>3.5999999046326</ele>
        <time>2022-06-26T09:23:00.000Z</time>
      </trkpt>
      <trkpt lat="47.30998" lon="-2.25228">
        <ele>3.5999999046326</ele>
        <time>2022-06-26T09:23:03.000Z</time>
      </trkpt>
      <trkpt lat="47.30992" lon="-2.25247">
        <ele>4</ele>
        <time>2022-06-26T09:23:08.000Z</time>
      </trkpt>
      <trkpt lat="47.30991" lon="-2.25252">
        <ele>4.4000000953674</ele>
        <time>2022-06-26T09:23:09.000Z</time>
      </trkpt>
      <trkpt lat="47.3099" lon="-2.25257">
        <ele>4.8000001907349</ele>
        <time>2022-06-26T09:23:10.000Z</time>
      </trkpt>
      <trkpt lat="47.3099" lon="-2.25262">
        <ele>5.1999998092651</ele>
        <time>2022-06-26T09:23:11.000Z</time>
      </trkpt>
      <trkpt lat="47.30989" lon="-2.25268">
        <ele>5.5999999046326</ele>
        <time>2022-06-26T09:23:12.000Z</time>
      </trkpt>
      <trkpt lat="47.30984" lon="-2.25277">
        <ele>5.5999999046326</ele>
        <time>2022-06-26T09:23:14.000Z</time>
      </trkpt>
      <trkpt lat="47.30973" lon="-2.25296">
        <ele>5.5999999046326</ele>
        <time>2022-06-26T09:23:18.000Z</time>
      </trkpt>
      <trkpt lat="47.3097" lon="-2.25309">
        <ele>5.5999999046326</ele>
        <time>2022-06-26T09:23:20.000Z</time>
      </trkpt>
      <trkpt lat="47.30962" lon="-2.2535">
        <ele>5.5999999046326</ele>
        <time>2022-06-26T09:23:26.000Z</time>
      </trkpt>
      <trkpt lat="47.3095" lon="-2.25383">
        <ele>6</ele>
        <time>2022-06-26T09:23:32.000Z</time>
      </trkpt>
      <trkpt lat="47.30948" lon="-2.25388">
        <ele>6.4000000953674</ele>
        <time>2022-06-26T09:23:33.000Z</time>
      </trkpt>
      <trkpt lat="47.30946" lon="-2.25392">
        <ele>7</ele>
        <time>2022-06-26T09:23:34.000Z</time>
      </trkpt>
      <trkpt lat="47.30944" lon="-2.25394">
        <ele>7.4000000953674</ele>
        <time>2022-06-26T09:23:35.000Z</time>
      </trkpt>
      <trkpt lat="47.30941" lon="-2.25396">
        <ele>7.8000001907349</ele>
        <time>2022-06-26T09:23:36.000Z</time>
      </trkpt>
      <trkpt lat="47.30925" lon="-2.25397">
        <ele>7.8000001907349</ele>
        <time>2022-06-26T09:23:40.000Z</time>
      </trkpt>
      <trkpt lat="47.30915" lon="-2.25397">
        <ele>7.8000001907349</ele>
        <time>2022-06-26T09:23:42.000Z</time>
      </trkpt>
      <trkpt lat="47.30891" lon="-2.25399">
        <ele>7.8000001907349</ele>
        <time>2022-06-26T09:23:47.000Z</time>
      </trkpt>
      <trkpt lat="47.30871" lon="-2.25399">
        <ele>7.8000001907349</ele>
        <time>2022-06-26T09:23:53.000Z</time>
      </trkpt>
      <trkpt lat="47.30857" lon="-2.25406">
        <ele>7.8000001907349</ele>
        <time>2022-06-26T09:23:57.000Z</time>
      </trkpt>
      <trkpt lat="47.30854" lon="-2.25423">
        <ele>7.8000001907349</ele>
        <time>2022-06-26T09:24:00.000Z</time>
      </trkpt>
      <trkpt lat="47.30856" lon="-2.25435">
        <ele>7.8000001907349</ele>
        <time>2022-06-26T09:24:02.000Z</time>
      </trkpt>
      <trkpt lat="47.30858" lon="-2.25462">
        <ele>7.8000001907349</ele>
        <time>2022-06-26T09:24:06.000Z</time>
      </trkpt>
      <trkpt lat="47.30864" lon="-2.25522">
        <ele>8.1999998092651</ele>
        <time>2022-06-26T09:24:14.000Z</time>
      </trkpt>
      <trkpt lat="47.30865" lon="-2.2553">
        <ele>8.6000003814697</ele>
        <time>2022-06-26T09:24:15.000Z</time>
      </trkpt>
      <trkpt lat="47.30866" lon="-2.25538">
        <ele>9</ele>
        <time>2022-06-26T09:24:16.000Z</time>
      </trkpt>
      <trkpt lat="47.30867" lon="-2.25546">
        <ele>9.3999996185303</ele>
        <time>2022-06-26T09:24:17.000Z</time>
      </trkpt>
      <trkpt lat="47.30868" lon="-2.25554">
        <ele>9.8000001907349</ele>
        <time>2022-06-26T09:24:18.000Z</time>
      </trkpt>
      <trkpt lat="47.30871" lon="-2.25583">
        <ele>9.8000001907349</ele>
        <time>2022-06-26T09:24:22.000Z</time>
      </trkpt>
      <trkpt lat="47.30874" lon="-2.25637">
        <ele>9.8000001907349</ele>
        <time>2022-06-26T09:24:29.000Z</time>
      </trkpt>
      <trkpt lat="47.30878" lon="-2.25684">
        <ele>9.8000001907349</ele>
        <time>2022-06-26T09:24:35.000Z</time>
      </trkpt>
      <trkpt lat="47.30878" lon="-2.25706">
        <ele>10.199999809265</ele>
        <time>2022-06-26T09:24:38.000Z</time>
      </trkpt>
      <trkpt lat="47.30877" lon="-2.25713">
        <ele>10.60000038147</ele>
        <time>2022-06-26T09:24:39.000Z</time>
      </trkpt>
      <trkpt lat="47.30877" lon="-2.25721">
        <ele>11</ele>
        <time>2022-06-26T09:24:40.000Z</time>
      </trkpt>
      <trkpt lat="47.30877" lon="-2.25729">
        <ele>11.39999961853</ele>
        <time>2022-06-26T09:24:41.000Z</time>
      </trkpt>
      <trkpt lat="47.30878" lon="-2.25737">
        <ele>11.800000190735</ele>
        <time>2022-06-26T09:24:42.000Z</time>
      </trkpt>
      <trkpt lat="47.30882" lon="-2.25774">
        <ele>11.800000190735</ele>
        <time>2022-06-26T09:24:47.000Z</time>
      </trkpt>
      <trkpt lat="47.30883" lon="-2.25781">
        <ele>11.800000190735</ele>
        <time>2022-06-26T09:24:48.000Z</time>
      </trkpt>
      <trkpt lat="47.30895" lon="-2.25819">
        <ele>11.800000190735</ele>
        <time>2022-06-26T09:24:54.000Z</time>
      </trkpt>
      <trkpt lat="47.30907" lon="-2.25859">
        <ele>11.800000190735</ele>
        <time>2022-06-26T09:25:01.000Z</time>
      </trkpt>
      <trkpt lat="47.30909" lon="-2.25887">
        <ele>11.800000190735</ele>
        <time>2022-06-26T09:25:06.000Z</time>
      </trkpt>
      <trkpt lat="47.309" lon="-2.25905">
        <ele>11.800000190735</ele>
        <time>2022-06-26T09:25:10.000Z</time>
      </trkpt>
      <trkpt lat="47.30872" lon="-2.25937">
        <ele>11.800000190735</ele>
        <time>2022-06-26T09:25:18.000Z</time>
      </trkpt>
      <trkpt lat="47.30845" lon="-2.2597">
        <ele>11.800000190735</ele>
        <time>2022-06-26T09:25:26.000Z</time>
      </trkpt>
      <trkpt lat="47.30823" lon="-2.25992">
        <ele>11.800000190735</ele>
        <time>2022-06-26T09:25:32.000Z</time>
      </trkpt>
      <trkpt lat="47.30796" lon="-2.26018">
        <ele>11.800000190735</ele>
        <time>2022-06-26T09:25:39.000Z</time>
      </trkpt>
      <trkpt lat="47.30768" lon="-2.26034">
        <ele>11.800000190735</ele>
        <time>2022-06-26T09:25:45.000Z</time>
      </trkpt>
      <trkpt lat="47.30727" lon="-2.26056">
        <ele>11.800000190735</ele>
        <time>2022-06-26T09:25:53.000Z</time>
      </trkpt>
      <trkpt lat="47.30689" lon="-2.26079">
        <ele>11.800000190735</ele>
        <time>2022-06-26T09:26:00.000Z</time>
      </trkpt>
      <trkpt lat="47.30667" lon="-2.2609">
        <ele>11.800000190735</ele>
        <time>2022-06-26T09:26:04.000Z</time>
      </trkpt>
      <trkpt lat="47.30657" lon="-2.26097">
        <ele>11.800000190735</ele>
        <time>2022-06-26T09:26:06.000Z</time>
      </trkpt>
      <trkpt lat="47.30629" lon="-2.26112">
        <ele>11.800000190735</ele>
        <time>2022-06-26T09:26:11.000Z</time>
      </trkpt>
      <trkpt lat="47.30625" lon="-2.26117">
        <ele>11.800000190735</ele>
        <time>2022-06-26T09:26:12.000Z</time>
      </trkpt>
      <trkpt lat="47.30614" lon="-2.26138">
        <ele>11.800000190735</ele>
        <time>2022-06-26T09:26:16.000Z</time>
      </trkpt>
      <trkpt lat="47.30598" lon="-2.2617">
        <ele>11.800000190735</ele>
        <time>2022-06-26T09:26:22.000Z</time>
      </trkpt>
      <trkpt lat="47.30595" lon="-2.26177">
        <ele>11.800000190735</ele>
        <time>2022-06-26T09:26:23.000Z</time>
      </trkpt>
      <trkpt lat="47.30589" lon="-2.26199">
        <ele>11.800000190735</ele>
        <time>2022-06-26T09:26:26.000Z</time>
      </trkpt>
      <trkpt lat="47.30587" lon="-2.26206">
        <ele>11.39999961853</ele>
        <time>2022-06-26T09:26:27.000Z</time>
      </trkpt>
      <trkpt lat="47.30585" lon="-2.26214">
        <ele>11</ele>
        <time>2022-06-26T09:26:28.000Z</time>
      </trkpt>
      <trkpt lat="47.30583" lon="-2.26222">
        <ele>10.60000038147</ele>
        <time>2022-06-26T09:26:29.000Z</time>
      </trkpt>
      <trkpt lat="47.3058" lon="-2.2623">
        <ele>9.8000001907349</ele>
        <time>2022-06-26T09:26:30.000Z</time>
      </trkpt>
      <trkpt lat="47.3057" lon="-2.26267">
        <ele>9.8000001907349</ele>
        <time>2022-06-26T09:26:35.000Z</time>
      </trkpt>
      <trkpt lat="47.30558" lon="-2.26317">
        <ele>9.8000001907349</ele>
        <time>2022-06-26T09:26:42.000Z</time>
      </trkpt>
      <trkpt lat="47.30551" lon="-2.26351">
        <ele>9.8000001907349</ele>
        <time>2022-06-26T09:26:46.000Z</time>
      </trkpt>
      <trkpt lat="47.30546" lon="-2.26366">
        <ele>9.8000001907349</ele>
        <time>2022-06-26T09:26:48.000Z</time>
      </trkpt>
      <trkpt lat="47.30526" lon="-2.26416">
        <ele>9.8000001907349</ele>
        <time>2022-06-26T09:26:55.000Z</time>
      </trkpt>
      <trkpt lat="47.30512" lon="-2.26446">
        <ele>9.8000001907349</ele>
        <time>2022-06-26T09:27:00.000Z</time>
      </trkpt>
      <trkpt lat="47.30509" lon="-2.26452">
        <ele>9.8000001907349</ele>
        <time>2022-06-26T09:27:01.000Z</time>
      </trkpt>
      <trkpt lat="47.30498" lon="-2.26479">
        <ele>9.8000001907349</ele>
        <time>2022-06-26T09:27:05.000Z</time>
      </trkpt>
      <trkpt lat="47.30496" lon="-2.26486">
        <ele>9.8000001907349</ele>
        <time>2022-06-26T09:27:06.000Z</time>
      </trkpt>
      <trkpt lat="47.30481" lon="-2.26519">
        <ele>9.8000001907349</ele>
        <time>2022-06-26T09:27:11.000Z</time>
      </trkpt>
      <trkpt lat="47.30476" lon="-2.26532">
        <ele>9.8000001907349</ele>
        <time>2022-06-26T09:27:13.000Z</time>
      </trkpt>
      <trkpt lat="47.30467" lon="-2.2655">
        <ele>9.8000001907349</ele>
        <time>2022-06-26T09:27:16.000Z</time>
      </trkpt>
      <trkpt lat="47.30447" lon="-2.2659">
        <ele>9.8000001907349</ele>
        <time>2022-06-26T09:27:23.000Z</time>
      </trkpt>
      <trkpt lat="47.30439" lon="-2.26608">
        <ele>9.8000001907349</ele>
        <time>2022-06-26T09:27:26.000Z</time>
      </trkpt>
      <trkpt lat="47.30433" lon="-2.26619">
        <ele>9.8000001907349</ele>
        <time>2022-06-26T09:27:28.000Z</time>
      </trkpt>
      <trkpt lat="47.30425" lon="-2.26635">
        <ele>9.8000001907349</ele>
        <time>2022-06-26T09:27:31.000Z</time>
      </trkpt>
      <trkpt lat="47.3042" lon="-2.26645">
        <ele>9.8000001907349</ele>
        <time>2022-06-26T09:27:33.000Z</time>
      </trkpt>
      <trkpt lat="47.30403" lon="-2.26681">
        <ele>9.8000001907349</ele>
        <time>2022-06-26T09:27:39.000Z</time>
      </trkpt>
      <trkpt lat="47.30381" lon="-2.26719">
        <ele>9.8000001907349</ele>
        <time>2022-06-26T09:27:45.000Z</time>
      </trkpt>
      <trkpt lat="47.30375" lon="-2.26732">
        <ele>9.8000001907349</ele>
        <time>2022-06-26T09:27:47.000Z</time>
      </trkpt>
      <trkpt lat="47.30368" lon="-2.26744">
        <ele>9.8000001907349</ele>
        <time>2022-06-26T09:27:49.000Z</time>
      </trkpt>
      <trkpt lat="47.30352" lon="-2.26775">
        <ele>9.8000001907349</ele>
        <time>2022-06-26T09:27:54.000Z</time>
      </trkpt>
      <trkpt lat="47.30349" lon="-2.26782">
        <ele>9.8000001907349</ele>
        <time>2022-06-26T09:27:55.000Z</time>
      </trkpt>
      <trkpt lat="47.30348" lon="-2.26796">
        <ele>9.8000001907349</ele>
        <time>2022-06-26T09:27:57.000Z</time>
      </trkpt>
      <trkpt lat="47.3035" lon="-2.2681">
        <ele>9.8000001907349</ele>
        <time>2022-06-26T09:27:59.000Z</time>
      </trkpt>
      <trkpt lat="47.30352" lon="-2.26823">
        <ele>9.8000001907349</ele>
        <time>2022-06-26T09:28:01.000Z</time>
      </trkpt>
      <trkpt lat="47.30352" lon="-2.2683">
        <ele>9.8000001907349</ele>
        <time>2022-06-26T09:28:02.000Z</time>
      </trkpt>
      <trkpt lat="47.30359" lon="-2.26869">
        <ele>9.8000001907349</ele>
        <time>2022-06-26T09:28:08.000Z</time>
      </trkpt>
      <trkpt lat="47.3037" lon="-2.26926">
        <ele>9.8000001907349</ele>
        <time>2022-06-26T09:28:15.000Z</time>
      </trkpt>
      <trkpt lat="47.30371" lon="-2.26933">
        <ele>9.8000001907349</ele>
        <time>2022-06-26T09:28:16.000Z</time>
      </trkpt>
      <trkpt lat="47.30372" lon="-2.26956">
        <ele>9.8000001907349</ele>
        <time>2022-06-26T09:28:19.000Z</time>
      </trkpt>
      <trkpt lat="47.30371" lon="-2.26967">
        <ele>9.8000001907349</ele>
        <time>2022-06-26T09:28:20.000Z</time>
      </trkpt>
      <trkpt lat="47.30369" lon="-2.27002">
        <ele>9.8000001907349</ele>
        <time>2022-06-26T09:28:23.000Z</time>
      </trkpt>
      <trkpt lat="47.30368" lon="-2.2703">
        <ele>9.8000001907349</ele>
        <time>2022-06-26T09:28:26.000Z</time>
      </trkpt>
      <trkpt lat="47.30369" lon="-2.27044">
        <ele>9.3999996185303</ele>
        <time>2022-06-26T09:28:28.000Z</time>
      </trkpt>
      <trkpt lat="47.30369" lon="-2.27049">
        <ele>9</ele>
        <time>2022-06-26T09:28:29.000Z</time>
      </trkpt>
      <trkpt lat="47.3037" lon="-2.27053">
        <ele>8.6000003814697</ele>
        <time>2022-06-26T09:28:30.000Z</time>
      </trkpt>
      <trkpt lat="47.30371" lon="-2.27058">
        <ele>8.1999998092651</ele>
        <time>2022-06-26T09:28:31.000Z</time>
      </trkpt>
      <trkpt lat="47.30373" lon="-2.2706">
        <ele>7.8000001907349</ele>
        <time>2022-06-26T09:28:32.000Z</time>
      </trkpt>
      <trkpt lat="47.30377" lon="-2.27061">
        <ele>7.8000001907349</ele>
        <time>2022-06-26T09:28:33.000Z</time>
      </trkpt>
      <trkpt lat="47.30393" lon="-2.27071">
        <ele>7.8000001907349</ele>
        <time>2022-06-26T09:28:37.000Z</time>
      </trkpt>
      <trkpt lat="47.30396" lon="-2.27074">
        <ele>7.8000001907349</ele>
        <time>2022-06-26T09:28:38.000Z</time>
      </trkpt>
      <trkpt lat="47.30402" lon="-2.27086">
        <ele>7.8000001907349</ele>
        <time>2022-06-26T09:28:42.000Z</time>
      </trkpt>
      <trkpt lat="47.30403" lon="-2.27088">
        <ele>7.8000001907349</ele>
        <time>2022-06-26T09:28:43.000Z</time>
      </trkpt>
      <trkpt lat="47.30407" lon="-2.2711">
        <ele>7.8000001907349</ele>
        <time>2022-06-26T09:28:49.000Z</time>
      </trkpt>
      <trkpt lat="47.30411" lon="-2.27142">
        <ele>7.8000001907349</ele>
        <time>2022-06-26T09:28:55.000Z</time>
      </trkpt>
      <trkpt lat="47.3041" lon="-2.27147">
        <ele>7.8000001907349</ele>
        <time>2022-06-26T09:28:56.000Z</time>
      </trkpt>
      <trkpt lat="47.30405" lon="-2.27154">
        <ele>7.8000001907349</ele>
        <time>2022-06-26T09:28:58.000Z</time>
      </trkpt>
      <trkpt lat="47.30393" lon="-2.27161">
        <ele>7.8000001907349</ele>
        <time>2022-06-26T09:29:01.000Z</time>
      </trkpt>
      <trkpt lat="47.30384" lon="-2.27163">
        <ele>7.8000001907349</ele>
        <time>2022-06-26T09:29:03.000Z</time>
      </trkpt>
      <trkpt lat="47.30354" lon="-2.27171">
        <ele>7.8000001907349</ele>
        <time>2022-06-26T09:29:09.000Z</time>
      </trkpt>
      <trkpt lat="47.30321" lon="-2.27178">
        <ele>7.8000001907349</ele>
        <time>2022-06-26T09:29:15.000Z</time>
      </trkpt>
      <trkpt lat="47.30315" lon="-2.2718">
        <ele>7.8000001907349</ele>
        <time>2022-06-26T09:29:16.000Z</time>
      </trkpt>
      <trkpt lat="47.30287" lon="-2.27183">
        <ele>7.8000001907349</ele>
        <time>2022-06-26T09:29:21.000Z</time>
      </trkpt>
      <trkpt lat="47.30282" lon="-2.27182">
        <ele>7.8000001907349</ele>
        <time>2022-06-26T09:29:22.000Z</time>
      </trkpt>
      <trkpt lat="47.3025" lon="-2.27171">
        <ele>7.8000001907349</ele>
        <time>2022-06-26T09:29:28.000Z</time>
      </trkpt>
      <trkpt lat="47.30225" lon="-2.27158">
        <ele>7.8000001907349</ele>
        <time>2022-06-26T09:29:34.000Z</time>
      </trkpt>
      <trkpt lat="47.30218" lon="-2.27154">
        <ele>8.1999998092651</ele>
        <time>2022-06-26T09:29:36.000Z</time>
      </trkpt>
      <trkpt lat="47.30213" lon="-2.27155">
        <ele>8.6000003814697</ele>
        <time>2022-06-26T09:29:37.000Z</time>
      </trkpt>
      <trkpt lat="47.30208" lon="-2.27157">
        <ele>9</ele>
        <time>2022-06-26T09:29:38.000Z</time>
      </trkpt>
      <trkpt lat="47.30202" lon="-2.27162">
        <ele>9.3999996185303</ele>
        <time>2022-06-26T09:29:39.000Z</time>
      </trkpt>
      <trkpt lat="47.30197" lon="-2.27167">
        <ele>9.8000001907349</ele>
        <time>2022-06-26T09:29:40.000Z</time>
      </trkpt>
      <trkpt lat="47.30192" lon="-2.27173">
        <ele>9.8000001907349</ele>
        <time>2022-06-26T09:29:41.000Z</time>
      </trkpt>
      <trkpt lat="47.30187" lon="-2.27179">
        <ele>9.8000001907349</ele>
        <time>2022-06-26T09:29:42.000Z</time>
      </trkpt>
      <trkpt lat="47.3016" lon="-2.27214">
        <ele>9.8000001907349</ele>
        <time>2022-06-26T09:29:48.000Z</time>
      </trkpt>
      <trkpt lat="47.30123" lon="-2.27261">
        <ele>9.8000001907349</ele>
        <time>2022-06-26T09:29:56.000Z</time>
      </trkpt>
      <trkpt lat="47.30098" lon="-2.27301">
        <ele>9.8000001907349</ele>
        <time>2022-06-26T09:30:02.000Z</time>
      </trkpt>
      <trkpt lat="47.30095" lon="-2.27309">
        <ele>9.8000001907349</ele>
        <time>2022-06-26T09:30:03.000Z</time>
      </trkpt>
      <trkpt lat="47.30081" lon="-2.27341">
        <ele>9.8000001907349</ele>
        <time>2022-06-26T09:30:07.000Z</time>
      </trkpt>
      <trkpt lat="47.30056" lon="-2.27394">
        <ele>9.8000001907349</ele>
        <time>2022-06-26T09:30:14.000Z</time>
      </trkpt>
      <trkpt lat="47.30029" lon="-2.27432">
        <ele>9.8000001907349</ele>
        <time>2022-06-26T09:30:20.000Z</time>
      </trkpt>
      <trkpt lat="47.30008" lon="-2.27462">
        <ele>9.8000001907349</ele>
        <time>2022-06-26T09:30:25.000Z</time>
      </trkpt>
      <trkpt lat="47.29999" lon="-2.27484">
        <ele>9.8000001907349</ele>
        <time>2022-06-26T09:30:28.000Z</time>
      </trkpt>
      <trkpt lat="47.29994" lon="-2.275">
        <ele>9.8000001907349</ele>
        <time>2022-06-26T09:30:30.000Z</time>
      </trkpt>
      <trkpt lat="47.2999" lon="-2.27515">
        <ele>9.8000001907349</ele>
        <time>2022-06-26T09:30:32.000Z</time>
      </trkpt>
      <trkpt lat="47.29983" lon="-2.27546">
        <ele>9.8000001907349</ele>
        <time>2022-06-26T09:30:36.000Z</time>
      </trkpt>
      <trkpt lat="47.29976" lon="-2.27576">
        <ele>9.8000001907349</ele>
        <time>2022-06-26T09:30:40.000Z</time>
      </trkpt>
      <trkpt lat="47.29967" lon="-2.27608">
        <ele>9.8000001907349</ele>
        <time>2022-06-26T09:30:44.000Z</time>
      </trkpt>
      <trkpt lat="47.29966" lon="-2.27617">
        <ele>9.8000001907349</ele>
        <time>2022-06-26T09:30:45.000Z</time>
      </trkpt>
      <trkpt lat="47.29958" lon="-2.27678">
        <ele>9.8000001907349</ele>
        <time>2022-06-26T09:30:52.000Z</time>
      </trkpt>
      <trkpt lat="47.29953" lon="-2.2773">
        <ele>10.199999809265</ele>
        <time>2022-06-26T09:30:58.000Z</time>
      </trkpt>
      <trkpt lat="47.29953" lon="-2.27739">
        <ele>10.800000190735</ele>
        <time>2022-06-26T09:30:59.000Z</time>
      </trkpt>
      <trkpt lat="47.29952" lon="-2.27748">
        <ele>11.199999809265</ele>
        <time>2022-06-26T09:31:00.000Z</time>
      </trkpt>
      <trkpt lat="47.29952" lon="-2.27757">
        <ele>12</ele>
        <time>2022-06-26T09:31:01.000Z</time>
      </trkpt>
      <trkpt lat="47.29951" lon="-2.27766">
        <ele>12</ele>
        <time>2022-06-26T09:31:02.000Z</time>
      </trkpt>
      <trkpt lat="47.29949" lon="-2.27774">
        <ele>12</ele>
        <time>2022-06-26T09:31:03.000Z</time>
      </trkpt>
      <trkpt lat="47.29946" lon="-2.27799">
        <ele>12</ele>
        <time>2022-06-26T09:31:06.000Z</time>
      </trkpt>
      <trkpt lat="47.2994" lon="-2.27849">
        <ele>12</ele>
        <time>2022-06-26T09:31:12.000Z</time>
      </trkpt>
      <trkpt lat="47.29936" lon="-2.27908">
        <ele>12</ele>
        <time>2022-06-26T09:31:19.000Z</time>
      </trkpt>
      <trkpt lat="47.29932" lon="-2.27964">
        <ele>12</ele>
        <time>2022-06-26T09:31:26.000Z</time>
      </trkpt>
      <trkpt lat="47.29932" lon="-2.27992">
        <ele>12</ele>
        <time>2022-06-26T09:31:30.000Z</time>
      </trkpt>
      <trkpt lat="47.29935" lon="-2.28007">
        <ele>12</ele>
        <time>2022-06-26T09:31:32.000Z</time>
      </trkpt>
      <trkpt lat="47.29938" lon="-2.28022">
        <ele>12</ele>
        <time>2022-06-26T09:31:34.000Z</time>
      </trkpt>
      <trkpt lat="47.29943" lon="-2.28035">
        <ele>12</ele>
        <time>2022-06-26T09:31:36.000Z</time>
      </trkpt>
      <trkpt lat="47.29948" lon="-2.28044">
        <ele>12</ele>
        <time>2022-06-26T09:31:38.000Z</time>
      </trkpt>
      <trkpt lat="47.2996" lon="-2.28046">
        <ele>12</ele>
        <time>2022-06-26T09:31:41.000Z</time>
      </trkpt>
      <trkpt lat="47.29969" lon="-2.28042">
        <ele>12</ele>
        <time>2022-06-26T09:31:43.000Z</time>
      </trkpt>
      <trkpt lat="47.29984" lon="-2.28036">
        <ele>12</ele>
        <time>2022-06-26T09:31:47.000Z</time>
      </trkpt>
      <trkpt lat="47.29987" lon="-2.28036">
        <ele>12</ele>
        <time>2022-06-26T09:31:48.000Z</time>
      </trkpt>
      <trkpt lat="47.2999" lon="-2.28039">
        <ele>12</ele>
        <time>2022-06-26T09:31:50.000Z</time>
      </trkpt>
      <trkpt lat="47.29989" lon="-2.28046">
        <ele>12</ele>
        <time>2022-06-26T09:31:54.000Z</time>
      </trkpt>
      <trkpt lat="47.29988" lon="-2.28049">
        <ele>12</ele>
        <time>2022-06-26T09:31:55.000Z</time>
      </trkpt>
      <trkpt lat="47.29985" lon="-2.28061">
        <ele>12</ele>
        <time>2022-06-26T09:32:00.000Z</time>
      </trkpt>
      <trkpt lat="47.2998" lon="-2.28079">
        <ele>12</ele>
        <time>2022-06-26T09:32:04.000Z</time>
      </trkpt>
      <trkpt lat="47.29971" lon="-2.28112">
        <ele>12</ele>
        <time>2022-06-26T09:32:09.000Z</time>
      </trkpt>
      <trkpt lat="47.2996" lon="-2.28154">
        <ele>12</ele>
        <time>2022-06-26T09:32:15.000Z</time>
      </trkpt>
      <trkpt lat="47.2995" lon="-2.28192">
        <ele>12</ele>
        <time>2022-06-26T09:32:21.000Z</time>
      </trkpt>
      <trkpt lat="47.2995" lon="-2.28208">
        <ele>12</ele>
        <time>2022-06-26T09:32:23.000Z</time>
      </trkpt>
      <trkpt lat="47.29959" lon="-2.28268">
        <ele>12</ele>
        <time>2022-06-26T09:32:31.000Z</time>
      </trkpt>
      <trkpt lat="47.29963" lon="-2.28296">
        <ele>12</ele>
        <time>2022-06-26T09:32:35.000Z</time>
      </trkpt>
      <trkpt lat="47.29964" lon="-2.28303">
        <ele>12</ele>
        <time>2022-06-26T09:32:36.000Z</time>
      </trkpt>
      <trkpt lat="47.29965" lon="-2.2832">
        <ele>12</ele>
        <time>2022-06-26T09:32:38.000Z</time>
      </trkpt>
      <trkpt lat="47.29963" lon="-2.28345">
        <ele>12</ele>
        <time>2022-06-26T09:32:41.000Z</time>
      </trkpt>
      <trkpt lat="47.29961" lon="-2.2839">
        <ele>12</ele>
        <time>2022-06-26T09:32:46.000Z</time>
      </trkpt>
      <trkpt lat="47.29956" lon="-2.28421">
        <ele>12</ele>
        <time>2022-06-26T09:32:50.000Z</time>
      </trkpt>
      <trkpt lat="47.2995" lon="-2.28449">
        <ele>12</ele>
        <time>2022-06-26T09:32:54.000Z</time>
      </trkpt>
      <trkpt lat="47.2995" lon="-2.28457">
        <ele>12</ele>
        <time>2022-06-26T09:32:55.000Z</time>
      </trkpt>
      <trkpt lat="47.29949" lon="-2.28501">
        <ele>12</ele>
        <time>2022-06-26T09:33:00.000Z</time>
      </trkpt>
      <trkpt lat="47.29948" lon="-2.28507">
        <ele>12</ele>
        <time>2022-06-26T09:33:01.000Z</time>
      </trkpt>
      <trkpt lat="47.29945" lon="-2.28523">
        <ele>12</ele>
        <time>2022-06-26T09:33:03.000Z</time>
      </trkpt>
      <trkpt lat="47.29944" lon="-2.28539">
        <ele>12</ele>
        <time>2022-06-26T09:33:05.000Z</time>
      </trkpt>
      <trkpt lat="47.29947" lon="-2.28557">
        <ele>12</ele>
        <time>2022-06-26T09:33:08.000Z</time>
      </trkpt>
      <trkpt lat="47.29946" lon="-2.28563">
        <ele>12</ele>
        <time>2022-06-26T09:33:09.000Z</time>
      </trkpt>
      <trkpt lat="47.29945" lon="-2.28575">
        <ele>12</ele>
        <time>2022-06-26T09:33:13.000Z</time>
      </trkpt>
      <trkpt lat="47.2994" lon="-2.28587">
        <ele>12</ele>
        <time>2022-06-26T09:33:19.000Z</time>
      </trkpt>
      <trkpt lat="47.29935" lon="-2.28612">
        <ele>12</ele>
        <time>2022-06-26T09:33:26.000Z</time>
      </trkpt>
      <trkpt lat="47.29931" lon="-2.28644">
        <ele>12</ele>
        <time>2022-06-26T09:33:32.000Z</time>
      </trkpt>
      <trkpt lat="47.29924" lon="-2.28688">
        <ele>12</ele>
        <time>2022-06-26T09:33:39.000Z</time>
      </trkpt>
      <trkpt lat="47.29922" lon="-2.28704">
        <ele>12</ele>
        <time>2022-06-26T09:33:41.000Z</time>
      </trkpt>
      <trkpt lat="47.29918" lon="-2.28729">
        <ele>12</ele>
        <time>2022-06-26T09:33:44.000Z</time>
      </trkpt>
      <trkpt lat="47.2991" lon="-2.28795">
        <ele>12</ele>
        <time>2022-06-26T09:33:51.000Z</time>
      </trkpt>
      <trkpt lat="47.29906" lon="-2.28822">
        <ele>12</ele>
        <time>2022-06-26T09:33:54.000Z</time>
      </trkpt>
      <trkpt lat="47.29902" lon="-2.28841">
        <ele>12</ele>
        <time>2022-06-26T09:33:56.000Z</time>
      </trkpt>
      <trkpt lat="47.29895" lon="-2.28874">
        <ele>12</ele>
        <time>2022-06-26T09:34:00.000Z</time>
      </trkpt>
      <trkpt lat="47.29891" lon="-2.2888">
        <ele>11.60000038147</ele>
        <time>2022-06-26T09:34:01.000Z</time>
      </trkpt>
      <trkpt lat="47.29885" lon="-2.28888">
        <ele>11.199999809265</ele>
        <time>2022-06-26T09:34:02.000Z</time>
      </trkpt>
      <trkpt lat="47.29883" lon="-2.28896">
        <ele>10.800000190735</ele>
        <time>2022-06-26T09:34:03.000Z</time>
      </trkpt>
      <trkpt lat="47.29881" lon="-2.28905">
        <ele>10.39999961853</ele>
        <time>2022-06-26T09:34:04.000Z</time>
      </trkpt>
      <trkpt lat="47.2988" lon="-2.28913">
        <ele>10</ele>
        <time>2022-06-26T09:34:05.000Z</time>
      </trkpt>
      <trkpt lat="47.2988" lon="-2.28929">
        <ele>10</ele>
        <time>2022-06-26T09:34:07.000Z</time>
      </trkpt>
      <trkpt lat="47.29882" lon="-2.28939">
        <ele>10</ele>
        <time>2022-06-26T09:34:09.000Z</time>
      </trkpt>
      <trkpt lat="47.29895" lon="-2.28944">
        <ele>10</ele>
        <time>2022-06-26T09:34:12.000Z</time>
      </trkpt>
      <trkpt lat="47.29901" lon="-2.28945">
        <ele>10</ele>
        <time>2022-06-26T09:34:13.000Z</time>
      </trkpt>
      <trkpt lat="47.29907" lon="-2.28946">
        <ele>10</ele>
        <time>2022-06-26T09:34:14.000Z</time>
      </trkpt>
      <trkpt lat="47.29919" lon="-2.2895">
        <ele>10</ele>
        <time>2022-06-26T09:34:16.000Z</time>
      </trkpt>
      <trkpt lat="47.29924" lon="-2.28954">
        <ele>10</ele>
        <time>2022-06-26T09:34:17.000Z</time>
      </trkpt>
      <trkpt lat="47.29941" lon="-2.28977">
        <ele>10</ele>
        <time>2022-06-26T09:34:21.000Z</time>
      </trkpt>
      <trkpt lat="47.29945" lon="-2.28984">
        <ele>10</ele>
        <time>2022-06-26T09:34:22.000Z</time>
      </trkpt>
      <trkpt lat="47.2996" lon="-2.29013">
        <ele>10</ele>
        <time>2022-06-26T09:34:26.000Z</time>
      </trkpt>
      <trkpt lat="47.29968" lon="-2.29027">
        <ele>9.6000003814697</ele>
        <time>2022-06-26T09:34:28.000Z</time>
      </trkpt>
      <trkpt lat="47.29972" lon="-2.29035">
        <ele>9.1999998092651</ele>
        <time>2022-06-26T09:34:29.000Z</time>
      </trkpt>
      <trkpt lat="47.29976" lon="-2.29043">
        <ele>8.8000001907349</ele>
        <time>2022-06-26T09:34:30.000Z</time>
      </trkpt>
      <trkpt lat="47.29981" lon="-2.2905">
        <ele>8.3999996185303</ele>
        <time>2022-06-26T09:34:31.000Z</time>
      </trkpt>
      <trkpt lat="47.29985" lon="-2.29057">
        <ele>8</ele>
        <time>2022-06-26T09:34:32.000Z</time>
      </trkpt>
      <trkpt lat="47.29988" lon="-2.29064">
        <ele>8</ele>
        <time>2022-06-26T09:34:33.000Z</time>
      </trkpt>
      <trkpt lat="47.29999" lon="-2.29084">
        <ele>8</ele>
        <time>2022-06-26T09:34:36.000Z</time>
      </trkpt>
      <trkpt lat="47.30007" lon="-2.29094">
        <ele>8</ele>
        <time>2022-06-26T09:34:39.000Z</time>
      </trkpt>
      <trkpt lat="47.30012" lon="-2.29098">
        <ele>8</ele>
        <time>2022-06-26T09:34:40.000Z</time>
      </trkpt>
      <trkpt lat="47.30039" lon="-2.29121">
        <ele>8</ele>
        <time>2022-06-26T09:34:45.000Z</time>
      </trkpt>
      <trkpt lat="47.3006" lon="-2.2914">
        <ele>8</ele>
        <time>2022-06-26T09:34:49.000Z</time>
      </trkpt>
      <trkpt lat="47.30065" lon="-2.29146">
        <ele>8</ele>
        <time>2022-06-26T09:34:50.000Z</time>
      </trkpt>
      <trkpt lat="47.30079" lon="-2.29169">
        <ele>8</ele>
        <time>2022-06-26T09:34:53.000Z</time>
      </trkpt>
      <trkpt lat="47.30088" lon="-2.29185">
        <ele>8</ele>
        <time>2022-06-26T09:34:55.000Z</time>
      </trkpt>
      <trkpt lat="47.30107" lon="-2.29214">
        <ele>7.5999999046326</ele>
        <time>2022-06-26T09:34:59.000Z</time>
      </trkpt>
      <trkpt lat="47.30112" lon="-2.29221">
        <ele>7.1999998092651</ele>
        <time>2022-06-26T09:35:00.000Z</time>
      </trkpt>
      <trkpt lat="47.30116" lon="-2.29228">
        <ele>6.5999999046326</ele>
        <time>2022-06-26T09:35:01.000Z</time>
      </trkpt>
      <trkpt lat="47.30121" lon="-2.29235">
        <ele>6.1999998092651</ele>
        <time>2022-06-26T09:35:02.000Z</time>
      </trkpt>
      <trkpt lat="47.30126" lon="-2.29243">
        <ele>5.8000001907349</ele>
        <time>2022-06-26T09:35:03.000Z</time>
      </trkpt>
      <trkpt lat="47.30145" lon="-2.29274">
        <ele>5.8000001907349</ele>
        <time>2022-06-26T09:35:07.000Z</time>
      </trkpt>
      <trkpt lat="47.30167" lon="-2.2931">
        <ele>5.8000001907349</ele>
        <time>2022-06-26T09:35:12.000Z</time>
      </trkpt>
      <trkpt lat="47.30194" lon="-2.29353">
        <ele>5.8000001907349</ele>
        <time>2022-06-26T09:35:18.000Z</time>
      </trkpt>
      <trkpt lat="47.30199" lon="-2.29361">
        <ele>5.8000001907349</ele>
        <time>2022-06-26T09:35:19.000Z</time>
      </trkpt>
      <trkpt lat="47.30215" lon="-2.29394">
        <ele>5.8000001907349</ele>
        <time>2022-06-26T09:35:23.000Z</time>
      </trkpt>
      <trkpt lat="47.30222" lon="-2.29416">
        <ele>5.4000000953674</ele>
        <time>2022-06-26T09:35:26.000Z</time>
      </trkpt>
      <trkpt lat="47.30221" lon="-2.29422">
        <ele>5</ele>
        <time>2022-06-26T09:35:27.000Z</time>
      </trkpt>
      <trkpt lat="47.30218" lon="-2.29428">
        <ele>4.5999999046326</ele>
        <time>2022-06-26T09:35:28.000Z</time>
      </trkpt>
      <trkpt lat="47.30215" lon="-2.29435">
        <ele>4.1999998092651</ele>
        <time>2022-06-26T09:35:29.000Z</time>
      </trkpt>
      <trkpt lat="47.30211" lon="-2.29442">
        <ele>3.7999999523163</ele>
        <time>2022-06-26T09:35:30.000Z</time>
      </trkpt>
      <trkpt lat="47.30207" lon="-2.2945">
        <ele>3.7999999523163</ele>
        <time>2022-06-26T09:35:31.000Z</time>
      </trkpt>
      <trkpt lat="47.30186" lon="-2.29488">
        <ele>3.7999999523163</ele>
        <time>2022-06-26T09:35:36.000Z</time>
      </trkpt>
      <trkpt lat="47.30166" lon="-2.29532">
        <ele>3.7999999523163</ele>
        <time>2022-06-26T09:35:42.000Z</time>
      </trkpt>
      <trkpt lat="47.30162" lon="-2.29539">
        <ele>3.7999999523163</ele>
        <time>2022-06-26T09:35:43.000Z</time>
      </trkpt>
      <trkpt lat="47.30144" lon="-2.29574">
        <ele>3.7999999523163</ele>
        <time>2022-06-26T09:35:48.000Z</time>
      </trkpt>
      <trkpt lat="47.30141" lon="-2.296">
        <ele>3.7999999523163</ele>
        <time>2022-06-26T09:35:51.000Z</time>
      </trkpt>
      <trkpt lat="47.30142" lon="-2.29608">
        <ele>3.7999999523163</ele>
        <time>2022-06-26T09:35:52.000Z</time>
      </trkpt>
      <trkpt lat="47.30141" lon="-2.29635">
        <ele>3.7999999523163</ele>
        <time>2022-06-26T09:35:56.000Z</time>
      </trkpt>
      <trkpt lat="47.30139" lon="-2.29649">
        <ele>3.7999999523163</ele>
        <time>2022-06-26T09:36:00.000Z</time>
      </trkpt>
      <trkpt lat="47.30139" lon="-2.2965">
        <ele>3.7999999523163</ele>
        <time>2022-06-26T09:36:01.000Z</time>
      </trkpt>
      <trkpt lat="47.30138" lon="-2.29653">
        <ele>3.7999999523163</ele>
        <time>2022-06-26T09:36:11.000Z</time>
      </trkpt>
      <trkpt lat="47.30136" lon="-2.29657">
        <ele>3.7999999523163</ele>
        <time>2022-06-26T09:36:13.000Z</time>
      </trkpt>
      <trkpt lat="47.30134" lon="-2.29661">
        <ele>3.7999999523163</ele>
        <time>2022-06-26T09:36:16.000Z</time>
      </trkpt>
      <trkpt lat="47.30131" lon="-2.29662">
        <ele>3.7999999523163</ele>
        <time>2022-06-26T09:36:18.000Z</time>
      </trkpt>
      <trkpt lat="47.3013" lon="-2.2966">
        <ele>3.7999999523163</ele>
        <time>2022-06-26T09:36:21.000Z</time>
      </trkpt>
      <trkpt lat="47.30128" lon="-2.2966">
        <ele>3.7999999523163</ele>
        <time>2022-06-26T09:36:30.000Z</time>
      </trkpt>
      <trkpt lat="47.30126" lon="-2.29659">
        <ele>3.7999999523163</ele>
        <time>2022-06-26T09:36:31.000Z</time>
      </trkpt>
      <trkpt lat="47.30114" lon="-2.29655">
        <ele>3.7999999523163</ele>
        <time>2022-06-26T09:36:35.000Z</time>
      </trkpt>
      <trkpt lat="47.30095" lon="-2.29647">
        <ele>3.7999999523163</ele>
        <time>2022-06-26T09:36:41.000Z</time>
      </trkpt>
      <trkpt lat="47.30081" lon="-2.29645">
        <ele>3.7999999523163</ele>
        <time>2022-06-26T09:36:47.000Z</time>
      </trkpt>
      <trkpt lat="47.30064" lon="-2.2964">
        <ele>3.7999999523163</ele>
        <time>2022-06-26T09:36:53.000Z</time>
      </trkpt>
      <trkpt lat="47.30046" lon="-2.29636">
        <ele>3.7999999523163</ele>
        <time>2022-06-26T09:36:58.000Z</time>
      </trkpt>
      <trkpt lat="47.30016" lon="-2.29637">
        <ele>3.7999999523163</ele>
        <time>2022-06-26T09:37:05.000Z</time>
      </trkpt>
      <trkpt lat="47.29983" lon="-2.29639">
        <ele>3.7999999523163</ele>
        <time>2022-06-26T09:37:12.000Z</time>
      </trkpt>
      <trkpt lat="47.29969" lon="-2.29641">
        <ele>3.7999999523163</ele>
        <time>2022-06-26T09:37:15.000Z</time>
      </trkpt>
      <trkpt lat="47.29964" lon="-2.29641">
        <ele>4.1999998092651</ele>
        <time>2022-06-26T09:37:16.000Z</time>
      </trkpt>
      <trkpt lat="47.2996" lon="-2.29642">
        <ele>4.5999999046326</ele>
        <time>2022-06-26T09:37:17.000Z</time>
      </trkpt>
      <trkpt lat="47.29955" lon="-2.29644">
        <ele>5</ele>
        <time>2022-06-26T09:37:18.000Z</time>
      </trkpt>
      <trkpt lat="47.29952" lon="-2.29646">
        <ele>5.4000000953674</ele>
        <time>2022-06-26T09:37:19.000Z</time>
      </trkpt>
      <trkpt lat="47.29948" lon="-2.29648">
        <ele>5.8000001907349</ele>
        <time>2022-06-26T09:37:20.000Z</time>
      </trkpt>
      <trkpt lat="47.29944" lon="-2.2965">
        <ele>5.8000001907349</ele>
        <time>2022-06-26T09:37:21.000Z</time>
      </trkpt>
      <trkpt lat="47.29915" lon="-2.29676">
        <ele>5.8000001907349</ele>
        <time>2022-06-26T09:37:29.000Z</time>
      </trkpt>
      <trkpt lat="47.29918" lon="-2.29696">
        <ele>5.8000001907349</ele>
        <time>2022-06-26T09:37:32.000Z</time>
      </trkpt>
      <trkpt lat="47.29922" lon="-2.29709">
        <ele>5.8000001907349</ele>
        <time>2022-06-26T09:37:34.000Z</time>
      </trkpt>
      <trkpt lat="47.29932" lon="-2.29737">
        <ele>5.8000001907349</ele>
        <time>2022-06-26T09:37:38.000Z</time>
      </trkpt>
      <trkpt lat="47.29948" lon="-2.2978">
        <ele>5.8000001907349</ele>
        <time>2022-06-26T09:37:44.000Z</time>
      </trkpt>
      <trkpt lat="47.29949" lon="-2.29792">
        <ele>5.8000001907349</ele>
        <time>2022-06-26T09:37:47.000Z</time>
      </trkpt>
      <trkpt lat="47.29946" lon="-2.29796">
        <ele>5.8000001907349</ele>
        <time>2022-06-26T09:37:51.000Z</time>
      </trkpt>
      <trkpt lat="47.29936" lon="-2.29808">
        <ele>5.8000001907349</ele>
        <time>2022-06-26T09:37:56.000Z</time>
      </trkpt>
      <trkpt lat="47.29918" lon="-2.29823">
        <ele>5.8000001907349</ele>
        <time>2022-06-26T09:38:02.000Z</time>
      </trkpt>
      <trkpt lat="47.29911" lon="-2.29834">
        <ele>5.8000001907349</ele>
        <time>2022-06-26T09:38:05.000Z</time>
      </trkpt>
      <trkpt lat="47.29909" lon="-2.29841">
        <ele>5.8000001907349</ele>
        <time>2022-06-26T09:38:06.000Z</time>
      </trkpt>
      <trkpt lat="47.29908" lon="-2.29849">
        <ele>6.1999998092651</ele>
        <time>2022-06-26T09:38:07.000Z</time>
      </trkpt>
      <trkpt lat="47.29908" lon="-2.29858">
        <ele>6.5999999046326</ele>
        <time>2022-06-26T09:38:08.000Z</time>
      </trkpt>
      <trkpt lat="47.29909" lon="-2.29867">
        <ele>7</ele>
        <time>2022-06-26T09:38:09.000Z</time>
      </trkpt>
      <trkpt lat="47.2991" lon="-2.29876">
        <ele>7.5999999046326</ele>
        <time>2022-06-26T09:38:10.000Z</time>
      </trkpt>
      <trkpt lat="47.2991" lon="-2.29885">
        <ele>8</ele>
        <time>2022-06-26T09:38:11.000Z</time>
      </trkpt>
      <trkpt lat="47.29908" lon="-2.29913">
        <ele>8</ele>
        <time>2022-06-26T09:38:14.000Z</time>
      </trkpt>
      <trkpt lat="47.29907" lon="-2.29922">
        <ele>8</ele>
        <time>2022-06-26T09:38:15.000Z</time>
      </trkpt>
      <trkpt lat="47.299" lon="-2.29935">
        <ele>7.5999999046326</ele>
        <time>2022-06-26T09:38:17.000Z</time>
      </trkpt>
      <trkpt lat="47.29894" lon="-2.29938">
        <ele>7.1999998092651</ele>
        <time>2022-06-26T09:38:18.000Z</time>
      </trkpt>
      <trkpt lat="47.29888" lon="-2.29939">
        <ele>6.8000001907349</ele>
        <time>2022-06-26T09:38:19.000Z</time>
      </trkpt>
      <trkpt lat="47.29882" lon="-2.2994">
        <ele>6.4000000953674</ele>
        <time>2022-06-26T09:38:20.000Z</time>
      </trkpt>
      <trkpt lat="47.29876" lon="-2.29941">
        <ele>6</ele>
        <time>2022-06-26T09:38:21.000Z</time>
      </trkpt>
      <trkpt lat="47.29871" lon="-2.29942">
        <ele>6</ele>
        <time>2022-06-26T09:38:22.000Z</time>
      </trkpt>
      <trkpt lat="47.29825" lon="-2.29952">
        <ele>6</ele>
        <time>2022-06-26T09:38:30.000Z</time>
      </trkpt>
      <trkpt lat="47.29789" lon="-2.2995">
        <ele>6</ele>
        <time>2022-06-26T09:38:36.000Z</time>
      </trkpt>
      <trkpt lat="47.29783" lon="-2.29952">
        <ele>6</ele>
        <time>2022-06-26T09:38:37.000Z</time>
      </trkpt>
      <trkpt lat="47.29772" lon="-2.2996">
        <ele>6</ele>
        <time>2022-06-26T09:38:39.000Z</time>
      </trkpt>
      <trkpt lat="47.29735" lon="-2.29989">
        <ele>6</ele>
        <time>2022-06-26T09:38:46.000Z</time>
      </trkpt>
      <trkpt lat="47.29706" lon="-2.30001">
        <ele>6</ele>
        <time>2022-06-26T09:38:51.000Z</time>
      </trkpt>
      <trkpt lat="47.29664" lon="-2.29997">
        <ele>6</ele>
        <time>2022-06-26T09:38:58.000Z</time>
      </trkpt>
      <trkpt lat="47.29645" lon="-2.29983">
        <ele>6</ele>
        <time>2022-06-26T09:39:02.000Z</time>
      </trkpt>
      <trkpt lat="47.29633" lon="-2.29989">
        <ele>6</ele>
        <time>2022-06-26T09:39:05.000Z</time>
      </trkpt>
      <trkpt lat="47.29628" lon="-2.29992">
        <ele>6</ele>
        <time>2022-06-26T09:39:06.000Z</time>
      </trkpt>
      <trkpt lat="47.29609" lon="-2.29998">
        <ele>6</ele>
        <time>2022-06-26T09:39:09.000Z</time>
      </trkpt>
      <trkpt lat="47.29596" lon="-2.30003">
        <ele>6</ele>
        <time>2022-06-26T09:39:11.000Z</time>
      </trkpt>
      <trkpt lat="47.2957" lon="-2.30012">
        <ele>6</ele>
        <time>2022-06-26T09:39:15.000Z</time>
      </trkpt>
      <trkpt lat="47.29529" lon="-2.30027">
        <ele>6</ele>
        <time>2022-06-26T09:39:22.000Z</time>
      </trkpt>
      <trkpt lat="47.29508" lon="-2.30022">
        <ele>6</ele>
        <time>2022-06-26T09:39:26.000Z</time>
      </trkpt>
      <trkpt lat="47.29492" lon="-2.30026">
        <ele>6.4000000953674</ele>
        <time>2022-06-26T09:39:29.000Z</time>
      </trkpt>
      <trkpt lat="47.29487" lon="-2.30026">
        <ele>6.8000001907349</ele>
        <time>2022-06-26T09:39:30.000Z</time>
      </trkpt>
      <trkpt lat="47.29481" lon="-2.30026">
        <ele>7.1999998092651</ele>
        <time>2022-06-26T09:39:31.000Z</time>
      </trkpt>
      <trkpt lat="47.29474" lon="-2.30027">
        <ele>7.8000001907349</ele>
        <time>2022-06-26T09:39:32.000Z</time>
      </trkpt>
      <trkpt lat="47.29468" lon="-2.30027">
        <ele>8.1999998092651</ele>
        <time>2022-06-26T09:39:33.000Z</time>
      </trkpt>
      <trkpt lat="47.29449" lon="-2.30028">
        <ele>8.1999998092651</ele>
        <time>2022-06-26T09:39:36.000Z</time>
      </trkpt>
      <trkpt lat="47.2941" lon="-2.30027">
        <ele>8.1999998092651</ele>
        <time>2022-06-26T09:39:43.000Z</time>
      </trkpt>
      <trkpt lat="47.294" lon="-2.30024">
        <ele>8.1999998092651</ele>
        <time>2022-06-26T09:39:45.000Z</time>
      </trkpt>
      <trkpt lat="47.29384" lon="-2.30018">
        <ele>8.1999998092651</ele>
        <time>2022-06-26T09:39:48.000Z</time>
      </trkpt>
      <trkpt lat="47.29353" lon="-2.30005">
        <ele>8.1999998092651</ele>
        <time>2022-06-26T09:39:55.000Z</time>
      </trkpt>
      <trkpt lat="47.29346" lon="-2.30006">
        <ele>8.1999998092651</ele>
        <time>2022-06-26T09:39:58.000Z</time>
      </trkpt>
      <trkpt lat="47.29345" lon="-2.30021">
        <ele>8.1999998092651</ele>
        <time>2022-06-26T09:40:01.000Z</time>
      </trkpt>
      <trkpt lat="47.29343" lon="-2.30051">
        <ele>8.1999998092651</ele>
        <time>2022-06-26T09:40:05.000Z</time>
      </trkpt>
      <trkpt lat="47.29336" lon="-2.30109">
        <ele>8.1999998092651</ele>
        <time>2022-06-26T09:40:12.000Z</time>
      </trkpt>
      <trkpt lat="47.29331" lon="-2.30123">
        <ele>8.1999998092651</ele>
        <time>2022-06-26T09:40:14.000Z</time>
      </trkpt>
      <trkpt lat="47.29327" lon="-2.30134">
        <ele>8.1999998092651</ele>
        <time>2022-06-26T09:40:16.000Z</time>
      </trkpt>
      <trkpt lat="47.29318" lon="-2.30136">
        <ele>8.1999998092651</ele>
        <time>2022-06-26T09:40:19.000Z</time>
      </trkpt>
      <trkpt lat="47.29309" lon="-2.30137">
        <ele>8.1999998092651</ele>
        <time>2022-06-26T09:40:23.000Z</time>
      </trkpt>
      <trkpt lat="47.29299" lon="-2.30137">
        <ele>8.1999998092651</ele>
        <time>2022-06-26T09:40:29.000Z</time>
      </trkpt>
      <trkpt lat="47.2928" lon="-2.30138">
        <ele>8.1999998092651</ele>
        <time>2022-06-26T09:40:36.000Z</time>
      </trkpt>
      <trkpt lat="47.2926" lon="-2.3014">
        <ele>8.1999998092651</ele>
        <time>2022-06-26T09:40:42.000Z</time>
      </trkpt>
      <trkpt lat="47.2924" lon="-2.30142">
        <ele>8.1999998092651</ele>
        <time>2022-06-26T09:40:48.000Z</time>
      </trkpt>
      <trkpt lat="47.29216" lon="-2.30155">
        <ele>8.1999998092651</ele>
        <time>2022-06-26T09:40:56.000Z</time>
      </trkpt>
      <trkpt lat="47.29197" lon="-2.30163">
        <ele>8.6000003814697</ele>
        <time>2022-06-26T09:41:01.000Z</time>
      </trkpt>
      <trkpt lat="47.29194" lon="-2.30165">
        <ele>9</ele>
        <time>2022-06-26T09:41:02.000Z</time>
      </trkpt>
      <trkpt lat="47.2919" lon="-2.30167">
        <ele>9.3999996185303</ele>
        <time>2022-06-26T09:41:03.000Z</time>
      </trkpt>
      <trkpt lat="47.29187" lon="-2.30169">
        <ele>10</ele>
        <time>2022-06-26T09:41:04.000Z</time>
      </trkpt>
      <trkpt lat="47.29183" lon="-2.30171">
        <ele>10.39999961853</ele>
        <time>2022-06-26T09:41:05.000Z</time>
      </trkpt>
      <trkpt lat="47.29169" lon="-2.3018">
        <ele>10.39999961853</ele>
        <time>2022-06-26T09:41:09.000Z</time>
      </trkpt>
      <trkpt lat="47.29147" lon="-2.30192">
        <ele>10.39999961853</ele>
        <time>2022-06-26T09:41:15.000Z</time>
      </trkpt>
      <trkpt lat="47.29134" lon="-2.30198">
        <ele>10.39999961853</ele>
        <time>2022-06-26T09:41:18.000Z</time>
      </trkpt>
      <trkpt lat="47.29117" lon="-2.30207">
        <ele>10.39999961853</ele>
        <time>2022-06-26T09:41:22.000Z</time>
      </trkpt>
      <trkpt lat="47.29087" lon="-2.30224">
        <ele>10.39999961853</ele>
        <time>2022-06-26T09:41:29.000Z</time>
      </trkpt>
      <trkpt lat="47.29083" lon="-2.30225">
        <ele>10.39999961853</ele>
        <time>2022-06-26T09:41:30.000Z</time>
      </trkpt>
      <trkpt lat="47.29066" lon="-2.30233">
        <ele>10.39999961853</ele>
        <time>2022-06-26T09:41:34.000Z</time>
      </trkpt>
      <trkpt lat="47.29062" lon="-2.30235">
        <ele>10.39999961853</ele>
        <time>2022-06-26T09:41:35.000Z</time>
      </trkpt>
      <trkpt lat="47.29032" lon="-2.30244">
        <ele>10.39999961853</ele>
        <time>2022-06-26T09:41:42.000Z</time>
      </trkpt>
      <trkpt lat="47.29003" lon="-2.30251">
        <ele>10.39999961853</ele>
        <time>2022-06-26T09:41:49.000Z</time>
      </trkpt>
      <trkpt lat="47.2898" lon="-2.30251">
        <ele>10.39999961853</ele>
        <time>2022-06-26T09:41:55.000Z</time>
      </trkpt>
      <trkpt lat="47.28975" lon="-2.30254">
        <ele>10.39999961853</ele>
        <time>2022-06-26T09:41:57.000Z</time>
      </trkpt>
      <trkpt lat="47.28971" lon="-2.30262">
        <ele>10.39999961853</ele>
        <time>2022-06-26T09:41:59.000Z</time>
      </trkpt>
      <trkpt lat="47.28971" lon="-2.30285">
        <ele>10.39999961853</ele>
        <time>2022-06-26T09:42:03.000Z</time>
      </trkpt>
      <trkpt lat="47.28974" lon="-2.30327">
        <ele>10.800000190735</ele>
        <time>2022-06-26T09:42:10.000Z</time>
      </trkpt>
      <trkpt lat="47.28974" lon="-2.30333">
        <ele>11.199999809265</ele>
        <time>2022-06-26T09:42:11.000Z</time>
      </trkpt>
      <trkpt lat="47.28975" lon="-2.30339">
        <ele>11.60000038147</ele>
        <time>2022-06-26T09:42:12.000Z</time>
      </trkpt>
      <trkpt lat="47.28974" lon="-2.30345">
        <ele>12</ele>
        <time>2022-06-26T09:42:13.000Z</time>
      </trkpt>
      <trkpt lat="47.28974" lon="-2.30351">
        <ele>12.60000038147</ele>
        <time>2022-06-26T09:42:14.000Z</time>
      </trkpt>
      <trkpt lat="47.28973" lon="-2.30385">
        <ele>12.60000038147</ele>
        <time>2022-06-26T09:42:19.000Z</time>
      </trkpt>
      <trkpt lat="47.28976" lon="-2.30435">
        <ele>12.60000038147</ele>
        <time>2022-06-26T09:42:26.000Z</time>
      </trkpt>
      <trkpt lat="47.28984" lon="-2.30484">
        <ele>12.60000038147</ele>
        <time>2022-06-26T09:42:32.000Z</time>
      </trkpt>
      <trkpt lat="47.28994" lon="-2.30537">
        <ele>12.60000038147</ele>
        <time>2022-06-26T09:42:39.000Z</time>
      </trkpt>
      <trkpt lat="47.29001" lon="-2.30585">
        <ele>12.60000038147</ele>
        <time>2022-06-26T09:42:45.000Z</time>
      </trkpt>
      <trkpt lat="47.29001" lon="-2.30609">
        <ele>12.60000038147</ele>
        <time>2022-06-26T09:42:48.000Z</time>
      </trkpt>
      <trkpt lat="47.28995" lon="-2.30622">
        <ele>12.60000038147</ele>
        <time>2022-06-26T09:42:50.000Z</time>
      </trkpt>
      <trkpt lat="47.2898" lon="-2.30633">
        <ele>12.60000038147</ele>
        <time>2022-06-26T09:42:53.000Z</time>
      </trkpt>
      <trkpt lat="47.28974" lon="-2.30637">
        <ele>12.60000038147</ele>
        <time>2022-06-26T09:42:54.000Z</time>
      </trkpt>
      <trkpt lat="47.28946" lon="-2.30665">
        <ele>12.60000038147</ele>
        <time>2022-06-26T09:42:59.000Z</time>
      </trkpt>
      <trkpt lat="47.28927" lon="-2.30691">
        <ele>12.60000038147</ele>
        <time>2022-06-26T09:43:03.000Z</time>
      </trkpt>
      <trkpt lat="47.28914" lon="-2.3071">
        <ele>12.60000038147</ele>
        <time>2022-06-26T09:43:06.000Z</time>
      </trkpt>
      <trkpt lat="47.28891" lon="-2.30744">
        <ele>12.60000038147</ele>
        <time>2022-06-26T09:43:12.000Z</time>
      </trkpt>
      <trkpt lat="47.28864" lon="-2.30783">
        <ele>13</ele>
        <time>2022-06-26T09:43:19.000Z</time>
      </trkpt>
      <trkpt lat="47.28861" lon="-2.30789">
        <ele>13.39999961853</ele>
        <time>2022-06-26T09:43:20.000Z</time>
      </trkpt>
      <trkpt lat="47.28858" lon="-2.30795">
        <ele>13.800000190735</ele>
        <time>2022-06-26T09:43:21.000Z</time>
      </trkpt>
      <trkpt lat="47.28855" lon="-2.30801">
        <ele>14.199999809265</ele>
        <time>2022-06-26T09:43:22.000Z</time>
      </trkpt>
      <trkpt lat="47.28852" lon="-2.30807">
        <ele>14.800000190735</ele>
        <time>2022-06-26T09:43:23.000Z</time>
      </trkpt>
      <trkpt lat="47.28843" lon="-2.30826">
        <ele>14.800000190735</ele>
        <time>2022-06-26T09:43:26.000Z</time>
      </trkpt>
      <trkpt lat="47.28818" lon="-2.3087">
        <ele>14.800000190735</ele>
        <time>2022-06-26T09:43:33.000Z</time>
      </trkpt>
      <trkpt lat="47.28812" lon="-2.30883">
        <ele>14.800000190735</ele>
        <time>2022-06-26T09:43:35.000Z</time>
      </trkpt>
      <trkpt lat="47.28806" lon="-2.30896">
        <ele>15.199999809265</ele>
        <time>2022-06-26T09:43:37.000Z</time>
      </trkpt>
      <trkpt lat="47.28803" lon="-2.30902">
        <ele>15.60000038147</ele>
        <time>2022-06-26T09:43:38.000Z</time>
      </trkpt>
      <trkpt lat="47.288" lon="-2.30908">
        <ele>16</ele>
        <time>2022-06-26T09:43:39.000Z</time>
      </trkpt>
      <trkpt lat="47.28797" lon="-2.30914">
        <ele>16.39999961853</ele>
        <time>2022-06-26T09:43:40.000Z</time>
      </trkpt>
      <trkpt lat="47.28794" lon="-2.30921">
        <ele>16.799999237061</ele>
        <time>2022-06-26T09:43:41.000Z</time>
      </trkpt>
      <trkpt lat="47.28791" lon="-2.30928">
        <ele>16.799999237061</ele>
        <time>2022-06-26T09:43:42.000Z</time>
      </trkpt>
      <trkpt lat="47.28786" lon="-2.30941">
        <ele>16.799999237061</ele>
        <time>2022-06-26T09:43:44.000Z</time>
      </trkpt>
      <trkpt lat="47.2878" lon="-2.30953">
        <ele>16.799999237061</ele>
        <time>2022-06-26T09:43:46.000Z</time>
      </trkpt>
      <trkpt lat="47.28765" lon="-2.30992">
        <ele>16.799999237061</ele>
        <time>2022-06-26T09:43:52.000Z</time>
      </trkpt>
      <trkpt lat="47.2876" lon="-2.31006">
        <ele>17.200000762939</ele>
        <time>2022-06-26T09:43:54.000Z</time>
      </trkpt>
      <trkpt lat="47.28758" lon="-2.31012">
        <ele>17.60000038147</ele>
        <time>2022-06-26T09:43:55.000Z</time>
      </trkpt>
      <trkpt lat="47.28756" lon="-2.3102">
        <ele>18.200000762939</ele>
        <time>2022-06-26T09:43:56.000Z</time>
      </trkpt>
      <trkpt lat="47.28755" lon="-2.31027">
        <ele>18.60000038147</ele>
        <time>2022-06-26T09:43:57.000Z</time>
      </trkpt>
      <trkpt lat="47.28752" lon="-2.31034">
        <ele>19</ele>
        <time>2022-06-26T09:43:58.000Z</time>
      </trkpt>
      <trkpt lat="47.28737" lon="-2.3108">
        <ele>19</ele>
        <time>2022-06-26T09:44:05.000Z</time>
      </trkpt>
      <trkpt lat="47.2873" lon="-2.31108">
        <ele>19.39999961853</ele>
        <time>2022-06-26T09:44:09.000Z</time>
      </trkpt>
      <trkpt lat="47.28729" lon="-2.31115">
        <ele>19.799999237061</ele>
        <time>2022-06-26T09:44:10.000Z</time>
      </trkpt>
      <trkpt lat="47.28728" lon="-2.31122">
        <ele>20.39999961853</ele>
        <time>2022-06-26T09:44:11.000Z</time>
      </trkpt>
      <trkpt lat="47.28726" lon="-2.3113">
        <ele>20.799999237061</ele>
        <time>2022-06-26T09:44:12.000Z</time>
      </trkpt>
      <trkpt lat="47.28725" lon="-2.31137">
        <ele>21.200000762939</ele>
        <time>2022-06-26T09:44:13.000Z</time>
      </trkpt>
      <trkpt lat="47.28722" lon="-2.31151">
        <ele>21.200000762939</ele>
        <time>2022-06-26T09:44:15.000Z</time>
      </trkpt>
      <trkpt lat="47.28717" lon="-2.31163">
        <ele>21.200000762939</ele>
        <time>2022-06-26T09:44:17.000Z</time>
      </trkpt>
      <trkpt lat="47.28699" lon="-2.31191">
        <ele>21.200000762939</ele>
        <time>2022-06-26T09:44:22.000Z</time>
      </trkpt>
      <trkpt lat="47.28695" lon="-2.31195">
        <ele>21.200000762939</ele>
        <time>2022-06-26T09:44:23.000Z</time>
      </trkpt>
      <trkpt lat="47.28691" lon="-2.31199">
        <ele>21.60000038147</ele>
        <time>2022-06-26T09:44:24.000Z</time>
      </trkpt>
      <trkpt lat="47.28687" lon="-2.31204">
        <ele>22</ele>
        <time>2022-06-26T09:44:25.000Z</time>
      </trkpt>
      <trkpt lat="47.28684" lon="-2.31209">
        <ele>22.39999961853</ele>
        <time>2022-06-26T09:44:26.000Z</time>
      </trkpt>
      <trkpt lat="47.2868" lon="-2.31213">
        <ele>22.799999237061</ele>
        <time>2022-06-26T09:44:27.000Z</time>
      </trkpt>
      <trkpt lat="47.28676" lon="-2.31218">
        <ele>23.200000762939</ele>
        <time>2022-06-26T09:44:28.000Z</time>
      </trkpt>
      <trkpt lat="47.28662" lon="-2.31239">
        <ele>23.200000762939</ele>
        <time>2022-06-26T09:44:32.000Z</time>
      </trkpt>
      <trkpt lat="47.28656" lon="-2.31253">
        <ele>23.200000762939</ele>
        <time>2022-06-26T09:44:34.000Z</time>
      </trkpt>
      <trkpt lat="47.28652" lon="-2.31282">
        <ele>23.200000762939</ele>
        <time>2022-06-26T09:44:38.000Z</time>
      </trkpt>
      <trkpt lat="47.28653" lon="-2.31289">
        <ele>23.799999237061</ele>
        <time>2022-06-26T09:44:39.000Z</time>
      </trkpt>
      <trkpt lat="47.28653" lon="-2.31297">
        <ele>24.200000762939</ele>
        <time>2022-06-26T09:44:40.000Z</time>
      </trkpt>
      <trkpt lat="47.28654" lon="-2.31305">
        <ele>24.60000038147</ele>
        <time>2022-06-26T09:44:41.000Z</time>
      </trkpt>
      <trkpt lat="47.28656" lon="-2.31313">
        <ele>25</ele>
        <time>2022-06-26T09:44:42.000Z</time>
      </trkpt>
      <trkpt lat="47.28657" lon="-2.31322">
        <ele>25.39999961853</ele>
        <time>2022-06-26T09:44:43.000Z</time>
      </trkpt>
      <trkpt lat="47.28663" lon="-2.31345">
        <ele>25.39999961853</ele>
        <time>2022-06-26T09:44:46.000Z</time>
      </trkpt>
      <trkpt lat="47.28671" lon="-2.31365">
        <ele>25.39999961853</ele>
        <time>2022-06-26T09:44:49.000Z</time>
      </trkpt>
      <trkpt lat="47.28674" lon="-2.31371">
        <ele>25.39999961853</ele>
        <time>2022-06-26T09:44:50.000Z</time>
      </trkpt>
      <trkpt lat="47.28683" lon="-2.31389">
        <ele>25.39999961853</ele>
        <time>2022-06-26T09:44:53.000Z</time>
      </trkpt>
      <trkpt lat="47.28685" lon="-2.31395">
        <ele>25.799999237061</ele>
        <time>2022-06-26T09:44:54.000Z</time>
      </trkpt>
      <trkpt lat="47.28687" lon="-2.31401">
        <ele>26.200000762939</ele>
        <time>2022-06-26T09:44:55.000Z</time>
      </trkpt>
      <trkpt lat="47.28687" lon="-2.31408">
        <ele>26.60000038147</ele>
        <time>2022-06-26T09:44:56.000Z</time>
      </trkpt>
      <trkpt lat="47.28687" lon="-2.31415">
        <ele>27</ele>
        <time>2022-06-26T09:44:57.000Z</time>
      </trkpt>
      <trkpt lat="47.28686" lon="-2.31421">
        <ele>27.39999961853</ele>
        <time>2022-06-26T09:44:58.000Z</time>
      </trkpt>
      <trkpt lat="47.28684" lon="-2.31428">
        <ele>27.39999961853</ele>
        <time>2022-06-26T09:44:59.000Z</time>
      </trkpt>
      <trkpt lat="47.28675" lon="-2.31443">
        <ele>27.39999961853</ele>
        <time>2022-06-26T09:45:02.000Z</time>
      </trkpt>
      <trkpt lat="47.28671" lon="-2.31447">
        <ele>27.799999237061</ele>
        <time>2022-06-26T09:45:03.000Z</time>
      </trkpt>
      <trkpt lat="47.28666" lon="-2.3145">
        <ele>28.200000762939</ele>
        <time>2022-06-26T09:45:04.000Z</time>
      </trkpt>
      <trkpt lat="47.28662" lon="-2.31453">
        <ele>28.60000038147</ele>
        <time>2022-06-26T09:45:05.000Z</time>
      </trkpt>
      <trkpt lat="47.28657" lon="-2.31455">
        <ele>29</ele>
        <time>2022-06-26T09:45:06.000Z</time>
      </trkpt>
      <trkpt lat="47.28653" lon="-2.31457">
        <ele>29.39999961853</ele>
        <time>2022-06-26T09:45:07.000Z</time>
      </trkpt>
      <trkpt lat="47.28648" lon="-2.31459">
        <ele>29.39999961853</ele>
        <time>2022-06-26T09:45:08.000Z</time>
      </trkpt>
      <trkpt lat="47.28624" lon="-2.31472">
        <ele>29.39999961853</ele>
        <time>2022-06-26T09:45:15.000Z</time>
      </trkpt>
      <trkpt lat="47.2862" lon="-2.31479">
        <ele>29.39999961853</ele>
        <time>2022-06-26T09:45:17.000Z</time>
      </trkpt>
      <trkpt lat="47.2862" lon="-2.31485">
        <ele>29.39999961853</ele>
        <time>2022-06-26T09:45:19.000Z</time>
      </trkpt>
      <trkpt lat="47.28621" lon="-2.31495">
        <ele>29.39999961853</ele>
        <time>2022-06-26T09:45:22.000Z</time>
      </trkpt>
      <trkpt lat="47.28623" lon="-2.31506">
        <ele>29.39999961853</ele>
        <time>2022-06-26T09:45:25.000Z</time>
      </trkpt>
      <trkpt lat="47.28624" lon="-2.31533">
        <ele>29.39999961853</ele>
        <time>2022-06-26T09:45:31.000Z</time>
      </trkpt>
      <trkpt lat="47.28625" lon="-2.3156">
        <ele>29.39999961853</ele>
        <time>2022-06-26T09:45:37.000Z</time>
      </trkpt>
      <trkpt lat="47.28623" lon="-2.31588">
        <ele>29.39999961853</ele>
        <time>2022-06-26T09:45:44.000Z</time>
      </trkpt>
      <trkpt lat="47.28622" lon="-2.31621">
        <ele>29.39999961853</ele>
        <time>2022-06-26T09:45:51.000Z</time>
      </trkpt>
      <trkpt lat="47.28625" lon="-2.31668">
        <ele>29.39999961853</ele>
        <time>2022-06-26T09:45:59.000Z</time>
      </trkpt>
      <trkpt lat="47.28632" lon="-2.31725">
        <ele>29.39999961853</ele>
        <time>2022-06-26T09:46:09.000Z</time>
      </trkpt>
      <trkpt lat="47.28641" lon="-2.31775">
        <ele>29.39999961853</ele>
        <time>2022-06-26T09:46:18.000Z</time>
      </trkpt>
      <trkpt lat="47.28646" lon="-2.31813">
        <ele>29.39999961853</ele>
        <time>2022-06-26T09:46:25.000Z</time>
      </trkpt>
      <trkpt lat="47.28651" lon="-2.31854">
        <ele>29.39999961853</ele>
        <time>2022-06-26T09:46:33.000Z</time>
      </trkpt>
      <trkpt lat="47.28655" lon="-2.31899">
        <ele>29.39999961853</ele>
        <time>2022-06-26T09:46:41.000Z</time>
      </trkpt>
      <trkpt lat="47.28659" lon="-2.3194">
        <ele>29.39999961853</ele>
        <time>2022-06-26T09:46:48.000Z</time>
      </trkpt>
      <trkpt lat="47.28666" lon="-2.31985">
        <ele>29.39999961853</ele>
        <time>2022-06-26T09:46:56.000Z</time>
      </trkpt>
      <trkpt lat="47.28673" lon="-2.32023">
        <ele>29.39999961853</ele>
        <time>2022-06-26T09:47:03.000Z</time>
      </trkpt>
      <trkpt lat="47.28684" lon="-2.32062">
        <ele>29.39999961853</ele>
        <time>2022-06-26T09:47:11.000Z</time>
      </trkpt>
      <trkpt lat="47.28693" lon="-2.32101">
        <ele>29.39999961853</ele>
        <time>2022-06-26T09:47:18.000Z</time>
      </trkpt>
      <trkpt lat="47.28695" lon="-2.32121">
        <ele>29.39999961853</ele>
        <time>2022-06-26T09:47:21.000Z</time>
      </trkpt>
      <trkpt lat="47.28691" lon="-2.32143">
        <ele>29.39999961853</ele>
        <time>2022-06-26T09:47:24.000Z</time>
      </trkpt>
      <trkpt lat="47.28685" lon="-2.32164">
        <ele>28.60000038147</ele>
        <time>2022-06-26T09:47:27.000Z</time>
      </trkpt>
      <trkpt lat="47.28681" lon="-2.32171">
        <ele>28.200000762939</ele>
        <time>2022-06-26T09:47:28.000Z</time>
      </trkpt>
      <trkpt lat="47.28678" lon="-2.32177">
        <ele>27.799999237061</ele>
        <time>2022-06-26T09:47:29.000Z</time>
      </trkpt>
      <trkpt lat="47.28675" lon="-2.32184">
        <ele>27.39999961853</ele>
        <time>2022-06-26T09:47:30.000Z</time>
      </trkpt>
      <trkpt lat="47.28657" lon="-2.32213">
        <ele>27.39999961853</ele>
        <time>2022-06-26T09:47:35.000Z</time>
      </trkpt>
      <trkpt lat="47.28648" lon="-2.32222">
        <ele>27.39999961853</ele>
        <time>2022-06-26T09:47:37.000Z</time>
      </trkpt>
      <trkpt lat="47.28638" lon="-2.32229">
        <ele>26.799999237061</ele>
        <time>2022-06-26T09:47:39.000Z</time>
      </trkpt>
      <trkpt lat="47.28633" lon="-2.32233">
        <ele>26.39999961853</ele>
        <time>2022-06-26T09:47:40.000Z</time>
      </trkpt>
      <trkpt lat="47.28628" lon="-2.32235">
        <ele>26</ele>
        <time>2022-06-26T09:47:41.000Z</time>
      </trkpt>
      <trkpt lat="47.28622" lon="-2.32239">
        <ele>25.60000038147</ele>
        <time>2022-06-26T09:47:42.000Z</time>
      </trkpt>
      <trkpt lat="47.28617" lon="-2.32242">
        <ele>25</ele>
        <time>2022-06-26T09:47:43.000Z</time>
      </trkpt>
      <trkpt lat="47.28579" lon="-2.32268">
        <ele>24.200000762939</ele>
        <time>2022-06-26T09:47:51.000Z</time>
      </trkpt>
      <trkpt lat="47.28574" lon="-2.32272">
        <ele>23.799999237061</ele>
        <time>2022-06-26T09:47:52.000Z</time>
      </trkpt>
      <trkpt lat="47.2857" lon="-2.32277">
        <ele>23.39999961853</ele>
        <time>2022-06-26T09:47:53.000Z</time>
      </trkpt>
      <trkpt lat="47.28566" lon="-2.32282">
        <ele>23</ele>
        <time>2022-06-26T09:47:54.000Z</time>
      </trkpt>
      <trkpt lat="47.28553" lon="-2.32297">
        <ele>23</ele>
        <time>2022-06-26T09:47:57.000Z</time>
      </trkpt>
      <trkpt lat="47.28523" lon="-2.32324">
        <ele>23</ele>
        <time>2022-06-26T09:48:03.000Z</time>
      </trkpt>
      <trkpt lat="47.28486" lon="-2.3235">
        <ele>23</ele>
        <time>2022-06-26T09:48:10.000Z</time>
      </trkpt>
      <trkpt lat="47.28481" lon="-2.32353">
        <ele>22.60000038147</ele>
        <time>2022-06-26T09:48:11.000Z</time>
      </trkpt>
      <trkpt lat="47.28476" lon="-2.32357">
        <ele>22.200000762939</ele>
        <time>2022-06-26T09:48:12.000Z</time>
      </trkpt>
      <trkpt lat="47.2847" lon="-2.3236">
        <ele>21.60000038147</ele>
        <time>2022-06-26T09:48:13.000Z</time>
      </trkpt>
      <trkpt lat="47.28465" lon="-2.32363">
        <ele>21.200000762939</ele>
        <time>2022-06-26T09:48:14.000Z</time>
      </trkpt>
      <trkpt lat="47.2846" lon="-2.32366">
        <ele>20.799999237061</ele>
        <time>2022-06-26T09:48:15.000Z</time>
      </trkpt>
      <trkpt lat="47.2845" lon="-2.32373">
        <ele>20.799999237061</ele>
        <time>2022-06-26T09:48:17.000Z</time>
      </trkpt>
      <trkpt lat="47.28441" lon="-2.3238">
        <ele>20.799999237061</ele>
        <time>2022-06-26T09:48:19.000Z</time>
      </trkpt>
      <trkpt lat="47.28432" lon="-2.32385">
        <ele>20.799999237061</ele>
        <time>2022-06-26T09:48:21.000Z</time>
      </trkpt>
      <trkpt lat="47.28398" lon="-2.32408">
        <ele>20.799999237061</ele>
        <time>2022-06-26T09:48:29.000Z</time>
      </trkpt>
      <trkpt lat="47.28378" lon="-2.32422">
        <ele>20.799999237061</ele>
        <time>2022-06-26T09:48:35.000Z</time>
      </trkpt>
      <trkpt lat="47.28375" lon="-2.32437">
        <ele>20.799999237061</ele>
        <time>2022-06-26T09:48:38.000Z</time>
      </trkpt>
      <trkpt lat="47.28381" lon="-2.3246">
        <ele>20.39999961853</ele>
        <time>2022-06-26T09:48:42.000Z</time>
      </trkpt>
      <trkpt lat="47.28382" lon="-2.32467">
        <ele>20</ele>
        <time>2022-06-26T09:48:43.000Z</time>
      </trkpt>
      <trkpt lat="47.28384" lon="-2.32474">
        <ele>19.60000038147</ele>
        <time>2022-06-26T09:48:44.000Z</time>
      </trkpt>
      <trkpt lat="47.28385" lon="-2.32481">
        <ele>19.200000762939</ele>
        <time>2022-06-26T09:48:45.000Z</time>
      </trkpt>
      <trkpt lat="47.28387" lon="-2.32488">
        <ele>18.799999237061</ele>
        <time>2022-06-26T09:48:46.000Z</time>
      </trkpt>
      <trkpt lat="47.2839" lon="-2.32511">
        <ele>18.799999237061</ele>
        <time>2022-06-26T09:48:49.000Z</time>
      </trkpt>
      <trkpt lat="47.2839" lon="-2.32522">
        <ele>18.799999237061</ele>
        <time>2022-06-26T09:48:51.000Z</time>
      </trkpt>
      <trkpt lat="47.28388" lon="-2.32523">
        <ele>18.799999237061</ele>
        <time>2022-06-26T09:48:52.000Z</time>
      </trkpt>
      <trkpt lat="47.2838" lon="-2.32525">
        <ele>18.799999237061</ele>
        <time>2022-06-26T09:48:56.000Z</time>
      </trkpt>
      <trkpt lat="47.28374" lon="-2.32524">
        <ele>18.799999237061</ele>
        <time>2022-06-26T09:48:58.000Z</time>
      </trkpt>
      <trkpt lat="47.28361" lon="-2.32523">
        <ele>18.799999237061</ele>
        <time>2022-06-26T09:49:01.000Z</time>
      </trkpt>
      <trkpt lat="47.28333" lon="-2.32522">
        <ele>18.799999237061</ele>
        <time>2022-06-26T09:49:06.000Z</time>
      </trkpt>
      <trkpt lat="47.28291" lon="-2.32521">
        <ele>18.799999237061</ele>
        <time>2022-06-26T09:49:13.000Z</time>
      </trkpt>
      <trkpt lat="47.2827" lon="-2.32515">
        <ele>18.799999237061</ele>
        <time>2022-06-26T09:49:17.000Z</time>
      </trkpt>
      <trkpt lat="47.28267" lon="-2.32512">
        <ele>18.799999237061</ele>
        <time>2022-06-26T09:49:18.000Z</time>
      </trkpt>
      <trkpt lat="47.28258" lon="-2.32501">
        <ele>18.799999237061</ele>
        <time>2022-06-26T09:49:21.000Z</time>
      </trkpt>
      <trkpt lat="47.2825" lon="-2.32487">
        <ele>18.799999237061</ele>
        <time>2022-06-26T09:49:24.000Z</time>
      </trkpt>
      <trkpt lat="47.28227" lon="-2.32464">
        <ele>18.799999237061</ele>
        <time>2022-06-26T09:49:30.000Z</time>
      </trkpt>
      <trkpt lat="47.282" lon="-2.32454">
        <ele>18.799999237061</ele>
        <time>2022-06-26T09:49:35.000Z</time>
      </trkpt>
      <trkpt lat="47.28176" lon="-2.3245">
        <ele>18.799999237061</ele>
        <time>2022-06-26T09:49:40.000Z</time>
      </trkpt>
      <trkpt lat="47.28144" lon="-2.32455">
        <ele>18.799999237061</ele>
        <time>2022-06-26T09:49:46.000Z</time>
      </trkpt>
      <trkpt lat="47.28134" lon="-2.32456">
        <ele>18.799999237061</ele>
        <time>2022-06-26T09:49:48.000Z</time>
      </trkpt>
      <trkpt lat="47.28119" lon="-2.32453">
        <ele>18.799999237061</ele>
        <time>2022-06-26T09:49:51.000Z</time>
      </trkpt>
      <trkpt lat="47.28105" lon="-2.32445">
        <ele>18.799999237061</ele>
        <time>2022-06-26T09:49:55.000Z</time>
      </trkpt>
      <trkpt lat="47.28088" lon="-2.32433">
        <ele>18.799999237061</ele>
        <time>2022-06-26T09:49:59.000Z</time>
      </trkpt>
      <trkpt lat="47.28067" lon="-2.32429">
        <ele>18.799999237061</ele>
        <time>2022-06-26T09:50:03.000Z</time>
      </trkpt>
      <trkpt lat="47.28061" lon="-2.32428">
        <ele>18.799999237061</ele>
        <time>2022-06-26T09:50:04.000Z</time>
      </trkpt>
      <trkpt lat="47.2803" lon="-2.32426">
        <ele>18.799999237061</ele>
        <time>2022-06-26T09:50:10.000Z</time>
      </trkpt>
      <trkpt lat="47.28013" lon="-2.32423">
        <ele>19.200000762939</ele>
        <time>2022-06-26T09:50:13.000Z</time>
      </trkpt>
      <trkpt lat="47.28007" lon="-2.32421">
        <ele>19.60000038147</ele>
        <time>2022-06-26T09:50:14.000Z</time>
      </trkpt>
      <trkpt lat="47.28002" lon="-2.32419">
        <ele>20</ele>
        <time>2022-06-26T09:50:15.000Z</time>
      </trkpt>
      <trkpt lat="47.27996" lon="-2.32417">
        <ele>20.60000038147</ele>
        <time>2022-06-26T09:50:16.000Z</time>
      </trkpt>
      <trkpt lat="47.27991" lon="-2.32416">
        <ele>21</ele>
        <time>2022-06-26T09:50:17.000Z</time>
      </trkpt>
      <trkpt lat="47.27985" lon="-2.32414">
        <ele>21</ele>
        <time>2022-06-26T09:50:18.000Z</time>
      </trkpt>
      <trkpt lat="47.27964" lon="-2.32405">
        <ele>21</ele>
        <time>2022-06-26T09:50:22.000Z</time>
      </trkpt>
      <trkpt lat="47.2796" lon="-2.32405">
        <ele>21</ele>
        <time>2022-06-26T09:50:23.000Z</time>
      </trkpt>
      <trkpt lat="47.27938" lon="-2.324">
        <ele>21</ele>
        <time>2022-06-26T09:50:29.000Z</time>
      </trkpt>
      <trkpt lat="47.27925" lon="-2.32397">
        <ele>21</ele>
        <time>2022-06-26T09:50:35.000Z</time>
      </trkpt>
      <trkpt lat="47.2791" lon="-2.32389">
        <ele>21</ele>
        <time>2022-06-26T09:50:40.000Z</time>
      </trkpt>
      <trkpt lat="47.27895" lon="-2.32386">
        <ele>21</ele>
        <time>2022-06-26T09:50:45.000Z</time>
      </trkpt>
      <trkpt lat="47.2789" lon="-2.3239">
        <ele>21</ele>
        <time>2022-06-26T09:50:47.000Z</time>
      </trkpt>
      <trkpt lat="47.27889" lon="-2.3239">
        <ele>21</ele>
        <time>2022-06-26T09:50:48.000Z</time>
      </trkpt>
      <trkpt lat="47.27887" lon="-2.3239">
        <ele>21</ele>
        <time>2022-06-26T09:50:49.000Z</time>
      </trkpt>
      <trkpt lat="47.27878" lon="-2.32385">
        <ele>21</ele>
        <time>2022-06-26T09:50:53.000Z</time>
      </trkpt>
      <trkpt lat="47.27861" lon="-2.32378">
        <ele>21</ele>
        <time>2022-06-26T09:50:58.000Z</time>
      </trkpt>
      <trkpt lat="47.27846" lon="-2.32376">
        <ele>21</ele>
        <time>2022-06-26T09:51:02.000Z</time>
      </trkpt>
      <trkpt lat="47.27829" lon="-2.3238">
        <ele>21</ele>
        <time>2022-06-26T09:51:07.000Z</time>
      </trkpt>
      <trkpt lat="47.27813" lon="-2.32381">
        <ele>21</ele>
        <time>2022-06-26T09:51:11.000Z</time>
      </trkpt>
      <trkpt lat="47.27793" lon="-2.32382">
        <ele>21</ele>
        <time>2022-06-26T09:51:18.000Z</time>
      </trkpt>
      <trkpt lat="47.27789" lon="-2.32381">
        <ele>21.39999961853</ele>
        <time>2022-06-26T09:51:20.000Z</time>
      </trkpt>
      <trkpt lat="47.27785" lon="-2.32382">
        <ele>21.799999237061</ele>
        <time>2022-06-26T09:51:21.000Z</time>
      </trkpt>
      <trkpt lat="47.27783" lon="-2.32383">
        <ele>22.200000762939</ele>
        <time>2022-06-26T09:51:22.000Z</time>
      </trkpt>
      <trkpt lat="47.27779" lon="-2.32383">
        <ele>22.60000038147</ele>
        <time>2022-06-26T09:51:23.000Z</time>
      </trkpt>
      <trkpt lat="47.27775" lon="-2.32382">
        <ele>23</ele>
        <time>2022-06-26T09:51:24.000Z</time>
      </trkpt>
      <trkpt lat="47.27769" lon="-2.32376">
        <ele>23</ele>
        <time>2022-06-26T09:51:26.000Z</time>
      </trkpt>
      <trkpt lat="47.27766" lon="-2.32372">
        <ele>23</ele>
        <time>2022-06-26T09:51:27.000Z</time>
      </trkpt>
      <trkpt lat="47.27752" lon="-2.32362">
        <ele>23</ele>
        <time>2022-06-26T09:51:31.000Z</time>
      </trkpt>
      <trkpt lat="47.2775" lon="-2.32359">
        <ele>23</ele>
        <time>2022-06-26T09:51:32.000Z</time>
      </trkpt>
      <trkpt lat="47.2773" lon="-2.32346">
        <ele>23</ele>
        <time>2022-06-26T09:51:38.000Z</time>
      </trkpt>
      <trkpt lat="47.27708" lon="-2.32331">
        <ele>23</ele>
        <time>2022-06-26T09:51:46.000Z</time>
      </trkpt>
      <trkpt lat="47.27684" lon="-2.32319">
        <ele>23</ele>
        <time>2022-06-26T09:51:53.000Z</time>
      </trkpt>
      <trkpt lat="47.27648" lon="-2.32309">
        <ele>23</ele>
        <time>2022-06-26T09:52:00.000Z</time>
      </trkpt>
      <trkpt lat="47.27625" lon="-2.32298">
        <ele>23</ele>
        <time>2022-06-26T09:52:06.000Z</time>
      </trkpt>
      <trkpt lat="47.27604" lon="-2.32283">
        <ele>23</ele>
        <time>2022-06-26T09:52:12.000Z</time>
      </trkpt>
      <trkpt lat="47.27596" lon="-2.32275">
        <ele>22.60000038147</ele>
        <time>2022-06-26T09:52:15.000Z</time>
      </trkpt>
      <trkpt lat="47.27593" lon="-2.32272">
        <ele>22.200000762939</ele>
        <time>2022-06-26T09:52:16.000Z</time>
      </trkpt>
      <trkpt lat="47.27589" lon="-2.32268">
        <ele>21.799999237061</ele>
        <time>2022-06-26T09:52:17.000Z</time>
      </trkpt>
      <trkpt lat="47.27586" lon="-2.32265">
        <ele>21.200000762939</ele>
        <time>2022-06-26T09:52:18.000Z</time>
      </trkpt>
      <trkpt lat="47.27582" lon="-2.32261">
        <ele>20.799999237061</ele>
        <time>2022-06-26T09:52:19.000Z</time>
      </trkpt>
      <trkpt lat="47.27564" lon="-2.32246">
        <ele>20.799999237061</ele>
        <time>2022-06-26T09:52:23.000Z</time>
      </trkpt>
      <trkpt lat="47.27555" lon="-2.32238">
        <ele>20.39999961853</ele>
        <time>2022-06-26T09:52:25.000Z</time>
      </trkpt>
      <trkpt lat="47.2755" lon="-2.32234">
        <ele>20</ele>
        <time>2022-06-26T09:52:26.000Z</time>
      </trkpt>
      <trkpt lat="47.27545" lon="-2.3223">
        <ele>19.39999961853</ele>
        <time>2022-06-26T09:52:27.000Z</time>
      </trkpt>
      <trkpt lat="47.2754" lon="-2.32226">
        <ele>19</ele>
        <time>2022-06-26T09:52:28.000Z</time>
      </trkpt>
      <trkpt lat="47.27534" lon="-2.32221">
        <ele>18.60000038147</ele>
        <time>2022-06-26T09:52:29.000Z</time>
      </trkpt>
      <trkpt lat="47.27529" lon="-2.32216">
        <ele>18.60000038147</ele>
        <time>2022-06-26T09:52:30.000Z</time>
      </trkpt>
      <trkpt lat="47.27519" lon="-2.32205">
        <ele>18.200000762939</ele>
        <time>2022-06-26T09:52:32.000Z</time>
      </trkpt>
      <trkpt lat="47.27514" lon="-2.32198">
        <ele>17.60000038147</ele>
        <time>2022-06-26T09:52:33.000Z</time>
      </trkpt>
      <trkpt lat="47.27509" lon="-2.32191">
        <ele>17.200000762939</ele>
        <time>2022-06-26T09:52:34.000Z</time>
      </trkpt>
      <trkpt lat="47.27503" lon="-2.32184">
        <ele>16.799999237061</ele>
        <time>2022-06-26T09:52:35.000Z</time>
      </trkpt>
      <trkpt lat="47.27498" lon="-2.32177">
        <ele>16.39999961853</ele>
        <time>2022-06-26T09:52:36.000Z</time>
      </trkpt>
      <trkpt lat="47.27481" lon="-2.32155">
        <ele>16</ele>
        <time>2022-06-26T09:52:39.000Z</time>
      </trkpt>
      <trkpt lat="47.27476" lon="-2.32148">
        <ele>15.60000038147</ele>
        <time>2022-06-26T09:52:40.000Z</time>
      </trkpt>
      <trkpt lat="47.27471" lon="-2.32141">
        <ele>15</ele>
        <time>2022-06-26T09:52:41.000Z</time>
      </trkpt>
      <trkpt lat="47.27466" lon="-2.32135">
        <ele>14.60000038147</ele>
        <time>2022-06-26T09:52:42.000Z</time>
      </trkpt>
      <trkpt lat="47.27461" lon="-2.32128">
        <ele>14.199999809265</ele>
        <time>2022-06-26T09:52:43.000Z</time>
      </trkpt>
      <trkpt lat="47.27439" lon="-2.32099">
        <ele>14.199999809265</ele>
        <time>2022-06-26T09:52:48.000Z</time>
      </trkpt>
      <trkpt lat="47.27406" lon="-2.32059">
        <ele>14.199999809265</ele>
        <time>2022-06-26T09:52:55.000Z</time>
      </trkpt>
      <trkpt lat="47.27401" lon="-2.32053">
        <ele>13.800000190735</ele>
        <time>2022-06-26T09:52:56.000Z</time>
      </trkpt>
      <trkpt lat="47.27395" lon="-2.32047">
        <ele>13.39999961853</ele>
        <time>2022-06-26T09:52:57.000Z</time>
      </trkpt>
      <trkpt lat="47.27389" lon="-2.3204">
        <ele>13</ele>
        <time>2022-06-26T09:52:58.000Z</time>
      </trkpt>
      <trkpt lat="47.27384" lon="-2.32033">
        <ele>12.60000038147</ele>
        <time>2022-06-26T09:52:59.000Z</time>
      </trkpt>
      <trkpt lat="47.27378" lon="-2.32027">
        <ele>12.199999809265</ele>
        <time>2022-06-26T09:53:00.000Z</time>
      </trkpt>
      <trkpt lat="47.27371" lon="-2.3202">
        <ele>12.199999809265</ele>
        <time>2022-06-26T09:53:01.000Z</time>
      </trkpt>
      <trkpt lat="47.27365" lon="-2.32013">
        <ele>11.800000190735</ele>
        <time>2022-06-26T09:53:02.000Z</time>
      </trkpt>
      <trkpt lat="47.27359" lon="-2.32006">
        <ele>11.39999961853</ele>
        <time>2022-06-26T09:53:03.000Z</time>
      </trkpt>
      <trkpt lat="47.27352" lon="-2.31999">
        <ele>11</ele>
        <time>2022-06-26T09:53:04.000Z</time>
      </trkpt>
      <trkpt lat="47.27345" lon="-2.31992">
        <ele>10.60000038147</ele>
        <time>2022-06-26T09:53:05.000Z</time>
      </trkpt>
      <trkpt lat="47.27339" lon="-2.31985">
        <ele>10.199999809265</ele>
        <time>2022-06-26T09:53:06.000Z</time>
      </trkpt>
      <trkpt lat="47.2732" lon="-2.31965">
        <ele>10.199999809265</ele>
        <time>2022-06-26T09:53:09.000Z</time>
      </trkpt>
      <trkpt lat="47.27293" lon="-2.31942">
        <ele>10.199999809265</ele>
        <time>2022-06-26T09:53:14.000Z</time>
      </trkpt>
      <trkpt lat="47.27288" lon="-2.3194">
        <ele>10.199999809265</ele>
        <time>2022-06-26T09:53:15.000Z</time>
      </trkpt>
      <trkpt lat="47.27259" lon="-2.3193">
        <ele>10.199999809265</ele>
        <time>2022-06-26T09:53:20.000Z</time>
      </trkpt>
      <trkpt lat="47.27232" lon="-2.3192">
        <ele>10.199999809265</ele>
        <time>2022-06-26T09:53:25.000Z</time>
      </trkpt>
      <trkpt lat="47.27218" lon="-2.31923">
        <ele>10.199999809265</ele>
        <time>2022-06-26T09:53:29.000Z</time>
      </trkpt>
      <trkpt lat="47.27215" lon="-2.31927">
        <ele>10.199999809265</ele>
        <time>2022-06-26T09:53:30.000Z</time>
      </trkpt>
      <trkpt lat="47.27199" lon="-2.3195">
        <ele>10.199999809265</ele>
        <time>2022-06-26T09:53:35.000Z</time>
      </trkpt>
      <trkpt lat="47.27191" lon="-2.31958">
        <ele>9.8000001907349</ele>
        <time>2022-06-26T09:53:37.000Z</time>
      </trkpt>
      <trkpt lat="47.27186" lon="-2.31962">
        <ele>9.3999996185303</ele>
        <time>2022-06-26T09:53:38.000Z</time>
      </trkpt>
      <trkpt lat="47.27182" lon="-2.31967">
        <ele>9</ele>
        <time>2022-06-26T09:53:39.000Z</time>
      </trkpt>
      <trkpt lat="47.27178" lon="-2.31974">
        <ele>8.6000003814697</ele>
        <time>2022-06-26T09:53:40.000Z</time>
      </trkpt>
      <trkpt lat="47.27174" lon="-2.3198">
        <ele>8.1999998092651</ele>
        <time>2022-06-26T09:53:41.000Z</time>
      </trkpt>
      <trkpt lat="47.27165" lon="-2.31989">
        <ele>8.1999998092651</ele>
        <time>2022-06-26T09:53:43.000Z</time>
      </trkpt>
      <trkpt lat="47.27149" lon="-2.3199">
        <ele>8.1999998092651</ele>
        <time>2022-06-26T09:53:46.000Z</time>
      </trkpt>
      <trkpt lat="47.2714" lon="-2.31983">
        <ele>8.1999998092651</ele>
        <time>2022-06-26T09:53:48.000Z</time>
      </trkpt>
      <trkpt lat="47.27132" lon="-2.31977">
        <ele>8.1999998092651</ele>
        <time>2022-06-26T09:53:50.000Z</time>
      </trkpt>
      <trkpt lat="47.27106" lon="-2.31961">
        <ele>8.1999998092651</ele>
        <time>2022-06-26T09:53:56.000Z</time>
      </trkpt>
      <trkpt lat="47.27101" lon="-2.31959">
        <ele>8.1999998092651</ele>
        <time>2022-06-26T09:53:57.000Z</time>
      </trkpt>
      <trkpt lat="47.27071" lon="-2.31956">
        <ele>8.1999998092651</ele>
        <time>2022-06-26T09:54:04.000Z</time>
      </trkpt>
      <trkpt lat="47.27058" lon="-2.31955">
        <ele>8.6000003814697</ele>
        <time>2022-06-26T09:54:07.000Z</time>
      </trkpt>
      <trkpt lat="47.27054" lon="-2.31955">
        <ele>9</ele>
        <time>2022-06-26T09:54:08.000Z</time>
      </trkpt>
      <trkpt lat="47.2705" lon="-2.31954">
        <ele>9.3999996185303</ele>
        <time>2022-06-26T09:54:09.000Z</time>
      </trkpt>
      <trkpt lat="47.27048" lon="-2.31954">
        <ele>9.8000001907349</ele>
        <time>2022-06-26T09:54:10.000Z</time>
      </trkpt>
      <trkpt lat="47.27045" lon="-2.31954">
        <ele>10.199999809265</ele>
        <time>2022-06-26T09:54:11.000Z</time>
      </trkpt>
      <trkpt lat="47.27032" lon="-2.31962">
        <ele>10.199999809265</ele>
        <time>2022-06-26T09:54:16.000Z</time>
      </trkpt>
      <trkpt lat="47.27012" lon="-2.31978">
        <ele>10.199999809265</ele>
        <time>2022-06-26T09:54:22.000Z</time>
      </trkpt>
      <trkpt lat="47.27013" lon="-2.31992">
        <ele>10.199999809265</ele>
        <time>2022-06-26T09:54:26.000Z</time>
      </trkpt>
      <trkpt lat="47.27015" lon="-2.32">
        <ele>10.199999809265</ele>
        <time>2022-06-26T09:54:28.000Z</time>
      </trkpt>
      <trkpt lat="47.2702" lon="-2.32014">
        <ele>10.199999809265</ele>
        <time>2022-06-26T09:54:31.000Z</time>
      </trkpt>
      <trkpt lat="47.27026" lon="-2.32046">
        <ele>10.199999809265</ele>
        <time>2022-06-26T09:54:37.000Z</time>
      </trkpt>
      <trkpt lat="47.27025" lon="-2.32059">
        <ele>9.8000001907349</ele>
        <time>2022-06-26T09:54:39.000Z</time>
      </trkpt>
      <trkpt lat="47.27025" lon="-2.32065">
        <ele>9.3999996185303</ele>
        <time>2022-06-26T09:54:40.000Z</time>
      </trkpt>
      <trkpt lat="47.27024" lon="-2.32071">
        <ele>8.8000001907349</ele>
        <time>2022-06-26T09:54:41.000Z</time>
      </trkpt>
      <trkpt lat="47.27023" lon="-2.32078">
        <ele>8.3999996185303</ele>
        <time>2022-06-26T09:54:42.000Z</time>
      </trkpt>
      <trkpt lat="47.27021" lon="-2.32085">
        <ele>8</ele>
        <time>2022-06-26T09:54:43.000Z</time>
      </trkpt>
      <trkpt lat="47.27019" lon="-2.32092">
        <ele>8</ele>
        <time>2022-06-26T09:54:44.000Z</time>
      </trkpt>
      <trkpt lat="47.27014" lon="-2.32104">
        <ele>8</ele>
        <time>2022-06-26T09:54:46.000Z</time>
      </trkpt>
      <trkpt lat="47.27004" lon="-2.3212">
        <ele>8</ele>
        <time>2022-06-26T09:54:49.000Z</time>
      </trkpt>
      <trkpt lat="47.26995" lon="-2.32131">
        <ele>8</ele>
        <time>2022-06-26T09:54:51.000Z</time>
      </trkpt>
      <trkpt lat="47.26993" lon="-2.32145">
        <ele>8</ele>
        <time>2022-06-26T09:54:53.000Z</time>
      </trkpt>
      <trkpt lat="47.26994" lon="-2.32152">
        <ele>8</ele>
        <time>2022-06-26T09:54:54.000Z</time>
      </trkpt>
      <trkpt lat="47.27002" lon="-2.3217">
        <ele>7.5999999046326</ele>
        <time>2022-06-26T09:54:57.000Z</time>
      </trkpt>
      <trkpt lat="47.27005" lon="-2.32176">
        <ele>7.1999998092651</ele>
        <time>2022-06-26T09:54:58.000Z</time>
      </trkpt>
      <trkpt lat="47.27009" lon="-2.32181">
        <ele>6.8000001907349</ele>
        <time>2022-06-26T09:54:59.000Z</time>
      </trkpt>
      <trkpt lat="47.27012" lon="-2.32185">
        <ele>6.4000000953674</ele>
        <time>2022-06-26T09:55:00.000Z</time>
      </trkpt>
      <trkpt lat="47.27016" lon="-2.3219">
        <ele>6</ele>
        <time>2022-06-26T09:55:01.000Z</time>
      </trkpt>
      <trkpt lat="47.27023" lon="-2.32205">
        <ele>6</ele>
        <time>2022-06-26T09:55:04.000Z</time>
      </trkpt>
      <trkpt lat="47.27026" lon="-2.32237">
        <ele>6</ele>
        <time>2022-06-26T09:55:09.000Z</time>
      </trkpt>
      <trkpt lat="47.27026" lon="-2.32256">
        <ele>6</ele>
        <time>2022-06-26T09:55:12.000Z</time>
      </trkpt>
      <trkpt lat="47.27024" lon="-2.32275">
        <ele>6</ele>
        <time>2022-06-26T09:55:14.000Z</time>
      </trkpt>
      <trkpt lat="47.27023" lon="-2.32315">
        <ele>6</ele>
        <time>2022-06-26T09:55:19.000Z</time>
      </trkpt>
      <trkpt lat="47.27024" lon="-2.32336">
        <ele>6</ele>
        <time>2022-06-26T09:55:22.000Z</time>
      </trkpt>
      <trkpt lat="47.27028" lon="-2.32355">
        <ele>6</ele>
        <time>2022-06-26T09:55:25.000Z</time>
      </trkpt>
      <trkpt lat="47.27028" lon="-2.32363">
        <ele>6</ele>
        <time>2022-06-26T09:55:26.000Z</time>
      </trkpt>
      <trkpt lat="47.27032" lon="-2.32413">
        <ele>6</ele>
        <time>2022-06-26T09:55:32.000Z</time>
      </trkpt>
      <trkpt lat="47.27033" lon="-2.32438">
        <ele>6</ele>
        <time>2022-06-26T09:55:35.000Z</time>
      </trkpt>
      <trkpt lat="47.27034" lon="-2.32455">
        <ele>6</ele>
        <time>2022-06-26T09:55:37.000Z</time>
      </trkpt>
      <trkpt lat="47.27033" lon="-2.32462">
        <ele>6</ele>
        <time>2022-06-26T09:55:38.000Z</time>
      </trkpt>
      <trkpt lat="47.27033" lon="-2.32469">
        <ele>6</ele>
        <time>2022-06-26T09:55:39.000Z</time>
      </trkpt>
      <trkpt lat="47.27028" lon="-2.32488">
        <ele>6</ele>
        <time>2022-06-26T09:55:42.000Z</time>
      </trkpt>
      <trkpt lat="47.27015" lon="-2.32496">
        <ele>6</ele>
        <time>2022-06-26T09:55:45.000Z</time>
      </trkpt>
      <trkpt lat="47.27006" lon="-2.32497">
        <ele>6</ele>
        <time>2022-06-26T09:55:47.000Z</time>
      </trkpt>
      <trkpt lat="47.26998" lon="-2.32493">
        <ele>6</ele>
        <time>2022-06-26T09:55:49.000Z</time>
      </trkpt>
      <trkpt lat="47.26987" lon="-2.32469">
        <ele>6</ele>
        <time>2022-06-26T09:55:54.000Z</time>
      </trkpt>
      <trkpt lat="47.26982" lon="-2.32459">
        <ele>6</ele>
        <time>2022-06-26T09:55:56.000Z</time>
      </trkpt>
      <trkpt lat="47.26973" lon="-2.32446">
        <ele>6</ele>
        <time>2022-06-26T09:55:59.000Z</time>
      </trkpt>
      <trkpt lat="47.2697" lon="-2.32442">
        <ele>6</ele>
        <time>2022-06-26T09:56:00.000Z</time>
      </trkpt>
      <trkpt lat="47.26962" lon="-2.3243">
        <ele>6.4000000953674</ele>
        <time>2022-06-26T09:56:03.000Z</time>
      </trkpt>
      <trkpt lat="47.26959" lon="-2.32426">
        <ele>6.8000001907349</ele>
        <time>2022-06-26T09:56:04.000Z</time>
      </trkpt>
      <trkpt lat="47.26956" lon="-2.32421">
        <ele>7.5999999046326</ele>
        <time>2022-06-26T09:56:05.000Z</time>
      </trkpt>
      <trkpt lat="47.26954" lon="-2.32417">
        <ele>8</ele>
        <time>2022-06-26T09:56:06.000Z</time>
      </trkpt>
      <trkpt lat="47.26942" lon="-2.32384">
        <ele>8</ele>
        <time>2022-06-26T09:56:12.000Z</time>
      </trkpt>
      <trkpt lat="47.26932" lon="-2.32346">
        <ele>8</ele>
        <time>2022-06-26T09:56:19.000Z</time>
      </trkpt>
      <trkpt lat="47.2692" lon="-2.32332">
        <ele>8</ele>
        <time>2022-06-26T09:56:24.000Z</time>
      </trkpt>
      <trkpt lat="47.26917" lon="-2.32326">
        <ele>8.3999996185303</ele>
        <time>2022-06-26T09:56:27.000Z</time>
      </trkpt>
      <trkpt lat="47.26917" lon="-2.32323">
        <ele>8.8000001907349</ele>
        <time>2022-06-26T09:56:28.000Z</time>
      </trkpt>
      <trkpt lat="47.26918" lon="-2.3232">
        <ele>9.1999998092651</ele>
        <time>2022-06-26T09:56:29.000Z</time>
      </trkpt>
      <trkpt lat="47.26918" lon="-2.32317">
        <ele>10</ele>
        <time>2022-06-26T09:56:30.000Z</time>
      </trkpt>
      <trkpt lat="47.26917" lon="-2.32308">
        <ele>10</ele>
        <time>2022-06-26T09:56:32.000Z</time>
      </trkpt>
      <trkpt lat="47.2691" lon="-2.32287">
        <ele>10</ele>
        <time>2022-06-26T09:56:36.000Z</time>
      </trkpt>
      <trkpt lat="47.26907" lon="-2.32282">
        <ele>10</ele>
        <time>2022-06-26T09:56:37.000Z</time>
      </trkpt>
      <trkpt lat="47.26904" lon="-2.32276">
        <ele>10</ele>
        <time>2022-06-26T09:56:38.000Z</time>
      </trkpt>
      <trkpt lat="47.26894" lon="-2.32256">
        <ele>10</ele>
        <time>2022-06-26T09:56:42.000Z</time>
      </trkpt>
      <trkpt lat="47.26881" lon="-2.32232">
        <ele>10.39999961853</ele>
        <time>2022-06-26T09:56:47.000Z</time>
      </trkpt>
      <trkpt lat="47.26878" lon="-2.32228">
        <ele>10.800000190735</ele>
        <time>2022-06-26T09:56:48.000Z</time>
      </trkpt>
      <trkpt lat="47.26876" lon="-2.32223">
        <ele>11.39999961853</ele>
        <time>2022-06-26T09:56:49.000Z</time>
      </trkpt>
      <trkpt lat="47.26873" lon="-2.32219">
        <ele>11.800000190735</ele>
        <time>2022-06-26T09:56:50.000Z</time>
      </trkpt>
      <trkpt lat="47.26871" lon="-2.32214">
        <ele>12.199999809265</ele>
        <time>2022-06-26T09:56:51.000Z</time>
      </trkpt>
      <trkpt lat="47.26866" lon="-2.32204">
        <ele>12.199999809265</ele>
        <time>2022-06-26T09:56:53.000Z</time>
      </trkpt>
      <trkpt lat="47.26857" lon="-2.32184">
        <ele>12.199999809265</ele>
        <time>2022-06-26T09:56:57.000Z</time>
      </trkpt>
      <trkpt lat="47.26852" lon="-2.32174">
        <ele>12.60000038147</ele>
        <time>2022-06-26T09:56:59.000Z</time>
      </trkpt>
      <trkpt lat="47.2685" lon="-2.32168">
        <ele>13</ele>
        <time>2022-06-26T09:57:00.000Z</time>
      </trkpt>
      <trkpt lat="47.26847" lon="-2.32162">
        <ele>13.39999961853</ele>
        <time>2022-06-26T09:57:01.000Z</time>
      </trkpt>
      <trkpt lat="47.26844" lon="-2.32157">
        <ele>13.800000190735</ele>
        <time>2022-06-26T09:57:02.000Z</time>
      </trkpt>
      <trkpt lat="47.26842" lon="-2.32151">
        <ele>14.199999809265</ele>
        <time>2022-06-26T09:57:03.000Z</time>
      </trkpt>
      <trkpt lat="47.26839" lon="-2.32146">
        <ele>14.199999809265</ele>
        <time>2022-06-26T09:57:04.000Z</time>
      </trkpt>
      <trkpt lat="47.26833" lon="-2.3212">
        <ele>14.199999809265</ele>
        <time>2022-06-26T09:57:08.000Z</time>
      </trkpt>
      <trkpt lat="47.26825" lon="-2.32096">
        <ele>14.199999809265</ele>
        <time>2022-06-26T09:57:12.000Z</time>
      </trkpt>
      <trkpt lat="47.26822" lon="-2.32083">
        <ele>14.199999809265</ele>
        <time>2022-06-26T09:57:14.000Z</time>
      </trkpt>
      <trkpt lat="47.26813" lon="-2.32042">
        <ele>15.199999809265</ele>
        <time>2022-06-26T09:57:20.000Z</time>
      </trkpt>
      <trkpt lat="47.26811" lon="-2.32036">
        <ele>15.60000038147</ele>
        <time>2022-06-26T09:57:21.000Z</time>
      </trkpt>
      <trkpt lat="47.26809" lon="-2.32029">
        <ele>16</ele>
        <time>2022-06-26T09:57:22.000Z</time>
      </trkpt>
      <trkpt lat="47.26807" lon="-2.32023">
        <ele>16.39999961853</ele>
        <time>2022-06-26T09:57:23.000Z</time>
      </trkpt>
      <trkpt lat="47.26794" lon="-2.31994">
        <ele>16.39999961853</ele>
        <time>2022-06-26T09:57:28.000Z</time>
      </trkpt>
      <trkpt lat="47.2678" lon="-2.31969">
        <ele>16.799999237061</ele>
        <time>2022-06-26T09:57:33.000Z</time>
      </trkpt>
      <trkpt lat="47.26777" lon="-2.31963">
        <ele>17.200000762939</ele>
        <time>2022-06-26T09:57:34.000Z</time>
      </trkpt>
      <trkpt lat="47.26775" lon="-2.31959">
        <ele>17.60000038147</ele>
        <time>2022-06-26T09:57:35.000Z</time>
      </trkpt>
      <trkpt lat="47.26773" lon="-2.31954">
        <ele>18</ele>
        <time>2022-06-26T09:57:36.000Z</time>
      </trkpt>
      <trkpt lat="47.26771" lon="-2.31949">
        <ele>18.60000038147</ele>
        <time>2022-06-26T09:57:37.000Z</time>
      </trkpt>
      <trkpt lat="47.26766" lon="-2.31944">
        <ele>18.60000038147</ele>
        <time>2022-06-26T09:57:39.000Z</time>
      </trkpt>
      <trkpt lat="47.26757" lon="-2.31953">
        <ele>18.60000038147</ele>
        <time>2022-06-26T09:57:42.000Z</time>
      </trkpt>
      <trkpt lat="47.26752" lon="-2.31962">
        <ele>18.60000038147</ele>
        <time>2022-06-26T09:57:44.000Z</time>
      </trkpt>
      <trkpt lat="47.26746" lon="-2.31972">
        <ele>18.60000038147</ele>
        <time>2022-06-26T09:57:47.000Z</time>
      </trkpt>
      <trkpt lat="47.26734" lon="-2.31982">
        <ele>19</ele>
        <time>2022-06-26T09:57:51.000Z</time>
      </trkpt>
      <trkpt lat="47.26731" lon="-2.31985">
        <ele>19.39999961853</ele>
        <time>2022-06-26T09:57:52.000Z</time>
      </trkpt>
      <trkpt lat="47.26728" lon="-2.31987">
        <ele>19.799999237061</ele>
        <time>2022-06-26T09:57:53.000Z</time>
      </trkpt>
      <trkpt lat="47.26724" lon="-2.3199">
        <ele>20.200000762939</ele>
        <time>2022-06-26T09:57:54.000Z</time>
      </trkpt>
      <trkpt lat="47.2672" lon="-2.31991">
        <ele>20.60000038147</ele>
        <time>2022-06-26T09:57:55.000Z</time>
      </trkpt>
      <trkpt lat="47.26713" lon="-2.31995">
        <ele>20.60000038147</ele>
        <time>2022-06-26T09:57:57.000Z</time>
      </trkpt>
      <trkpt lat="47.26699" lon="-2.32011">
        <ele>21</ele>
        <time>2022-06-26T09:58:02.000Z</time>
      </trkpt>
      <trkpt lat="47.26697" lon="-2.32015">
        <ele>21.39999961853</ele>
        <time>2022-06-26T09:58:03.000Z</time>
      </trkpt>
      <trkpt lat="47.26694" lon="-2.3202">
        <ele>21.799999237061</ele>
        <time>2022-06-26T09:58:04.000Z</time>
      </trkpt>
      <trkpt lat="47.26692" lon="-2.32024">
        <ele>22.39999961853</ele>
        <time>2022-06-26T09:58:05.000Z</time>
      </trkpt>
      <trkpt lat="47.2669" lon="-2.32029">
        <ele>22.799999237061</ele>
        <time>2022-06-26T09:58:06.000Z</time>
      </trkpt>
      <trkpt lat="47.26688" lon="-2.32033">
        <ele>22.799999237061</ele>
        <time>2022-06-26T09:58:07.000Z</time>
      </trkpt>
      <trkpt lat="47.26684" lon="-2.32056">
        <ele>22.799999237061</ele>
        <time>2022-06-26T09:58:12.000Z</time>
      </trkpt>
      <trkpt lat="47.26684" lon="-2.32092">
        <ele>22.799999237061</ele>
        <time>2022-06-26T09:58:19.000Z</time>
      </trkpt>
      <trkpt lat="47.26679" lon="-2.32122">
        <ele>22.799999237061</ele>
        <time>2022-06-26T09:58:25.000Z</time>
      </trkpt>
      <trkpt lat="47.26672" lon="-2.32122">
        <ele>22.799999237061</ele>
        <time>2022-06-26T09:58:29.000Z</time>
      </trkpt>
      <trkpt lat="47.2667" lon="-2.32113">
        <ele>22.799999237061</ele>
        <time>2022-06-26T09:58:31.000Z</time>
      </trkpt>
      <trkpt lat="47.26669" lon="-2.32108">
        <ele>22.799999237061</ele>
        <time>2022-06-26T09:58:32.000Z</time>
      </trkpt>
      <trkpt lat="47.26659" lon="-2.32065">
        <ele>22.799999237061</ele>
        <time>2022-06-26T09:58:39.000Z</time>
      </trkpt>
      <trkpt lat="47.26649" lon="-2.32014">
        <ele>22.799999237061</ele>
        <time>2022-06-26T09:58:47.000Z</time>
      </trkpt>
      <trkpt lat="47.26646" lon="-2.32004">
        <ele>22.799999237061</ele>
        <time>2022-06-26T09:58:51.000Z</time>
      </trkpt>
      <trkpt lat="47.26643" lon="-2.32001">
        <ele>22.799999237061</ele>
        <time>2022-06-26T09:58:53.000Z</time>
      </trkpt>
      <trkpt lat="47.26638" lon="-2.32002">
        <ele>22.799999237061</ele>
        <time>2022-06-26T09:58:55.000Z</time>
      </trkpt>
      <trkpt lat="47.26618" lon="-2.32011">
        <ele>22.799999237061</ele>
        <time>2022-06-26T09:59:00.000Z</time>
      </trkpt>
      <trkpt lat="47.26589" lon="-2.3202">
        <ele>22.799999237061</ele>
        <time>2022-06-26T09:59:06.000Z</time>
      </trkpt>
      <trkpt lat="47.26556" lon="-2.32033">
        <ele>22.799999237061</ele>
        <time>2022-06-26T09:59:12.000Z</time>
      </trkpt>
      <trkpt lat="47.26545" lon="-2.32035">
        <ele>22.799999237061</ele>
        <time>2022-06-26T09:59:15.000Z</time>
      </trkpt>
      <trkpt lat="47.26543" lon="-2.32034">
        <ele>22.39999961853</ele>
        <time>2022-06-26T09:59:16.000Z</time>
      </trkpt>
      <trkpt lat="47.26542" lon="-2.32031">
        <ele>21.799999237061</ele>
        <time>2022-06-26T09:59:17.000Z</time>
      </trkpt>
      <trkpt lat="47.26541" lon="-2.32028">
        <ele>21.39999961853</ele>
        <time>2022-06-26T09:59:18.000Z</time>
      </trkpt>
      <trkpt lat="47.26541" lon="-2.32025">
        <ele>21</ele>
        <time>2022-06-26T09:59:19.000Z</time>
      </trkpt>
      <trkpt lat="47.26539" lon="-2.3202">
        <ele>20.60000038147</ele>
        <time>2022-06-26T09:59:20.000Z</time>
      </trkpt>
      <trkpt lat="47.26536" lon="-2.32013">
        <ele>20.60000038147</ele>
        <time>2022-06-26T09:59:22.000Z</time>
      </trkpt>
      <trkpt lat="47.26522" lon="-2.31999">
        <ele>20.60000038147</ele>
        <time>2022-06-26T09:59:27.000Z</time>
      </trkpt>
      <trkpt lat="47.26518" lon="-2.31999">
        <ele>20.200000762939</ele>
        <time>2022-06-26T09:59:28.000Z</time>
      </trkpt>
      <trkpt lat="47.26514" lon="-2.31999">
        <ele>19.799999237061</ele>
        <time>2022-06-26T09:59:29.000Z</time>
      </trkpt>
      <trkpt lat="47.2651" lon="-2.31999">
        <ele>19.200000762939</ele>
        <time>2022-06-26T09:59:30.000Z</time>
      </trkpt>
      <trkpt lat="47.26504" lon="-2.31999">
        <ele>18.799999237061</ele>
        <time>2022-06-26T09:59:31.000Z</time>
      </trkpt>
      <trkpt lat="47.26499" lon="-2.31999">
        <ele>18.39999961853</ele>
        <time>2022-06-26T09:59:32.000Z</time>
      </trkpt>
      <trkpt lat="47.26493" lon="-2.31999">
        <ele>17.799999237061</ele>
        <time>2022-06-26T09:59:33.000Z</time>
      </trkpt>
      <trkpt lat="47.26487" lon="-2.32">
        <ele>17.39999961853</ele>
        <time>2022-06-26T09:59:34.000Z</time>
      </trkpt>
      <trkpt lat="47.26482" lon="-2.31999">
        <ele>16.799999237061</ele>
        <time>2022-06-26T09:59:35.000Z</time>
      </trkpt>
      <trkpt lat="47.26477" lon="-2.31999">
        <ele>16.200000762939</ele>
        <time>2022-06-26T09:59:36.000Z</time>
      </trkpt>
      <trkpt lat="47.26465" lon="-2.32">
        <ele>15.800000190735</ele>
        <time>2022-06-26T09:59:38.000Z</time>
      </trkpt>
      <trkpt lat="47.26459" lon="-2.32">
        <ele>15.39999961853</ele>
        <time>2022-06-26T09:59:39.000Z</time>
      </trkpt>
      <trkpt lat="47.26452" lon="-2.32">
        <ele>15</ele>
        <time>2022-06-26T09:59:40.000Z</time>
      </trkpt>
      <trkpt lat="47.26446" lon="-2.32">
        <ele>14.39999961853</ele>
        <time>2022-06-26T09:59:41.000Z</time>
      </trkpt>
      <trkpt lat="47.2644" lon="-2.31999">
        <ele>14</ele>
        <time>2022-06-26T09:59:42.000Z</time>
      </trkpt>
      <trkpt lat="47.26433" lon="-2.31999">
        <ele>14</ele>
        <time>2022-06-26T09:59:43.000Z</time>
      </trkpt>
      <trkpt lat="47.26426" lon="-2.31998">
        <ele>14</ele>
        <time>2022-06-26T09:59:44.000Z</time>
      </trkpt>
      <trkpt lat="47.26419" lon="-2.31997">
        <ele>13.60000038147</ele>
        <time>2022-06-26T09:59:45.000Z</time>
      </trkpt>
      <trkpt lat="47.26413" lon="-2.31996">
        <ele>13</ele>
        <time>2022-06-26T09:59:46.000Z</time>
      </trkpt>
      <trkpt lat="47.26407" lon="-2.31995">
        <ele>12.199999809265</ele>
        <time>2022-06-26T09:59:47.000Z</time>
      </trkpt>
      <trkpt lat="47.26401" lon="-2.31994">
        <ele>11.60000038147</ele>
        <time>2022-06-26T09:59:48.000Z</time>
      </trkpt>
      <trkpt lat="47.26394" lon="-2.31993">
        <ele>11</ele>
        <time>2022-06-26T09:59:49.000Z</time>
      </trkpt>
      <trkpt lat="47.26388" lon="-2.31993">
        <ele>10.60000038147</ele>
        <time>2022-06-26T09:59:50.000Z</time>
      </trkpt>
      <trkpt lat="47.26381" lon="-2.31992">
        <ele>10</ele>
        <time>2022-06-26T09:59:51.000Z</time>
      </trkpt>
      <trkpt lat="47.26375" lon="-2.31991">
        <ele>9.3999996185303</ele>
        <time>2022-06-26T09:59:52.000Z</time>
      </trkpt>
      <trkpt lat="47.2637" lon="-2.31989">
        <ele>9.3999996185303</ele>
        <time>2022-06-26T09:59:53.000Z</time>
      </trkpt>
      <trkpt lat="47.26366" lon="-2.31985">
        <ele>9</ele>
        <time>2022-06-26T09:59:54.000Z</time>
      </trkpt>
      <trkpt lat="47.26362" lon="-2.31978">
        <ele>8.6000003814697</ele>
        <time>2022-06-26T09:59:55.000Z</time>
      </trkpt>
      <trkpt lat="47.26359" lon="-2.3197">
        <ele>8.1999998092651</ele>
        <time>2022-06-26T09:59:56.000Z</time>
      </trkpt>
      <trkpt lat="47.26356" lon="-2.31962">
        <ele>7.8000001907349</ele>
        <time>2022-06-26T09:59:57.000Z</time>
      </trkpt>
      <trkpt lat="47.26354" lon="-2.31954">
        <ele>7.1999998092651</ele>
        <time>2022-06-26T09:59:58.000Z</time>
      </trkpt>
      <trkpt lat="47.2635" lon="-2.31948">
        <ele>7.1999998092651</ele>
        <time>2022-06-26T09:59:59.000Z</time>
      </trkpt>
      <trkpt lat="47.26347" lon="-2.31943">
        <ele>7.1999998092651</ele>
        <time>2022-06-26T10:00:00.000Z</time>
      </trkpt>
      <trkpt lat="47.26332" lon="-2.31941">
        <ele>7.1999998092651</ele>
        <time>2022-06-26T10:00:03.000Z</time>
      </trkpt>
      <trkpt lat="47.26327" lon="-2.31941">
        <ele>7.1999998092651</ele>
        <time>2022-06-26T10:00:04.000Z</time>
      </trkpt>
      <trkpt lat="47.26317" lon="-2.3194">
        <ele>6.8000001907349</ele>
        <time>2022-06-26T10:00:06.000Z</time>
      </trkpt>
      <trkpt lat="47.26314" lon="-2.31936">
        <ele>6.4000000953674</ele>
        <time>2022-06-26T10:00:07.000Z</time>
      </trkpt>
      <trkpt lat="47.26312" lon="-2.31931">
        <ele>6</ele>
        <time>2022-06-26T10:00:08.000Z</time>
      </trkpt>
      <trkpt lat="47.26311" lon="-2.31926">
        <ele>5.5999999046326</ele>
        <time>2022-06-26T10:00:09.000Z</time>
      </trkpt>
      <trkpt lat="47.26309" lon="-2.31919">
        <ele>5.1999998092651</ele>
        <time>2022-06-26T10:00:10.000Z</time>
      </trkpt>
      <trkpt lat="47.26309" lon="-2.31913">
        <ele>5.1999998092651</ele>
        <time>2022-06-26T10:00:11.000Z</time>
      </trkpt>
      <trkpt lat="47.26306" lon="-2.31903">
        <ele>5.1999998092651</ele>
        <time>2022-06-26T10:00:13.000Z</time>
      </trkpt>
      <trkpt lat="47.26299" lon="-2.31902">
        <ele>5.1999998092651</ele>
        <time>2022-06-26T10:00:15.000Z</time>
      </trkpt>
      <trkpt lat="47.26293" lon="-2.31905">
        <ele>5.1999998092651</ele>
        <time>2022-06-26T10:00:17.000Z</time>
      </trkpt>
      <trkpt lat="47.26283" lon="-2.31913">
        <ele>5.1999998092651</ele>
        <time>2022-06-26T10:00:20.000Z</time>
      </trkpt>
      <trkpt lat="47.26263" lon="-2.31938">
        <ele>5.1999998092651</ele>
        <time>2022-06-26T10:00:25.000Z</time>
      </trkpt>
      <trkpt lat="47.26251" lon="-2.31958">
        <ele>5.1999998092651</ele>
        <time>2022-06-26T10:00:29.000Z</time>
      </trkpt>
      <trkpt lat="47.26247" lon="-2.3196">
        <ele>5.1999998092651</ele>
        <time>2022-06-26T10:00:30.000Z</time>
      </trkpt>
      <trkpt lat="47.26233" lon="-2.31972">
        <ele>5.1999998092651</ele>
        <time>2022-06-26T10:00:34.000Z</time>
      </trkpt>
      <trkpt lat="47.2623" lon="-2.31976">
        <ele>5.1999998092651</ele>
        <time>2022-06-26T10:00:35.000Z</time>
      </trkpt>
      <trkpt lat="47.26217" lon="-2.3199">
        <ele>5.1999998092651</ele>
        <time>2022-06-26T10:00:40.000Z</time>
      </trkpt>
      <trkpt lat="47.26204" lon="-2.32005">
        <ele>5.1999998092651</ele>
        <time>2022-06-26T10:00:45.000Z</time>
      </trkpt>
      <trkpt lat="47.26202" lon="-2.32015">
        <ele>5.1999998092651</ele>
        <time>2022-06-26T10:00:48.000Z</time>
      </trkpt>
      <trkpt lat="47.26198" lon="-2.32018">
        <ele>5.1999998092651</ele>
        <time>2022-06-26T10:00:50.000Z</time>
      </trkpt>
      <trkpt lat="47.26186" lon="-2.32016">
        <ele>5.1999998092651</ele>
        <time>2022-06-26T10:00:54.000Z</time>
      </trkpt>
      <trkpt lat="47.26176" lon="-2.32019">
        <ele>5.1999998092651</ele>
        <time>2022-06-26T10:00:57.000Z</time>
      </trkpt>
      <trkpt lat="47.26171" lon="-2.32022">
        <ele>5.1999998092651</ele>
        <time>2022-06-26T10:00:58.000Z</time>
      </trkpt>
      <trkpt lat="47.26167" lon="-2.32027">
        <ele>5.1999998092651</ele>
        <time>2022-06-26T10:00:59.000Z</time>
      </trkpt>
      <trkpt lat="47.26157" lon="-2.32047">
        <ele>5.1999998092651</ele>
        <time>2022-06-26T10:01:02.000Z</time>
      </trkpt>
      <trkpt lat="47.26154" lon="-2.32055">
        <ele>5.1999998092651</ele>
        <time>2022-06-26T10:01:03.000Z</time>
      </trkpt>
      <trkpt lat="47.2614" lon="-2.321">
        <ele>5.1999998092651</ele>
        <time>2022-06-26T10:01:09.000Z</time>
      </trkpt>
      <trkpt lat="47.26132" lon="-2.32125">
        <ele>5.1999998092651</ele>
        <time>2022-06-26T10:01:12.000Z</time>
      </trkpt>
      <trkpt lat="47.26127" lon="-2.32141">
        <ele>5.1999998092651</ele>
        <time>2022-06-26T10:01:14.000Z</time>
      </trkpt>
      <trkpt lat="47.26105" lon="-2.32193">
        <ele>5.1999998092651</ele>
        <time>2022-06-26T10:01:21.000Z</time>
      </trkpt>
      <trkpt lat="47.26098" lon="-2.32208">
        <ele>5.1999998092651</ele>
        <time>2022-06-26T10:01:23.000Z</time>
      </trkpt>
      <trkpt lat="47.26085" lon="-2.32227">
        <ele>5.1999998092651</ele>
        <time>2022-06-26T10:01:26.000Z</time>
      </trkpt>
      <trkpt lat="47.26057" lon="-2.3226">
        <ele>5.1999998092651</ele>
        <time>2022-06-26T10:01:32.000Z</time>
      </trkpt>
      <trkpt lat="47.26023" lon="-2.32298">
        <ele>5.1999998092651</ele>
        <time>2022-06-26T10:01:39.000Z</time>
      </trkpt>
      <trkpt lat="47.25991" lon="-2.32337">
        <ele>5.1999998092651</ele>
        <time>2022-06-26T10:01:46.000Z</time>
      </trkpt>
      <trkpt lat="47.2596" lon="-2.32381">
        <ele>5.1999998092651</ele>
        <time>2022-06-26T10:01:53.000Z</time>
      </trkpt>
      <trkpt lat="47.25925" lon="-2.32425">
        <ele>5.1999998092651</ele>
        <time>2022-06-26T10:02:01.000Z</time>
      </trkpt>
      <trkpt lat="47.25905" lon="-2.3245">
        <ele>5.1999998092651</ele>
        <time>2022-06-26T10:02:07.000Z</time>
      </trkpt>
      <trkpt lat="47.25892" lon="-2.32459">
        <ele>5.1999998092651</ele>
        <time>2022-06-26T10:02:12.000Z</time>
      </trkpt>
      <trkpt lat="47.25879" lon="-2.32466">
        <ele>5.1999998092651</ele>
        <time>2022-06-26T10:02:17.000Z</time>
      </trkpt>
      <trkpt lat="47.25859" lon="-2.32468">
        <ele>5.1999998092651</ele>
        <time>2022-06-26T10:02:22.000Z</time>
      </trkpt>
      <trkpt lat="47.25835" lon="-2.32464">
        <ele>5.1999998092651</ele>
        <time>2022-06-26T10:02:28.000Z</time>
      </trkpt>
      <trkpt lat="47.25813" lon="-2.32458">
        <ele>5.1999998092651</ele>
        <time>2022-06-26T10:02:34.000Z</time>
      </trkpt>
      <trkpt lat="47.258" lon="-2.32452">
        <ele>5.1999998092651</ele>
        <time>2022-06-26T10:02:39.000Z</time>
      </trkpt>
      <trkpt lat="47.25792" lon="-2.3246">
        <ele>5.1999998092651</ele>
        <time>2022-06-26T10:02:44.000Z</time>
      </trkpt>
      <trkpt lat="47.25786" lon="-2.32463">
        <ele>5.1999998092651</ele>
        <time>2022-06-26T10:02:47.000Z</time>
      </trkpt>
      <trkpt lat="47.25783" lon="-2.32458">
        <ele>5.1999998092651</ele>
        <time>2022-06-26T10:02:49.000Z</time>
      </trkpt>
      <trkpt lat="47.25779" lon="-2.3245">
        <ele>5.1999998092651</ele>
        <time>2022-06-26T10:02:51.000Z</time>
      </trkpt>
      <trkpt lat="47.2577" lon="-2.32433">
        <ele>5.1999998092651</ele>
        <time>2022-06-26T10:02:55.000Z</time>
      </trkpt>
      <trkpt lat="47.25758" lon="-2.32426">
        <ele>5.1999998092651</ele>
        <time>2022-06-26T10:02:58.000Z</time>
      </trkpt>
      <trkpt lat="47.25753" lon="-2.32426">
        <ele>5.1999998092651</ele>
        <time>2022-06-26T10:02:59.000Z</time>
      </trkpt>
      <trkpt lat="47.25719" lon="-2.32425">
        <ele>5.1999998092651</ele>
        <time>2022-06-26T10:03:05.000Z</time>
      </trkpt>
      <trkpt lat="47.25683" lon="-2.32423">
        <ele>5.1999998092651</ele>
        <time>2022-06-26T10:03:12.000Z</time>
      </trkpt>
      <trkpt lat="47.25669" lon="-2.32421">
        <ele>5.1999998092651</ele>
        <time>2022-06-26T10:03:15.000Z</time>
      </trkpt>
      <trkpt lat="47.25662" lon="-2.32426">
        <ele>5.1999998092651</ele>
        <time>2022-06-26T10:03:17.000Z</time>
      </trkpt>
      <trkpt lat="47.25661" lon="-2.32445">
        <ele>5.1999998092651</ele>
        <time>2022-06-26T10:03:20.000Z</time>
      </trkpt>
      <trkpt lat="47.25665" lon="-2.32458">
        <ele>5.1999998092651</ele>
        <time>2022-06-26T10:03:22.000Z</time>
      </trkpt>
      <trkpt lat="47.25667" lon="-2.32464">
        <ele>5.1999998092651</ele>
        <time>2022-06-26T10:03:23.000Z</time>
      </trkpt>
      <trkpt lat="47.25671" lon="-2.32476">
        <ele>5.1999998092651</ele>
        <time>2022-06-26T10:03:25.000Z</time>
      </trkpt>
      <trkpt lat="47.25675" lon="-2.32488">
        <ele>5.5999999046326</ele>
        <time>2022-06-26T10:03:27.000Z</time>
      </trkpt>
      <trkpt lat="47.25677" lon="-2.32494">
        <ele>6</ele>
        <time>2022-06-26T10:03:28.000Z</time>
      </trkpt>
      <trkpt lat="47.25679" lon="-2.325">
        <ele>6.5999999046326</ele>
        <time>2022-06-26T10:03:29.000Z</time>
      </trkpt>
      <trkpt lat="47.25681" lon="-2.32506">
        <ele>7</ele>
        <time>2022-06-26T10:03:30.000Z</time>
      </trkpt>
      <trkpt lat="47.25683" lon="-2.32512">
        <ele>7.4000000953674</ele>
        <time>2022-06-26T10:03:31.000Z</time>
      </trkpt>
      <trkpt lat="47.25686" lon="-2.32524">
        <ele>7.4000000953674</ele>
        <time>2022-06-26T10:03:33.000Z</time>
      </trkpt>
      <trkpt lat="47.25698" lon="-2.3256">
        <ele>7.4000000953674</ele>
        <time>2022-06-26T10:03:39.000Z</time>
      </trkpt>
      <trkpt lat="47.257" lon="-2.32565">
        <ele>7.8000001907349</ele>
        <time>2022-06-26T10:03:40.000Z</time>
      </trkpt>
      <trkpt lat="47.25702" lon="-2.32571">
        <ele>8.1999998092651</ele>
        <time>2022-06-26T10:03:41.000Z</time>
      </trkpt>
      <trkpt lat="47.25703" lon="-2.32576">
        <ele>8.6000003814697</ele>
        <time>2022-06-26T10:03:42.000Z</time>
      </trkpt>
      <trkpt lat="47.25705" lon="-2.32582">
        <ele>9</ele>
        <time>2022-06-26T10:03:43.000Z</time>
      </trkpt>
      <trkpt lat="47.25706" lon="-2.32588">
        <ele>9.3999996185303</ele>
        <time>2022-06-26T10:03:44.000Z</time>
      </trkpt>
      <trkpt lat="47.25709" lon="-2.32606">
        <ele>9.3999996185303</ele>
        <time>2022-06-26T10:03:47.000Z</time>
      </trkpt>
      <trkpt lat="47.25703" lon="-2.32623">
        <ele>9.3999996185303</ele>
        <time>2022-06-26T10:03:50.000Z</time>
      </trkpt>
      <trkpt lat="47.25695" lon="-2.32627">
        <ele>9.3999996185303</ele>
        <time>2022-06-26T10:03:52.000Z</time>
      </trkpt>
      <trkpt lat="47.25686" lon="-2.32631">
        <ele>9.3999996185303</ele>
        <time>2022-06-26T10:03:54.000Z</time>
      </trkpt>
      <trkpt lat="47.25677" lon="-2.32635">
        <ele>9.8000001907349</ele>
        <time>2022-06-26T10:03:56.000Z</time>
      </trkpt>
      <trkpt lat="47.25673" lon="-2.32637">
        <ele>10.199999809265</ele>
        <time>2022-06-26T10:03:57.000Z</time>
      </trkpt>
      <trkpt lat="47.25669" lon="-2.3264">
        <ele>10.60000038147</ele>
        <time>2022-06-26T10:03:58.000Z</time>
      </trkpt>
      <trkpt lat="47.25664" lon="-2.32642">
        <ele>11</ele>
        <time>2022-06-26T10:03:59.000Z</time>
      </trkpt>
      <trkpt lat="47.2566" lon="-2.32644">
        <ele>11.39999961853</ele>
        <time>2022-06-26T10:04:00.000Z</time>
      </trkpt>
      <trkpt lat="47.25656" lon="-2.32646">
        <ele>11.39999961853</ele>
        <time>2022-06-26T10:04:01.000Z</time>
      </trkpt>
      <trkpt lat="47.25638" lon="-2.32653">
        <ele>11.39999961853</ele>
        <time>2022-06-26T10:04:05.000Z</time>
      </trkpt>
      <trkpt lat="47.25601" lon="-2.32667">
        <ele>12</ele>
        <time>2022-06-26T10:04:13.000Z</time>
      </trkpt>
      <trkpt lat="47.25597" lon="-2.32669">
        <ele>12.39999961853</ele>
        <time>2022-06-26T10:04:14.000Z</time>
      </trkpt>
      <trkpt lat="47.25594" lon="-2.3267">
        <ele>12.800000190735</ele>
        <time>2022-06-26T10:04:15.000Z</time>
      </trkpt>
      <trkpt lat="47.2559" lon="-2.32672">
        <ele>13.199999809265</ele>
        <time>2022-06-26T10:04:16.000Z</time>
      </trkpt>
      <trkpt lat="47.25586" lon="-2.32673">
        <ele>13.60000038147</ele>
        <time>2022-06-26T10:04:17.000Z</time>
      </trkpt>
      <trkpt lat="47.25577" lon="-2.32675">
        <ele>13.60000038147</ele>
        <time>2022-06-26T10:04:19.000Z</time>
      </trkpt>
      <trkpt lat="47.25551" lon="-2.32689">
        <ele>13.60000038147</ele>
        <time>2022-06-26T10:04:25.000Z</time>
      </trkpt>
      <trkpt lat="47.25532" lon="-2.32696">
        <ele>13.60000038147</ele>
        <time>2022-06-26T10:04:29.000Z</time>
      </trkpt>
      <trkpt lat="47.25521" lon="-2.32699">
        <ele>13.60000038147</ele>
        <time>2022-06-26T10:04:31.000Z</time>
      </trkpt>
      <trkpt lat="47.25485" lon="-2.32704">
        <ele>13.60000038147</ele>
        <time>2022-06-26T10:04:38.000Z</time>
      </trkpt>
      <trkpt lat="47.25468" lon="-2.32721">
        <ele>13.60000038147</ele>
        <time>2022-06-26T10:04:42.000Z</time>
      </trkpt>
      <trkpt lat="47.25442" lon="-2.32759">
        <ele>13.60000038147</ele>
        <time>2022-06-26T10:04:49.000Z</time>
      </trkpt>
      <trkpt lat="47.25434" lon="-2.32778">
        <ele>13.60000038147</ele>
        <time>2022-06-26T10:04:53.000Z</time>
      </trkpt>
      <trkpt lat="47.25431" lon="-2.32783">
        <ele>13.60000038147</ele>
        <time>2022-06-26T10:04:54.000Z</time>
      </trkpt>
      <trkpt lat="47.25421" lon="-2.32799">
        <ele>13.60000038147</ele>
        <time>2022-06-26T10:04:57.000Z</time>
      </trkpt>
      <trkpt lat="47.25395" lon="-2.32834">
        <ele>13.60000038147</ele>
        <time>2022-06-26T10:05:03.000Z</time>
      </trkpt>
      <trkpt lat="47.2539" lon="-2.3284">
        <ele>13.199999809265</ele>
        <time>2022-06-26T10:05:04.000Z</time>
      </trkpt>
      <trkpt lat="47.25385" lon="-2.32845">
        <ele>12.800000190735</ele>
        <time>2022-06-26T10:05:05.000Z</time>
      </trkpt>
      <trkpt lat="47.2538" lon="-2.32851">
        <ele>12.39999961853</ele>
        <time>2022-06-26T10:05:06.000Z</time>
      </trkpt>
      <trkpt lat="47.25376" lon="-2.32856">
        <ele>11.800000190735</ele>
        <time>2022-06-26T10:05:07.000Z</time>
      </trkpt>
      <trkpt lat="47.25371" lon="-2.32861">
        <ele>11.39999961853</ele>
        <time>2022-06-26T10:05:08.000Z</time>
      </trkpt>
      <trkpt lat="47.25361" lon="-2.32871">
        <ele>11.39999961853</ele>
        <time>2022-06-26T10:05:10.000Z</time>
      </trkpt>
      <trkpt lat="47.25323" lon="-2.32908">
        <ele>11.39999961853</ele>
        <time>2022-06-26T10:05:18.000Z</time>
      </trkpt>
      <trkpt lat="47.25319" lon="-2.32912">
        <ele>11.39999961853</ele>
        <time>2022-06-26T10:05:19.000Z</time>
      </trkpt>
      <trkpt lat="47.25308" lon="-2.3293">
        <ele>11.39999961853</ele>
        <time>2022-06-26T10:05:22.000Z</time>
      </trkpt>
      <trkpt lat="47.25311" lon="-2.32953">
        <ele>11.39999961853</ele>
        <time>2022-06-26T10:05:25.000Z</time>
      </trkpt>
      <trkpt lat="47.25315" lon="-2.32967">
        <ele>11.39999961853</ele>
        <time>2022-06-26T10:05:27.000Z</time>
      </trkpt>
      <trkpt lat="47.25329" lon="-2.33004">
        <ele>11.39999961853</ele>
        <time>2022-06-26T10:05:32.000Z</time>
      </trkpt>
      <trkpt lat="47.25349" lon="-2.33053">
        <ele>11.39999961853</ele>
        <time>2022-06-26T10:05:39.000Z</time>
      </trkpt>
      <trkpt lat="47.25354" lon="-2.33067">
        <ele>11.39999961853</ele>
        <time>2022-06-26T10:05:41.000Z</time>
      </trkpt>
      <trkpt lat="47.25364" lon="-2.33086">
        <ele>11.39999961853</ele>
        <time>2022-06-26T10:05:44.000Z</time>
      </trkpt>
      <trkpt lat="47.25367" lon="-2.33093">
        <ele>11.39999961853</ele>
        <time>2022-06-26T10:05:45.000Z</time>
      </trkpt>
      <trkpt lat="47.2537" lon="-2.33106">
        <ele>11.39999961853</ele>
        <time>2022-06-26T10:05:48.000Z</time>
      </trkpt>
      <trkpt lat="47.2537" lon="-2.3311">
        <ele>11</ele>
        <time>2022-06-26T10:05:49.000Z</time>
      </trkpt>
      <trkpt lat="47.25371" lon="-2.33113">
        <ele>10.60000038147</ele>
        <time>2022-06-26T10:05:50.000Z</time>
      </trkpt>
      <trkpt lat="47.25371" lon="-2.33113">
        <ele>10.199999809265</ele>
        <time>2022-06-26T10:05:51.000Z</time>
      </trkpt>
      <trkpt lat="47.25372" lon="-2.33116">
        <ele>9.3999996185303</ele>
        <time>2022-06-26T10:05:58.000Z</time>
      </trkpt>
      <trkpt lat="47.25374" lon="-2.33121">
        <ele>9.3999996185303</ele>
        <time>2022-06-26T10:06:00.000Z</time>
      </trkpt>
      <trkpt lat="47.25377" lon="-2.3313">
        <ele>9.3999996185303</ele>
        <time>2022-06-26T10:06:03.000Z</time>
      </trkpt>
      <trkpt lat="47.25377" lon="-2.3314">
        <ele>9.3999996185303</ele>
        <time>2022-06-26T10:06:07.000Z</time>
      </trkpt>
      <trkpt lat="47.25375" lon="-2.33141">
        <ele>9.3999996185303</ele>
        <time>2022-06-26T10:06:08.000Z</time>
      </trkpt>
      <trkpt lat="47.25372" lon="-2.33136">
        <ele>9.3999996185303</ele>
        <time>2022-06-26T10:06:11.000Z</time>
      </trkpt>
      <trkpt lat="47.25373" lon="-2.33131">
        <ele>9.3999996185303</ele>
        <time>2022-06-26T10:06:13.000Z</time>
      </trkpt>
      <trkpt lat="47.25374" lon="-2.33125">
        <ele>9.3999996185303</ele>
        <time>2022-06-26T10:06:15.000Z</time>
      </trkpt>
      <trkpt lat="47.25374" lon="-2.33118">
        <ele>9.3999996185303</ele>
        <time>2022-06-26T10:06:17.000Z</time>
      </trkpt>
      <trkpt lat="47.25373" lon="-2.33107">
        <ele>9.3999996185303</ele>
        <time>2022-06-26T10:06:20.000Z</time>
      </trkpt>
      <trkpt lat="47.25368" lon="-2.33096">
        <ele>9.3999996185303</ele>
        <time>2022-06-26T10:06:26.000Z</time>
      </trkpt>
      <trkpt lat="47.25368" lon="-2.33095">
        <ele>9.3999996185303</ele>
        <time>2022-06-26T10:06:27.000Z</time>
      </trkpt>
      <trkpt lat="47.25366" lon="-2.33088">
        <ele>9.3999996185303</ele>
        <time>2022-06-26T10:26:49.000Z</time>
      </trkpt>
      <trkpt lat="47.25364" lon="-2.33083">
        <ele>9.3999996185303</ele>
        <time>2022-06-26T10:26:51.000Z</time>
      </trkpt>
      <trkpt lat="47.25356" lon="-2.33068">
        <ele>9.3999996185303</ele>
        <time>2022-06-26T10:26:56.000Z</time>
      </trkpt>
      <trkpt lat="47.25346" lon="-2.33041">
        <ele>9.3999996185303</ele>
        <time>2022-06-26T10:27:02.000Z</time>
      </trkpt>
      <trkpt lat="47.2533" lon="-2.33002">
        <ele>9.3999996185303</ele>
        <time>2022-06-26T10:27:10.000Z</time>
      </trkpt>
      <trkpt lat="47.25319" lon="-2.32972">
        <ele>9.3999996185303</ele>
        <time>2022-06-26T10:27:17.000Z</time>
      </trkpt>
      <trkpt lat="47.25308" lon="-2.32944">
        <ele>9.3999996185303</ele>
        <time>2022-06-26T10:27:24.000Z</time>
      </trkpt>
      <trkpt lat="47.25303" lon="-2.32931">
        <ele>9.3999996185303</ele>
        <time>2022-06-26T10:27:28.000Z</time>
      </trkpt>
      <trkpt lat="47.25303" lon="-2.32928">
        <ele>9.3999996185303</ele>
        <time>2022-06-26T10:27:29.000Z</time>
      </trkpt>
      <trkpt lat="47.25315" lon="-2.32913">
        <ele>9.3999996185303</ele>
        <time>2022-06-26T10:27:33.000Z</time>
      </trkpt>
      <trkpt lat="47.25319" lon="-2.32908">
        <ele>9.3999996185303</ele>
        <time>2022-06-26T10:27:34.000Z</time>
      </trkpt>
      <trkpt lat="47.25322" lon="-2.32904">
        <ele>9.3999996185303</ele>
        <time>2022-06-26T10:27:35.000Z</time>
      </trkpt>
      <trkpt lat="47.25337" lon="-2.32889">
        <ele>9.3999996185303</ele>
        <time>2022-06-26T10:27:39.000Z</time>
      </trkpt>
      <trkpt lat="47.25367" lon="-2.32859">
        <ele>9.3999996185303</ele>
        <time>2022-06-26T10:27:47.000Z</time>
      </trkpt>
      <trkpt lat="47.25399" lon="-2.32823">
        <ele>9.3999996185303</ele>
        <time>2022-06-26T10:27:56.000Z</time>
      </trkpt>
      <trkpt lat="47.25421" lon="-2.32791">
        <ele>9.3999996185303</ele>
        <time>2022-06-26T10:28:04.000Z</time>
      </trkpt>
      <trkpt lat="47.25425" lon="-2.32785">
        <ele>9.3999996185303</ele>
        <time>2022-06-26T10:28:08.000Z</time>
      </trkpt>
      <trkpt lat="47.25429" lon="-2.32771">
        <ele>9.3999996185303</ele>
        <time>2022-06-26T10:28:13.000Z</time>
      </trkpt>
      <trkpt lat="47.25434" lon="-2.32765">
        <ele>9.8000001907349</ele>
        <time>2022-06-26T10:28:15.000Z</time>
      </trkpt>
      <trkpt lat="47.25437" lon="-2.32761">
        <ele>10.199999809265</ele>
        <time>2022-06-26T10:28:16.000Z</time>
      </trkpt>
      <trkpt lat="47.2544" lon="-2.32757">
        <ele>10.60000038147</ele>
        <time>2022-06-26T10:28:17.000Z</time>
      </trkpt>
      <trkpt lat="47.25444" lon="-2.32752">
        <ele>11</ele>
        <time>2022-06-26T10:28:18.000Z</time>
      </trkpt>
      <trkpt lat="47.25447" lon="-2.32748">
        <ele>11.39999961853</ele>
        <time>2022-06-26T10:28:19.000Z</time>
      </trkpt>
      <trkpt lat="47.25453" lon="-2.32738">
        <ele>11.39999961853</ele>
        <time>2022-06-26T10:28:21.000Z</time>
      </trkpt>
      <trkpt lat="47.25456" lon="-2.32734">
        <ele>11.39999961853</ele>
        <time>2022-06-26T10:28:22.000Z</time>
      </trkpt>
      <trkpt lat="47.25463" lon="-2.32725">
        <ele>11.39999961853</ele>
        <time>2022-06-26T10:28:24.000Z</time>
      </trkpt>
      <trkpt lat="47.25477" lon="-2.32708">
        <ele>11.39999961853</ele>
        <time>2022-06-26T10:28:28.000Z</time>
      </trkpt>
      <trkpt lat="47.25483" lon="-2.32697">
        <ele>11.39999961853</ele>
        <time>2022-06-26T10:28:30.000Z</time>
      </trkpt>
      <trkpt lat="47.25488" lon="-2.32671">
        <ele>11.39999961853</ele>
        <time>2022-06-26T10:28:34.000Z</time>
      </trkpt>
      <trkpt lat="47.25489" lon="-2.32664">
        <ele>11.39999961853</ele>
        <time>2022-06-26T10:28:35.000Z</time>
      </trkpt>
      <trkpt lat="47.25485" lon="-2.32637">
        <ele>11.39999961853</ele>
        <time>2022-06-26T10:28:39.000Z</time>
      </trkpt>
      <trkpt lat="47.25475" lon="-2.32578">
        <ele>11.39999961853</ele>
        <time>2022-06-26T10:28:48.000Z</time>
      </trkpt>
      <trkpt lat="47.25475" lon="-2.32572">
        <ele>11.39999961853</ele>
        <time>2022-06-26T10:28:49.000Z</time>
      </trkpt>
      <trkpt lat="47.25482" lon="-2.32556">
        <ele>11.39999961853</ele>
        <time>2022-06-26T10:28:52.000Z</time>
      </trkpt>
      <trkpt lat="47.25489" lon="-2.32548">
        <ele>11.39999961853</ele>
        <time>2022-06-26T10:28:54.000Z</time>
      </trkpt>
      <trkpt lat="47.25503" lon="-2.32536">
        <ele>11.39999961853</ele>
        <time>2022-06-26T10:28:57.000Z</time>
      </trkpt>
      <trkpt lat="47.25538" lon="-2.32503">
        <ele>11.39999961853</ele>
        <time>2022-06-26T10:29:04.000Z</time>
      </trkpt>
      <trkpt lat="47.25555" lon="-2.32491">
        <ele>11.39999961853</ele>
        <time>2022-06-26T10:29:07.000Z</time>
      </trkpt>
      <trkpt lat="47.25567" lon="-2.32481">
        <ele>11.39999961853</ele>
        <time>2022-06-26T10:29:09.000Z</time>
      </trkpt>
      <trkpt lat="47.25578" lon="-2.32468">
        <ele>11</ele>
        <time>2022-06-26T10:29:11.000Z</time>
      </trkpt>
      <trkpt lat="47.25584" lon="-2.3246">
        <ele>10.60000038147</ele>
        <time>2022-06-26T10:29:12.000Z</time>
      </trkpt>
      <trkpt lat="47.2559" lon="-2.32454">
        <ele>10</ele>
        <time>2022-06-26T10:29:13.000Z</time>
      </trkpt>
      <trkpt lat="47.25596" lon="-2.32447">
        <ele>9.6000003814697</ele>
        <time>2022-06-26T10:29:14.000Z</time>
      </trkpt>
      <trkpt lat="47.25603" lon="-2.32441">
        <ele>9.1999998092651</ele>
        <time>2022-06-26T10:29:15.000Z</time>
      </trkpt>
      <trkpt lat="47.25622" lon="-2.3242">
        <ele>8.8000001907349</ele>
        <time>2022-06-26T10:29:18.000Z</time>
      </trkpt>
      <trkpt lat="47.25628" lon="-2.32413">
        <ele>8.3999996185303</ele>
        <time>2022-06-26T10:29:19.000Z</time>
      </trkpt>
      <trkpt lat="47.25634" lon="-2.32408">
        <ele>7.8000001907349</ele>
        <time>2022-06-26T10:29:20.000Z</time>
      </trkpt>
      <trkpt lat="47.25641" lon="-2.32404">
        <ele>7.4000000953674</ele>
        <time>2022-06-26T10:29:21.000Z</time>
      </trkpt>
      <trkpt lat="47.25647" lon="-2.32402">
        <ele>7</ele>
        <time>2022-06-26T10:29:22.000Z</time>
      </trkpt>
      <trkpt lat="47.25664" lon="-2.32402">
        <ele>7</ele>
        <time>2022-06-26T10:29:25.000Z</time>
      </trkpt>
      <trkpt lat="47.25669" lon="-2.32405">
        <ele>7</ele>
        <time>2022-06-26T10:29:26.000Z</time>
      </trkpt>
      <trkpt lat="47.25679" lon="-2.32414">
        <ele>7</ele>
        <time>2022-06-26T10:29:28.000Z</time>
      </trkpt>
      <trkpt lat="47.25696" lon="-2.32418">
        <ele>7</ele>
        <time>2022-06-26T10:29:31.000Z</time>
      </trkpt>
      <trkpt lat="47.25732" lon="-2.3242">
        <ele>6.5999999046326</ele>
        <time>2022-06-26T10:29:37.000Z</time>
      </trkpt>
      <trkpt lat="47.25738" lon="-2.32421">
        <ele>6.1999998092651</ele>
        <time>2022-06-26T10:29:38.000Z</time>
      </trkpt>
      <trkpt lat="47.25743" lon="-2.32421">
        <ele>5.8000001907349</ele>
        <time>2022-06-26T10:29:39.000Z</time>
      </trkpt>
      <trkpt lat="47.25749" lon="-2.32422">
        <ele>5.1999998092651</ele>
        <time>2022-06-26T10:29:40.000Z</time>
      </trkpt>
      <trkpt lat="47.25754" lon="-2.32421">
        <ele>4.8000001907349</ele>
        <time>2022-06-26T10:29:41.000Z</time>
      </trkpt>
      <trkpt lat="47.25768" lon="-2.32417">
        <ele>4.8000001907349</ele>
        <time>2022-06-26T10:29:44.000Z</time>
      </trkpt>
      <trkpt lat="47.25783" lon="-2.32417">
        <ele>4.8000001907349</ele>
        <time>2022-06-26T10:29:48.000Z</time>
      </trkpt>
      <trkpt lat="47.25796" lon="-2.32439">
        <ele>4.8000001907349</ele>
        <time>2022-06-26T10:29:52.000Z</time>
      </trkpt>
      <trkpt lat="47.258" lon="-2.32445">
        <ele>4.8000001907349</ele>
        <time>2022-06-26T10:29:53.000Z</time>
      </trkpt>
      <trkpt lat="47.25813" lon="-2.32457">
        <ele>4.8000001907349</ele>
        <time>2022-06-26T10:29:56.000Z</time>
      </trkpt>
      <trkpt lat="47.25845" lon="-2.32473">
        <ele>4.8000001907349</ele>
        <time>2022-06-26T10:30:02.000Z</time>
      </trkpt>
      <trkpt lat="47.25851" lon="-2.32475">
        <ele>4.8000001907349</ele>
        <time>2022-06-26T10:30:03.000Z</time>
      </trkpt>
      <trkpt lat="47.25866" lon="-2.32475">
        <ele>4.8000001907349</ele>
        <time>2022-06-26T10:30:06.000Z</time>
      </trkpt>
      <trkpt lat="47.25881" lon="-2.32473">
        <ele>4.8000001907349</ele>
        <time>2022-06-26T10:30:09.000Z</time>
      </trkpt>
      <trkpt lat="47.25886" lon="-2.32471">
        <ele>4.8000001907349</ele>
        <time>2022-06-26T10:30:10.000Z</time>
      </trkpt>
      <trkpt lat="47.25901" lon="-2.32458">
        <ele>4.8000001907349</ele>
        <time>2022-06-26T10:30:13.000Z</time>
      </trkpt>
      <trkpt lat="47.2591" lon="-2.32446">
        <ele>4.8000001907349</ele>
        <time>2022-06-26T10:30:15.000Z</time>
      </trkpt>
      <trkpt lat="47.25931" lon="-2.32419">
        <ele>4.8000001907349</ele>
        <time>2022-06-26T10:30:20.000Z</time>
      </trkpt>
      <trkpt lat="47.25965" lon="-2.32376">
        <ele>4.8000001907349</ele>
        <time>2022-06-26T10:30:28.000Z</time>
      </trkpt>
      <trkpt lat="47.25989" lon="-2.32343">
        <ele>4.8000001907349</ele>
        <time>2022-06-26T10:30:34.000Z</time>
      </trkpt>
      <trkpt lat="47.26016" lon="-2.32308">
        <ele>4.8000001907349</ele>
        <time>2022-06-26T10:30:41.000Z</time>
      </trkpt>
      <trkpt lat="47.26027" lon="-2.32294">
        <ele>4.8000001907349</ele>
        <time>2022-06-26T10:30:44.000Z</time>
      </trkpt>
      <trkpt lat="47.2604" lon="-2.32279">
        <ele>4.8000001907349</ele>
        <time>2022-06-26T10:30:47.000Z</time>
      </trkpt>
      <trkpt lat="47.26061" lon="-2.32256">
        <ele>4.8000001907349</ele>
        <time>2022-06-26T10:30:52.000Z</time>
      </trkpt>
      <trkpt lat="47.26065" lon="-2.32251">
        <ele>4.8000001907349</ele>
        <time>2022-06-26T10:30:53.000Z</time>
      </trkpt>
      <trkpt lat="47.26094" lon="-2.32215">
        <ele>4.8000001907349</ele>
        <time>2022-06-26T10:31:00.000Z</time>
      </trkpt>
      <trkpt lat="47.26098" lon="-2.32209">
        <ele>4.8000001907349</ele>
        <time>2022-06-26T10:31:01.000Z</time>
      </trkpt>
      <trkpt lat="47.26109" lon="-2.32184">
        <ele>4.8000001907349</ele>
        <time>2022-06-26T10:31:05.000Z</time>
      </trkpt>
      <trkpt lat="47.26117" lon="-2.32167">
        <ele>4.8000001907349</ele>
        <time>2022-06-26T10:31:09.000Z</time>
      </trkpt>
      <trkpt lat="47.26125" lon="-2.32141">
        <ele>4.8000001907349</ele>
        <time>2022-06-26T10:31:14.000Z</time>
      </trkpt>
      <trkpt lat="47.26127" lon="-2.32134">
        <ele>4.8000001907349</ele>
        <time>2022-06-26T10:31:15.000Z</time>
      </trkpt>
      <trkpt lat="47.26137" lon="-2.32101">
        <ele>4.8000001907349</ele>
        <time>2022-06-26T10:31:20.000Z</time>
      </trkpt>
      <trkpt lat="47.26152" lon="-2.32051">
        <ele>4.8000001907349</ele>
        <time>2022-06-26T10:31:27.000Z</time>
      </trkpt>
      <trkpt lat="47.26162" lon="-2.32025">
        <ele>4.8000001907349</ele>
        <time>2022-06-26T10:31:31.000Z</time>
      </trkpt>
      <trkpt lat="47.26168" lon="-2.32018">
        <ele>4.8000001907349</ele>
        <time>2022-06-26T10:31:33.000Z</time>
      </trkpt>
      <trkpt lat="47.26181" lon="-2.3202">
        <ele>4.8000001907349</ele>
        <time>2022-06-26T10:31:36.000Z</time>
      </trkpt>
      <trkpt lat="47.26187" lon="-2.32023">
        <ele>4.8000001907349</ele>
        <time>2022-06-26T10:31:38.000Z</time>
      </trkpt>
      <trkpt lat="47.26191" lon="-2.32024">
        <ele>4.8000001907349</ele>
        <time>2022-06-26T10:31:40.000Z</time>
      </trkpt>
      <trkpt lat="47.26197" lon="-2.32022">
        <ele>4.8000001907349</ele>
        <time>2022-06-26T10:31:43.000Z</time>
      </trkpt>
      <trkpt lat="47.26198" lon="-2.32016">
        <ele>4.8000001907349</ele>
        <time>2022-06-26T10:31:45.000Z</time>
      </trkpt>
      <trkpt lat="47.26203" lon="-2.32005">
        <ele>4.8000001907349</ele>
        <time>2022-06-26T10:31:49.000Z</time>
      </trkpt>
      <trkpt lat="47.26208" lon="-2.31999">
        <ele>4.8000001907349</ele>
        <time>2022-06-26T10:31:51.000Z</time>
      </trkpt>
      <trkpt lat="47.26217" lon="-2.31989">
        <ele>4.8000001907349</ele>
        <time>2022-06-26T10:31:54.000Z</time>
      </trkpt>
      <trkpt lat="47.26224" lon="-2.31984">
        <ele>4.8000001907349</ele>
        <time>2022-06-26T10:31:56.000Z</time>
      </trkpt>
      <trkpt lat="47.26232" lon="-2.3198">
        <ele>4.8000001907349</ele>
        <time>2022-06-26T10:31:58.000Z</time>
      </trkpt>
      <trkpt lat="47.26239" lon="-2.31965">
        <ele>4.8000001907349</ele>
        <time>2022-06-26T10:32:02.000Z</time>
      </trkpt>
      <trkpt lat="47.26255" lon="-2.31935">
        <ele>4.8000001907349</ele>
        <time>2022-06-26T10:32:08.000Z</time>
      </trkpt>
      <trkpt lat="47.26275" lon="-2.31907">
        <ele>4.8000001907349</ele>
        <time>2022-06-26T10:32:14.000Z</time>
      </trkpt>
      <trkpt lat="47.26288" lon="-2.31892">
        <ele>4.8000001907349</ele>
        <time>2022-06-26T10:32:18.000Z</time>
      </trkpt>
      <trkpt lat="47.2629" lon="-2.31886">
        <ele>4.8000001907349</ele>
        <time>2022-06-26T10:32:19.000Z</time>
      </trkpt>
      <trkpt lat="47.26293" lon="-2.31849">
        <ele>4.8000001907349</ele>
        <time>2022-06-26T10:32:25.000Z</time>
      </trkpt>
      <trkpt lat="47.26298" lon="-2.31815">
        <ele>4.8000001907349</ele>
        <time>2022-06-26T10:32:30.000Z</time>
      </trkpt>
      <trkpt lat="47.263" lon="-2.31808">
        <ele>4.8000001907349</ele>
        <time>2022-06-26T10:32:31.000Z</time>
      </trkpt>
      <trkpt lat="47.26303" lon="-2.31768">
        <ele>4.8000001907349</ele>
        <time>2022-06-26T10:32:37.000Z</time>
      </trkpt>
      <trkpt lat="47.26301" lon="-2.31725">
        <ele>4.8000001907349</ele>
        <time>2022-06-26T10:32:43.000Z</time>
      </trkpt>
      <trkpt lat="47.26303" lon="-2.31719">
        <ele>4.8000001907349</ele>
        <time>2022-06-26T10:32:44.000Z</time>
      </trkpt>
      <trkpt lat="47.26316" lon="-2.31708">
        <ele>4.8000001907349</ele>
        <time>2022-06-26T10:32:48.000Z</time>
      </trkpt>
      <trkpt lat="47.26331" lon="-2.317">
        <ele>4.8000001907349</ele>
        <time>2022-06-26T10:32:53.000Z</time>
      </trkpt>
      <trkpt lat="47.26339" lon="-2.31687">
        <ele>4.8000001907349</ele>
        <time>2022-06-26T10:32:57.000Z</time>
      </trkpt>
      <trkpt lat="47.2635" lon="-2.31681">
        <ele>5.1999998092651</ele>
        <time>2022-06-26T10:33:01.000Z</time>
      </trkpt>
      <trkpt lat="47.26353" lon="-2.31679">
        <ele>5.8000001907349</ele>
        <time>2022-06-26T10:33:02.000Z</time>
      </trkpt>
      <trkpt lat="47.26356" lon="-2.31678">
        <ele>6.1999998092651</ele>
        <time>2022-06-26T10:33:03.000Z</time>
      </trkpt>
      <trkpt lat="47.26359" lon="-2.31677">
        <ele>6.5999999046326</ele>
        <time>2022-06-26T10:33:04.000Z</time>
      </trkpt>
      <trkpt lat="47.26361" lon="-2.31676">
        <ele>7</ele>
        <time>2022-06-26T10:33:05.000Z</time>
      </trkpt>
      <trkpt lat="47.26377" lon="-2.31668">
        <ele>7</ele>
        <time>2022-06-26T10:33:10.000Z</time>
      </trkpt>
      <trkpt lat="47.26392" lon="-2.31661">
        <ele>7</ele>
        <time>2022-06-26T10:33:15.000Z</time>
      </trkpt>
      <trkpt lat="47.26409" lon="-2.3165">
        <ele>7</ele>
        <time>2022-06-26T10:33:21.000Z</time>
      </trkpt>
      <trkpt lat="47.2641" lon="-2.31646">
        <ele>7</ele>
        <time>2022-06-26T10:33:22.000Z</time>
      </trkpt>
      <trkpt lat="47.2641" lon="-2.31638">
        <ele>7</ele>
        <time>2022-06-26T10:33:24.000Z</time>
      </trkpt>
      <trkpt lat="47.2641" lon="-2.31614">
        <ele>7.5999999046326</ele>
        <time>2022-06-26T10:33:29.000Z</time>
      </trkpt>
      <trkpt lat="47.2641" lon="-2.3161">
        <ele>8</ele>
        <time>2022-06-26T10:33:30.000Z</time>
      </trkpt>
      <trkpt lat="47.2641" lon="-2.31606">
        <ele>8.3999996185303</ele>
        <time>2022-06-26T10:33:31.000Z</time>
      </trkpt>
      <trkpt lat="47.2641" lon="-2.31602">
        <ele>8.8000001907349</ele>
        <time>2022-06-26T10:33:32.000Z</time>
      </trkpt>
      <trkpt lat="47.2641" lon="-2.31597">
        <ele>9.1999998092651</ele>
        <time>2022-06-26T10:33:33.000Z</time>
      </trkpt>
      <trkpt lat="47.2641" lon="-2.31579">
        <ele>9.1999998092651</ele>
        <time>2022-06-26T10:33:37.000Z</time>
      </trkpt>
      <trkpt lat="47.26411" lon="-2.31554">
        <ele>9.1999998092651</ele>
        <time>2022-06-26T10:33:44.000Z</time>
      </trkpt>
      <trkpt lat="47.26416" lon="-2.31553">
        <ele>9.1999998092651</ele>
        <time>2022-06-26T10:33:48.000Z</time>
      </trkpt>
    </trkseg>
  </trk>
</gpx>